<?xml version="1.0" encoding="UTF-8" standalone="no" ?>
<gpx xmlns="http://www.topografix.com/GPX/1/1" xmlns:xsi="http://www.w3.org/2001/XMLSchema-instance" xsi:schemaLocation="http://www.topografix.com/GPX/1/1 http://www.topografix.com/GPX/1/1/gpx.xsd" version="1.1" creator="VisuGPX - https://www.visugpx.com">
  <metadata>
    <name>Etape 1 TDF 2021</name>
  </metadata>
  <trk>
    <name><![CDATA[Etape 1 TDF 2021]]></name>
    <trkseg>
      <trkpt lat="48.01161" lon="-4.19663">
        <ele>151.63869998755</ele>
        <time>2021-06-29T20:07:59.000Z</time>
      </trkpt>
      <trkpt lat="48.0116" lon="-4.19653">
        <ele>151.60058318621</ele>
        <time>2021-06-29T20:07:59.001Z</time>
      </trkpt>
      <trkpt lat="48.01139" lon="-4.19598">
        <ele>151.53665042211</ele>
        <time>2021-06-29T20:07:59.009Z</time>
      </trkpt>
      <trkpt lat="48.01127" lon="-4.19559">
        <ele>151.43601032728</ele>
        <time>2021-06-29T20:07:59.022Z</time>
      </trkpt>
      <trkpt lat="48.01114" lon="-4.19503">
        <ele>151.26480235389</ele>
        <time>2021-06-29T20:07:59.041Z</time>
      </trkpt>
      <trkpt lat="48.0111" lon="-4.19473">
        <ele>151.12563348253</ele>
        <time>2021-06-29T20:07:59.063Z</time>
      </trkpt>
      <trkpt lat="48.01097" lon="-4.19404">
        <ele>151.10100026064</ele>
        <time>2021-06-29T20:07:59.093Z</time>
      </trkpt>
      <trkpt lat="48.01064" lon="-4.19182">
        <ele>151.13841190993</ele>
        <time>2021-06-29T20:07:59.147Z</time>
      </trkpt>
      <trkpt lat="48.01061" lon="-4.19161">
        <ele>151.03091014653</ele>
        <time>2021-06-29T20:07:59.204Z</time>
      </trkpt>
      <trkpt lat="48.01062" lon="-4.19161">
        <ele>150.8468252025</ele>
        <time>2021-06-29T20:07:59.261Z</time>
      </trkpt>
      <trkpt lat="48.01022" lon="-4.18911">
        <ele>150.00640489195</ele>
        <time>2021-06-29T20:07:59.345Z</time>
      </trkpt>
      <trkpt lat="48.01012" lon="-4.188">
        <ele>148.99986957364</ele>
        <time>2021-06-29T20:07:59.441Z</time>
      </trkpt>
      <trkpt lat="48.00998" lon="-4.18617">
        <ele>147.32667076149</ele>
        <time>2021-06-29T20:07:59.557Z</time>
      </trkpt>
      <trkpt lat="48.00978" lon="-4.18464">
        <ele>145.30514044058</ele>
        <time>2021-06-29T20:07:59.690Z</time>
      </trkpt>
      <trkpt lat="48.00972" lon="-4.18424">
        <ele>143.10941520062</ele>
        <time>2021-06-29T20:07:59.827Z</time>
      </trkpt>
      <trkpt lat="48.00944" lon="-4.18285">
        <ele>140.42858805806</ele>
        <time>2021-06-29T20:07:59.980Z</time>
      </trkpt>
      <trkpt lat="48.00904" lon="-4.18139">
        <ele>137.49408970608</ele>
        <time>2021-06-29T20:08:00.150Z</time>
      </trkpt>
      <trkpt lat="48.00873" lon="-4.18044">
        <ele>134.39527330756</ele>
        <time>2021-06-29T20:08:00.331Z</time>
      </trkpt>
      <trkpt lat="48.00825" lon="-4.17921">
        <ele>131.11358585043</ele>
        <time>2021-06-29T20:08:00.527Z</time>
      </trkpt>
      <trkpt lat="48.00738" lon="-4.17725">
        <ele>127.79391177793</ele>
        <time>2021-06-29T20:08:00.749Z</time>
      </trkpt>
      <trkpt lat="48.00705" lon="-4.17656">
        <ele>124.72171291301</ele>
        <time>2021-06-29T20:08:00.980Z</time>
      </trkpt>
      <trkpt lat="48.00663" lon="-4.17547">
        <ele>121.75145133307</ele>
        <time>2021-06-29T20:08:01.224Z</time>
      </trkpt>
      <trkpt lat="48.00649" lon="-4.17496">
        <ele>118.9965490247</ele>
        <time>2021-06-29T20:08:01.474Z</time>
      </trkpt>
      <trkpt lat="48.00638" lon="-4.17437">
        <ele>116.50634776338</ele>
        <time>2021-06-29T20:08:01.731Z</time>
      </trkpt>
      <trkpt lat="48.00636" lon="-4.17404">
        <ele>114.28245737623</ele>
        <time>2021-06-29T20:08:01.991Z</time>
      </trkpt>
      <trkpt lat="48.00639" lon="-4.17255">
        <ele>112.15601978537</ele>
        <time>2021-06-29T20:08:02.267Z</time>
      </trkpt>
      <trkpt lat="48.00642" lon="-4.17171">
        <ele>110.38629396146</ele>
        <time>2021-06-29T20:08:02.552Z</time>
      </trkpt>
      <trkpt lat="48.00641" lon="-4.17132">
        <ele>108.72108418536</ele>
        <time>2021-06-29T20:08:02.842Z</time>
      </trkpt>
      <trkpt lat="48.00634" lon="-4.17058">
        <ele>107.17709308407</ele>
        <time>2021-06-29T20:08:03.140Z</time>
      </trkpt>
      <trkpt lat="48.00616" lon="-4.16938">
        <ele>105.34788034353</ele>
        <time>2021-06-29T20:08:03.451Z</time>
      </trkpt>
      <trkpt lat="48.00604" lon="-4.16886">
        <ele>103.74749057273</ele>
        <time>2021-06-29T20:08:03.768Z</time>
      </trkpt>
      <trkpt lat="48.00594" lon="-4.16859">
        <ele>102.22455747055</ele>
        <time>2021-06-29T20:08:04.088Z</time>
      </trkpt>
      <trkpt lat="48.00574" lon="-4.16817">
        <ele>100.77777924311</ele>
        <time>2021-06-29T20:08:04.414Z</time>
      </trkpt>
      <trkpt lat="48.00557" lon="-4.16791">
        <ele>99.42129756018</ele>
        <time>2021-06-29T20:08:04.744Z</time>
      </trkpt>
      <trkpt lat="48.00505" lon="-4.16721">
        <ele>98.04715169132</ele>
        <time>2021-06-29T20:08:05.085Z</time>
      </trkpt>
      <trkpt lat="48.00481" lon="-4.16678">
        <ele>96.70253911995</ele>
        <time>2021-06-29T20:08:05.432Z</time>
      </trkpt>
      <trkpt lat="48.00466" lon="-4.16641">
        <ele>95.50064788504</ele>
        <time>2021-06-29T20:08:05.783Z</time>
      </trkpt>
      <trkpt lat="48.00456" lon="-4.16611">
        <ele>94.35665645897</ele>
        <time>2021-06-29T20:08:06.138Z</time>
      </trkpt>
      <trkpt lat="48.00438" lon="-4.16538">
        <ele>93.26342771102</ele>
        <time>2021-06-29T20:08:06.501Z</time>
      </trkpt>
      <trkpt lat="48.00423" lon="-4.16452">
        <ele>92.01732854631</ele>
        <time>2021-06-29T20:08:06.874Z</time>
      </trkpt>
      <trkpt lat="48.00398" lon="-4.16232">
        <ele>91.05441564818</ele>
        <time>2021-06-29T20:08:07.271Z</time>
      </trkpt>
      <trkpt lat="48.00369" lon="-4.15979">
        <ele>89.56512758434</ele>
        <time>2021-06-29T20:08:07.695Z</time>
      </trkpt>
      <trkpt lat="48.00361" lon="-4.1594">
        <ele>88.46548142772</ele>
        <time>2021-06-29T20:08:08.124Z</time>
      </trkpt>
      <trkpt lat="48.00352" lon="-4.15916">
        <ele>87.65725602466</ele>
        <time>2021-06-29T20:08:08.556Z</time>
      </trkpt>
      <trkpt lat="48.0034" lon="-4.15895">
        <ele>87.07110371612</ele>
        <time>2021-06-29T20:08:08.991Z</time>
      </trkpt>
      <trkpt lat="48.0032" lon="-4.15868">
        <ele>86.65443501031</ele>
        <time>2021-06-29T20:08:09.430Z</time>
      </trkpt>
      <trkpt lat="48.00302" lon="-4.1585">
        <ele>86.31270583314</ele>
        <time>2021-06-29T20:08:09.873Z</time>
      </trkpt>
      <trkpt lat="48.00252" lon="-4.15811">
        <ele>86.10080395584</ele>
        <time>2021-06-29T20:08:10.325Z</time>
      </trkpt>
      <trkpt lat="48.00229" lon="-4.15782">
        <ele>86.10482293584</ele>
        <time>2021-06-29T20:08:10.781Z</time>
      </trkpt>
      <trkpt lat="48.00201" lon="-4.15762">
        <ele>86.22466132159</ele>
        <time>2021-06-29T20:08:11.242Z</time>
      </trkpt>
      <trkpt lat="48.00183" lon="-4.15752">
        <ele>86.42374885116</ele>
        <time>2021-06-29T20:08:11.706Z</time>
      </trkpt>
      <trkpt lat="48.00172" lon="-4.15755">
        <ele>86.70360737591</ele>
        <time>2021-06-29T20:08:12.172Z</time>
      </trkpt>
      <trkpt lat="48.00161" lon="-4.15752">
        <ele>87.07227758557</ele>
        <time>2021-06-29T20:08:12.640Z</time>
      </trkpt>
      <trkpt lat="48.00151" lon="-4.15743">
        <ele>87.52125772141</ele>
        <time>2021-06-29T20:08:13.110Z</time>
      </trkpt>
      <trkpt lat="48.00147" lon="-4.15736">
        <ele>88.02956112352</ele>
        <time>2021-06-29T20:08:13.581Z</time>
      </trkpt>
      <trkpt lat="48.00142" lon="-4.15719">
        <ele>88.61290673255</ele>
        <time>2021-06-29T20:08:14.054Z</time>
      </trkpt>
      <trkpt lat="48.00142" lon="-4.157">
        <ele>89.31916354164</ele>
        <time>2021-06-29T20:08:14.529Z</time>
      </trkpt>
      <trkpt lat="48.00144" lon="-4.1569">
        <ele>90.05793678006</ele>
        <time>2021-06-29T20:08:15.005Z</time>
      </trkpt>
      <trkpt lat="48.00148" lon="-4.1568">
        <ele>90.83463564743</ele>
        <time>2021-06-29T20:08:15.482Z</time>
      </trkpt>
      <trkpt lat="48.00154" lon="-4.15672">
        <ele>91.63412324669</ele>
        <time>2021-06-29T20:08:15.961Z</time>
      </trkpt>
      <trkpt lat="48.00164" lon="-4.15665">
        <ele>92.4543164255</ele>
        <time>2021-06-29T20:08:16.441Z</time>
      </trkpt>
      <trkpt lat="48.0017" lon="-4.15664">
        <ele>93.23202972823</ele>
        <time>2021-06-29T20:08:16.922Z</time>
      </trkpt>
      <trkpt lat="48.00176" lon="-4.15653">
        <ele>93.9970142071</ele>
        <time>2021-06-29T20:08:17.405Z</time>
      </trkpt>
      <trkpt lat="48.0018" lon="-4.1564">
        <ele>94.69699793137</ele>
        <time>2021-06-29T20:08:17.889Z</time>
      </trkpt>
      <trkpt lat="48.00181" lon="-4.15623">
        <ele>95.3293480971</ele>
        <time>2021-06-29T20:08:18.375Z</time>
      </trkpt>
      <trkpt lat="48.00178" lon="-4.15609">
        <ele>95.8974576716</ele>
        <time>2021-06-29T20:08:18.863Z</time>
      </trkpt>
      <trkpt lat="48.00161" lon="-4.15578">
        <ele>96.37815164855</ele>
        <time>2021-06-29T20:08:19.355Z</time>
      </trkpt>
      <trkpt lat="48.00125" lon="-4.15528">
        <ele>96.80682110918</ele>
        <time>2021-06-29T20:08:19.855Z</time>
      </trkpt>
      <trkpt lat="48.0011" lon="-4.15504">
        <ele>97.17460732083</ele>
        <time>2021-06-29T20:08:20.359Z</time>
      </trkpt>
      <trkpt lat="48.00101" lon="-4.15484">
        <ele>97.49828545584</ele>
        <time>2021-06-29T20:08:20.865Z</time>
      </trkpt>
      <trkpt lat="48.00092" lon="-4.15453">
        <ele>97.85329066276</ele>
        <time>2021-06-29T20:08:21.375Z</time>
      </trkpt>
      <trkpt lat="48.00088" lon="-4.15436">
        <ele>98.1782902318</ele>
        <time>2021-06-29T20:08:21.887Z</time>
      </trkpt>
      <trkpt lat="48.00086" lon="-4.15415">
        <ele>98.49800780351</ele>
        <time>2021-06-29T20:08:22.401Z</time>
      </trkpt>
      <trkpt lat="48.00086" lon="-4.1536">
        <ele>98.81887661102</ele>
        <time>2021-06-29T20:08:22.921Z</time>
      </trkpt>
      <trkpt lat="48.00084" lon="-4.15306">
        <ele>99.14101581451</ele>
        <time>2021-06-29T20:08:23.447Z</time>
      </trkpt>
      <trkpt lat="48.00078" lon="-4.15227">
        <ele>99.39635998799</ele>
        <time>2021-06-29T20:08:23.981Z</time>
      </trkpt>
      <trkpt lat="48.00076" lon="-4.15216">
        <ele>99.6347961888</ele>
        <time>2021-06-29T20:08:24.516Z</time>
      </trkpt>
      <trkpt lat="48.00069" lon="-4.15205">
        <ele>99.86000470406</ele>
        <time>2021-06-29T20:08:25.053Z</time>
      </trkpt>
      <trkpt lat="48.0006" lon="-4.15201">
        <ele>100.05224480343</ele>
        <time>2021-06-29T20:08:25.592Z</time>
      </trkpt>
      <trkpt lat="48.00057" lon="-4.15197">
        <ele>100.20518250574</ele>
        <time>2021-06-29T20:08:26.131Z</time>
      </trkpt>
      <trkpt lat="48.00053" lon="-4.15184">
        <ele>100.34894746747</ele>
        <time>2021-06-29T20:08:26.672Z</time>
      </trkpt>
      <trkpt lat="48.00053" lon="-4.15177">
        <ele>100.44090437148</ele>
        <time>2021-06-29T20:08:27.214Z</time>
      </trkpt>
      <trkpt lat="48.00056" lon="-4.15167">
        <ele>100.49005725032</ele>
        <time>2021-06-29T20:08:27.757Z</time>
      </trkpt>
      <trkpt lat="48.00061" lon="-4.15161">
        <ele>100.48722295878</ele>
        <time>2021-06-29T20:08:28.301Z</time>
      </trkpt>
      <trkpt lat="48.00064" lon="-4.15137">
        <ele>100.47373339921</ele>
        <time>2021-06-29T20:08:28.847Z</time>
      </trkpt>
      <trkpt lat="48.00062" lon="-4.15123">
        <ele>100.43654906426</ele>
        <time>2021-06-29T20:08:29.395Z</time>
      </trkpt>
      <trkpt lat="48.00043" lon="-4.14976">
        <ele>100.36830480243</ele>
        <time>2021-06-29T20:08:29.959Z</time>
      </trkpt>
      <trkpt lat="48.0004" lon="-4.14959">
        <ele>100.23046132337</ele>
        <time>2021-06-29T20:08:30.525Z</time>
      </trkpt>
      <trkpt lat="48.00032" lon="-4.14931">
        <ele>100.00793036399</ele>
        <time>2021-06-29T20:08:31.094Z</time>
      </trkpt>
      <trkpt lat="48.00004" lon="-4.14884">
        <ele>99.68221983268</ele>
        <time>2021-06-29T20:08:31.670Z</time>
      </trkpt>
      <trkpt lat="47.99984" lon="-4.14858">
        <ele>99.47717829473</ele>
        <time>2021-06-29T20:08:32.250Z</time>
      </trkpt>
      <trkpt lat="47.9995" lon="-4.14824">
        <ele>99.11377414589</ele>
        <time>2021-06-29T20:08:32.837Z</time>
      </trkpt>
      <trkpt lat="47.99944" lon="-4.14827">
        <ele>98.84050460811</ele>
        <time>2021-06-29T20:08:33.425Z</time>
      </trkpt>
      <trkpt lat="47.99937" lon="-4.14827">
        <ele>98.58128537096</ele>
        <time>2021-06-29T20:08:34.014Z</time>
      </trkpt>
      <trkpt lat="47.99931" lon="-4.14824">
        <ele>98.35157949927</ele>
        <time>2021-06-29T20:08:34.604Z</time>
      </trkpt>
      <trkpt lat="47.99926" lon="-4.14819">
        <ele>98.17629186166</ele>
        <time>2021-06-29T20:08:35.195Z</time>
      </trkpt>
      <trkpt lat="47.99921" lon="-4.14811">
        <ele>98.04329586285</ele>
        <time>2021-06-29T20:08:35.787Z</time>
      </trkpt>
      <trkpt lat="47.99918" lon="-4.14796">
        <ele>97.95731669797</ele>
        <time>2021-06-29T20:08:36.381Z</time>
      </trkpt>
      <trkpt lat="47.99919" lon="-4.14789">
        <ele>97.89575389363</ele>
        <time>2021-06-29T20:08:36.975Z</time>
      </trkpt>
      <trkpt lat="47.99921" lon="-4.14779">
        <ele>97.85949839839</ele>
        <time>2021-06-29T20:08:37.571Z</time>
      </trkpt>
      <trkpt lat="47.99925" lon="-4.1477">
        <ele>97.83852743097</ele>
        <time>2021-06-29T20:08:38.168Z</time>
      </trkpt>
      <trkpt lat="47.99931" lon="-4.14764">
        <ele>97.80263957357</ele>
        <time>2021-06-29T20:08:38.766Z</time>
      </trkpt>
      <trkpt lat="47.99938" lon="-4.14761">
        <ele>97.74947087081</ele>
        <time>2021-06-29T20:08:39.365Z</time>
      </trkpt>
      <trkpt lat="47.99956" lon="-4.14711">
        <ele>97.70051305627</ele>
        <time>2021-06-29T20:08:39.970Z</time>
      </trkpt>
      <trkpt lat="47.9997" lon="-4.14643">
        <ele>97.61814871647</ele>
        <time>2021-06-29T20:08:40.583Z</time>
      </trkpt>
      <trkpt lat="47.99974" lon="-4.14613">
        <ele>97.44709063217</ele>
        <time>2021-06-29T20:08:41.199Z</time>
      </trkpt>
      <trkpt lat="47.99975" lon="-4.14587">
        <ele>97.18004387169</ele>
        <time>2021-06-29T20:08:41.818Z</time>
      </trkpt>
      <trkpt lat="47.99974" lon="-4.14558">
        <ele>96.81448850465</ele>
        <time>2021-06-29T20:08:42.440Z</time>
      </trkpt>
      <trkpt lat="47.9997" lon="-4.14526">
        <ele>96.35220184629</ele>
        <time>2021-06-29T20:08:43.065Z</time>
      </trkpt>
      <trkpt lat="47.99915" lon="-4.14261">
        <ele>95.4105436044</ele>
        <time>2021-06-29T20:08:43.720Z</time>
      </trkpt>
      <trkpt lat="47.99906" lon="-4.14181">
        <ele>94.57763740776</ele>
        <time>2021-06-29T20:08:44.384Z</time>
      </trkpt>
      <trkpt lat="47.99902" lon="-4.14036">
        <ele>93.83255111405</ele>
        <time>2021-06-29T20:08:45.064Z</time>
      </trkpt>
      <trkpt lat="47.99906" lon="-4.13939">
        <ele>92.99519736572</ele>
        <time>2021-06-29T20:08:45.754Z</time>
      </trkpt>
      <trkpt lat="47.99913" lon="-4.13792">
        <ele>92.05123898863</ele>
        <time>2021-06-29T20:08:46.460Z</time>
      </trkpt>
      <trkpt lat="47.99912" lon="-4.13738">
        <ele>90.98542962563</ele>
        <time>2021-06-29T20:08:47.172Z</time>
      </trkpt>
      <trkpt lat="47.99908" lon="-4.13679">
        <ele>89.89464762001</ele>
        <time>2021-06-29T20:08:47.890Z</time>
      </trkpt>
      <trkpt lat="47.99895" lon="-4.13544">
        <ele>88.82346262344</ele>
        <time>2021-06-29T20:08:48.623Z</time>
      </trkpt>
      <trkpt lat="47.99892" lon="-4.13497">
        <ele>87.73847698029</ele>
        <time>2021-06-29T20:08:49.361Z</time>
      </trkpt>
      <trkpt lat="47.99894" lon="-4.13472">
        <ele>86.55880494215</ele>
        <time>2021-06-29T20:08:50.101Z</time>
      </trkpt>
      <trkpt lat="47.99883" lon="-4.1345">
        <ele>85.31861992258</ele>
        <time>2021-06-29T20:08:50.844Z</time>
      </trkpt>
      <trkpt lat="47.9988" lon="-4.13438">
        <ele>83.9693301808</ele>
        <time>2021-06-29T20:08:51.589Z</time>
      </trkpt>
      <trkpt lat="47.99878" lon="-4.13405">
        <ele>82.52485674138</ele>
        <time>2021-06-29T20:08:52.337Z</time>
      </trkpt>
      <trkpt lat="47.99879" lon="-4.13353">
        <ele>81.02900998401</ele>
        <time>2021-06-29T20:08:53.091Z</time>
      </trkpt>
      <trkpt lat="47.99854" lon="-4.13138">
        <ele>79.14029222003</ele>
        <time>2021-06-29T20:08:53.868Z</time>
      </trkpt>
      <trkpt lat="47.99821" lon="-4.12885">
        <ele>77.35294488423</ele>
        <time>2021-06-29T20:08:54.673Z</time>
      </trkpt>
      <trkpt lat="47.9982" lon="-4.12868">
        <ele>75.43047217218</ele>
        <time>2021-06-29T20:08:55.480Z</time>
      </trkpt>
      <trkpt lat="47.99814" lon="-4.12844">
        <ele>73.42015485051</ele>
        <time>2021-06-29T20:08:56.290Z</time>
      </trkpt>
      <trkpt lat="47.99766" lon="-4.12516">
        <ele>70.81493601834</ele>
        <time>2021-06-29T20:08:57.136Z</time>
      </trkpt>
      <trkpt lat="47.99765" lon="-4.12487">
        <ele>68.60915700895</ele>
        <time>2021-06-29T20:08:57.985Z</time>
      </trkpt>
      <trkpt lat="47.9976" lon="-4.12466">
        <ele>66.38222375821</ele>
        <time>2021-06-29T20:08:58.836Z</time>
      </trkpt>
      <trkpt lat="47.99757" lon="-4.12439">
        <ele>64.16359331403</ele>
        <time>2021-06-29T20:08:59.690Z</time>
      </trkpt>
      <trkpt lat="47.99711" lon="-4.12241">
        <ele>61.76624591267</ele>
        <time>2021-06-29T20:09:00.567Z</time>
      </trkpt>
      <trkpt lat="47.99681" lon="-4.12187">
        <ele>59.5417347041</ele>
        <time>2021-06-29T20:09:01.451Z</time>
      </trkpt>
      <trkpt lat="47.99645" lon="-4.12136">
        <ele>57.27076065785</ele>
        <time>2021-06-29T20:09:02.343Z</time>
      </trkpt>
      <trkpt lat="47.99638" lon="-4.12129">
        <ele>55.21594773453</ele>
        <time>2021-06-29T20:09:03.237Z</time>
      </trkpt>
      <trkpt lat="47.99633" lon="-4.12127">
        <ele>53.24704210945</ele>
        <time>2021-06-29T20:09:04.131Z</time>
      </trkpt>
      <trkpt lat="47.99632" lon="-4.12121">
        <ele>51.36773831699</ele>
        <time>2021-06-29T20:09:05.026Z</time>
      </trkpt>
      <trkpt lat="47.99623" lon="-4.12107">
        <ele>49.5596189763</ele>
        <time>2021-06-29T20:09:05.923Z</time>
      </trkpt>
      <trkpt lat="47.99521" lon="-4.11962">
        <ele>47.5533251106</ele>
        <time>2021-06-29T20:09:06.843Z</time>
      </trkpt>
      <trkpt lat="47.99508" lon="-4.11946">
        <ele>45.89847221893</ele>
        <time>2021-06-29T20:09:07.765Z</time>
      </trkpt>
      <trkpt lat="47.99498" lon="-4.11938">
        <ele>44.36962242467</ele>
        <time>2021-06-29T20:09:08.689Z</time>
      </trkpt>
      <trkpt lat="47.99484" lon="-4.1193">
        <ele>42.92784716155</ele>
        <time>2021-06-29T20:09:09.616Z</time>
      </trkpt>
      <trkpt lat="47.99472" lon="-4.11931">
        <ele>41.51697321744</ele>
        <time>2021-06-29T20:09:10.545Z</time>
      </trkpt>
      <trkpt lat="47.9947" lon="-4.11914">
        <ele>40.24465007086</ele>
        <time>2021-06-29T20:09:11.475Z</time>
      </trkpt>
      <trkpt lat="47.9946" lon="-4.11874">
        <ele>39.0654080912</ele>
        <time>2021-06-29T20:09:12.410Z</time>
      </trkpt>
      <trkpt lat="47.99425" lon="-4.11821">
        <ele>37.78247320117</ele>
        <time>2021-06-29T20:09:13.353Z</time>
      </trkpt>
      <trkpt lat="47.99417" lon="-4.11802">
        <ele>36.55143976928</ele>
        <time>2021-06-29T20:09:14.298Z</time>
      </trkpt>
      <trkpt lat="47.99409" lon="-4.11768">
        <ele>35.28243663193</ele>
        <time>2021-06-29T20:09:15.247Z</time>
      </trkpt>
      <trkpt lat="47.99412" lon="-4.11521">
        <ele>33.88515243874</ele>
        <time>2021-06-29T20:09:16.223Z</time>
      </trkpt>
      <trkpt lat="47.99414" lon="-4.11497">
        <ele>32.50820069604</ele>
        <time>2021-06-29T20:09:17.201Z</time>
      </trkpt>
      <trkpt lat="47.9942" lon="-4.11468">
        <ele>31.04983980678</ele>
        <time>2021-06-29T20:09:18.183Z</time>
      </trkpt>
      <trkpt lat="47.99443" lon="-4.11398">
        <ele>29.47001113657</ele>
        <time>2021-06-29T20:09:19.173Z</time>
      </trkpt>
      <trkpt lat="47.99452" lon="-4.11364">
        <ele>27.88059429749</ele>
        <time>2021-06-29T20:09:20.167Z</time>
      </trkpt>
      <trkpt lat="47.99455" lon="-4.11349">
        <ele>26.28189718622</ele>
        <time>2021-06-29T20:09:21.163Z</time>
      </trkpt>
      <trkpt lat="47.99461" lon="-4.11192">
        <ele>24.33813946381</ele>
        <time>2021-06-29T20:09:22.176Z</time>
      </trkpt>
      <trkpt lat="47.99461" lon="-4.11147">
        <ele>22.53172178766</ele>
        <time>2021-06-29T20:09:23.193Z</time>
      </trkpt>
      <trkpt lat="47.99456" lon="-4.11133">
        <ele>20.89300327048</ele>
        <time>2021-06-29T20:09:24.212Z</time>
      </trkpt>
      <trkpt lat="47.99447" lon="-4.11123">
        <ele>19.33890743694</ele>
        <time>2021-06-29T20:09:25.233Z</time>
      </trkpt>
      <trkpt lat="47.99438" lon="-4.11116">
        <ele>17.86079018154</ele>
        <time>2021-06-29T20:09:26.256Z</time>
      </trkpt>
      <trkpt lat="47.9943" lon="-4.11102">
        <ele>16.43958909697</ele>
        <time>2021-06-29T20:09:27.281Z</time>
      </trkpt>
      <trkpt lat="47.99416" lon="-4.1106">
        <ele>15.10685762308</ele>
        <time>2021-06-29T20:09:28.311Z</time>
      </trkpt>
      <trkpt lat="47.99418" lon="-4.11039">
        <ele>13.88566283715</ele>
        <time>2021-06-29T20:09:29.343Z</time>
      </trkpt>
      <trkpt lat="47.99422" lon="-4.11031">
        <ele>12.75851362479</ele>
        <time>2021-06-29T20:09:30.376Z</time>
      </trkpt>
      <trkpt lat="47.99486" lon="-4.10981">
        <ele>11.57878795939</ele>
        <time>2021-06-29T20:09:31.420Z</time>
      </trkpt>
      <trkpt lat="47.99494" lon="-4.10968">
        <ele>10.67258389847</ele>
        <time>2021-06-29T20:09:32.466Z</time>
      </trkpt>
      <trkpt lat="47.995" lon="-4.10952">
        <ele>9.85199216618</ele>
        <time>2021-06-29T20:09:33.514Z</time>
      </trkpt>
      <trkpt lat="47.99502" lon="-4.10901">
        <ele>9.10227273682</ele>
        <time>2021-06-29T20:09:34.568Z</time>
      </trkpt>
      <trkpt lat="47.99502" lon="-4.10873">
        <ele>8.47882012733</ele>
        <time>2021-06-29T20:09:35.625Z</time>
      </trkpt>
      <trkpt lat="47.99505" lon="-4.10824">
        <ele>7.91226058714</ele>
        <time>2021-06-29T20:09:36.687Z</time>
      </trkpt>
      <trkpt lat="47.99507" lon="-4.10816">
        <ele>7.44255341084</ele>
        <time>2021-06-29T20:09:37.750Z</time>
      </trkpt>
      <trkpt lat="47.9949" lon="-4.10807">
        <ele>7.08045881453</ele>
        <time>2021-06-29T20:09:38.816Z</time>
      </trkpt>
      <trkpt lat="47.99465" lon="-4.10789">
        <ele>6.73608938175</ele>
        <time>2021-06-29T20:09:39.886Z</time>
      </trkpt>
      <trkpt lat="47.99465" lon="-4.1079">
        <ele>6.46714413809</ele>
        <time>2021-06-29T20:09:40.957Z</time>
      </trkpt>
      <trkpt lat="47.99465" lon="-4.10789">
        <ele>6.73608938175</ele>
        <time>2021-06-29T20:09:42.028Z</time>
      </trkpt>
      <trkpt lat="47.99441" lon="-4.10765">
        <ele>6.03528651557</ele>
        <time>2021-06-29T20:09:43.103Z</time>
      </trkpt>
      <trkpt lat="47.99424" lon="-4.10743">
        <ele>5.86819679097</ele>
        <time>2021-06-29T20:09:44.182Z</time>
      </trkpt>
      <trkpt lat="47.99428" lon="-4.10747">
        <ele>5.76140590664</ele>
        <time>2021-06-29T20:09:45.262Z</time>
      </trkpt>
      <trkpt lat="47.9942" lon="-4.1073">
        <ele>5.68596877741</ele>
        <time>2021-06-29T20:09:46.344Z</time>
      </trkpt>
      <trkpt lat="47.99417" lon="-4.10713">
        <ele>5.62284954633</ele>
        <time>2021-06-29T20:09:47.428Z</time>
      </trkpt>
      <trkpt lat="47.99417" lon="-4.10693">
        <ele>5.56936512087</ele>
        <time>2021-06-29T20:09:48.514Z</time>
      </trkpt>
      <trkpt lat="47.99425" lon="-4.10601">
        <ele>5.50937306212</ele>
        <time>2021-06-29T20:09:49.610Z</time>
      </trkpt>
      <trkpt lat="47.99426" lon="-4.10595">
        <ele>5.52860031492</ele>
        <time>2021-06-29T20:09:50.707Z</time>
      </trkpt>
      <trkpt lat="47.99424" lon="-4.10594">
        <ele>5.56747155062</ele>
        <time>2021-06-29T20:09:51.804Z</time>
      </trkpt>
      <trkpt lat="47.99419" lon="-4.10587">
        <ele>5.62473629167</ele>
        <time>2021-06-29T20:09:52.902Z</time>
      </trkpt>
      <trkpt lat="47.99423" lon="-4.10569">
        <ele>5.71891864301</ele>
        <time>2021-06-29T20:09:54.002Z</time>
      </trkpt>
      <trkpt lat="47.9943" lon="-4.10542">
        <ele>5.8630491687</ele>
        <time>2021-06-29T20:09:55.105Z</time>
      </trkpt>
      <trkpt lat="47.99431" lon="-4.10542">
        <ele>5.98654490791</ele>
        <time>2021-06-29T20:09:56.208Z</time>
      </trkpt>
      <trkpt lat="47.9943" lon="-4.10542">
        <ele>5.8630491687</ele>
        <time>2021-06-29T20:09:57.311Z</time>
      </trkpt>
      <trkpt lat="47.99457" lon="-4.10438">
        <ele>6.26394421885</ele>
        <time>2021-06-29T20:09:58.426Z</time>
      </trkpt>
      <trkpt lat="47.99492" lon="-4.10285">
        <ele>6.49694271837</ele>
        <time>2021-06-29T20:09:59.559Z</time>
      </trkpt>
      <trkpt lat="47.99491" lon="-4.10285">
        <ele>6.65947304041</ele>
        <time>2021-06-29T20:10:00.692Z</time>
      </trkpt>
      <trkpt lat="47.99496" lon="-4.10264">
        <ele>6.81283756795</ele>
        <time>2021-06-29T20:10:01.827Z</time>
      </trkpt>
      <trkpt lat="47.99503" lon="-4.10197">
        <ele>6.89506381905</ele>
        <time>2021-06-29T20:10:02.970Z</time>
      </trkpt>
      <trkpt lat="47.9952" lon="-4.10012">
        <ele>7.14284071378</ele>
        <time>2021-06-29T20:10:04.133Z</time>
      </trkpt>
      <trkpt lat="47.9952" lon="-4.10013">
        <ele>7.34149552889</ele>
        <time>2021-06-29T20:10:05.296Z</time>
      </trkpt>
      <trkpt lat="47.99522" lon="-4.09998">
        <ele>7.54127352614</ele>
        <time>2021-06-29T20:10:06.460Z</time>
      </trkpt>
      <trkpt lat="47.99545" lon="-4.1">
        <ele>7.72943661817</ele>
        <time>2021-06-29T20:10:07.628Z</time>
      </trkpt>
      <trkpt lat="47.99598" lon="-4.09991">
        <ele>8.01462668691</ele>
        <time>2021-06-29T20:10:08.805Z</time>
      </trkpt>
      <trkpt lat="47.99608" lon="-4.0998">
        <ele>8.27118350916</ele>
        <time>2021-06-29T20:10:09.984Z</time>
      </trkpt>
      <trkpt lat="47.99607" lon="-4.0998">
        <ele>8.52706462905</ele>
        <time>2021-06-29T20:10:11.163Z</time>
      </trkpt>
      <trkpt lat="47.99618" lon="-4.09977">
        <ele>8.7963736783</ele>
        <time>2021-06-29T20:10:12.344Z</time>
      </trkpt>
      <trkpt lat="47.99632" lon="-4.09977">
        <ele>9.07006469466</ele>
        <time>2021-06-29T20:10:13.527Z</time>
      </trkpt>
      <trkpt lat="47.99659" lon="-4.09982">
        <ele>9.39540796647</ele>
        <time>2021-06-29T20:10:14.714Z</time>
      </trkpt>
      <trkpt lat="47.99671" lon="-4.09987">
        <ele>9.68419248798</ele>
        <time>2021-06-29T20:10:15.903Z</time>
      </trkpt>
      <trkpt lat="47.99684" lon="-4.09996">
        <ele>9.98662565327</ele>
        <time>2021-06-29T20:10:17.095Z</time>
      </trkpt>
      <trkpt lat="47.99699" lon="-4.10012">
        <ele>10.29233766297</ele>
        <time>2021-06-29T20:10:18.289Z</time>
      </trkpt>
      <trkpt lat="47.99708" lon="-4.10027">
        <ele>10.56588738605</ele>
        <time>2021-06-29T20:10:19.486Z</time>
      </trkpt>
      <trkpt lat="47.99721" lon="-4.10016">
        <ele>10.85591229364</ele>
        <time>2021-06-29T20:10:20.685Z</time>
      </trkpt>
      <trkpt lat="47.99733" lon="-4.10006">
        <ele>11.1370210298</ele>
        <time>2021-06-29T20:10:21.886Z</time>
      </trkpt>
      <trkpt lat="47.99738" lon="-4.09997">
        <ele>11.40523794147</ele>
        <time>2021-06-29T20:10:23.088Z</time>
      </trkpt>
      <trkpt lat="47.99739" lon="-4.09992">
        <ele>11.65901261588</ele>
        <time>2021-06-29T20:10:24.291Z</time>
      </trkpt>
      <trkpt lat="47.99756" lon="-4.09803">
        <ele>11.89377283977</ele>
        <time>2021-06-29T20:10:25.515Z</time>
      </trkpt>
      <trkpt lat="47.99765" lon="-4.09703">
        <ele>12.1748860918</ele>
        <time>2021-06-29T20:10:26.749Z</time>
      </trkpt>
      <trkpt lat="47.99772" lon="-4.09664">
        <ele>12.41241781364</ele>
        <time>2021-06-29T20:10:27.988Z</time>
      </trkpt>
      <trkpt lat="47.99781" lon="-4.09635">
        <ele>12.61494850382</ele>
        <time>2021-06-29T20:10:29.230Z</time>
      </trkpt>
      <trkpt lat="47.99794" lon="-4.09602">
        <ele>12.7990395389</ele>
        <time>2021-06-29T20:10:30.476Z</time>
      </trkpt>
      <trkpt lat="47.99807" lon="-4.09555">
        <ele>12.95039430864</ele>
        <time>2021-06-29T20:10:31.728Z</time>
      </trkpt>
      <trkpt lat="47.9981" lon="-4.09539">
        <ele>13.09939390585</ele>
        <time>2021-06-29T20:10:32.981Z</time>
      </trkpt>
      <trkpt lat="47.99832" lon="-4.09466">
        <ele>13.28689716597</ele>
        <time>2021-06-29T20:10:34.243Z</time>
      </trkpt>
      <trkpt lat="47.99837" lon="-4.09457">
        <ele>13.46328406768</ele>
        <time>2021-06-29T20:10:35.506Z</time>
      </trkpt>
      <trkpt lat="47.99895" lon="-4.09267">
        <ele>13.6396114355</ele>
        <time>2021-06-29T20:10:36.792Z</time>
      </trkpt>
      <trkpt lat="47.99899" lon="-4.09248">
        <ele>13.83326061719</ele>
        <time>2021-06-29T20:10:38.080Z</time>
      </trkpt>
      <trkpt lat="47.99908" lon="-4.09228">
        <ele>14.03283300523</ele>
        <time>2021-06-29T20:10:39.371Z</time>
      </trkpt>
      <trkpt lat="47.99938" lon="-4.09126">
        <ele>14.15047879608</ele>
        <time>2021-06-29T20:10:40.673Z</time>
      </trkpt>
      <trkpt lat="47.99943" lon="-4.09116">
        <ele>14.34448950326</ele>
        <time>2021-06-29T20:10:41.977Z</time>
      </trkpt>
      <trkpt lat="47.99993" lon="-4.08957">
        <ele>14.59591309656</ele>
        <time>2021-06-29T20:10:43.300Z</time>
      </trkpt>
      <trkpt lat="47.99998" lon="-4.0893">
        <ele>14.87444828935</ele>
        <time>2021-06-29T20:10:44.626Z</time>
      </trkpt>
      <trkpt lat="48.00004" lon="-4.08918">
        <ele>15.19762667523</ele>
        <time>2021-06-29T20:10:45.953Z</time>
      </trkpt>
      <trkpt lat="48.00015" lon="-4.08878">
        <ele>15.6290204198</ele>
        <time>2021-06-29T20:10:47.285Z</time>
      </trkpt>
      <trkpt lat="48.00029" lon="-4.08732">
        <ele>16.04607051542</ele>
        <time>2021-06-29T20:10:48.633Z</time>
      </trkpt>
      <trkpt lat="48.00035" lon="-4.08683">
        <ele>16.44784478557</ele>
        <time>2021-06-29T20:10:49.986Z</time>
      </trkpt>
      <trkpt lat="48.00043" lon="-4.08648">
        <ele>16.85782783157</ele>
        <time>2021-06-29T20:10:51.343Z</time>
      </trkpt>
      <trkpt lat="48.00054" lon="-4.08619">
        <ele>17.25377330217</ele>
        <time>2021-06-29T20:10:52.704Z</time>
      </trkpt>
      <trkpt lat="48.00062" lon="-4.08605">
        <ele>17.65709698529</ele>
        <time>2021-06-29T20:10:54.067Z</time>
      </trkpt>
      <trkpt lat="48.00075" lon="-4.08587">
        <ele>18.05540435902</ele>
        <time>2021-06-29T20:10:55.433Z</time>
      </trkpt>
      <trkpt lat="48.00095" lon="-4.08566">
        <ele>18.472763049</ele>
        <time>2021-06-29T20:10:56.802Z</time>
      </trkpt>
      <trkpt lat="48.00115" lon="-4.08551">
        <ele>18.89191011572</ele>
        <time>2021-06-29T20:10:58.175Z</time>
      </trkpt>
      <trkpt lat="48.00231" lon="-4.08482">
        <ele>19.31398253226</ele>
        <time>2021-06-29T20:10:59.568Z</time>
      </trkpt>
      <trkpt lat="48.00231" lon="-4.08483">
        <ele>19.77709632085</ele>
        <time>2021-06-29T20:11:00.961Z</time>
      </trkpt>
      <trkpt lat="48.00297" lon="-4.08441">
        <ele>20.30009831944</ele>
        <time>2021-06-29T20:11:02.366Z</time>
      </trkpt>
      <trkpt lat="48.00322" lon="-4.0842">
        <ele>20.8457377514</ele>
        <time>2021-06-29T20:11:03.775Z</time>
      </trkpt>
      <trkpt lat="48.00329" lon="-4.08407">
        <ele>21.37726830743</ele>
        <time>2021-06-29T20:11:05.186Z</time>
      </trkpt>
      <trkpt lat="48.0033" lon="-4.08397">
        <ele>21.91357143916</ele>
        <time>2021-06-29T20:11:06.598Z</time>
      </trkpt>
      <trkpt lat="48.00333" lon="-4.08389">
        <ele>22.49365876673</ele>
        <time>2021-06-29T20:11:08.011Z</time>
      </trkpt>
      <trkpt lat="48.00339" lon="-4.08382">
        <ele>23.10969437818</ele>
        <time>2021-06-29T20:11:09.425Z</time>
      </trkpt>
      <trkpt lat="48.00349" lon="-4.0838">
        <ele>23.76957587388</ele>
        <time>2021-06-29T20:11:10.841Z</time>
      </trkpt>
      <trkpt lat="48.00357" lon="-4.08386">
        <ele>24.49480117707</ele>
        <time>2021-06-29T20:11:12.258Z</time>
      </trkpt>
      <trkpt lat="48.00366" lon="-4.08386">
        <ele>25.21885287292</ele>
        <time>2021-06-29T20:11:13.677Z</time>
      </trkpt>
      <trkpt lat="48.00394" lon="-4.08377">
        <ele>26.01582759162</ele>
        <time>2021-06-29T20:11:15.100Z</time>
      </trkpt>
      <trkpt lat="48.00435" lon="-4.08369">
        <ele>26.93164246629</ele>
        <time>2021-06-29T20:11:16.530Z</time>
      </trkpt>
      <trkpt lat="48.0051" lon="-4.08347">
        <ele>27.81510486832</ele>
        <time>2021-06-29T20:11:17.972Z</time>
      </trkpt>
      <trkpt lat="48.00602" lon="-4.08316">
        <ele>28.57487284777</ele>
        <time>2021-06-29T20:11:19.429Z</time>
      </trkpt>
      <trkpt lat="48.00635" lon="-4.08311">
        <ele>29.2055615403</ele>
        <time>2021-06-29T20:11:20.892Z</time>
      </trkpt>
      <trkpt lat="48.00761" lon="-4.08304">
        <ele>29.42882899156</ele>
        <time>2021-06-29T20:11:22.375Z</time>
      </trkpt>
      <trkpt lat="48.00792" lon="-4.08301">
        <ele>29.99206724148</ele>
        <time>2021-06-29T20:11:23.863Z</time>
      </trkpt>
      <trkpt lat="48.0084" lon="-4.08288">
        <ele>30.52684741609</ele>
        <time>2021-06-29T20:11:25.359Z</time>
      </trkpt>
      <trkpt lat="48.0087" lon="-4.08273">
        <ele>30.98277019087</ele>
        <time>2021-06-29T20:11:26.860Z</time>
      </trkpt>
      <trkpt lat="48.00894" lon="-4.08259">
        <ele>31.35263669684</ele>
        <time>2021-06-29T20:11:28.365Z</time>
      </trkpt>
      <trkpt lat="48.00919" lon="-4.0824">
        <ele>31.63108759573</ele>
        <time>2021-06-29T20:11:29.874Z</time>
      </trkpt>
      <trkpt lat="48.00959" lon="-4.08202">
        <ele>31.85954479734</ele>
        <time>2021-06-29T20:11:31.391Z</time>
      </trkpt>
      <trkpt lat="48.00982" lon="-4.08174">
        <ele>32.01784330415</ele>
        <time>2021-06-29T20:11:32.913Z</time>
      </trkpt>
      <trkpt lat="48.01047" lon="-4.08085">
        <ele>31.89879408206</ele>
        <time>2021-06-29T20:11:34.449Z</time>
      </trkpt>
      <trkpt lat="48.01107" lon="-4.07986">
        <ele>32.08023798843</ele>
        <time>2021-06-29T20:11:35.999Z</time>
      </trkpt>
      <trkpt lat="48.01172" lon="-4.07864">
        <ele>32.45094172311</ele>
        <time>2021-06-29T20:11:37.566Z</time>
      </trkpt>
      <trkpt lat="48.01214" lon="-4.07779">
        <ele>32.40438566345</ele>
        <time>2021-06-29T20:11:39.144Z</time>
      </trkpt>
      <trkpt lat="48.01219" lon="-4.07761">
        <ele>32.52439894695</ele>
        <time>2021-06-29T20:11:40.724Z</time>
      </trkpt>
      <trkpt lat="48.01219" lon="-4.07742">
        <ele>32.68667296444</ele>
        <time>2021-06-29T20:11:42.306Z</time>
      </trkpt>
      <trkpt lat="48.01223" lon="-4.0773">
        <ele>32.87658208446</ele>
        <time>2021-06-29T20:11:43.890Z</time>
      </trkpt>
      <trkpt lat="48.01229" lon="-4.0772">
        <ele>33.08797157769</ele>
        <time>2021-06-29T20:11:45.475Z</time>
      </trkpt>
      <trkpt lat="48.01237" lon="-4.07714">
        <ele>33.31099388022</ele>
        <time>2021-06-29T20:11:47.062Z</time>
      </trkpt>
      <trkpt lat="48.01247" lon="-4.07713">
        <ele>33.53107846595</ele>
        <time>2021-06-29T20:11:48.650Z</time>
      </trkpt>
      <trkpt lat="48.01257" lon="-4.07717">
        <ele>33.7589348154</ele>
        <time>2021-06-29T20:11:50.240Z</time>
      </trkpt>
      <trkpt lat="48.01267" lon="-4.07729">
        <ele>34.05924132357</ele>
        <time>2021-06-29T20:11:51.832Z</time>
      </trkpt>
      <trkpt lat="48.0129" lon="-4.07735">
        <ele>34.34929238693</ele>
        <time>2021-06-29T20:11:53.428Z</time>
      </trkpt>
      <trkpt lat="48.01322" lon="-4.07738">
        <ele>34.72009287419</ele>
        <time>2021-06-29T20:11:55.029Z</time>
      </trkpt>
      <trkpt lat="48.0138" lon="-4.07754">
        <ele>35.08868897895</ele>
        <time>2021-06-29T20:11:56.639Z</time>
      </trkpt>
      <trkpt lat="48.01402" lon="-4.07756">
        <ele>35.38391770018</ele>
        <time>2021-06-29T20:11:58.253Z</time>
      </trkpt>
      <trkpt lat="48.01434" lon="-4.0775">
        <ele>35.69266879743</ele>
        <time>2021-06-29T20:11:59.872Z</time>
      </trkpt>
      <trkpt lat="48.01455" lon="-4.07736">
        <ele>35.93378432712</ele>
        <time>2021-06-29T20:12:01.495Z</time>
      </trkpt>
      <trkpt lat="48.01477" lon="-4.07713">
        <ele>36.10322814625</ele>
        <time>2021-06-29T20:12:03.122Z</time>
      </trkpt>
      <trkpt lat="48.01485" lon="-4.07687">
        <ele>36.25051626207</ele>
        <time>2021-06-29T20:12:04.752Z</time>
      </trkpt>
      <trkpt lat="48.01487" lon="-4.07676">
        <ele>36.37932823111</ele>
        <time>2021-06-29T20:12:06.383Z</time>
      </trkpt>
      <trkpt lat="48.01493" lon="-4.07668">
        <ele>36.47769154736</ele>
        <time>2021-06-29T20:12:08.016Z</time>
      </trkpt>
      <trkpt lat="48.01502" lon="-4.07666">
        <ele>36.53697844334</ele>
        <time>2021-06-29T20:12:09.650Z</time>
      </trkpt>
      <trkpt lat="48.01507" lon="-4.07669">
        <ele>36.57161088725</ele>
        <time>2021-06-29T20:12:11.285Z</time>
      </trkpt>
      <trkpt lat="48.01511" lon="-4.07675">
        <ele>36.5856477099</ele>
        <time>2021-06-29T20:12:12.921Z</time>
      </trkpt>
      <trkpt lat="48.01521" lon="-4.07677">
        <ele>36.59278411204</ele>
        <time>2021-06-29T20:12:14.558Z</time>
      </trkpt>
      <trkpt lat="48.01542" lon="-4.07675">
        <ele>36.58648481936</ele>
        <time>2021-06-29T20:12:16.199Z</time>
      </trkpt>
      <trkpt lat="48.01557" lon="-4.0768">
        <ele>36.6118824651</ele>
        <time>2021-06-29T20:12:17.842Z</time>
      </trkpt>
      <trkpt lat="48.01566" lon="-4.07687">
        <ele>36.64372893452</ele>
        <time>2021-06-29T20:12:19.487Z</time>
      </trkpt>
      <trkpt lat="48.0158" lon="-4.07707">
        <ele>36.68510991805</ele>
        <time>2021-06-29T20:12:21.135Z</time>
      </trkpt>
      <trkpt lat="48.01585" lon="-4.07725">
        <ele>36.75894738821</ele>
        <time>2021-06-29T20:12:22.785Z</time>
      </trkpt>
      <trkpt lat="48.01587" lon="-4.07748">
        <ele>36.89947351983</ele>
        <time>2021-06-29T20:12:24.438Z</time>
      </trkpt>
      <trkpt lat="48.01583" lon="-4.07848">
        <ele>37.08806763215</ele>
        <time>2021-06-29T20:12:26.101Z</time>
      </trkpt>
      <trkpt lat="48.01583" lon="-4.07872">
        <ele>37.41639255912</ele>
        <time>2021-06-29T20:12:27.767Z</time>
      </trkpt>
      <trkpt lat="48.01588" lon="-4.07902">
        <ele>37.8540863289</ele>
        <time>2021-06-29T20:12:29.436Z</time>
      </trkpt>
      <trkpt lat="48.01594" lon="-4.0792">
        <ele>38.39200022089</ele>
        <time>2021-06-29T20:12:31.107Z</time>
      </trkpt>
      <trkpt lat="48.01615" lon="-4.0796">
        <ele>39.0543761481</ele>
        <time>2021-06-29T20:12:32.784Z</time>
      </trkpt>
      <trkpt lat="48.01665" lon="-4.08031">
        <ele>39.91860282321</ele>
        <time>2021-06-29T20:12:34.472Z</time>
      </trkpt>
      <trkpt lat="48.01716" lon="-4.08081">
        <ele>40.99617767149</ele>
        <time>2021-06-29T20:12:36.170Z</time>
      </trkpt>
      <trkpt lat="48.0177" lon="-4.08126">
        <ele>42.03242865871</ele>
        <time>2021-06-29T20:12:37.878Z</time>
      </trkpt>
      <trkpt lat="48.01806" lon="-4.08154">
        <ele>43.28912670931</ele>
        <time>2021-06-29T20:12:39.592Z</time>
      </trkpt>
      <trkpt lat="48.01847" lon="-4.08181">
        <ele>44.78093054171</ele>
        <time>2021-06-29T20:12:41.313Z</time>
      </trkpt>
      <trkpt lat="48.01911" lon="-4.08216">
        <ele>46.48809170372</ele>
        <time>2021-06-29T20:12:43.045Z</time>
      </trkpt>
      <trkpt lat="48.02131" lon="-4.08313">
        <ele>48.35197920232</ele>
        <time>2021-06-29T20:12:44.814Z</time>
      </trkpt>
      <trkpt lat="48.02239" lon="-4.08364">
        <ele>50.27533517386</ele>
        <time>2021-06-29T20:12:46.601Z</time>
      </trkpt>
      <trkpt lat="48.02347" lon="-4.08428">
        <ele>52.38468293242</ele>
        <time>2021-06-29T20:12:48.407Z</time>
      </trkpt>
      <trkpt lat="48.02533" lon="-4.08548">
        <ele>54.40008416324</ele>
        <time>2021-06-29T20:12:50.245Z</time>
      </trkpt>
      <trkpt lat="48.02616" lon="-4.08589">
        <ele>56.42014930688</ele>
        <time>2021-06-29T20:12:52.097Z</time>
      </trkpt>
      <trkpt lat="48.02679" lon="-4.0861">
        <ele>58.51210208239</ele>
        <time>2021-06-29T20:12:53.959Z</time>
      </trkpt>
      <trkpt lat="48.0274" lon="-4.0862">
        <ele>60.5873701517</ele>
        <time>2021-06-29T20:12:55.831Z</time>
      </trkpt>
      <trkpt lat="48.02804" lon="-4.0862">
        <ele>62.80912220084</ele>
        <time>2021-06-29T20:12:57.713Z</time>
      </trkpt>
      <trkpt lat="48.02851" lon="-4.08614">
        <ele>64.83741478466</ele>
        <time>2021-06-29T20:12:59.603Z</time>
      </trkpt>
      <trkpt lat="48.0288" lon="-4.08601">
        <ele>66.86966886464</ele>
        <time>2021-06-29T20:13:01.498Z</time>
      </trkpt>
      <trkpt lat="48.02943" lon="-4.08578">
        <ele>68.87962304353</ele>
        <time>2021-06-29T20:13:03.403Z</time>
      </trkpt>
      <trkpt lat="48.02993" lon="-4.08551">
        <ele>70.65295468378</ele>
        <time>2021-06-29T20:13:05.317Z</time>
      </trkpt>
      <trkpt lat="48.0304" lon="-4.08519">
        <ele>72.38961492046</ele>
        <time>2021-06-29T20:13:07.239Z</time>
      </trkpt>
      <trkpt lat="48.03082" lon="-4.08485">
        <ele>73.80364532864</ele>
        <time>2021-06-29T20:13:09.169Z</time>
      </trkpt>
      <trkpt lat="48.03143" lon="-4.0843">
        <ele>75.11649123633</ele>
        <time>2021-06-29T20:13:11.110Z</time>
      </trkpt>
      <trkpt lat="48.03154" lon="-4.0841">
        <ele>76.17077331588</ele>
        <time>2021-06-29T20:13:13.054Z</time>
      </trkpt>
      <trkpt lat="48.03158" lon="-4.08393">
        <ele>77.01303728951</ele>
        <time>2021-06-29T20:13:15.000Z</time>
      </trkpt>
      <trkpt lat="48.03158" lon="-4.08375">
        <ele>77.65036845714</ele>
        <time>2021-06-29T20:13:16.948Z</time>
      </trkpt>
      <trkpt lat="48.03152" lon="-4.08348">
        <ele>78.02965101101</ele>
        <time>2021-06-29T20:13:18.899Z</time>
      </trkpt>
      <trkpt lat="48.03145" lon="-4.08334">
        <ele>78.20058363209</ele>
        <time>2021-06-29T20:13:20.852Z</time>
      </trkpt>
      <trkpt lat="48.0314" lon="-4.08328">
        <ele>78.19497709297</ele>
        <time>2021-06-29T20:13:22.806Z</time>
      </trkpt>
      <trkpt lat="48.03119" lon="-4.08309">
        <ele>77.98742731504</ele>
        <time>2021-06-29T20:13:24.764Z</time>
      </trkpt>
      <trkpt lat="48.0311" lon="-4.08304">
        <ele>77.66782956777</ele>
        <time>2021-06-29T20:13:26.723Z</time>
      </trkpt>
      <trkpt lat="48.03096" lon="-4.08302">
        <ele>77.21841668659</ele>
        <time>2021-06-29T20:13:28.684Z</time>
      </trkpt>
      <trkpt lat="48.03092" lon="-4.08306">
        <ele>76.74206633659</ele>
        <time>2021-06-29T20:13:30.646Z</time>
      </trkpt>
      <trkpt lat="48.03081" lon="-4.0831">
        <ele>76.20387918966</ele>
        <time>2021-06-29T20:13:32.610Z</time>
      </trkpt>
      <trkpt lat="48.03072" lon="-4.08308">
        <ele>75.65139542659</ele>
        <time>2021-06-29T20:13:34.575Z</time>
      </trkpt>
      <trkpt lat="48.03064" lon="-4.083">
        <ele>75.10613666894</ele>
        <time>2021-06-29T20:13:36.542Z</time>
      </trkpt>
      <trkpt lat="48.03058" lon="-4.08286">
        <ele>74.62089856995</ele>
        <time>2021-06-29T20:13:38.511Z</time>
      </trkpt>
      <trkpt lat="48.03057" lon="-4.08267">
        <ele>74.22836533687</ele>
        <time>2021-06-29T20:13:40.482Z</time>
      </trkpt>
      <trkpt lat="48.0306" lon="-4.08257">
        <ele>73.96704070142</ele>
        <time>2021-06-29T20:13:42.454Z</time>
      </trkpt>
      <trkpt lat="48.03064" lon="-4.08249">
        <ele>73.8456511622</ele>
        <time>2021-06-29T20:13:44.427Z</time>
      </trkpt>
      <trkpt lat="48.03074" lon="-4.0824">
        <ele>73.90080964719</ele>
        <time>2021-06-29T20:13:46.402Z</time>
      </trkpt>
      <trkpt lat="48.03079" lon="-4.08239">
        <ele>74.10608348303</ele>
        <time>2021-06-29T20:13:48.378Z</time>
      </trkpt>
      <trkpt lat="48.03086" lon="-4.08227">
        <ele>74.49846553611</ele>
        <time>2021-06-29T20:13:50.356Z</time>
      </trkpt>
      <trkpt lat="48.03095" lon="-4.08197">
        <ele>75.0863250328</ele>
        <time>2021-06-29T20:13:52.337Z</time>
      </trkpt>
      <trkpt lat="48.03107" lon="-4.08167">
        <ele>75.85383168437</ele>
        <time>2021-06-29T20:13:54.322Z</time>
      </trkpt>
      <trkpt lat="48.03118" lon="-4.08145">
        <ele>76.79077323667</ele>
        <time>2021-06-29T20:13:56.310Z</time>
      </trkpt>
      <trkpt lat="48.03125" lon="-4.08136">
        <ele>77.91266488156</ele>
        <time>2021-06-29T20:13:58.299Z</time>
      </trkpt>
      <trkpt lat="48.03146" lon="-4.08114">
        <ele>79.21796455343</ele>
        <time>2021-06-29T20:14:00.292Z</time>
      </trkpt>
      <trkpt lat="48.03294" lon="-4.07947">
        <ele>80.95817915043</ele>
        <time>2021-06-29T20:14:02.315Z</time>
      </trkpt>
      <trkpt lat="48.03307" lon="-4.07936">
        <ele>82.60614317631</ele>
        <time>2021-06-29T20:14:04.340Z</time>
      </trkpt>
      <trkpt lat="48.03324" lon="-4.07925">
        <ele>84.40016007091</ele>
        <time>2021-06-29T20:14:06.368Z</time>
      </trkpt>
      <trkpt lat="48.03351" lon="-4.07918">
        <ele>86.31998867816</ele>
        <time>2021-06-29T20:14:08.401Z</time>
      </trkpt>
      <trkpt lat="48.03636" lon="-4.07878">
        <ele>88.68266784871</ele>
        <time>2021-06-29T20:14:10.480Z</time>
      </trkpt>
      <trkpt lat="48.03663" lon="-4.07869">
        <ele>90.7054697909</ele>
        <time>2021-06-29T20:14:12.563Z</time>
      </trkpt>
      <trkpt lat="48.03675" lon="-4.0786">
        <ele>92.76837685332</ele>
        <time>2021-06-29T20:14:14.648Z</time>
      </trkpt>
      <trkpt lat="48.0369" lon="-4.07847">
        <ele>94.84685386425</ele>
        <time>2021-06-29T20:14:16.736Z</time>
      </trkpt>
      <trkpt lat="48.03703" lon="-4.07829">
        <ele>96.9196212423</ele>
        <time>2021-06-29T20:14:18.827Z</time>
      </trkpt>
      <trkpt lat="48.03718" lon="-4.07795">
        <ele>99.00574351887</ele>
        <time>2021-06-29T20:14:20.922Z</time>
      </trkpt>
      <trkpt lat="48.03779" lon="-4.07629">
        <ele>101.09763352553</ele>
        <time>2021-06-29T20:14:23.038Z</time>
      </trkpt>
      <trkpt lat="48.03789" lon="-4.07596">
        <ele>103.07498609336</ele>
        <time>2021-06-29T20:14:25.157Z</time>
      </trkpt>
      <trkpt lat="48.03797" lon="-4.07548">
        <ele>104.96819490883</ele>
        <time>2021-06-29T20:14:27.282Z</time>
      </trkpt>
      <trkpt lat="48.03805" lon="-4.07473">
        <ele>106.87830381476</ele>
        <time>2021-06-29T20:14:29.415Z</time>
      </trkpt>
      <trkpt lat="48.03814" lon="-4.07432">
        <ele>108.76142109099</ele>
        <time>2021-06-29T20:14:31.553Z</time>
      </trkpt>
      <trkpt lat="48.0382" lon="-4.07415">
        <ele>110.5078499526</ele>
        <time>2021-06-29T20:14:33.693Z</time>
      </trkpt>
      <trkpt lat="48.03849" lon="-4.07358">
        <ele>112.21379106073</ele>
        <time>2021-06-29T20:14:35.840Z</time>
      </trkpt>
      <trkpt lat="48.03886" lon="-4.07297">
        <ele>113.88463608591</ele>
        <time>2021-06-29T20:14:37.996Z</time>
      </trkpt>
      <trkpt lat="48.03905" lon="-4.07273">
        <ele>115.42974276457</ele>
        <time>2021-06-29T20:14:40.156Z</time>
      </trkpt>
      <trkpt lat="48.03903" lon="-4.07259">
        <ele>116.89874552056</ele>
        <time>2021-06-29T20:14:42.318Z</time>
      </trkpt>
      <trkpt lat="48.03904" lon="-4.07249">
        <ele>118.30237138923</ele>
        <time>2021-06-29T20:14:44.481Z</time>
      </trkpt>
      <trkpt lat="48.0397" lon="-4.06865">
        <ele>120.05430870715</ele>
        <time>2021-06-29T20:14:46.686Z</time>
      </trkpt>
      <trkpt lat="48.0398" lon="-4.06818">
        <ele>121.23822838023</ele>
        <time>2021-06-29T20:14:48.897Z</time>
      </trkpt>
      <trkpt lat="48.03987" lon="-4.06791">
        <ele>122.43485203055</ele>
        <time>2021-06-29T20:14:51.111Z</time>
      </trkpt>
      <trkpt lat="48.03991" lon="-4.0678">
        <ele>123.59344167988</ele>
        <time>2021-06-29T20:14:53.326Z</time>
      </trkpt>
      <trkpt lat="48.04007" lon="-4.06748">
        <ele>124.70397848985</ele>
        <time>2021-06-29T20:14:55.545Z</time>
      </trkpt>
      <trkpt lat="48.04087" lon="-4.06636">
        <ele>125.78979913925</ele>
        <time>2021-06-29T20:14:57.782Z</time>
      </trkpt>
      <trkpt lat="48.0411" lon="-4.06607">
        <ele>126.77406928497</ele>
        <time>2021-06-29T20:15:00.024Z</time>
      </trkpt>
      <trkpt lat="48.0414" lon="-4.06576">
        <ele>127.6210342607</ele>
        <time>2021-06-29T20:15:02.272Z</time>
      </trkpt>
      <trkpt lat="48.04235" lon="-4.06482">
        <ele>128.49848402707</ele>
        <time>2021-06-29T20:15:04.538Z</time>
      </trkpt>
      <trkpt lat="48.04365" lon="-4.06358">
        <ele>129.55327814926</ele>
        <time>2021-06-29T20:15:06.828Z</time>
      </trkpt>
      <trkpt lat="48.04392" lon="-4.06334">
        <ele>130.31201975396</ele>
        <time>2021-06-29T20:15:09.124Z</time>
      </trkpt>
      <trkpt lat="48.04408" lon="-4.06325">
        <ele>130.94585372833</ele>
        <time>2021-06-29T20:15:11.422Z</time>
      </trkpt>
      <trkpt lat="48.0443" lon="-4.06315">
        <ele>131.47599885058</ele>
        <time>2021-06-29T20:15:13.724Z</time>
      </trkpt>
      <trkpt lat="48.04521" lon="-4.06281">
        <ele>131.94504591307</ele>
        <time>2021-06-29T20:15:16.041Z</time>
      </trkpt>
      <trkpt lat="48.04546" lon="-4.06269">
        <ele>132.27209942033</ele>
        <time>2021-06-29T20:15:18.362Z</time>
      </trkpt>
      <trkpt lat="48.046" lon="-4.0623">
        <ele>132.55193690014</ele>
        <time>2021-06-29T20:15:20.693Z</time>
      </trkpt>
      <trkpt lat="48.04645" lon="-4.06193">
        <ele>132.7972199619</ele>
        <time>2021-06-29T20:15:23.032Z</time>
      </trkpt>
      <trkpt lat="48.04702" lon="-4.06137">
        <ele>133.04354213704</ele>
        <time>2021-06-29T20:15:25.382Z</time>
      </trkpt>
      <trkpt lat="48.04727" lon="-4.06101">
        <ele>133.25091054327</ele>
        <time>2021-06-29T20:15:27.738Z</time>
      </trkpt>
      <trkpt lat="48.04844" lon="-4.05879">
        <ele>133.14472657724</ele>
        <time>2021-06-29T20:15:30.124Z</time>
      </trkpt>
      <trkpt lat="48.04903" lon="-4.05761">
        <ele>133.05625670951</ele>
        <time>2021-06-29T20:15:32.526Z</time>
      </trkpt>
      <trkpt lat="48.04936" lon="-4.05725">
        <ele>133.05604474485</ele>
        <time>2021-06-29T20:15:34.934Z</time>
      </trkpt>
      <trkpt lat="48.04961" lon="-4.05704">
        <ele>133.08991643893</ele>
        <time>2021-06-29T20:15:37.347Z</time>
      </trkpt>
      <trkpt lat="48.04987" lon="-4.05667">
        <ele>133.10341294898</ele>
        <time>2021-06-29T20:15:39.766Z</time>
      </trkpt>
      <trkpt lat="48.05099" lon="-4.05424">
        <ele>133.39002576974</ele>
        <time>2021-06-29T20:15:42.216Z</time>
      </trkpt>
      <trkpt lat="48.05112" lon="-4.05391">
        <ele>133.3698376535</ele>
        <time>2021-06-29T20:15:44.670Z</time>
      </trkpt>
      <trkpt lat="48.05181" lon="-4.05239">
        <ele>133.46798912129</ele>
        <time>2021-06-29T20:15:47.144Z</time>
      </trkpt>
      <trkpt lat="48.05191" lon="-4.05213">
        <ele>133.43263290507</ele>
        <time>2021-06-29T20:15:49.621Z</time>
      </trkpt>
      <trkpt lat="48.05203" lon="-4.05173">
        <ele>133.45030269671</ele>
        <time>2021-06-29T20:15:52.103Z</time>
      </trkpt>
      <trkpt lat="48.05208" lon="-4.05148">
        <ele>133.43254434341</ele>
        <time>2021-06-29T20:15:54.588Z</time>
      </trkpt>
      <trkpt lat="48.05211" lon="-4.05123">
        <ele>133.37634551811</ele>
        <time>2021-06-29T20:15:57.075Z</time>
      </trkpt>
      <trkpt lat="48.05219" lon="-4.0491">
        <ele>133.27872591427</ele>
        <time>2021-06-29T20:15:59.585Z</time>
      </trkpt>
      <trkpt lat="48.0524" lon="-4.04447">
        <ele>133.10035700226</ele>
        <time>2021-06-29T20:16:02.145Z</time>
      </trkpt>
      <trkpt lat="48.0524" lon="-4.04398">
        <ele>132.89910212173</ele>
        <time>2021-06-29T20:16:04.710Z</time>
      </trkpt>
      <trkpt lat="48.05237" lon="-4.04365">
        <ele>132.71008273135</ele>
        <time>2021-06-29T20:16:07.279Z</time>
      </trkpt>
      <trkpt lat="48.0521" lon="-4.04238">
        <ele>132.54105622278</ele>
        <time>2021-06-29T20:16:09.862Z</time>
      </trkpt>
      <trkpt lat="48.05207" lon="-4.04211">
        <ele>132.31968505038</ele>
        <time>2021-06-29T20:16:12.448Z</time>
      </trkpt>
      <trkpt lat="48.05192" lon="-4.03859">
        <ele>131.94581166948</ele>
        <time>2021-06-29T20:16:15.072Z</time>
      </trkpt>
      <trkpt lat="48.05183" lon="-4.03803">
        <ele>131.73935381187</ele>
        <time>2021-06-29T20:16:17.702Z</time>
      </trkpt>
      <trkpt lat="48.05158" lon="-4.03696">
        <ele>131.4812587573</ele>
        <time>2021-06-29T20:16:20.344Z</time>
      </trkpt>
      <trkpt lat="48.05148" lon="-4.03644">
        <ele>131.30645247102</ele>
        <time>2021-06-29T20:16:22.992Z</time>
      </trkpt>
      <trkpt lat="48.05146" lon="-4.03613">
        <ele>131.17522346731</ele>
        <time>2021-06-29T20:16:25.644Z</time>
      </trkpt>
      <trkpt lat="48.05149" lon="-4.03576">
        <ele>131.05987769903</ele>
        <time>2021-06-29T20:16:28.300Z</time>
      </trkpt>
      <trkpt lat="48.05158" lon="-4.03542">
        <ele>130.97300751793</ele>
        <time>2021-06-29T20:16:30.960Z</time>
      </trkpt>
      <trkpt lat="48.05164" lon="-4.03527">
        <ele>130.93749668103</ele>
        <time>2021-06-29T20:16:33.621Z</time>
      </trkpt>
      <trkpt lat="48.05186" lon="-4.03482">
        <ele>130.92356076898</ele>
        <time>2021-06-29T20:16:36.288Z</time>
      </trkpt>
      <trkpt lat="48.05224" lon="-4.03415">
        <ele>131.00022718598</ele>
        <time>2021-06-29T20:16:38.965Z</time>
      </trkpt>
      <trkpt lat="48.05247" lon="-4.03377">
        <ele>131.13478970305</ele>
        <time>2021-06-29T20:16:41.647Z</time>
      </trkpt>
      <trkpt lat="48.05269" lon="-4.03348">
        <ele>131.25798123144</ele>
        <time>2021-06-29T20:16:44.334Z</time>
      </trkpt>
      <trkpt lat="48.05315" lon="-4.03298">
        <ele>131.50747235657</ele>
        <time>2021-06-29T20:16:47.030Z</time>
      </trkpt>
      <trkpt lat="48.05336" lon="-4.03268">
        <ele>131.67279442621</ele>
        <time>2021-06-29T20:16:49.731Z</time>
      </trkpt>
      <trkpt lat="48.05349" lon="-4.03236">
        <ele>131.83248399822</ele>
        <time>2021-06-29T20:16:52.436Z</time>
      </trkpt>
      <trkpt lat="48.05387" lon="-4.03087">
        <ele>131.98325882915</ele>
        <time>2021-06-29T20:16:55.158Z</time>
      </trkpt>
      <trkpt lat="48.05399" lon="-4.0305">
        <ele>132.10700574611</ele>
        <time>2021-06-29T20:16:57.884Z</time>
      </trkpt>
      <trkpt lat="48.05408" lon="-4.03026">
        <ele>132.21632295646</ele>
        <time>2021-06-29T20:17:00.613Z</time>
      </trkpt>
      <trkpt lat="48.05426" lon="-4.02996">
        <ele>132.28405778629</ele>
        <time>2021-06-29T20:17:03.347Z</time>
      </trkpt>
      <trkpt lat="48.05642" lon="-4.02742">
        <ele>132.21102193588</ele>
        <time>2021-06-29T20:17:06.125Z</time>
      </trkpt>
      <trkpt lat="48.05659" lon="-4.02722">
        <ele>132.22898094504</ele>
        <time>2021-06-29T20:17:08.906Z</time>
      </trkpt>
      <trkpt lat="48.05672" lon="-4.02702">
        <ele>132.23534508079</ele>
        <time>2021-06-29T20:17:11.690Z</time>
      </trkpt>
      <trkpt lat="48.05691" lon="-4.02667">
        <ele>132.22561184846</ele>
        <time>2021-06-29T20:17:14.479Z</time>
      </trkpt>
      <trkpt lat="48.05722" lon="-4.02599">
        <ele>132.32450131561</ele>
        <time>2021-06-29T20:17:17.277Z</time>
      </trkpt>
      <trkpt lat="48.05733" lon="-4.02558">
        <ele>132.42792298809</ele>
        <time>2021-06-29T20:17:20.079Z</time>
      </trkpt>
      <trkpt lat="48.05747" lon="-4.02497">
        <ele>132.50416887317</ele>
        <time>2021-06-29T20:17:22.888Z</time>
      </trkpt>
      <trkpt lat="48.05767" lon="-4.02437">
        <ele>132.56582530271</ele>
        <time>2021-06-29T20:17:25.705Z</time>
      </trkpt>
      <trkpt lat="48.05796" lon="-4.02371">
        <ele>132.63894765032</ele>
        <time>2021-06-29T20:17:28.530Z</time>
      </trkpt>
      <trkpt lat="48.05828" lon="-4.02331">
        <ele>132.70807216597</ele>
        <time>2021-06-29T20:17:31.362Z</time>
      </trkpt>
      <trkpt lat="48.05867" lon="-4.02294">
        <ele>132.83887134266</ele>
        <time>2021-06-29T20:17:34.201Z</time>
      </trkpt>
      <trkpt lat="48.05908" lon="-4.02264">
        <ele>132.95741793205</ele>
        <time>2021-06-29T20:17:37.047Z</time>
      </trkpt>
      <trkpt lat="48.06246" lon="-4.0212">
        <ele>133.01086737189</ele>
        <time>2021-06-29T20:17:39.950Z</time>
      </trkpt>
      <trkpt lat="48.06274" lon="-4.021">
        <ele>133.15895172539</ele>
        <time>2021-06-29T20:17:42.858Z</time>
      </trkpt>
      <trkpt lat="48.06331" lon="-4.02044">
        <ele>133.35498188121</ele>
        <time>2021-06-29T20:17:45.777Z</time>
      </trkpt>
      <trkpt lat="48.06373" lon="-4.02011">
        <ele>133.55735439562</ele>
        <time>2021-06-29T20:17:48.703Z</time>
      </trkpt>
      <trkpt lat="48.0639" lon="-4.02001">
        <ele>133.7194473293</ele>
        <time>2021-06-29T20:17:51.632Z</time>
      </trkpt>
      <trkpt lat="48.06414" lon="-4.01991">
        <ele>133.87710124674</ele>
        <time>2021-06-29T20:17:54.565Z</time>
      </trkpt>
      <trkpt lat="48.0647" lon="-4.01978">
        <ele>134.10489953385</ele>
        <time>2021-06-29T20:17:57.507Z</time>
      </trkpt>
      <trkpt lat="48.06615" lon="-4.01958">
        <ele>134.2815416148</ele>
        <time>2021-06-29T20:18:00.473Z</time>
      </trkpt>
      <trkpt lat="48.06645" lon="-4.01958">
        <ele>134.58505222113</ele>
        <time>2021-06-29T20:18:03.443Z</time>
      </trkpt>
      <trkpt lat="48.06674" lon="-4.01959">
        <ele>134.86705637354</ele>
        <time>2021-06-29T20:18:06.418Z</time>
      </trkpt>
      <trkpt lat="48.06744" lon="-4.01975">
        <ele>135.22324296819</ele>
        <time>2021-06-29T20:18:09.404Z</time>
      </trkpt>
      <trkpt lat="48.06778" lon="-4.01985">
        <ele>135.60793252524</ele>
        <time>2021-06-29T20:18:12.396Z</time>
      </trkpt>
      <trkpt lat="48.06944" lon="-4.02">
        <ele>135.75640529883</ele>
        <time>2021-06-29T20:18:15.415Z</time>
      </trkpt>
      <trkpt lat="48.06972" lon="-4.01998">
        <ele>136.005170117</ele>
        <time>2021-06-29T20:18:18.438Z</time>
      </trkpt>
      <trkpt lat="48.07009" lon="-4.01987">
        <ele>136.28201039342</ele>
        <time>2021-06-29T20:18:21.467Z</time>
      </trkpt>
      <trkpt lat="48.07133" lon="-4.01944">
        <ele>136.47537665339</ele>
        <time>2021-06-29T20:18:24.516Z</time>
      </trkpt>
      <trkpt lat="48.07151" lon="-4.01936">
        <ele>136.77287678775</ele>
        <time>2021-06-29T20:18:27.568Z</time>
      </trkpt>
      <trkpt lat="48.07192" lon="-4.01906">
        <ele>137.18008806038</ele>
        <time>2021-06-29T20:18:30.628Z</time>
      </trkpt>
      <trkpt lat="48.0723" lon="-4.01865">
        <ele>137.59371649303</ele>
        <time>2021-06-29T20:18:33.695Z</time>
      </trkpt>
      <trkpt lat="48.07276" lon="-4.01793">
        <ele>138.02100183288</ele>
        <time>2021-06-29T20:18:36.773Z</time>
      </trkpt>
      <trkpt lat="48.07341" lon="-4.01668">
        <ele>138.28603061951</ele>
        <time>2021-06-29T20:18:39.868Z</time>
      </trkpt>
      <trkpt lat="48.07384" lon="-4.01604">
        <ele>138.60171911938</ele>
        <time>2021-06-29T20:18:42.973Z</time>
      </trkpt>
      <trkpt lat="48.07408" lon="-4.01575">
        <ele>138.87059075196</ele>
        <time>2021-06-29T20:18:46.083Z</time>
      </trkpt>
      <trkpt lat="48.07629" lon="-4.01347">
        <ele>138.91258128147</ele>
        <time>2021-06-29T20:18:49.236Z</time>
      </trkpt>
      <trkpt lat="48.07903" lon="-4.01075">
        <ele>139.27090472895</ele>
        <time>2021-06-29T20:18:52.441Z</time>
      </trkpt>
      <trkpt lat="48.0796" lon="-4.01032">
        <ele>139.55558950961</ele>
        <time>2021-06-29T20:18:55.657Z</time>
      </trkpt>
      <trkpt lat="48.08026" lon="-4.01013">
        <ele>139.72468473312</ele>
        <time>2021-06-29T20:18:58.883Z</time>
      </trkpt>
      <trkpt lat="48.08201" lon="-4.00982">
        <ele>139.6783272424</ele>
        <time>2021-06-29T20:19:02.137Z</time>
      </trkpt>
      <trkpt lat="48.0823" lon="-4.0097">
        <ele>139.51099818607</ele>
        <time>2021-06-29T20:19:05.396Z</time>
      </trkpt>
      <trkpt lat="48.08263" lon="-4.00951">
        <ele>139.28808011046</ele>
        <time>2021-06-29T20:19:08.661Z</time>
      </trkpt>
      <trkpt lat="48.08287" lon="-4.00929">
        <ele>138.98180664796</ele>
        <time>2021-06-29T20:19:11.930Z</time>
      </trkpt>
      <trkpt lat="48.08385" lon="-4.00789">
        <ele>138.56066180979</ele>
        <time>2021-06-29T20:19:15.221Z</time>
      </trkpt>
      <trkpt lat="48.08415" lon="-4.00753">
        <ele>138.14042745064</ele>
        <time>2021-06-29T20:19:18.518Z</time>
      </trkpt>
      <trkpt lat="48.08479" lon="-4.00691">
        <ele>137.65986983213</ele>
        <time>2021-06-29T20:19:21.828Z</time>
      </trkpt>
      <trkpt lat="48.08766" lon="-4.00415">
        <ele>136.28039793325</ele>
        <time>2021-06-29T20:19:25.192Z</time>
      </trkpt>
      <trkpt lat="48.08816" lon="-4.00369">
        <ele>135.77975934564</ele>
        <time>2021-06-29T20:19:28.566Z</time>
      </trkpt>
      <trkpt lat="48.08835" lon="-4.00359">
        <ele>135.33603084863</ele>
        <time>2021-06-29T20:19:31.943Z</time>
      </trkpt>
      <trkpt lat="48.08849" lon="-4.00355">
        <ele>134.96934734732</ele>
        <time>2021-06-29T20:19:35.322Z</time>
      </trkpt>
      <trkpt lat="48.08948" lon="-4.00359">
        <ele>134.81752520686</ele>
        <time>2021-06-29T20:19:38.717Z</time>
      </trkpt>
      <trkpt lat="48.09215" lon="-4.00362">
        <ele>134.45727892748</ele>
        <time>2021-06-29T20:19:42.155Z</time>
      </trkpt>
      <trkpt lat="48.09255" lon="-4.00352">
        <ele>134.42790663523</ele>
        <time>2021-06-29T20:19:45.599Z</time>
      </trkpt>
      <trkpt lat="48.09544" lon="-4.00178">
        <ele>134.94882549124</ele>
        <time>2021-06-29T20:19:49.093Z</time>
      </trkpt>
      <trkpt lat="48.09579" lon="-4.00166">
        <ele>135.18341944951</ele>
        <time>2021-06-29T20:19:52.593Z</time>
      </trkpt>
      <trkpt lat="48.09631" lon="-4.00156">
        <ele>135.54195981041</ele>
        <time>2021-06-29T20:19:56.101Z</time>
      </trkpt>
      <trkpt lat="48.09648" lon="-4.0016">
        <ele>135.96189060998</ele>
        <time>2021-06-29T20:19:59.612Z</time>
      </trkpt>
      <trkpt lat="48.09654" lon="-4.00147">
        <ele>136.49767555997</ele>
        <time>2021-06-29T20:20:03.125Z</time>
      </trkpt>
      <trkpt lat="48.09662" lon="-4.00138">
        <ele>137.12156431437</ele>
        <time>2021-06-29T20:20:06.639Z</time>
      </trkpt>
      <trkpt lat="48.0967" lon="-4.00137">
        <ele>137.83893080424</ele>
        <time>2021-06-29T20:20:10.155Z</time>
      </trkpt>
      <trkpt lat="48.09678" lon="-4.00138">
        <ele>138.64610090163</ele>
        <time>2021-06-29T20:20:13.672Z</time>
      </trkpt>
      <trkpt lat="48.09684" lon="-4.00143">
        <ele>139.53921075315</ele>
        <time>2021-06-29T20:20:17.190Z</time>
      </trkpt>
      <trkpt lat="48.09688" lon="-4.00152">
        <ele>140.51387157841</ele>
        <time>2021-06-29T20:20:20.709Z</time>
      </trkpt>
      <trkpt lat="48.09704" lon="-4.00142">
        <ele>141.56480106534</ele>
        <time>2021-06-29T20:20:24.231Z</time>
      </trkpt>
      <trkpt lat="48.09759" lon="-4.00128">
        <ele>142.6595652591</ele>
        <time>2021-06-29T20:20:27.762Z</time>
      </trkpt>
      <trkpt lat="48.09765" lon="-4.0013">
        <ele>143.83432674683</ele>
        <time>2021-06-29T20:20:31.294Z</time>
      </trkpt>
      <trkpt lat="48.09838" lon="-4.00115">
        <ele>145.15529006131</ele>
        <time>2021-06-29T20:20:34.838Z</time>
      </trkpt>
      <trkpt lat="48.09871" lon="-4.00106">
        <ele>146.52196647501</ele>
        <time>2021-06-29T20:20:38.387Z</time>
      </trkpt>
      <trkpt lat="48.09928" lon="-4.00095">
        <ele>147.84942473106</ele>
        <time>2021-06-29T20:20:41.945Z</time>
      </trkpt>
      <trkpt lat="48.09949" lon="-4.00093">
        <ele>149.14919664108</ele>
        <time>2021-06-29T20:20:45.507Z</time>
      </trkpt>
      <trkpt lat="48.09979" lon="-4.00094">
        <ele>150.45857570859</ele>
        <time>2021-06-29T20:20:49.073Z</time>
      </trkpt>
      <trkpt lat="48.10142" lon="-4.00119">
        <ele>151.91558372605</ele>
        <time>2021-06-29T20:20:52.666Z</time>
      </trkpt>
      <trkpt lat="48.10192" lon="-4.00128">
        <ele>153.15154094395</ele>
        <time>2021-06-29T20:20:56.267Z</time>
      </trkpt>
      <trkpt lat="48.10205" lon="-4.00133">
        <ele>154.22837233862</ele>
        <time>2021-06-29T20:20:59.870Z</time>
      </trkpt>
      <trkpt lat="48.10219" lon="-4.00129">
        <ele>155.23986133284</ele>
        <time>2021-06-29T20:21:03.475Z</time>
      </trkpt>
      <trkpt lat="48.10224" lon="-4.00131">
        <ele>156.11975253674</ele>
        <time>2021-06-29T20:21:07.081Z</time>
      </trkpt>
      <trkpt lat="48.10464" lon="-4.0017">
        <ele>157.18818840432</ele>
        <time>2021-06-29T20:21:10.726Z</time>
      </trkpt>
      <trkpt lat="48.10519" lon="-4.0018">
        <ele>157.76341188987</ele>
        <time>2021-06-29T20:21:14.380Z</time>
      </trkpt>
      <trkpt lat="48.10547" lon="-4.0019">
        <ele>158.2024823194</ele>
        <time>2021-06-29T20:21:18.038Z</time>
      </trkpt>
      <trkpt lat="48.10582" lon="-4.00208">
        <ele>158.49135294387</ele>
        <time>2021-06-29T20:21:21.702Z</time>
      </trkpt>
      <trkpt lat="48.10693" lon="-4.00274">
        <ele>158.43847590318</ele>
        <time>2021-06-29T20:21:25.385Z</time>
      </trkpt>
      <trkpt lat="48.10713" lon="-4.00283">
        <ele>158.52525223247</ele>
        <time>2021-06-29T20:21:29.072Z</time>
      </trkpt>
      <trkpt lat="48.10714" lon="-4.00278">
        <ele>158.54537001101</ele>
        <time>2021-06-29T20:21:32.759Z</time>
      </trkpt>
      <trkpt lat="48.10718" lon="-4.00272">
        <ele>158.48366115588</ele>
        <time>2021-06-29T20:21:36.447Z</time>
      </trkpt>
      <trkpt lat="48.10723" lon="-4.00273">
        <ele>158.35434566962</ele>
        <time>2021-06-29T20:21:40.136Z</time>
      </trkpt>
      <trkpt lat="48.10726" lon="-4.00277">
        <ele>158.17140361623</ele>
        <time>2021-06-29T20:21:43.825Z</time>
      </trkpt>
      <trkpt lat="48.10726" lon="-4.00287">
        <ele>157.94437894482</ele>
        <time>2021-06-29T20:21:47.516Z</time>
      </trkpt>
      <trkpt lat="48.10779" lon="-4.00335">
        <ele>157.65890400898</ele>
        <time>2021-06-29T20:21:51.216Z</time>
      </trkpt>
      <trkpt lat="48.11015" lon="-4.00571">
        <ele>157.10667627968</ele>
        <time>2021-06-29T20:21:54.962Z</time>
      </trkpt>
      <trkpt lat="48.11015" lon="-4.00571">
        <ele>156.76987600787</ele>
        <time>2021-06-29T20:21:58.708Z</time>
      </trkpt>
      <trkpt lat="48.11015" lon="-4.00571">
        <ele>156.40050959754</ele>
        <time>2021-06-29T20:22:02.454Z</time>
      </trkpt>
      <trkpt lat="48.11015" lon="-4.00571">
        <ele>155.99176054734</ele>
        <time>2021-06-29T20:22:06.200Z</time>
      </trkpt>
      <trkpt lat="48.11044" lon="-4.00612">
        <ele>155.58207593038</ele>
        <time>2021-06-29T20:22:09.952Z</time>
      </trkpt>
      <trkpt lat="48.11064" lon="-4.00678">
        <ele>155.15900550187</ele>
        <time>2021-06-29T20:22:13.712Z</time>
      </trkpt>
      <trkpt lat="48.11137" lon="-4.00988">
        <ele>154.70286332848</ele>
        <time>2021-06-29T20:22:17.507Z</time>
      </trkpt>
      <trkpt lat="48.11154" lon="-4.01033">
        <ele>153.97190836653</ele>
        <time>2021-06-29T20:22:21.308Z</time>
      </trkpt>
      <trkpt lat="48.11161" lon="-4.01047">
        <ele>153.08934303068</ele>
        <time>2021-06-29T20:22:25.111Z</time>
      </trkpt>
      <trkpt lat="48.11198" lon="-4.01088">
        <ele>151.94620539119</ele>
        <time>2021-06-29T20:22:28.921Z</time>
      </trkpt>
      <trkpt lat="48.11774" lon="-4.01549">
        <ele>151.01894759166</ele>
        <time>2021-06-29T20:22:32.836Z</time>
      </trkpt>
      <trkpt lat="48.12091" lon="-4.01831">
        <ele>149.55286703445</ele>
        <time>2021-06-29T20:22:36.810Z</time>
      </trkpt>
      <trkpt lat="48.12246" lon="-4.01971">
        <ele>147.7422984893</ele>
        <time>2021-06-29T20:22:40.813Z</time>
      </trkpt>
      <trkpt lat="48.12289" lon="-4.02012">
        <ele>145.84414325275</ele>
        <time>2021-06-29T20:22:44.824Z</time>
      </trkpt>
      <trkpt lat="48.12294" lon="-4.02018">
        <ele>143.91349939185</ele>
        <time>2021-06-29T20:22:48.836Z</time>
      </trkpt>
      <trkpt lat="48.123" lon="-4.0202">
        <ele>141.85472914995</ele>
        <time>2021-06-29T20:22:52.849Z</time>
      </trkpt>
      <trkpt lat="48.12323" lon="-4.02048">
        <ele>139.67905417541</ele>
        <time>2021-06-29T20:22:56.867Z</time>
      </trkpt>
      <trkpt lat="48.12616" lon="-4.01862">
        <ele>137.12520801841</ele>
        <time>2021-06-29T20:23:00.936Z</time>
      </trkpt>
      <trkpt lat="48.12667" lon="-4.01838">
        <ele>134.73797455205</ele>
        <time>2021-06-29T20:23:05.013Z</time>
      </trkpt>
      <trkpt lat="48.12738" lon="-4.01832">
        <ele>132.33068463599</ele>
        <time>2021-06-29T20:23:09.102Z</time>
      </trkpt>
      <trkpt lat="48.12944" lon="-4.01852">
        <ele>130.13107149228</ele>
        <time>2021-06-29T20:23:13.224Z</time>
      </trkpt>
      <trkpt lat="48.13023" lon="-4.01846">
        <ele>127.79186046656</ele>
        <time>2021-06-29T20:23:17.358Z</time>
      </trkpt>
      <trkpt lat="48.13088" lon="-4.01821">
        <ele>125.54992706506</ele>
        <time>2021-06-29T20:23:21.503Z</time>
      </trkpt>
      <trkpt lat="48.13289" lon="-4.0173">
        <ele>123.21392541936</ele>
        <time>2021-06-29T20:23:25.682Z</time>
      </trkpt>
      <trkpt lat="48.13921" lon="-4.01585">
        <ele>120.914242862</ele>
        <time>2021-06-29T20:23:29.963Z</time>
      </trkpt>
      <trkpt lat="48.13952" lon="-4.01575">
        <ele>119.3141340823</ele>
        <time>2021-06-29T20:23:34.249Z</time>
      </trkpt>
      <trkpt lat="48.1408" lon="-4.0152">
        <ele>118.00770969306</ele>
        <time>2021-06-29T20:23:38.557Z</time>
      </trkpt>
      <trkpt lat="48.14129" lon="-4.01747">
        <ele>117.04948176652</ele>
        <time>2021-06-29T20:23:42.890Z</time>
      </trkpt>
      <trkpt lat="48.14143" lon="-4.01803">
        <ele>116.43733963621</ele>
        <time>2021-06-29T20:23:47.230Z</time>
      </trkpt>
      <trkpt lat="48.14155" lon="-4.01838">
        <ele>116.17151311325</ele>
        <time>2021-06-29T20:23:51.574Z</time>
      </trkpt>
      <trkpt lat="48.14172" lon="-4.01876">
        <ele>116.24989893212</ele>
        <time>2021-06-29T20:23:55.923Z</time>
      </trkpt>
      <trkpt lat="48.14232" lon="-4.02005">
        <ele>116.74987556347</ele>
        <time>2021-06-29T20:24:00.289Z</time>
      </trkpt>
      <trkpt lat="48.14268" lon="-4.02064">
        <ele>117.54223701149</ele>
        <time>2021-06-29T20:24:04.663Z</time>
      </trkpt>
      <trkpt lat="48.14301" lon="-4.02112">
        <ele>118.65676336318</ele>
        <time>2021-06-29T20:24:09.044Z</time>
      </trkpt>
      <trkpt lat="48.1433" lon="-4.02143">
        <ele>120.03842907557</ele>
        <time>2021-06-29T20:24:13.431Z</time>
      </trkpt>
      <trkpt lat="48.1446" lon="-4.02266">
        <ele>121.76992099599</ele>
        <time>2021-06-29T20:24:17.843Z</time>
      </trkpt>
      <trkpt lat="48.14521" lon="-4.02328">
        <ele>123.54159283703</ele>
        <time>2021-06-29T20:24:22.267Z</time>
      </trkpt>
      <trkpt lat="48.14592" lon="-4.02409">
        <ele>125.43382102189</ele>
        <time>2021-06-29T20:24:26.705Z</time>
      </trkpt>
      <trkpt lat="48.14699" lon="-4.02518">
        <ele>127.51286046563</ele>
        <time>2021-06-29T20:24:31.164Z</time>
      </trkpt>
      <trkpt lat="48.14773" lon="-4.0258">
        <ele>129.64753462724</ele>
        <time>2021-06-29T20:24:35.636Z</time>
      </trkpt>
      <trkpt lat="48.14798" lon="-4.02619">
        <ele>131.66616310696</ele>
        <time>2021-06-29T20:24:40.114Z</time>
      </trkpt>
      <trkpt lat="48.14807" lon="-4.02638">
        <ele>133.63996988516</ele>
        <time>2021-06-29T20:24:44.594Z</time>
      </trkpt>
      <trkpt lat="48.14825" lon="-4.02678">
        <ele>135.60266510779</ele>
        <time>2021-06-29T20:24:49.080Z</time>
      </trkpt>
      <trkpt lat="48.14855" lon="-4.02759">
        <ele>137.55856365699</ele>
        <time>2021-06-29T20:24:53.576Z</time>
      </trkpt>
      <trkpt lat="48.14869" lon="-4.02811">
        <ele>139.36483422625</ele>
        <time>2021-06-29T20:24:58.078Z</time>
      </trkpt>
      <trkpt lat="48.14889" lon="-4.02898">
        <ele>140.96821195324</ele>
        <time>2021-06-29T20:25:02.589Z</time>
      </trkpt>
      <trkpt lat="48.14891" lon="-4.0291">
        <ele>142.45758368826</ele>
        <time>2021-06-29T20:25:07.102Z</time>
      </trkpt>
      <trkpt lat="48.14905" lon="-4.02945">
        <ele>143.81219864946</ele>
        <time>2021-06-29T20:25:11.619Z</time>
      </trkpt>
      <trkpt lat="48.14996" lon="-4.03094">
        <ele>145.08441779354</ele>
        <time>2021-06-29T20:25:16.158Z</time>
      </trkpt>
      <trkpt lat="48.15015" lon="-4.03128">
        <ele>146.1865960168</ele>
        <time>2021-06-29T20:25:20.702Z</time>
      </trkpt>
      <trkpt lat="48.15069" lon="-4.03279">
        <ele>147.09164647898</ele>
        <time>2021-06-29T20:25:25.264Z</time>
      </trkpt>
      <trkpt lat="48.15091" lon="-4.03352">
        <ele>147.90368656919</ele>
        <time>2021-06-29T20:25:29.834Z</time>
      </trkpt>
      <trkpt lat="48.15099" lon="-4.03387">
        <ele>148.66247627192</ele>
        <time>2021-06-29T20:25:34.408Z</time>
      </trkpt>
      <trkpt lat="48.15105" lon="-4.03425">
        <ele>149.32009426001</ele>
        <time>2021-06-29T20:25:38.987Z</time>
      </trkpt>
      <trkpt lat="48.15113" lon="-4.03488">
        <ele>149.87431596509</ele>
        <time>2021-06-29T20:25:43.572Z</time>
      </trkpt>
      <trkpt lat="48.15129" lon="-4.03714">
        <ele>150.34758354641</ele>
        <time>2021-06-29T20:25:48.182Z</time>
      </trkpt>
      <trkpt lat="48.15132" lon="-4.03732">
        <ele>150.62848056292</ele>
        <time>2021-06-29T20:25:52.794Z</time>
      </trkpt>
      <trkpt lat="48.15144" lon="-4.03787">
        <ele>150.80256135488</ele>
        <time>2021-06-29T20:25:57.412Z</time>
      </trkpt>
      <trkpt lat="48.15156" lon="-4.03822">
        <ele>150.87809850722</ele>
        <time>2021-06-29T20:26:02.034Z</time>
      </trkpt>
      <trkpt lat="48.15178" lon="-4.03869">
        <ele>150.82726261325</ele>
        <time>2021-06-29T20:26:06.662Z</time>
      </trkpt>
      <trkpt lat="48.15204" lon="-4.03907">
        <ele>150.60572643732</ele>
        <time>2021-06-29T20:26:11.296Z</time>
      </trkpt>
      <trkpt lat="48.15232" lon="-4.03936">
        <ele>150.16781230282</ele>
        <time>2021-06-29T20:26:15.936Z</time>
      </trkpt>
      <trkpt lat="48.15249" lon="-4.03951">
        <ele>149.63915534574</ele>
        <time>2021-06-29T20:26:20.579Z</time>
      </trkpt>
      <trkpt lat="48.15276" lon="-4.03965">
        <ele>149.0144508558</ele>
        <time>2021-06-29T20:26:25.226Z</time>
      </trkpt>
      <trkpt lat="48.15324" lon="-4.03986">
        <ele>148.16304461411</ele>
        <time>2021-06-29T20:26:29.881Z</time>
      </trkpt>
      <trkpt lat="48.15513" lon="-4.04054">
        <ele>147.06205431146</ele>
        <time>2021-06-29T20:26:34.567Z</time>
      </trkpt>
      <trkpt lat="48.15558" lon="-4.04076">
        <ele>145.91630474832</ele>
        <time>2021-06-29T20:26:39.261Z</time>
      </trkpt>
      <trkpt lat="48.15593" lon="-4.04108">
        <ele>144.58039509192</ele>
        <time>2021-06-29T20:26:43.962Z</time>
      </trkpt>
      <trkpt lat="48.15625" lon="-4.04148">
        <ele>143.1653698002</ele>
        <time>2021-06-29T20:26:48.669Z</time>
      </trkpt>
      <trkpt lat="48.15661" lon="-4.04208">
        <ele>141.75498979267</ele>
        <time>2021-06-29T20:26:53.385Z</time>
      </trkpt>
      <trkpt lat="48.15832" lon="-4.04607">
        <ele>139.73639219259</ele>
        <time>2021-06-29T20:26:58.152Z</time>
      </trkpt>
      <trkpt lat="48.15863" lon="-4.04707">
        <ele>138.19853055524</ele>
        <time>2021-06-29T20:27:02.931Z</time>
      </trkpt>
      <trkpt lat="48.15895" lon="-4.04837">
        <ele>136.59286760795</ele>
        <time>2021-06-29T20:27:07.724Z</time>
      </trkpt>
      <trkpt lat="48.15914" lon="-4.04894">
        <ele>135.15917379213</ele>
        <time>2021-06-29T20:27:12.524Z</time>
      </trkpt>
      <trkpt lat="48.15965" lon="-4.0502">
        <ele>133.91635224286</ele>
        <time>2021-06-29T20:27:17.340Z</time>
      </trkpt>
      <trkpt lat="48.15989" lon="-4.0509">
        <ele>132.74130001818</ele>
        <time>2021-06-29T20:27:22.164Z</time>
      </trkpt>
      <trkpt lat="48.16024" lon="-4.05169">
        <ele>131.52780424142</ele>
        <time>2021-06-29T20:27:26.999Z</time>
      </trkpt>
      <trkpt lat="48.16089" lon="-4.05303">
        <ele>130.24970940616</ele>
        <time>2021-06-29T20:27:31.851Z</time>
      </trkpt>
      <trkpt lat="48.16113" lon="-4.05344">
        <ele>129.30324731831</ele>
        <time>2021-06-29T20:27:36.709Z</time>
      </trkpt>
      <trkpt lat="48.16167" lon="-4.05413">
        <ele>128.42986574493</ele>
        <time>2021-06-29T20:27:41.578Z</time>
      </trkpt>
      <trkpt lat="48.16177" lon="-4.05433">
        <ele>127.73855008666</ele>
        <time>2021-06-29T20:27:46.450Z</time>
      </trkpt>
      <trkpt lat="48.16186" lon="-4.0547">
        <ele>127.15209425466</ele>
        <time>2021-06-29T20:27:51.326Z</time>
      </trkpt>
      <trkpt lat="48.16216" lon="-4.05701">
        <ele>126.96200506149</ele>
        <time>2021-06-29T20:27:56.228Z</time>
      </trkpt>
      <trkpt lat="48.16222" lon="-4.05757">
        <ele>126.73015928392</ele>
        <time>2021-06-29T20:28:01.136Z</time>
      </trkpt>
      <trkpt lat="48.1622" lon="-4.0578">
        <ele>126.50624801802</ele>
        <time>2021-06-29T20:28:06.046Z</time>
      </trkpt>
      <trkpt lat="48.16213" lon="-4.05837">
        <ele>126.30018474791</ele>
        <time>2021-06-29T20:28:10.962Z</time>
      </trkpt>
      <trkpt lat="48.16213" lon="-4.05863">
        <ele>126.17064953102</ele>
        <time>2021-06-29T20:28:15.881Z</time>
      </trkpt>
      <trkpt lat="48.16214" lon="-4.05872">
        <ele>126.10141919801</ele>
        <time>2021-06-29T20:28:20.801Z</time>
      </trkpt>
      <trkpt lat="48.16227" lon="-4.05911">
        <ele>126.04659198797</ele>
        <time>2021-06-29T20:28:25.726Z</time>
      </trkpt>
      <trkpt lat="48.16241" lon="-4.05933">
        <ele>126.04179672262</ele>
        <time>2021-06-29T20:28:30.654Z</time>
      </trkpt>
      <trkpt lat="48.16425" lon="-4.06141">
        <ele>126.05154577556</ele>
        <time>2021-06-29T20:28:35.619Z</time>
      </trkpt>
      <trkpt lat="48.16479" lon="-4.06143">
        <ele>125.99239036841</ele>
        <time>2021-06-29T20:28:40.593Z</time>
      </trkpt>
      <trkpt lat="48.16539" lon="-4.06157">
        <ele>125.83960639317</ele>
        <time>2021-06-29T20:28:45.576Z</time>
      </trkpt>
      <trkpt lat="48.16592" lon="-4.06181">
        <ele>125.65413943239</ele>
        <time>2021-06-29T20:28:50.568Z</time>
      </trkpt>
      <trkpt lat="48.16637" lon="-4.0621">
        <ele>125.44038525959</ele>
        <time>2021-06-29T20:28:55.568Z</time>
      </trkpt>
      <trkpt lat="48.16661" lon="-4.06227">
        <ele>125.14199281636</ele>
        <time>2021-06-29T20:29:00.572Z</time>
      </trkpt>
      <trkpt lat="48.16683" lon="-4.06246">
        <ele>124.76736777957</ele>
        <time>2021-06-29T20:29:05.580Z</time>
      </trkpt>
      <trkpt lat="48.16755" lon="-4.06328">
        <ele>124.28617043263</ele>
        <time>2021-06-29T20:29:10.603Z</time>
      </trkpt>
      <trkpt lat="48.16781" lon="-4.0634">
        <ele>123.70033083737</ele>
        <time>2021-06-29T20:29:15.630Z</time>
      </trkpt>
      <trkpt lat="48.16799" lon="-4.06341">
        <ele>123.07522794939</ele>
        <time>2021-06-29T20:29:20.660Z</time>
      </trkpt>
      <trkpt lat="48.1682" lon="-4.06335">
        <ele>122.34552068699</ele>
        <time>2021-06-29T20:29:25.694Z</time>
      </trkpt>
      <trkpt lat="48.16868" lon="-4.06302">
        <ele>121.53302283307</ele>
        <time>2021-06-29T20:29:30.736Z</time>
      </trkpt>
      <trkpt lat="48.16881" lon="-4.06297">
        <ele>120.59807082493</ele>
        <time>2021-06-29T20:29:35.780Z</time>
      </trkpt>
      <trkpt lat="48.16893" lon="-4.06298">
        <ele>119.55890842289</ele>
        <time>2021-06-29T20:29:40.826Z</time>
      </trkpt>
      <trkpt lat="48.16901" lon="-4.06302">
        <ele>118.37479790596</ele>
        <time>2021-06-29T20:29:45.873Z</time>
      </trkpt>
      <trkpt lat="48.16911" lon="-4.06309">
        <ele>117.03512195553</ele>
        <time>2021-06-29T20:29:50.922Z</time>
      </trkpt>
      <trkpt lat="48.16921" lon="-4.06322">
        <ele>115.5458092279</ele>
        <time>2021-06-29T20:29:55.973Z</time>
      </trkpt>
      <trkpt lat="48.16929" lon="-4.06345">
        <ele>113.91241933438</ele>
        <time>2021-06-29T20:30:01.027Z</time>
      </trkpt>
      <trkpt lat="48.16931" lon="-4.06374">
        <ele>112.09540125065</ele>
        <time>2021-06-29T20:30:06.084Z</time>
      </trkpt>
      <trkpt lat="48.1693" lon="-4.06439">
        <ele>110.13185871845</ele>
        <time>2021-06-29T20:30:11.148Z</time>
      </trkpt>
      <trkpt lat="48.16932" lon="-4.0648">
        <ele>108.08686378272</ele>
        <time>2021-06-29T20:30:16.217Z</time>
      </trkpt>
      <trkpt lat="48.16936" lon="-4.06495">
        <ele>105.95513286324</ele>
        <time>2021-06-29T20:30:21.287Z</time>
      </trkpt>
      <trkpt lat="48.16944" lon="-4.06526">
        <ele>103.7010906264</ele>
        <time>2021-06-29T20:30:26.361Z</time>
      </trkpt>
      <trkpt lat="48.17097" lon="-4.07012">
        <ele>101.01377762974</ele>
        <time>2021-06-29T20:30:31.492Z</time>
      </trkpt>
      <trkpt lat="48.17155" lon="-4.07174">
        <ele>98.63127910891</ele>
        <time>2021-06-29T20:30:36.643Z</time>
      </trkpt>
      <trkpt lat="48.17216" lon="-4.07332">
        <ele>95.94388075304</ele>
        <time>2021-06-29T20:30:41.814Z</time>
      </trkpt>
      <trkpt lat="48.17227" lon="-4.07364">
        <ele>93.64338196577</ele>
        <time>2021-06-29T20:30:46.988Z</time>
      </trkpt>
      <trkpt lat="48.17242" lon="-4.07421">
        <ele>91.4986996162</ele>
        <time>2021-06-29T20:30:52.169Z</time>
      </trkpt>
      <trkpt lat="48.17257" lon="-4.07541">
        <ele>89.3494795463</ele>
        <time>2021-06-29T20:30:57.363Z</time>
      </trkpt>
      <trkpt lat="48.17264" lon="-4.07585">
        <ele>87.1455849405</ele>
        <time>2021-06-29T20:31:02.562Z</time>
      </trkpt>
      <trkpt lat="48.17285" lon="-4.07658">
        <ele>85.072260153</ele>
        <time>2021-06-29T20:31:07.769Z</time>
      </trkpt>
      <trkpt lat="48.17293" lon="-4.07678">
        <ele>83.15634497436</ele>
        <time>2021-06-29T20:31:12.979Z</time>
      </trkpt>
      <trkpt lat="48.17333" lon="-4.07743">
        <ele>81.37501193946</ele>
        <time>2021-06-29T20:31:18.198Z</time>
      </trkpt>
      <trkpt lat="48.17443" lon="-4.07891">
        <ele>79.62902743315</ele>
        <time>2021-06-29T20:31:23.441Z</time>
      </trkpt>
      <trkpt lat="48.17618" lon="-4.08112">
        <ele>78.08958699113</ele>
        <time>2021-06-29T20:31:28.721Z</time>
      </trkpt>
      <trkpt lat="48.17642" lon="-4.0815">
        <ele>76.60179332002</ele>
        <time>2021-06-29T20:31:34.006Z</time>
      </trkpt>
      <trkpt lat="48.17659" lon="-4.08187">
        <ele>75.17940146436</ele>
        <time>2021-06-29T20:31:39.296Z</time>
      </trkpt>
      <trkpt lat="48.17676" lon="-4.0824">
        <ele>73.89232398749</ele>
        <time>2021-06-29T20:31:44.592Z</time>
      </trkpt>
      <trkpt lat="48.17681" lon="-4.08262">
        <ele>72.67107873824</ele>
        <time>2021-06-29T20:31:49.891Z</time>
      </trkpt>
      <trkpt lat="48.17687" lon="-4.08308">
        <ele>71.48343616077</ele>
        <time>2021-06-29T20:31:55.195Z</time>
      </trkpt>
      <trkpt lat="48.17688" lon="-4.08353">
        <ele>70.30938940712</ele>
        <time>2021-06-29T20:32:00.504Z</time>
      </trkpt>
      <trkpt lat="48.17686" lon="-4.08373">
        <ele>69.23439463739</ele>
        <time>2021-06-29T20:32:05.815Z</time>
      </trkpt>
      <trkpt lat="48.17679" lon="-4.08424">
        <ele>68.16930163889</ele>
        <time>2021-06-29T20:32:11.132Z</time>
      </trkpt>
      <trkpt lat="48.17672" lon="-4.08449">
        <ele>67.18546897602</ele>
        <time>2021-06-29T20:32:16.451Z</time>
      </trkpt>
      <trkpt lat="48.17669" lon="-4.0846">
        <ele>66.23810073251</ele>
        <time>2021-06-29T20:32:21.772Z</time>
      </trkpt>
      <trkpt lat="48.1765" lon="-4.08507">
        <ele>65.20693222321</ele>
        <time>2021-06-29T20:32:27.099Z</time>
      </trkpt>
      <trkpt lat="48.17632" lon="-4.08541">
        <ele>64.21036929562</ele>
        <time>2021-06-29T20:32:32.430Z</time>
      </trkpt>
      <trkpt lat="48.17594" lon="-4.08601">
        <ele>63.25345106015</ele>
        <time>2021-06-29T20:32:37.770Z</time>
      </trkpt>
      <trkpt lat="48.17585" lon="-4.0862">
        <ele>62.24424115051</ele>
        <time>2021-06-29T20:32:43.113Z</time>
      </trkpt>
      <trkpt lat="48.17577" lon="-4.08645">
        <ele>61.17895775575</ele>
        <time>2021-06-29T20:32:48.459Z</time>
      </trkpt>
      <trkpt lat="48.17573" lon="-4.08683">
        <ele>60.0321279881</ele>
        <time>2021-06-29T20:32:53.809Z</time>
      </trkpt>
      <trkpt lat="48.17575" lon="-4.08719">
        <ele>58.82157327545</ele>
        <time>2021-06-29T20:32:59.163Z</time>
      </trkpt>
      <trkpt lat="48.17584" lon="-4.08753">
        <ele>57.56639458024</ele>
        <time>2021-06-29T20:33:04.520Z</time>
      </trkpt>
      <trkpt lat="48.17593" lon="-4.08771">
        <ele>56.20572300336</ele>
        <time>2021-06-29T20:33:09.880Z</time>
      </trkpt>
      <trkpt lat="48.17603" lon="-4.08787">
        <ele>54.75247371611</ele>
        <time>2021-06-29T20:33:15.242Z</time>
      </trkpt>
      <trkpt lat="48.1763" lon="-4.08813">
        <ele>53.21826239926</ele>
        <time>2021-06-29T20:33:20.609Z</time>
      </trkpt>
      <trkpt lat="48.17855" lon="-4.08952">
        <ele>51.32913202368</ele>
        <time>2021-06-29T20:33:26.015Z</time>
      </trkpt>
      <trkpt lat="48.17915" lon="-4.08972">
        <ele>49.60475112849</ele>
        <time>2021-06-29T20:33:31.431Z</time>
      </trkpt>
      <trkpt lat="48.17944" lon="-4.08976">
        <ele>47.80781766882</ele>
        <time>2021-06-29T20:33:36.852Z</time>
      </trkpt>
      <trkpt lat="48.18122" lon="-4.08981">
        <ele>45.83566694001</ele>
        <time>2021-06-29T20:33:42.301Z</time>
      </trkpt>
      <trkpt lat="48.18166" lon="-4.08977">
        <ele>43.76060108869</ele>
        <time>2021-06-29T20:33:47.757Z</time>
      </trkpt>
      <trkpt lat="48.18207" lon="-4.08968">
        <ele>41.7181731714</ele>
        <time>2021-06-29T20:33:53.220Z</time>
      </trkpt>
      <trkpt lat="48.18269" lon="-4.08946">
        <ele>39.82726604852</ele>
        <time>2021-06-29T20:33:58.693Z</time>
      </trkpt>
      <trkpt lat="48.18351" lon="-4.08897">
        <ele>37.68456764379</ele>
        <time>2021-06-29T20:34:04.180Z</time>
      </trkpt>
      <trkpt lat="48.18383" lon="-4.08869">
        <ele>35.69158782381</ele>
        <time>2021-06-29T20:34:09.673Z</time>
      </trkpt>
      <trkpt lat="48.18413" lon="-4.0884">
        <ele>33.70603889046</ele>
        <time>2021-06-29T20:34:15.172Z</time>
      </trkpt>
      <trkpt lat="48.1857" lon="-4.08666">
        <ele>31.53591313368</ele>
        <time>2021-06-29T20:34:20.702Z</time>
      </trkpt>
      <trkpt lat="48.18588" lon="-4.08648">
        <ele>29.68752955995</ele>
        <time>2021-06-29T20:34:26.236Z</time>
      </trkpt>
      <trkpt lat="48.18604" lon="-4.08636">
        <ele>27.94671914125</ele>
        <time>2021-06-29T20:34:31.773Z</time>
      </trkpt>
      <trkpt lat="48.18621" lon="-4.0863">
        <ele>26.29981313344</ele>
        <time>2021-06-29T20:34:37.312Z</time>
      </trkpt>
      <trkpt lat="48.18647" lon="-4.08628">
        <ele>24.72869631858</ele>
        <time>2021-06-29T20:34:42.856Z</time>
      </trkpt>
      <trkpt lat="48.18664" lon="-4.08632">
        <ele>23.23608077466</ele>
        <time>2021-06-29T20:34:48.402Z</time>
      </trkpt>
      <trkpt lat="48.18676" lon="-4.08637">
        <ele>21.82520379547</ele>
        <time>2021-06-29T20:34:53.950Z</time>
      </trkpt>
      <trkpt lat="48.1869" lon="-4.08649">
        <ele>20.51165240218</ele>
        <time>2021-06-29T20:34:59.501Z</time>
      </trkpt>
      <trkpt lat="48.18702" lon="-4.08665">
        <ele>19.28066550949</ele>
        <time>2021-06-29T20:35:05.055Z</time>
      </trkpt>
      <trkpt lat="48.18712" lon="-4.08686">
        <ele>18.1742473678</ele>
        <time>2021-06-29T20:35:10.611Z</time>
      </trkpt>
      <trkpt lat="48.18719" lon="-4.08707">
        <ele>17.16595256514</ele>
        <time>2021-06-29T20:35:16.170Z</time>
      </trkpt>
      <trkpt lat="48.18739" lon="-4.08805">
        <ele>16.41017530969</ele>
        <time>2021-06-29T20:35:21.740Z</time>
      </trkpt>
      <trkpt lat="48.1875" lon="-4.0885">
        <ele>15.62259583814</ele>
        <time>2021-06-29T20:35:27.315Z</time>
      </trkpt>
      <trkpt lat="48.18844" lon="-4.09069">
        <ele>14.9961581485</ele>
        <time>2021-06-29T20:35:32.918Z</time>
      </trkpt>
      <trkpt lat="48.18861" lon="-4.09104">
        <ele>14.11034021471</ele>
        <time>2021-06-29T20:35:38.525Z</time>
      </trkpt>
      <trkpt lat="48.18912" lon="-4.09166">
        <ele>12.93583644511</ele>
        <time>2021-06-29T20:35:44.143Z</time>
      </trkpt>
      <trkpt lat="48.19029" lon="-4.09257">
        <ele>12.14650724563</ele>
        <time>2021-06-29T20:35:49.782Z</time>
      </trkpt>
      <trkpt lat="48.19052" lon="-4.09281">
        <ele>11.56810138668</ele>
        <time>2021-06-29T20:35:55.426Z</time>
      </trkpt>
      <trkpt lat="48.19092" lon="-4.09329">
        <ele>11.13012095377</ele>
        <time>2021-06-29T20:36:01.078Z</time>
      </trkpt>
      <trkpt lat="48.19124" lon="-4.09377">
        <ele>10.71259686019</ele>
        <time>2021-06-29T20:36:06.737Z</time>
      </trkpt>
      <trkpt lat="48.19193" lon="-4.09503">
        <ele>10.4373360185</ele>
        <time>2021-06-29T20:36:12.413Z</time>
      </trkpt>
      <trkpt lat="48.19239" lon="-4.09573">
        <ele>10.29114842921</ele>
        <time>2021-06-29T20:36:18.100Z</time>
      </trkpt>
      <trkpt lat="48.19255" lon="-4.09596">
        <ele>10.17746979449</ele>
        <time>2021-06-29T20:36:23.791Z</time>
      </trkpt>
      <trkpt lat="48.19276" lon="-4.0962">
        <ele>10.18724135812</ele>
        <time>2021-06-29T20:36:29.486Z</time>
      </trkpt>
      <trkpt lat="48.19295" lon="-4.09638">
        <ele>10.25114144425</ele>
        <time>2021-06-29T20:36:35.184Z</time>
      </trkpt>
      <trkpt lat="48.19322" lon="-4.09657">
        <ele>10.3333449724</ele>
        <time>2021-06-29T20:36:40.887Z</time>
      </trkpt>
      <trkpt lat="48.19413" lon="-4.09701">
        <ele>10.53035299782</ele>
        <time>2021-06-29T20:36:46.605Z</time>
      </trkpt>
      <trkpt lat="48.19435" lon="-4.09707">
        <ele>10.71460022121</ele>
        <time>2021-06-29T20:36:52.327Z</time>
      </trkpt>
      <trkpt lat="48.1946" lon="-4.09706">
        <ele>10.92197179675</ele>
        <time>2021-06-29T20:36:58.053Z</time>
      </trkpt>
      <trkpt lat="48.19476" lon="-4.09702">
        <ele>11.13029928768</ele>
        <time>2021-06-29T20:37:03.782Z</time>
      </trkpt>
      <trkpt lat="48.19491" lon="-4.09695">
        <ele>11.3238124021</ele>
        <time>2021-06-29T20:37:09.513Z</time>
      </trkpt>
      <trkpt lat="48.19502" lon="-4.09687">
        <ele>11.46536470615</ele>
        <time>2021-06-29T20:37:15.246Z</time>
      </trkpt>
      <trkpt lat="48.19514" lon="-4.09675">
        <ele>11.55482569955</ele>
        <time>2021-06-29T20:37:20.981Z</time>
      </trkpt>
      <trkpt lat="48.19526" lon="-4.09659">
        <ele>11.64266229705</ele>
        <time>2021-06-29T20:37:26.719Z</time>
      </trkpt>
      <trkpt lat="48.19557" lon="-4.09603">
        <ele>11.92021235228</ele>
        <time>2021-06-29T20:37:32.465Z</time>
      </trkpt>
      <trkpt lat="48.19573" lon="-4.09558">
        <ele>11.72462478375</ele>
        <time>2021-06-29T20:37:38.216Z</time>
      </trkpt>
      <trkpt lat="48.19666" lon="-4.09365">
        <ele>10.92975985945</ele>
        <time>2021-06-29T20:37:43.993Z</time>
      </trkpt>
      <trkpt lat="48.19671" lon="-4.09348">
        <ele>10.63862479791</ele>
        <time>2021-06-29T20:37:49.772Z</time>
      </trkpt>
      <trkpt lat="48.19615" lon="-4.093">
        <ele>10.20211842809</ele>
        <time>2021-06-29T20:37:55.561Z</time>
      </trkpt>
      <trkpt lat="48.19612" lon="-4.09302">
        <ele>9.90886599425</ele>
        <time>2021-06-29T20:38:01.351Z</time>
      </trkpt>
      <trkpt lat="48.19609" lon="-4.093">
        <ele>9.64892250575</ele>
        <time>2021-06-29T20:38:07.141Z</time>
      </trkpt>
      <trkpt lat="48.19607" lon="-4.09294">
        <ele>9.44448439157</ele>
        <time>2021-06-29T20:38:12.932Z</time>
      </trkpt>
      <trkpt lat="48.19609" lon="-4.0929">
        <ele>9.30999840769</ele>
        <time>2021-06-29T20:38:18.723Z</time>
      </trkpt>
      <trkpt lat="48.19612" lon="-4.09289">
        <ele>9.27941282393</ele>
        <time>2021-06-29T20:38:24.515Z</time>
      </trkpt>
      <trkpt lat="48.19618" lon="-4.09269">
        <ele>9.35433295936</ele>
        <time>2021-06-29T20:38:30.309Z</time>
      </trkpt>
      <trkpt lat="48.19684" lon="-4.09096">
        <ele>9.5238287315</ele>
        <time>2021-06-29T20:38:36.124Z</time>
      </trkpt>
      <trkpt lat="48.19679" lon="-4.09087">
        <ele>9.91952477322</ele>
        <time>2021-06-29T20:38:41.941Z</time>
      </trkpt>
      <trkpt lat="48.19675" lon="-4.09077">
        <ele>10.47437498862</ele>
        <time>2021-06-29T20:38:47.759Z</time>
      </trkpt>
      <trkpt lat="48.19655" lon="-4.08999">
        <ele>11.29743232192</ele>
        <time>2021-06-29T20:38:53.586Z</time>
      </trkpt>
      <trkpt lat="48.19651" lon="-4.08978">
        <ele>12.22689809618</ele>
        <time>2021-06-29T20:38:59.415Z</time>
      </trkpt>
      <trkpt lat="48.19652" lon="-4.08969">
        <ele>13.27453418309</ele>
        <time>2021-06-29T20:39:05.245Z</time>
      </trkpt>
      <trkpt lat="48.19661" lon="-4.08932">
        <ele>14.4719457731</ele>
        <time>2021-06-29T20:39:11.079Z</time>
      </trkpt>
      <trkpt lat="48.19709" lon="-4.08765">
        <ele>16.07886942988</ele>
        <time>2021-06-29T20:39:16.933Z</time>
      </trkpt>
      <trkpt lat="48.19735" lon="-4.08684">
        <ele>17.68801168671</ele>
        <time>2021-06-29T20:39:22.797Z</time>
      </trkpt>
      <trkpt lat="48.19742" lon="-4.0867">
        <ele>19.24113918438</ele>
        <time>2021-06-29T20:39:28.662Z</time>
      </trkpt>
      <trkpt lat="48.19775" lon="-4.08627">
        <ele>20.90514059706</ele>
        <time>2021-06-29T20:39:34.534Z</time>
      </trkpt>
      <trkpt lat="48.20214" lon="-4.08157">
        <ele>23.14261650144</ele>
        <time>2021-06-29T20:39:40.493Z</time>
      </trkpt>
      <trkpt lat="48.20222" lon="-4.08144">
        <ele>24.90741560554</ele>
        <time>2021-06-29T20:39:46.454Z</time>
      </trkpt>
      <trkpt lat="48.20232" lon="-4.08116">
        <ele>26.72948068329</ele>
        <time>2021-06-29T20:39:52.418Z</time>
      </trkpt>
      <trkpt lat="48.20233" lon="-4.08082">
        <ele>28.58752963238</ele>
        <time>2021-06-29T20:39:58.386Z</time>
      </trkpt>
      <trkpt lat="48.20231" lon="-4.08052">
        <ele>30.38743048982</ele>
        <time>2021-06-29T20:40:04.357Z</time>
      </trkpt>
      <trkpt lat="48.20235" lon="-4.08012">
        <ele>32.08720741903</ele>
        <time>2021-06-29T20:40:10.332Z</time>
      </trkpt>
      <trkpt lat="48.20241" lon="-4.07999">
        <ele>33.78260758006</ele>
        <time>2021-06-29T20:40:16.309Z</time>
      </trkpt>
      <trkpt lat="48.20247" lon="-4.07991">
        <ele>35.49432491024</ele>
        <time>2021-06-29T20:40:22.287Z</time>
      </trkpt>
      <trkpt lat="48.20254" lon="-4.07985">
        <ele>37.23476631521</ele>
        <time>2021-06-29T20:40:28.267Z</time>
      </trkpt>
      <trkpt lat="48.20268" lon="-4.07982">
        <ele>38.98788712324</ele>
        <time>2021-06-29T20:40:34.249Z</time>
      </trkpt>
      <trkpt lat="48.20284" lon="-4.07987">
        <ele>40.83250102919</ele>
        <time>2021-06-29T20:40:40.233Z</time>
      </trkpt>
      <trkpt lat="48.20327" lon="-4.08007">
        <ele>42.81701414136</ele>
        <time>2021-06-29T20:40:46.225Z</time>
      </trkpt>
      <trkpt lat="48.20352" lon="-4.08011">
        <ele>44.77990253062</ele>
        <time>2021-06-29T20:40:52.221Z</time>
      </trkpt>
      <trkpt lat="48.20368" lon="-4.08004">
        <ele>46.83343112691</ele>
        <time>2021-06-29T20:40:58.219Z</time>
      </trkpt>
      <trkpt lat="48.20376" lon="-4.07998">
        <ele>48.98959460305</ele>
        <time>2021-06-29T20:41:04.219Z</time>
      </trkpt>
      <trkpt lat="48.20405" lon="-4.07966">
        <ele>51.30466806957</ele>
        <time>2021-06-29T20:41:10.225Z</time>
      </trkpt>
      <trkpt lat="48.20456" lon="-4.07866">
        <ele>53.80006475009</ele>
        <time>2021-06-29T20:41:16.244Z</time>
      </trkpt>
      <trkpt lat="48.20503" lon="-4.07779">
        <ele>56.14222923812</ele>
        <time>2021-06-29T20:41:22.275Z</time>
      </trkpt>
      <trkpt lat="48.20503" lon="-4.0778">
        <ele>58.60336612882</ele>
        <time>2021-06-29T20:41:28.306Z</time>
      </trkpt>
      <trkpt lat="48.20539" lon="-4.07705">
        <ele>61.41297661</ele>
        <time>2021-06-29T20:41:34.347Z</time>
      </trkpt>
      <trkpt lat="48.20556" lon="-4.07656">
        <ele>64.09270540225</ele>
        <time>2021-06-29T20:41:40.394Z</time>
      </trkpt>
      <trkpt lat="48.20566" lon="-4.07608">
        <ele>66.59892360645</ele>
        <time>2021-06-29T20:41:46.446Z</time>
      </trkpt>
      <trkpt lat="48.20573" lon="-4.07547">
        <ele>69.17055245594</ele>
        <time>2021-06-29T20:41:52.505Z</time>
      </trkpt>
      <trkpt lat="48.20606" lon="-4.07424">
        <ele>71.91724755861</ele>
        <time>2021-06-29T20:41:58.578Z</time>
      </trkpt>
      <trkpt lat="48.20662" lon="-4.07196">
        <ele>74.4251334022</ele>
        <time>2021-06-29T20:42:04.677Z</time>
      </trkpt>
      <trkpt lat="48.2072" lon="-4.06967">
        <ele>76.79840317249</ele>
        <time>2021-06-29T20:42:10.802Z</time>
      </trkpt>
      <trkpt lat="48.2076" lon="-4.06846">
        <ele>78.95319679398</ele>
        <time>2021-06-29T20:42:16.942Z</time>
      </trkpt>
      <trkpt lat="48.20774" lon="-4.0681">
        <ele>80.85243248809</ele>
        <time>2021-06-29T20:42:23.086Z</time>
      </trkpt>
      <trkpt lat="48.2077" lon="-4.06798">
        <ele>82.42606981783</ele>
        <time>2021-06-29T20:42:29.232Z</time>
      </trkpt>
      <trkpt lat="48.20773" lon="-4.06785">
        <ele>83.75550805578</ele>
        <time>2021-06-29T20:42:35.379Z</time>
      </trkpt>
      <trkpt lat="48.20778" lon="-4.0678">
        <ele>84.82290639768</ele>
        <time>2021-06-29T20:42:41.527Z</time>
      </trkpt>
      <trkpt lat="48.20785" lon="-4.0678">
        <ele>85.63140090753</ele>
        <time>2021-06-29T20:42:47.676Z</time>
      </trkpt>
      <trkpt lat="48.20794" lon="-4.0677">
        <ele>86.18453214221</ele>
        <time>2021-06-29T20:42:53.827Z</time>
      </trkpt>
      <trkpt lat="48.20876" lon="-4.06632">
        <ele>86.3425420968</ele>
        <time>2021-06-29T20:42:59.998Z</time>
      </trkpt>
      <trkpt lat="48.20889" lon="-4.06608">
        <ele>86.36440400849</ele>
        <time>2021-06-29T20:43:06.172Z</time>
      </trkpt>
      <trkpt lat="48.20899" lon="-4.06585">
        <ele>86.18362548622</ele>
        <time>2021-06-29T20:43:12.349Z</time>
      </trkpt>
      <trkpt lat="48.20903" lon="-4.06571">
        <ele>85.81299928669</ele>
        <time>2021-06-29T20:43:18.528Z</time>
      </trkpt>
      <trkpt lat="48.20907" lon="-4.06549">
        <ele>85.26214711141</ele>
        <time>2021-06-29T20:43:24.709Z</time>
      </trkpt>
      <trkpt lat="48.20904" lon="-4.06541">
        <ele>84.59216884149</ele>
        <time>2021-06-29T20:43:30.891Z</time>
      </trkpt>
      <trkpt lat="48.20906" lon="-4.06532">
        <ele>83.81243039926</ele>
        <time>2021-06-29T20:43:37.074Z</time>
      </trkpt>
      <trkpt lat="48.20912" lon="-4.06525">
        <ele>82.96057499576</ele>
        <time>2021-06-29T20:43:43.258Z</time>
      </trkpt>
      <trkpt lat="48.20918" lon="-4.06525">
        <ele>82.07175692704</ele>
        <time>2021-06-29T20:43:49.443Z</time>
      </trkpt>
      <trkpt lat="48.20928" lon="-4.06513">
        <ele>81.15669796821</ele>
        <time>2021-06-29T20:43:55.630Z</time>
      </trkpt>
      <trkpt lat="48.20943" lon="-4.06482">
        <ele>80.27812282728</ele>
        <time>2021-06-29T20:44:01.821Z</time>
      </trkpt>
      <trkpt lat="48.2096" lon="-4.06441">
        <ele>79.43297261117</ele>
        <time>2021-06-29T20:44:08.018Z</time>
      </trkpt>
      <trkpt lat="48.20979" lon="-4.06378">
        <ele>78.59950304027</ele>
        <time>2021-06-29T20:44:14.222Z</time>
      </trkpt>
      <trkpt lat="48.20992" lon="-4.06372">
        <ele>77.86641143539</ele>
        <time>2021-06-29T20:44:20.428Z</time>
      </trkpt>
      <trkpt lat="48.21001" lon="-4.06354">
        <ele>77.25921746455</ele>
        <time>2021-06-29T20:44:26.637Z</time>
      </trkpt>
      <trkpt lat="48.2102" lon="-4.06278">
        <ele>76.62361448073</ele>
        <time>2021-06-29T20:44:32.854Z</time>
      </trkpt>
      <trkpt lat="48.21036" lon="-4.06174">
        <ele>76.35824553106</ele>
        <time>2021-06-29T20:44:39.083Z</time>
      </trkpt>
      <trkpt lat="48.21038" lon="-4.06165">
        <ele>76.38025696288</ele>
        <time>2021-06-29T20:44:45.313Z</time>
      </trkpt>
      <trkpt lat="48.21047" lon="-4.06155">
        <ele>76.6206300279</ele>
        <time>2021-06-29T20:44:51.544Z</time>
      </trkpt>
      <trkpt lat="48.21076" lon="-4.06146">
        <ele>77.06453607915</ele>
        <time>2021-06-29T20:44:57.780Z</time>
      </trkpt>
      <trkpt lat="48.21137" lon="-4.06142">
        <ele>77.79014638025</ele>
        <time>2021-06-29T20:45:04.026Z</time>
      </trkpt>
      <trkpt lat="48.21213" lon="-4.06129">
        <ele>78.98935152128</ele>
        <time>2021-06-29T20:45:10.284Z</time>
      </trkpt>
      <trkpt lat="48.21258" lon="-4.06113">
        <ele>80.35916875681</ele>
        <time>2021-06-29T20:45:16.550Z</time>
      </trkpt>
      <trkpt lat="48.21273" lon="-4.06106">
        <ele>81.78571637816</ele>
        <time>2021-06-29T20:45:22.818Z</time>
      </trkpt>
      <trkpt lat="48.21313" lon="-4.06081">
        <ele>83.35816444622</ele>
        <time>2021-06-29T20:45:29.093Z</time>
      </trkpt>
      <trkpt lat="48.21389" lon="-4.06011">
        <ele>84.95203960076</ele>
        <time>2021-06-29T20:45:35.382Z</time>
      </trkpt>
      <trkpt lat="48.21638" lon="-4.05735">
        <ele>87.08909285282</ele>
        <time>2021-06-29T20:45:41.721Z</time>
      </trkpt>
      <trkpt lat="48.21663" lon="-4.0571">
        <ele>88.96042407144</ele>
        <time>2021-06-29T20:45:48.065Z</time>
      </trkpt>
      <trkpt lat="48.21944" lon="-4.05502">
        <ele>91.14898733722</ele>
        <time>2021-06-29T20:45:54.459Z</time>
      </trkpt>
      <trkpt lat="48.22015" lon="-4.05454">
        <ele>93.00140860168</ele>
        <time>2021-06-29T20:46:00.866Z</time>
      </trkpt>
      <trkpt lat="48.22078" lon="-4.05414">
        <ele>94.85287836012</ele>
        <time>2021-06-29T20:46:07.283Z</time>
      </trkpt>
      <trkpt lat="48.22141" lon="-4.05384">
        <ele>96.50555918392</ele>
        <time>2021-06-29T20:46:13.711Z</time>
      </trkpt>
      <trkpt lat="48.2218" lon="-4.05367">
        <ele>97.99939817614</ele>
        <time>2021-06-29T20:46:20.146Z</time>
      </trkpt>
      <trkpt lat="48.22225" lon="-4.05352">
        <ele>99.37827942957</ele>
        <time>2021-06-29T20:46:26.588Z</time>
      </trkpt>
      <trkpt lat="48.2232" lon="-4.05325">
        <ele>100.53381333879</ele>
        <time>2021-06-29T20:46:33.045Z</time>
      </trkpt>
      <trkpt lat="48.22392" lon="-4.05308">
        <ele>101.70360910436</ele>
        <time>2021-06-29T20:46:39.514Z</time>
      </trkpt>
      <trkpt lat="48.22458" lon="-4.05288">
        <ele>102.70391594996</ele>
        <time>2021-06-29T20:46:45.994Z</time>
      </trkpt>
      <trkpt lat="48.22528" lon="-4.05256">
        <ele>103.68324944516</ele>
        <time>2021-06-29T20:46:52.486Z</time>
      </trkpt>
      <trkpt lat="48.22581" lon="-4.05227">
        <ele>104.69532786367</ele>
        <time>2021-06-29T20:46:58.987Z</time>
      </trkpt>
      <trkpt lat="48.22621" lon="-4.05202">
        <ele>105.69514222652</ele>
        <time>2021-06-29T20:47:05.495Z</time>
      </trkpt>
      <trkpt lat="48.22641" lon="-4.05186">
        <ele>106.70298188215</ele>
        <time>2021-06-29T20:47:12.006Z</time>
      </trkpt>
      <trkpt lat="48.22663" lon="-4.05165">
        <ele>107.74302623353</ele>
        <time>2021-06-29T20:47:18.521Z</time>
      </trkpt>
      <trkpt lat="48.22785" lon="-4.0503">
        <ele>108.67726752726</ele>
        <time>2021-06-29T20:47:25.061Z</time>
      </trkpt>
      <trkpt lat="48.22863" lon="-4.04938">
        <ele>109.82477949388</ele>
        <time>2021-06-29T20:47:31.617Z</time>
      </trkpt>
      <trkpt lat="48.22884" lon="-4.04898">
        <ele>111.20500171729</ele>
        <time>2021-06-29T20:47:38.178Z</time>
      </trkpt>
      <trkpt lat="48.22934" lon="-4.04787">
        <ele>112.7749285603</ele>
        <time>2021-06-29T20:47:44.753Z</time>
      </trkpt>
      <trkpt lat="48.23045" lon="-4.04509">
        <ele>114.91562424426</ele>
        <time>2021-06-29T20:47:51.363Z</time>
      </trkpt>
      <trkpt lat="48.23045" lon="-4.0451">
        <ele>116.72465358785</ele>
        <time>2021-06-29T20:47:57.973Z</time>
      </trkpt>
      <trkpt lat="48.23167" lon="-4.04204">
        <ele>119.09844792043</ele>
        <time>2021-06-29T20:48:04.621Z</time>
      </trkpt>
      <trkpt lat="48.23212" lon="-4.04065">
        <ele>121.14014708086</ele>
        <time>2021-06-29T20:48:11.286Z</time>
      </trkpt>
      <trkpt lat="48.23245" lon="-4.03932">
        <ele>123.30045200255</ele>
        <time>2021-06-29T20:48:17.966Z</time>
      </trkpt>
      <trkpt lat="48.23259" lon="-4.03882">
        <ele>125.3532329239</ele>
        <time>2021-06-29T20:48:24.652Z</time>
      </trkpt>
      <trkpt lat="48.23281" lon="-4.03828">
        <ele>127.33591686132</ele>
        <time>2021-06-29T20:48:31.344Z</time>
      </trkpt>
      <trkpt lat="48.23335" lon="-4.03679">
        <ele>129.23354579665</ele>
        <time>2021-06-29T20:48:38.055Z</time>
      </trkpt>
      <trkpt lat="48.23444" lon="-4.03454">
        <ele>131.13796754394</ele>
        <time>2021-06-29T20:48:44.795Z</time>
      </trkpt>
      <trkpt lat="48.23461" lon="-4.03425">
        <ele>132.89344951314</ele>
        <time>2021-06-29T20:48:51.539Z</time>
      </trkpt>
      <trkpt lat="48.23527" lon="-4.03319">
        <ele>134.54374608677</ele>
        <time>2021-06-29T20:48:58.299Z</time>
      </trkpt>
      <trkpt lat="48.23561" lon="-4.03253">
        <ele>135.96201673227</ele>
        <time>2021-06-29T20:49:05.068Z</time>
      </trkpt>
      <trkpt lat="48.23585" lon="-4.03201">
        <ele>137.26071638954</ele>
        <time>2021-06-29T20:49:11.844Z</time>
      </trkpt>
      <trkpt lat="48.23677" lon="-4.0298">
        <ele>138.47736138014</ele>
        <time>2021-06-29T20:49:18.648Z</time>
      </trkpt>
      <trkpt lat="48.23782" lon="-4.0269">
        <ele>139.57096857527</ele>
        <time>2021-06-29T20:49:25.487Z</time>
      </trkpt>
      <trkpt lat="48.23808" lon="-4.02614">
        <ele>140.44351165735</ele>
        <time>2021-06-29T20:49:32.335Z</time>
      </trkpt>
      <trkpt lat="48.23857" lon="-4.02444">
        <ele>141.03508496306</ele>
        <time>2021-06-29T20:49:39.203Z</time>
      </trkpt>
      <trkpt lat="48.23886" lon="-4.023">
        <ele>141.38305859545</ele>
        <time>2021-06-29T20:49:46.087Z</time>
      </trkpt>
      <trkpt lat="48.23886" lon="-4.02301">
        <ele>141.74894416255</ele>
        <time>2021-06-29T20:49:52.971Z</time>
      </trkpt>
      <trkpt lat="48.23899" lon="-4.02233">
        <ele>141.94395483945</ele>
        <time>2021-06-29T20:49:59.862Z</time>
      </trkpt>
      <trkpt lat="48.23912" lon="-4.02184">
        <ele>142.02588956167</ele>
        <time>2021-06-29T20:50:06.759Z</time>
      </trkpt>
      <trkpt lat="48.23962" lon="-4.02057">
        <ele>142.08429512011</ele>
        <time>2021-06-29T20:50:13.672Z</time>
      </trkpt>
      <trkpt lat="48.23755" lon="-4.0185">
        <ele>142.0979120358</ele>
        <time>2021-06-29T20:50:20.625Z</time>
      </trkpt>
      <trkpt lat="48.23724" lon="-4.01813">
        <ele>141.92078967278</ele>
        <time>2021-06-29T20:50:27.584Z</time>
      </trkpt>
      <trkpt lat="48.23684" lon="-4.0177">
        <ele>141.63523183424</ele>
        <time>2021-06-29T20:50:34.551Z</time>
      </trkpt>
      <trkpt lat="48.23644" lon="-4.01721">
        <ele>141.17993547855</ele>
        <time>2021-06-29T20:50:41.526Z</time>
      </trkpt>
      <trkpt lat="48.23611" lon="-4.01686">
        <ele>140.64277135326</ele>
        <time>2021-06-29T20:50:48.508Z</time>
      </trkpt>
      <trkpt lat="48.23594" lon="-4.01659">
        <ele>140.07701636989</ele>
        <time>2021-06-29T20:50:55.494Z</time>
      </trkpt>
      <trkpt lat="48.2358" lon="-4.01624">
        <ele>139.42786060359</ele>
        <time>2021-06-29T20:51:02.484Z</time>
      </trkpt>
      <trkpt lat="48.23575" lon="-4.01606">
        <ele>138.74545174</ele>
        <time>2021-06-29T20:51:09.476Z</time>
      </trkpt>
      <trkpt lat="48.2357" lon="-4.01562">
        <ele>137.98410988631</ele>
        <time>2021-06-29T20:51:16.473Z</time>
      </trkpt>
      <trkpt lat="48.2357" lon="-4.01521">
        <ele>137.17313854588</ele>
        <time>2021-06-29T20:51:23.474Z</time>
      </trkpt>
      <trkpt lat="48.23568" lon="-4.01486">
        <ele>136.33262548417</ele>
        <time>2021-06-29T20:51:30.479Z</time>
      </trkpt>
      <trkpt lat="48.23566" lon="-4.01473">
        <ele>135.52415078049</ele>
        <time>2021-06-29T20:51:37.485Z</time>
      </trkpt>
      <trkpt lat="48.23558" lon="-4.0144">
        <ele>134.68784952379</ele>
        <time>2021-06-29T20:51:44.495Z</time>
      </trkpt>
      <trkpt lat="48.23551" lon="-4.01422">
        <ele>133.86058268864</ele>
        <time>2021-06-29T20:51:51.507Z</time>
      </trkpt>
      <trkpt lat="48.23518" lon="-4.01344">
        <ele>133.03553030813</ele>
        <time>2021-06-29T20:51:58.529Z</time>
      </trkpt>
      <trkpt lat="48.23459" lon="-4.01235">
        <ele>131.96770525098</ele>
        <time>2021-06-29T20:52:05.566Z</time>
      </trkpt>
      <trkpt lat="48.2343" lon="-4.01172">
        <ele>131.24365878975</ele>
        <time>2021-06-29T20:52:12.612Z</time>
      </trkpt>
      <trkpt lat="48.23422" lon="-4.01146">
        <ele>130.60872846354</ele>
        <time>2021-06-29T20:52:19.661Z</time>
      </trkpt>
      <trkpt lat="48.23412" lon="-4.01101">
        <ele>130.00405987284</ele>
        <time>2021-06-29T20:52:26.715Z</time>
      </trkpt>
      <trkpt lat="48.23404" lon="-4.01047">
        <ele>129.55054431924</ele>
        <time>2021-06-29T20:52:33.775Z</time>
      </trkpt>
      <trkpt lat="48.23389" lon="-4.00884">
        <ele>129.1253027452</ele>
        <time>2021-06-29T20:52:40.852Z</time>
      </trkpt>
      <trkpt lat="48.23388" lon="-4.00832">
        <ele>129.06503207081</ele>
        <time>2021-06-29T20:52:47.935Z</time>
      </trkpt>
      <trkpt lat="48.23404" lon="-4.00712">
        <ele>129.23674985084</ele>
        <time>2021-06-29T20:52:55.031Z</time>
      </trkpt>
      <trkpt lat="48.23408" lon="-4.00662">
        <ele>129.10069961899</ele>
        <time>2021-06-29T20:53:02.132Z</time>
      </trkpt>
      <trkpt lat="48.23408" lon="-4.00638">
        <ele>128.92809593607</ele>
        <time>2021-06-29T20:53:09.236Z</time>
      </trkpt>
      <trkpt lat="48.23404" lon="-4.00538">
        <ele>128.81202011696</ele>
        <time>2021-06-29T20:53:16.351Z</time>
      </trkpt>
      <trkpt lat="48.23399" lon="-4.0047">
        <ele>128.55078590034</ele>
        <time>2021-06-29T20:53:23.473Z</time>
      </trkpt>
      <trkpt lat="48.23392" lon="-4.00412">
        <ele>128.0913914122</ele>
        <time>2021-06-29T20:53:30.601Z</time>
      </trkpt>
      <trkpt lat="48.23381" lon="-4.00338">
        <ele>127.37613720203</ele>
        <time>2021-06-29T20:53:37.737Z</time>
      </trkpt>
      <trkpt lat="48.23353" lon="-4.00221">
        <ele>126.49586323681</ele>
        <time>2021-06-29T20:53:44.887Z</time>
      </trkpt>
      <trkpt lat="48.23342" lon="-4.00171">
        <ele>125.44484113866</ele>
        <time>2021-06-29T20:53:52.042Z</time>
      </trkpt>
      <trkpt lat="48.23328" lon="-3.99995">
        <ele>124.12479149048</ele>
        <time>2021-06-29T20:53:59.216Z</time>
      </trkpt>
      <trkpt lat="48.2333" lon="-3.99972">
        <ele>122.74915037962</ele>
        <time>2021-06-29T20:54:06.393Z</time>
      </trkpt>
      <trkpt lat="48.23336" lon="-3.99952">
        <ele>121.38276818979</ele>
        <time>2021-06-29T20:54:13.572Z</time>
      </trkpt>
      <trkpt lat="48.23353" lon="-3.99913">
        <ele>119.96216856248</ele>
        <time>2021-06-29T20:54:20.756Z</time>
      </trkpt>
      <trkpt lat="48.23387" lon="-3.99846">
        <ele>118.42508971544</ele>
        <time>2021-06-29T20:54:27.949Z</time>
      </trkpt>
      <trkpt lat="48.23398" lon="-3.99814">
        <ele>116.69029729605</ele>
        <time>2021-06-29T20:54:35.146Z</time>
      </trkpt>
      <trkpt lat="48.2341" lon="-3.99761">
        <ele>114.8066735221</ele>
        <time>2021-06-29T20:54:42.349Z</time>
      </trkpt>
      <trkpt lat="48.23428" lon="-3.99661">
        <ele>112.73932703307</ele>
        <time>2021-06-29T20:54:49.563Z</time>
      </trkpt>
      <trkpt lat="48.23429" lon="-3.99639">
        <ele>110.85309370858</ele>
        <time>2021-06-29T20:54:56.779Z</time>
      </trkpt>
      <trkpt lat="48.23428" lon="-3.99629">
        <ele>108.93578898999</ele>
        <time>2021-06-29T20:55:03.996Z</time>
      </trkpt>
      <trkpt lat="48.23421" lon="-3.99604">
        <ele>107.01037083312</ele>
        <time>2021-06-29T20:55:11.216Z</time>
      </trkpt>
      <trkpt lat="48.23411" lon="-3.99585">
        <ele>105.07545440896</ele>
        <time>2021-06-29T20:55:18.439Z</time>
      </trkpt>
      <trkpt lat="48.23312" lon="-3.99452">
        <ele>102.95269537601</ele>
        <time>2021-06-29T20:55:25.683Z</time>
      </trkpt>
      <trkpt lat="48.23296" lon="-3.99431">
        <ele>100.99773267246</ele>
        <time>2021-06-29T20:55:32.931Z</time>
      </trkpt>
      <trkpt lat="48.2329" lon="-3.99415">
        <ele>99.1367794558</ele>
        <time>2021-06-29T20:55:40.180Z</time>
      </trkpt>
      <trkpt lat="48.23284" lon="-3.99393">
        <ele>97.31329840723</ele>
        <time>2021-06-29T20:55:47.432Z</time>
      </trkpt>
      <trkpt lat="48.23263" lon="-3.99248">
        <ele>95.41401805955</ele>
        <time>2021-06-29T20:55:54.700Z</time>
      </trkpt>
      <trkpt lat="48.23256" lon="-3.99213">
        <ele>93.67485028055</ele>
        <time>2021-06-29T20:56:01.972Z</time>
      </trkpt>
      <trkpt lat="48.23249" lon="-3.99181">
        <ele>92.0777193727</ele>
        <time>2021-06-29T20:56:09.247Z</time>
      </trkpt>
      <trkpt lat="48.23243" lon="-3.99162">
        <ele>90.55243145266</ele>
        <time>2021-06-29T20:56:16.525Z</time>
      </trkpt>
      <trkpt lat="48.23189" lon="-3.99037">
        <ele>88.93782171705</ele>
        <time>2021-06-29T20:56:23.819Z</time>
      </trkpt>
      <trkpt lat="48.23179" lon="-3.99007">
        <ele>87.63543954457</ele>
        <time>2021-06-29T20:56:31.116Z</time>
      </trkpt>
      <trkpt lat="48.23156" lon="-3.98912">
        <ele>86.40306260543</ele>
        <time>2021-06-29T20:56:38.424Z</time>
      </trkpt>
      <trkpt lat="48.23142" lon="-3.98867">
        <ele>85.41316457775</ele>
        <time>2021-06-29T20:56:45.737Z</time>
      </trkpt>
      <trkpt lat="48.23137" lon="-3.98857">
        <ele>84.55693404076</ele>
        <time>2021-06-29T20:56:53.052Z</time>
      </trkpt>
      <trkpt lat="48.2312" lon="-3.98835">
        <ele>83.8401703118</ele>
        <time>2021-06-29T20:57:00.370Z</time>
      </trkpt>
      <trkpt lat="48.23039" lon="-3.98752">
        <ele>83.21079056185</ele>
        <time>2021-06-29T20:57:07.704Z</time>
      </trkpt>
      <trkpt lat="48.23021" lon="-3.98736">
        <ele>82.71877985651</ele>
        <time>2021-06-29T20:57:15.041Z</time>
      </trkpt>
      <trkpt lat="48.23002" lon="-3.98711">
        <ele>82.43563559201</ele>
        <time>2021-06-29T20:57:22.382Z</time>
      </trkpt>
      <trkpt lat="48.22984" lon="-3.98676">
        <ele>82.35869686943</ele>
        <time>2021-06-29T20:57:29.728Z</time>
      </trkpt>
      <trkpt lat="48.22972" lon="-3.98639">
        <ele>82.48639930809</ele>
        <time>2021-06-29T20:57:37.078Z</time>
      </trkpt>
      <trkpt lat="48.22964" lon="-3.98594">
        <ele>82.77286431666</ele>
        <time>2021-06-29T20:57:44.433Z</time>
      </trkpt>
      <trkpt lat="48.2296" lon="-3.98528">
        <ele>83.25717868857</ele>
        <time>2021-06-29T20:57:51.796Z</time>
      </trkpt>
      <trkpt lat="48.22962" lon="-3.98467">
        <ele>83.97921003041</ele>
        <time>2021-06-29T20:57:59.165Z</time>
      </trkpt>
      <trkpt lat="48.22965" lon="-3.98435">
        <ele>84.86735066238</ele>
        <time>2021-06-29T20:58:06.538Z</time>
      </trkpt>
      <trkpt lat="48.22984" lon="-3.98338">
        <ele>85.94433122773</ele>
        <time>2021-06-29T20:58:13.921Z</time>
      </trkpt>
      <trkpt lat="48.23022" lon="-3.98223">
        <ele>87.06188078909</ele>
        <time>2021-06-29T20:58:21.318Z</time>
      </trkpt>
      <trkpt lat="48.23025" lon="-3.98186">
        <ele>88.31119082031</ele>
        <time>2021-06-29T20:58:28.719Z</time>
      </trkpt>
      <trkpt lat="48.23028" lon="-3.98061">
        <ele>89.61362072278</ele>
        <time>2021-06-29T20:58:36.133Z</time>
      </trkpt>
      <trkpt lat="48.23025" lon="-3.98032">
        <ele>91.17889804028</ele>
        <time>2021-06-29T20:58:43.551Z</time>
      </trkpt>
      <trkpt lat="48.22977" lon="-3.97698">
        <ele>92.67880005022</ele>
        <time>2021-06-29T20:58:51.005Z</time>
      </trkpt>
      <trkpt lat="48.22964" lon="-3.97619">
        <ele>94.7820415197</ele>
        <time>2021-06-29T20:58:58.468Z</time>
      </trkpt>
      <trkpt lat="48.22943" lon="-3.97525">
        <ele>96.99357022642</ele>
        <time>2021-06-29T20:59:05.941Z</time>
      </trkpt>
      <trkpt lat="48.22924" lon="-3.97472">
        <ele>99.24911092043</ele>
        <time>2021-06-29T20:59:13.421Z</time>
      </trkpt>
      <trkpt lat="48.22879" lon="-3.97387">
        <ele>101.63078856695</ele>
        <time>2021-06-29T20:59:20.912Z</time>
      </trkpt>
      <trkpt lat="48.22811" lon="-3.97271">
        <ele>104.10005438088</ele>
        <time>2021-06-29T20:59:28.420Z</time>
      </trkpt>
      <trkpt lat="48.22789" lon="-3.97227">
        <ele>106.34620666589</ele>
        <time>2021-06-29T20:59:35.934Z</time>
      </trkpt>
      <trkpt lat="48.2278" lon="-3.972">
        <ele>108.45667972195</ele>
        <time>2021-06-29T20:59:43.451Z</time>
      </trkpt>
      <trkpt lat="48.22774" lon="-3.97169">
        <ele>110.41414896426</ele>
        <time>2021-06-29T20:59:50.972Z</time>
      </trkpt>
      <trkpt lat="48.22773" lon="-3.97147">
        <ele>112.15355099051</ele>
        <time>2021-06-29T20:59:58.495Z</time>
      </trkpt>
      <trkpt lat="48.22778" lon="-3.97106">
        <ele>113.71391903489</ele>
        <time>2021-06-29T21:00:06.022Z</time>
      </trkpt>
      <trkpt lat="48.22785" lon="-3.97077">
        <ele>115.03164680343</ele>
        <time>2021-06-29T21:00:13.553Z</time>
      </trkpt>
      <trkpt lat="48.2279" lon="-3.97065">
        <ele>116.12115396665</ele>
        <time>2021-06-29T21:00:21.085Z</time>
      </trkpt>
      <trkpt lat="48.22791" lon="-3.9702">
        <ele>116.98188157663</ele>
        <time>2021-06-29T21:00:28.622Z</time>
      </trkpt>
      <trkpt lat="48.22793" lon="-3.9702">
        <ele>117.56746019991</ele>
        <time>2021-06-29T21:00:36.159Z</time>
      </trkpt>
      <trkpt lat="48.22798" lon="-3.9702">
        <ele>117.89347414753</ele>
        <time>2021-06-29T21:00:43.697Z</time>
      </trkpt>
      <trkpt lat="48.22803" lon="-3.97017">
        <ele>117.96583750175</ele>
        <time>2021-06-29T21:00:51.236Z</time>
      </trkpt>
      <trkpt lat="48.22807" lon="-3.96984">
        <ele>117.79202602831</ele>
        <time>2021-06-29T21:00:58.779Z</time>
      </trkpt>
      <trkpt lat="48.22804" lon="-3.96933">
        <ele>117.38988810511</ele>
        <time>2021-06-29T21:01:06.327Z</time>
      </trkpt>
      <trkpt lat="48.22797" lon="-3.96896">
        <ele>116.76037739734</ele>
        <time>2021-06-29T21:01:13.879Z</time>
      </trkpt>
      <trkpt lat="48.22793" lon="-3.9686">
        <ele>115.86661114923</ele>
        <time>2021-06-29T21:01:21.435Z</time>
      </trkpt>
      <trkpt lat="48.22832" lon="-3.96828">
        <ele>114.75787160646</ele>
        <time>2021-06-29T21:01:28.998Z</time>
      </trkpt>
      <trkpt lat="48.22833" lon="-3.96828">
        <ele>113.57900397022</ele>
        <time>2021-06-29T21:01:36.561Z</time>
      </trkpt>
      <trkpt lat="48.22847" lon="-3.96812">
        <ele>112.23537181184</ele>
        <time>2021-06-29T21:01:44.127Z</time>
      </trkpt>
      <trkpt lat="48.22866" lon="-3.96783">
        <ele>110.78322193451</ele>
        <time>2021-06-29T21:01:51.697Z</time>
      </trkpt>
      <trkpt lat="48.22886" lon="-3.96735">
        <ele>109.23884246326</ele>
        <time>2021-06-29T21:01:59.274Z</time>
      </trkpt>
      <trkpt lat="48.22895" lon="-3.96691">
        <ele>107.67934558609</ele>
        <time>2021-06-29T21:02:06.855Z</time>
      </trkpt>
      <trkpt lat="48.22901" lon="-3.96595">
        <ele>106.00321530047</ele>
        <time>2021-06-29T21:02:14.447Z</time>
      </trkpt>
      <trkpt lat="48.22904" lon="-3.96571">
        <ele>104.45814485733</ele>
        <time>2021-06-29T21:02:22.041Z</time>
      </trkpt>
      <trkpt lat="48.22909" lon="-3.96551">
        <ele>102.98913974526</ele>
        <time>2021-06-29T21:02:29.638Z</time>
      </trkpt>
      <trkpt lat="48.22919" lon="-3.96524">
        <ele>101.59198651056</ele>
        <time>2021-06-29T21:02:37.238Z</time>
      </trkpt>
      <trkpt lat="48.22919" lon="-3.96523">
        <ele>100.30947003185</ele>
        <time>2021-06-29T21:02:44.838Z</time>
      </trkpt>
      <trkpt lat="48.22934" lon="-3.96481">
        <ele>99.13471817126</ele>
        <time>2021-06-29T21:02:52.443Z</time>
      </trkpt>
      <trkpt lat="48.22938" lon="-3.96458">
        <ele>98.1400386749</ele>
        <time>2021-06-29T21:03:00.051Z</time>
      </trkpt>
      <trkpt lat="48.22938" lon="-3.96447">
        <ele>97.31271673567</ele>
        <time>2021-06-29T21:03:07.660Z</time>
      </trkpt>
      <trkpt lat="48.22944" lon="-3.9644">
        <ele>96.6866013257</ele>
        <time>2021-06-29T21:03:15.270Z</time>
      </trkpt>
      <trkpt lat="48.22948" lon="-3.96441">
        <ele>96.28771752041</ele>
        <time>2021-06-29T21:03:22.881Z</time>
      </trkpt>
      <trkpt lat="48.22953" lon="-3.96449">
        <ele>96.12146295516</ele>
        <time>2021-06-29T21:03:30.493Z</time>
      </trkpt>
      <trkpt lat="48.22973" lon="-3.96454">
        <ele>96.17717959495</ele>
        <time>2021-06-29T21:03:38.108Z</time>
      </trkpt>
      <trkpt lat="48.23022" lon="-3.96452">
        <ele>96.46314809198</ele>
        <time>2021-06-29T21:03:45.731Z</time>
      </trkpt>
      <trkpt lat="48.23203" lon="-3.96473">
        <ele>96.9595030421</ele>
        <time>2021-06-29T21:03:53.383Z</time>
      </trkpt>
      <trkpt lat="48.23419" lon="-3.96512">
        <ele>97.9406961151</ele>
        <time>2021-06-29T21:04:01.070Z</time>
      </trkpt>
      <trkpt lat="48.23508" lon="-3.96534">
        <ele>99.29113558295</ele>
        <time>2021-06-29T21:04:08.771Z</time>
      </trkpt>
      <trkpt lat="48.23543" lon="-3.96541">
        <ele>100.73938523872</ele>
        <time>2021-06-29T21:04:16.478Z</time>
      </trkpt>
      <trkpt lat="48.23575" lon="-3.96544">
        <ele>102.46927883567</ele>
        <time>2021-06-29T21:04:24.190Z</time>
      </trkpt>
      <trkpt lat="48.2362" lon="-3.9654">
        <ele>104.50688091622</ele>
        <time>2021-06-29T21:04:31.909Z</time>
      </trkpt>
      <trkpt lat="48.23671" lon="-3.96524">
        <ele>106.77422306979</ele>
        <time>2021-06-29T21:04:39.637Z</time>
      </trkpt>
      <trkpt lat="48.23697" lon="-3.96508">
        <ele>109.18539572126</ele>
        <time>2021-06-29T21:04:47.369Z</time>
      </trkpt>
      <trkpt lat="48.23739" lon="-3.96472">
        <ele>111.74108649777</ele>
        <time>2021-06-29T21:04:55.109Z</time>
      </trkpt>
      <trkpt lat="48.23749" lon="-3.96463">
        <ele>114.43437204983</ele>
        <time>2021-06-29T21:05:02.851Z</time>
      </trkpt>
      <trkpt lat="48.23782" lon="-3.96418">
        <ele>117.33368455275</ele>
        <time>2021-06-29T21:05:10.600Z</time>
      </trkpt>
      <trkpt lat="48.23816" lon="-3.96361">
        <ele>120.26566029973</ele>
        <time>2021-06-29T21:05:18.357Z</time>
      </trkpt>
      <trkpt lat="48.23964" lon="-3.96093">
        <ele>123.62321797062</ele>
        <time>2021-06-29T21:05:26.151Z</time>
      </trkpt>
      <trkpt lat="48.23995" lon="-3.9604">
        <ele>126.66320669221</ele>
        <time>2021-06-29T21:05:33.953Z</time>
      </trkpt>
      <trkpt lat="48.24022" lon="-3.96002">
        <ele>129.61854707843</ele>
        <time>2021-06-29T21:05:41.761Z</time>
      </trkpt>
      <trkpt lat="48.24055" lon="-3.9596">
        <ele>132.51535434085</ele>
        <time>2021-06-29T21:05:49.576Z</time>
      </trkpt>
      <trkpt lat="48.24092" lon="-3.9592">
        <ele>135.35620129443</ele>
        <time>2021-06-29T21:05:57.398Z</time>
      </trkpt>
      <trkpt lat="48.24112" lon="-3.95902">
        <ele>137.9958321126</ele>
        <time>2021-06-29T21:06:05.224Z</time>
      </trkpt>
      <trkpt lat="48.24208" lon="-3.95833">
        <ele>140.36430690677</ele>
        <time>2021-06-29T21:06:13.067Z</time>
      </trkpt>
      <trkpt lat="48.24539" lon="-3.95635">
        <ele>142.93861281072</ele>
        <time>2021-06-29T21:06:20.967Z</time>
      </trkpt>
      <trkpt lat="48.24632" lon="-3.95587">
        <ele>144.9196573232</ele>
        <time>2021-06-29T21:06:28.883Z</time>
      </trkpt>
      <trkpt lat="48.24774" lon="-3.95523">
        <ele>146.80517135037</ele>
        <time>2021-06-29T21:06:36.822Z</time>
      </trkpt>
      <trkpt lat="48.25045" lon="-3.95412">
        <ele>148.17785124219</ele>
        <time>2021-06-29T21:06:44.806Z</time>
      </trkpt>
      <trkpt lat="48.25156" lon="-3.95361">
        <ele>149.33732448525</ele>
        <time>2021-06-29T21:06:52.809Z</time>
      </trkpt>
      <trkpt lat="48.25211" lon="-3.95325">
        <ele>150.17316561447</ele>
        <time>2021-06-29T21:07:00.822Z</time>
      </trkpt>
      <trkpt lat="48.25325" lon="-3.95238">
        <ele>150.40081066769</ele>
        <time>2021-06-29T21:07:08.855Z</time>
      </trkpt>
      <trkpt lat="48.2536" lon="-3.95207">
        <ele>150.42855101158</ele>
        <time>2021-06-29T21:07:16.895Z</time>
      </trkpt>
      <trkpt lat="48.25474" lon="-3.95085">
        <ele>150.10197364371</ele>
        <time>2021-06-29T21:07:24.957Z</time>
      </trkpt>
      <trkpt lat="48.25546" lon="-3.95002">
        <ele>149.36120121931</ele>
        <time>2021-06-29T21:07:33.034Z</time>
      </trkpt>
      <trkpt lat="48.25651" lon="-3.94896">
        <ele>148.54659526108</ele>
        <time>2021-06-29T21:07:41.131Z</time>
      </trkpt>
      <trkpt lat="48.25756" lon="-3.94819">
        <ele>147.04952867032</ele>
        <time>2021-06-29T21:07:49.247Z</time>
      </trkpt>
      <trkpt lat="48.25898" lon="-3.94736">
        <ele>145.01526797228</ele>
        <time>2021-06-29T21:07:57.387Z</time>
      </trkpt>
      <trkpt lat="48.25948" lon="-3.94714">
        <ele>142.78760530798</ele>
        <time>2021-06-29T21:08:05.535Z</time>
      </trkpt>
      <trkpt lat="48.26047" lon="-3.94684">
        <ele>139.98233853328</ele>
        <time>2021-06-29T21:08:13.700Z</time>
      </trkpt>
      <trkpt lat="48.26277" lon="-3.94658">
        <ele>136.63863545198</ele>
        <time>2021-06-29T21:08:21.901Z</time>
      </trkpt>
      <trkpt lat="48.26317" lon="-3.94656">
        <ele>133.56878833703</ele>
        <time>2021-06-29T21:08:30.109Z</time>
      </trkpt>
      <trkpt lat="48.26348" lon="-3.94649">
        <ele>130.27571406572</ele>
        <time>2021-06-29T21:08:38.322Z</time>
      </trkpt>
      <trkpt lat="48.2639" lon="-3.94645">
        <ele>126.79150987807</ele>
        <time>2021-06-29T21:08:46.542Z</time>
      </trkpt>
      <trkpt lat="48.26549" lon="-3.94595">
        <ele>123.12618382852</ele>
        <time>2021-06-29T21:08:54.788Z</time>
      </trkpt>
      <trkpt lat="48.26609" lon="-3.94578">
        <ele>119.22223849547</ele>
        <time>2021-06-29T21:09:03.043Z</time>
      </trkpt>
      <trkpt lat="48.26655" lon="-3.94573">
        <ele>115.32917879953</ele>
        <time>2021-06-29T21:09:11.306Z</time>
      </trkpt>
      <trkpt lat="48.26709" lon="-3.94573">
        <ele>111.33097196705</ele>
        <time>2021-06-29T21:09:19.577Z</time>
      </trkpt>
      <trkpt lat="48.26774" lon="-3.9459">
        <ele>107.22804520402</ele>
        <time>2021-06-29T21:09:27.859Z</time>
      </trkpt>
      <trkpt lat="48.26835" lon="-3.94622">
        <ele>103.20873409399</ele>
        <time>2021-06-29T21:09:36.151Z</time>
      </trkpt>
      <trkpt lat="48.26863" lon="-3.9464">
        <ele>99.36581200355</ele>
        <time>2021-06-29T21:09:44.448Z</time>
      </trkpt>
      <trkpt lat="48.26888" lon="-3.94661">
        <ele>95.625643526</ele>
        <time>2021-06-29T21:09:52.750Z</time>
      </trkpt>
      <trkpt lat="48.27166" lon="-3.94916">
        <ele>91.64300666306</ele>
        <time>2021-06-29T21:10:01.104Z</time>
      </trkpt>
      <trkpt lat="48.27221" lon="-3.9496">
        <ele>88.31906154793</ele>
        <time>2021-06-29T21:10:09.468Z</time>
      </trkpt>
      <trkpt lat="48.27256" lon="-3.9498">
        <ele>85.27107479349</ele>
        <time>2021-06-29T21:10:17.838Z</time>
      </trkpt>
      <trkpt lat="48.27312" lon="-3.95003">
        <ele>82.53971110513</ele>
        <time>2021-06-29T21:10:26.217Z</time>
      </trkpt>
      <trkpt lat="48.27343" lon="-3.95011">
        <ele>80.2722378438</ele>
        <time>2021-06-29T21:10:34.601Z</time>
      </trkpt>
      <trkpt lat="48.27428" lon="-3.95025">
        <ele>78.41171332598</ele>
        <time>2021-06-29T21:10:42.999Z</time>
      </trkpt>
      <trkpt lat="48.27541" lon="-3.95039">
        <ele>76.6613093562</ele>
        <time>2021-06-29T21:10:51.415Z</time>
      </trkpt>
      <trkpt lat="48.2759" lon="-3.95043">
        <ele>75.62451275995</ele>
        <time>2021-06-29T21:10:59.839Z</time>
      </trkpt>
      <trkpt lat="48.27612" lon="-3.9505">
        <ele>74.94778337641</ele>
        <time>2021-06-29T21:11:08.267Z</time>
      </trkpt>
      <trkpt lat="48.27625" lon="-3.95056">
        <ele>74.65852790866</ele>
        <time>2021-06-29T21:11:16.697Z</time>
      </trkpt>
      <trkpt lat="48.2768" lon="-3.95092">
        <ele>74.84093888699</ele>
        <time>2021-06-29T21:11:25.136Z</time>
      </trkpt>
      <trkpt lat="48.27726" lon="-3.95117">
        <ele>75.33901502075</ele>
        <time>2021-06-29T21:11:33.583Z</time>
      </trkpt>
      <trkpt lat="48.27794" lon="-3.95161">
        <ele>76.12416065747</ele>
        <time>2021-06-29T21:11:42.042Z</time>
      </trkpt>
      <trkpt lat="48.27843" lon="-3.95195">
        <ele>77.20716213302</ele>
        <time>2021-06-29T21:11:50.510Z</time>
      </trkpt>
      <trkpt lat="48.27951" lon="-3.95262">
        <ele>78.63159726136</ele>
        <time>2021-06-29T21:11:58.997Z</time>
      </trkpt>
      <trkpt lat="48.28001" lon="-3.95296">
        <ele>80.2061028427</ele>
        <time>2021-06-29T21:12:07.492Z</time>
      </trkpt>
      <trkpt lat="48.28001" lon="-3.95296">
        <ele>81.80119309226</ele>
        <time>2021-06-29T21:12:15.987Z</time>
      </trkpt>
      <trkpt lat="48.28002" lon="-3.95296">
        <ele>83.4682870557</ele>
        <time>2021-06-29T21:12:24.482Z</time>
      </trkpt>
      <trkpt lat="48.28002" lon="-3.95296">
        <ele>85.14923023808</ele>
        <time>2021-06-29T21:12:32.977Z</time>
      </trkpt>
      <trkpt lat="48.28085" lon="-3.95352">
        <ele>87.06527794967</ele>
        <time>2021-06-29T21:12:41.487Z</time>
      </trkpt>
      <trkpt lat="48.28167" lon="-3.95414">
        <ele>88.73320598736</ele>
        <time>2021-06-29T21:12:50.012Z</time>
      </trkpt>
      <trkpt lat="48.2828" lon="-3.9549">
        <ele>90.34093645092</ele>
        <time>2021-06-29T21:12:58.557Z</time>
      </trkpt>
      <trkpt lat="48.28311" lon="-3.95506">
        <ele>91.557685451</ele>
        <time>2021-06-29T21:13:07.107Z</time>
      </trkpt>
      <trkpt lat="48.28356" lon="-3.95524">
        <ele>92.59772239785</ele>
        <time>2021-06-29T21:13:15.664Z</time>
      </trkpt>
      <trkpt lat="48.28401" lon="-3.95535">
        <ele>93.38003821718</ele>
        <time>2021-06-29T21:13:24.229Z</time>
      </trkpt>
      <trkpt lat="48.28434" lon="-3.95538">
        <ele>93.82762502725</ele>
        <time>2021-06-29T21:13:32.799Z</time>
      </trkpt>
      <trkpt lat="48.28492" lon="-3.95536">
        <ele>94.06030250437</ele>
        <time>2021-06-29T21:13:41.378Z</time>
      </trkpt>
      <trkpt lat="48.28564" lon="-3.95516">
        <ele>93.8521205285</ele>
        <time>2021-06-29T21:13:49.969Z</time>
      </trkpt>
      <trkpt lat="48.2864" lon="-3.95476">
        <ele>93.06852858746</ele>
        <time>2021-06-29T21:13:58.573Z</time>
      </trkpt>
      <trkpt lat="48.28688" lon="-3.95441">
        <ele>92.1324959812</ele>
        <time>2021-06-29T21:14:07.185Z</time>
      </trkpt>
      <trkpt lat="48.28729" lon="-3.95402">
        <ele>91.18515603753</ele>
        <time>2021-06-29T21:14:15.805Z</time>
      </trkpt>
      <trkpt lat="48.28762" lon="-3.95358">
        <ele>90.28293665847</ele>
        <time>2021-06-29T21:14:24.432Z</time>
      </trkpt>
      <trkpt lat="48.28791" lon="-3.95311">
        <ele>89.2735210595</ele>
        <time>2021-06-29T21:14:33.066Z</time>
      </trkpt>
      <trkpt lat="48.2882" lon="-3.95256">
        <ele>88.20726950186</ele>
        <time>2021-06-29T21:14:41.708Z</time>
      </trkpt>
      <trkpt lat="48.28889" lon="-3.95092">
        <ele>87.34206033726</ele>
        <time>2021-06-29T21:14:50.370Z</time>
      </trkpt>
      <trkpt lat="48.28907" lon="-3.95064">
        <ele>86.35553225292</ele>
        <time>2021-06-29T21:14:59.036Z</time>
      </trkpt>
      <trkpt lat="48.28922" lon="-3.95045">
        <ele>85.58063006771</ele>
        <time>2021-06-29T21:15:07.706Z</time>
      </trkpt>
      <trkpt lat="48.28941" lon="-3.95027">
        <ele>84.97921453728</ele>
        <time>2021-06-29T21:15:16.379Z</time>
      </trkpt>
      <trkpt lat="48.28972" lon="-3.95004">
        <ele>84.64036746683</ele>
        <time>2021-06-29T21:15:25.058Z</time>
      </trkpt>
      <trkpt lat="48.2901" lon="-3.94999">
        <ele>84.43836807501</ele>
        <time>2021-06-29T21:15:33.743Z</time>
      </trkpt>
      <trkpt lat="48.29046" lon="-3.95004">
        <ele>84.52852864642</ele>
        <time>2021-06-29T21:15:42.434Z</time>
      </trkpt>
      <trkpt lat="48.29164" lon="-3.95053">
        <ele>84.89274109684</ele>
        <time>2021-06-29T21:15:51.144Z</time>
      </trkpt>
      <trkpt lat="48.29361" lon="-3.95128">
        <ele>85.95401660744</ele>
        <time>2021-06-29T21:15:59.887Z</time>
      </trkpt>
      <trkpt lat="48.29401" lon="-3.95138">
        <ele>86.89309433594</ele>
        <time>2021-06-29T21:16:08.636Z</time>
      </trkpt>
      <trkpt lat="48.29463" lon="-3.95142">
        <ele>88.1039612125</ele>
        <time>2021-06-29T21:16:17.395Z</time>
      </trkpt>
      <trkpt lat="48.29653" lon="-3.95136">
        <ele>89.57654449465</ele>
        <time>2021-06-29T21:16:26.185Z</time>
      </trkpt>
      <trkpt lat="48.29663" lon="-3.95137">
        <ele>90.91274942167</ele>
        <time>2021-06-29T21:16:34.976Z</time>
      </trkpt>
      <trkpt lat="48.29677" lon="-3.95143">
        <ele>92.36911871929</ele>
        <time>2021-06-29T21:16:43.770Z</time>
      </trkpt>
      <trkpt lat="48.29693" lon="-3.95154">
        <ele>93.89821204995</ele>
        <time>2021-06-29T21:16:52.566Z</time>
      </trkpt>
      <trkpt lat="48.29707" lon="-3.95166">
        <ele>95.45663767643</ele>
        <time>2021-06-29T21:17:01.365Z</time>
      </trkpt>
      <trkpt lat="48.29721" lon="-3.95183">
        <ele>97.08714248873</ele>
        <time>2021-06-29T21:17:10.167Z</time>
      </trkpt>
      <trkpt lat="48.29728" lon="-3.95197">
        <ele>98.73053225072</ele>
        <time>2021-06-29T21:17:18.971Z</time>
      </trkpt>
      <trkpt lat="48.29732" lon="-3.95222">
        <ele>100.38697718218</ele>
        <time>2021-06-29T21:17:27.777Z</time>
      </trkpt>
      <trkpt lat="48.29728" lon="-3.95247">
        <ele>102.00106534535</ele>
        <time>2021-06-29T21:17:36.586Z</time>
      </trkpt>
      <trkpt lat="48.29699" lon="-3.95326">
        <ele>103.51714182579</ele>
        <time>2021-06-29T21:17:45.405Z</time>
      </trkpt>
      <trkpt lat="48.29695" lon="-3.95343">
        <ele>105.01154332682</ele>
        <time>2021-06-29T21:17:54.226Z</time>
      </trkpt>
      <trkpt lat="48.29692" lon="-3.95356">
        <ele>106.47457799276</ele>
        <time>2021-06-29T21:18:03.048Z</time>
      </trkpt>
      <trkpt lat="48.29689" lon="-3.95384">
        <ele>107.92188594511</ele>
        <time>2021-06-29T21:18:11.873Z</time>
      </trkpt>
      <trkpt lat="48.2969" lon="-3.95398">
        <ele>109.29855388517</ele>
        <time>2021-06-29T21:18:20.700Z</time>
      </trkpt>
      <trkpt lat="48.29697" lon="-3.9542">
        <ele>110.6273795645</ele>
        <time>2021-06-29T21:18:29.529Z</time>
      </trkpt>
      <trkpt lat="48.29703" lon="-3.9543">
        <ele>111.93058017577</ele>
        <time>2021-06-29T21:18:38.360Z</time>
      </trkpt>
      <trkpt lat="48.29714" lon="-3.95443">
        <ele>113.18122011908</ele>
        <time>2021-06-29T21:18:47.193Z</time>
      </trkpt>
      <trkpt lat="48.29731" lon="-3.95451">
        <ele>114.40960116731</ele>
        <time>2021-06-29T21:18:56.029Z</time>
      </trkpt>
      <trkpt lat="48.29767" lon="-3.95462">
        <ele>115.64766542575</ele>
        <time>2021-06-29T21:19:04.871Z</time>
      </trkpt>
      <trkpt lat="48.29777" lon="-3.95468">
        <ele>116.80443772276</ele>
        <time>2021-06-29T21:19:13.714Z</time>
      </trkpt>
      <trkpt lat="48.29786" lon="-3.95476">
        <ele>117.93289089361</ele>
        <time>2021-06-29T21:19:22.559Z</time>
      </trkpt>
      <trkpt lat="48.298" lon="-3.95494">
        <ele>119.06690192876</ele>
        <time>2021-06-29T21:19:31.407Z</time>
      </trkpt>
      <trkpt lat="48.29824" lon="-3.95545">
        <ele>120.15911504597</ele>
        <time>2021-06-29T21:19:40.262Z</time>
      </trkpt>
      <trkpt lat="48.29845" lon="-3.95574">
        <ele>121.22060267339</ele>
        <time>2021-06-29T21:19:49.121Z</time>
      </trkpt>
      <trkpt lat="48.29865" lon="-3.95589">
        <ele>122.25283502299</ele>
        <time>2021-06-29T21:19:57.984Z</time>
      </trkpt>
      <trkpt lat="48.2988" lon="-3.95594">
        <ele>123.27619113331</ele>
        <time>2021-06-29T21:20:06.849Z</time>
      </trkpt>
      <trkpt lat="48.29898" lon="-3.95588">
        <ele>124.30818018601</ele>
        <time>2021-06-29T21:20:15.717Z</time>
      </trkpt>
      <trkpt lat="48.29966" lon="-3.95527">
        <ele>125.42278817623</ele>
        <time>2021-06-29T21:20:24.598Z</time>
      </trkpt>
      <trkpt lat="48.29978" lon="-3.9552">
        <ele>126.40672590235</ele>
        <time>2021-06-29T21:20:33.481Z</time>
      </trkpt>
      <trkpt lat="48.29999" lon="-3.95518">
        <ele>127.37376050845</ele>
        <time>2021-06-29T21:20:42.367Z</time>
      </trkpt>
      <trkpt lat="48.30117" lon="-3.95541">
        <ele>128.47857110997</ele>
        <time>2021-06-29T21:20:51.273Z</time>
      </trkpt>
      <trkpt lat="48.30123" lon="-3.95544">
        <ele>129.3289601901</ele>
        <time>2021-06-29T21:21:00.180Z</time>
      </trkpt>
      <trkpt lat="48.30138" lon="-3.95558">
        <ele>130.15060846765</ele>
        <time>2021-06-29T21:21:09.089Z</time>
      </trkpt>
      <trkpt lat="48.30159" lon="-3.95589">
        <ele>130.92950488284</ele>
        <time>2021-06-29T21:21:18.003Z</time>
      </trkpt>
      <trkpt lat="48.30168" lon="-3.95595">
        <ele>131.63879400479</ele>
        <time>2021-06-29T21:21:26.919Z</time>
      </trkpt>
      <trkpt lat="48.30234" lon="-3.95607">
        <ele>132.35134802877</ele>
        <time>2021-06-29T21:21:35.845Z</time>
      </trkpt>
      <trkpt lat="48.30287" lon="-3.95578">
        <ele>132.94632299879</ele>
        <time>2021-06-29T21:21:44.780Z</time>
      </trkpt>
      <trkpt lat="48.30383" lon="-3.95521">
        <ele>133.57435914138</ele>
        <time>2021-06-29T21:21:53.732Z</time>
      </trkpt>
      <trkpt lat="48.30691" lon="-3.9526">
        <ele>134.09537487985</ele>
        <time>2021-06-29T21:22:02.741Z</time>
      </trkpt>
      <trkpt lat="48.30706" lon="-3.95253">
        <ele>134.50832800247</ele>
        <time>2021-06-29T21:22:11.752Z</time>
      </trkpt>
      <trkpt lat="48.30723" lon="-3.95252">
        <ele>134.9052255046</ele>
        <time>2021-06-29T21:22:20.766Z</time>
      </trkpt>
      <trkpt lat="48.30731" lon="-3.95255">
        <ele>135.31033924175</ele>
        <time>2021-06-29T21:22:29.781Z</time>
      </trkpt>
      <trkpt lat="48.30742" lon="-3.95261">
        <ele>135.71831333974</ele>
        <time>2021-06-29T21:22:38.798Z</time>
      </trkpt>
      <trkpt lat="48.30767" lon="-3.95288">
        <ele>136.09974651404</ele>
        <time>2021-06-29T21:22:47.820Z</time>
      </trkpt>
      <trkpt lat="48.3087" lon="-3.95482">
        <ele>136.57768492138</ele>
        <time>2021-06-29T21:22:56.868Z</time>
      </trkpt>
      <trkpt lat="48.30881" lon="-3.95507">
        <ele>137.21285596108</ele>
        <time>2021-06-29T21:23:05.920Z</time>
      </trkpt>
      <trkpt lat="48.30888" lon="-3.95524">
        <ele>137.96117518099</ele>
        <time>2021-06-29T21:23:14.974Z</time>
      </trkpt>
      <trkpt lat="48.30892" lon="-3.95544">
        <ele>138.7999243382</ele>
        <time>2021-06-29T21:23:24.030Z</time>
      </trkpt>
      <trkpt lat="48.30897" lon="-3.95577">
        <ele>139.75951613579</ele>
        <time>2021-06-29T21:23:33.090Z</time>
      </trkpt>
      <trkpt lat="48.30907" lon="-3.95614">
        <ele>140.77777544424</ele>
        <time>2021-06-29T21:23:42.154Z</time>
      </trkpt>
      <trkpt lat="48.30914" lon="-3.95627">
        <ele>141.87502324249</ele>
        <time>2021-06-29T21:23:51.220Z</time>
      </trkpt>
      <trkpt lat="48.30923" lon="-3.95641">
        <ele>143.09335602507</ele>
        <time>2021-06-29T21:24:00.288Z</time>
      </trkpt>
      <trkpt lat="48.30964" lon="-3.95686">
        <ele>144.4044616305</ele>
        <time>2021-06-29T21:24:09.364Z</time>
      </trkpt>
      <trkpt lat="48.30972" lon="-3.95698">
        <ele>145.70919126882</ele>
        <time>2021-06-29T21:24:18.442Z</time>
      </trkpt>
      <trkpt lat="48.30981" lon="-3.95717">
        <ele>147.0816249516</ele>
        <time>2021-06-29T21:24:27.522Z</time>
      </trkpt>
      <trkpt lat="48.30988" lon="-3.95737">
        <ele>148.48787304984</ele>
        <time>2021-06-29T21:24:36.605Z</time>
      </trkpt>
      <trkpt lat="48.30996" lon="-3.95776">
        <ele>149.94762012367</ele>
        <time>2021-06-29T21:24:45.692Z</time>
      </trkpt>
      <trkpt lat="48.31045" lon="-3.96068">
        <ele>151.81569223238</ele>
        <time>2021-06-29T21:24:54.811Z</time>
      </trkpt>
      <trkpt lat="48.31055" lon="-3.96099">
        <ele>153.14013113219</ele>
        <time>2021-06-29T21:25:03.934Z</time>
      </trkpt>
      <trkpt lat="48.31065" lon="-3.96117">
        <ele>154.41184185897</ele>
        <time>2021-06-29T21:25:13.059Z</time>
      </trkpt>
      <trkpt lat="48.31081" lon="-3.96136">
        <ele>155.61174876713</ele>
        <time>2021-06-29T21:25:22.187Z</time>
      </trkpt>
      <trkpt lat="48.31093" lon="-3.96142">
        <ele>156.61522397825</ele>
        <time>2021-06-29T21:25:31.318Z</time>
      </trkpt>
      <trkpt lat="48.3112" lon="-3.96145">
        <ele>157.46740561249</ele>
        <time>2021-06-29T21:25:40.453Z</time>
      </trkpt>
      <trkpt lat="48.31133" lon="-3.96141">
        <ele>158.1363931172</ele>
        <time>2021-06-29T21:25:49.590Z</time>
      </trkpt>
      <trkpt lat="48.31152" lon="-3.96125">
        <ele>158.62611655867</ele>
        <time>2021-06-29T21:25:58.730Z</time>
      </trkpt>
      <trkpt lat="48.31174" lon="-3.96097">
        <ele>158.95465512351</ele>
        <time>2021-06-29T21:26:07.875Z</time>
      </trkpt>
      <trkpt lat="48.31225" lon="-3.9601">
        <ele>159.09566350479</ele>
        <time>2021-06-29T21:26:17.032Z</time>
      </trkpt>
      <trkpt lat="48.31303" lon="-3.95884">
        <ele>159.16593089251</ele>
        <time>2021-06-29T21:26:26.208Z</time>
      </trkpt>
      <trkpt lat="48.3133" lon="-3.95857">
        <ele>159.14103679472</ele>
        <time>2021-06-29T21:26:35.389Z</time>
      </trkpt>
      <trkpt lat="48.31346" lon="-3.95849">
        <ele>159.09494650455</ele>
        <time>2021-06-29T21:26:44.573Z</time>
      </trkpt>
      <trkpt lat="48.31361" lon="-3.95847">
        <ele>159.00763164613</ele>
        <time>2021-06-29T21:26:53.759Z</time>
      </trkpt>
      <trkpt lat="48.31389" lon="-3.95851">
        <ele>158.91033512853</ele>
        <time>2021-06-29T21:27:02.950Z</time>
      </trkpt>
      <trkpt lat="48.31418" lon="-3.95867">
        <ele>158.85178627675</ele>
        <time>2021-06-29T21:27:12.146Z</time>
      </trkpt>
      <trkpt lat="48.31434" lon="-3.95884">
        <ele>158.85873776158</ele>
        <time>2021-06-29T21:27:21.345Z</time>
      </trkpt>
      <trkpt lat="48.31446" lon="-3.95902">
        <ele>158.91504085168</ele>
        <time>2021-06-29T21:27:30.546Z</time>
      </trkpt>
      <trkpt lat="48.31458" lon="-3.95925">
        <ele>159.05676708599</ele>
        <time>2021-06-29T21:27:39.751Z</time>
      </trkpt>
      <trkpt lat="48.31473" lon="-3.95964">
        <ele>159.32923261821</ele>
        <time>2021-06-29T21:27:48.960Z</time>
      </trkpt>
      <trkpt lat="48.31525" lon="-3.96115">
        <ele>159.97255023696</ele>
        <time>2021-06-29T21:27:58.188Z</time>
      </trkpt>
      <trkpt lat="48.31545" lon="-3.96163">
        <ele>160.48383256409</ele>
        <time>2021-06-29T21:28:07.422Z</time>
      </trkpt>
      <trkpt lat="48.31569" lon="-3.96206">
        <ele>161.12033623934</ele>
        <time>2021-06-29T21:28:16.662Z</time>
      </trkpt>
      <trkpt lat="48.31592" lon="-3.96242">
        <ele>161.89483890209</ele>
        <time>2021-06-29T21:28:25.907Z</time>
      </trkpt>
      <trkpt lat="48.3162" lon="-3.96279">
        <ele>162.92713375865</ele>
        <time>2021-06-29T21:28:35.158Z</time>
      </trkpt>
      <trkpt lat="48.31698" lon="-3.96361">
        <ele>163.95522084687</ele>
        <time>2021-06-29T21:28:44.424Z</time>
      </trkpt>
      <trkpt lat="48.31737" lon="-3.96394">
        <ele>165.29444759906</ele>
        <time>2021-06-29T21:28:53.697Z</time>
      </trkpt>
      <trkpt lat="48.31776" lon="-3.96412">
        <ele>166.92596569719</ele>
        <time>2021-06-29T21:29:02.977Z</time>
      </trkpt>
      <trkpt lat="48.3182" lon="-3.96422">
        <ele>168.83726473037</ele>
        <time>2021-06-29T21:29:12.264Z</time>
      </trkpt>
      <trkpt lat="48.31966" lon="-3.96445">
        <ele>171.40270241725</ele>
        <time>2021-06-29T21:29:21.574Z</time>
      </trkpt>
      <trkpt lat="48.31987" lon="-3.96447">
        <ele>173.83465438231</ele>
        <time>2021-06-29T21:29:30.888Z</time>
      </trkpt>
      <trkpt lat="48.32019" lon="-3.96443">
        <ele>176.52357703978</ele>
        <time>2021-06-29T21:29:40.207Z</time>
      </trkpt>
      <trkpt lat="48.32052" lon="-3.96424">
        <ele>179.36006918972</ele>
        <time>2021-06-29T21:29:49.532Z</time>
      </trkpt>
      <trkpt lat="48.32229" lon="-3.96256">
        <ele>182.59406542643</ele>
        <time>2021-06-29T21:29:58.890Z</time>
      </trkpt>
      <trkpt lat="48.32256" lon="-3.96226">
        <ele>185.7645380978</ele>
        <time>2021-06-29T21:30:08.254Z</time>
      </trkpt>
      <trkpt lat="48.3227" lon="-3.96204">
        <ele>189.03621339198</ele>
        <time>2021-06-29T21:30:17.621Z</time>
      </trkpt>
      <trkpt lat="48.32307" lon="-3.96117">
        <ele>192.63854423109</ele>
        <time>2021-06-29T21:30:26.999Z</time>
      </trkpt>
      <trkpt lat="48.32321" lon="-3.96091">
        <ele>196.22743930484</ele>
        <time>2021-06-29T21:30:36.380Z</time>
      </trkpt>
      <trkpt lat="48.32336" lon="-3.96069">
        <ele>199.88689421397</ele>
        <time>2021-06-29T21:30:45.765Z</time>
      </trkpt>
      <trkpt lat="48.32353" lon="-3.96049">
        <ele>203.5917874883</ele>
        <time>2021-06-29T21:30:55.153Z</time>
      </trkpt>
      <trkpt lat="48.32389" lon="-3.96021">
        <ele>207.44412832374</ele>
        <time>2021-06-29T21:31:04.548Z</time>
      </trkpt>
      <trkpt lat="48.32512" lon="-3.95942">
        <ele>211.46441208901</ele>
        <time>2021-06-29T21:31:13.964Z</time>
      </trkpt>
      <trkpt lat="48.32536" lon="-3.95919">
        <ele>215.09249226971</ele>
        <time>2021-06-29T21:31:23.385Z</time>
      </trkpt>
      <trkpt lat="48.32563" lon="-3.95885">
        <ele>218.6898551157</ele>
        <time>2021-06-29T21:31:32.811Z</time>
      </trkpt>
      <trkpt lat="48.32626" lon="-3.95772">
        <ele>222.20139656696</ele>
        <time>2021-06-29T21:31:42.253Z</time>
      </trkpt>
      <trkpt lat="48.32771" lon="-3.95521">
        <ele>226.01087756326</ele>
        <time>2021-06-29T21:31:51.730Z</time>
      </trkpt>
      <trkpt lat="48.32807" lon="-3.95469">
        <ele>229.42515075379</ele>
        <time>2021-06-29T21:32:01.216Z</time>
      </trkpt>
      <trkpt lat="48.32837" lon="-3.95429">
        <ele>232.55395608984</ele>
        <time>2021-06-29T21:32:10.708Z</time>
      </trkpt>
      <trkpt lat="48.32908" lon="-3.9535">
        <ele>235.32641010585</ele>
        <time>2021-06-29T21:32:20.214Z</time>
      </trkpt>
      <trkpt lat="48.32939" lon="-3.95311">
        <ele>237.85378110544</ele>
        <time>2021-06-29T21:32:29.727Z</time>
      </trkpt>
      <trkpt lat="48.32964" lon="-3.95268">
        <ele>240.38688944702</ele>
        <time>2021-06-29T21:32:39.246Z</time>
      </trkpt>
      <trkpt lat="48.32981" lon="-3.95231">
        <ele>242.70884453944</ele>
        <time>2021-06-29T21:32:48.769Z</time>
      </trkpt>
      <trkpt lat="48.32992" lon="-3.952">
        <ele>244.8191015109</ele>
        <time>2021-06-29T21:32:58.296Z</time>
      </trkpt>
      <trkpt lat="48.33001" lon="-3.95166">
        <ele>246.73545586011</ele>
        <time>2021-06-29T21:33:07.827Z</time>
      </trkpt>
      <trkpt lat="48.33011" lon="-3.95113">
        <ele>248.60335597788</ele>
        <time>2021-06-29T21:33:17.364Z</time>
      </trkpt>
      <trkpt lat="48.33014" lon="-3.95081">
        <ele>250.37047979045</ele>
        <time>2021-06-29T21:33:26.904Z</time>
      </trkpt>
      <trkpt lat="48.33015" lon="-3.95057">
        <ele>252.0602406439</ele>
        <time>2021-06-29T21:33:36.447Z</time>
      </trkpt>
      <trkpt lat="48.33014" lon="-3.94974">
        <ele>253.81534057521</ele>
        <time>2021-06-29T21:33:45.999Z</time>
      </trkpt>
      <trkpt lat="48.33016" lon="-3.94939">
        <ele>255.3864665557</ele>
        <time>2021-06-29T21:33:55.555Z</time>
      </trkpt>
      <trkpt lat="48.33021" lon="-3.94898">
        <ele>256.95691363077</ele>
        <time>2021-06-29T21:34:05.115Z</time>
      </trkpt>
      <trkpt lat="48.33033" lon="-3.94851">
        <ele>258.54834250825</ele>
        <time>2021-06-29T21:34:14.680Z</time>
      </trkpt>
      <trkpt lat="48.33043" lon="-3.94819">
        <ele>260.15483371087</ele>
        <time>2021-06-29T21:34:24.249Z</time>
      </trkpt>
      <trkpt lat="48.33069" lon="-3.9475">
        <ele>261.84357065677</ele>
        <time>2021-06-29T21:34:33.827Z</time>
      </trkpt>
      <trkpt lat="48.33134" lon="-3.94587">
        <ele>263.55630879128</ele>
        <time>2021-06-29T21:34:43.425Z</time>
      </trkpt>
      <trkpt lat="48.33147" lon="-3.94543">
        <ele>265.20458161081</ele>
        <time>2021-06-29T21:34:53.028Z</time>
      </trkpt>
      <trkpt lat="48.33157" lon="-3.94491">
        <ele>266.87398388708</ele>
        <time>2021-06-29T21:35:02.637Z</time>
      </trkpt>
      <trkpt lat="48.33167" lon="-3.94414">
        <ele>268.60341235232</ele>
        <time>2021-06-29T21:35:12.254Z</time>
      </trkpt>
      <trkpt lat="48.33179" lon="-3.94339">
        <ele>270.21007103417</ele>
        <time>2021-06-29T21:35:21.879Z</time>
      </trkpt>
      <trkpt lat="48.33184" lon="-3.94313">
        <ele>271.80351983134</ele>
        <time>2021-06-29T21:35:31.507Z</time>
      </trkpt>
      <trkpt lat="48.33201" lon="-3.94263">
        <ele>273.44833672912</ele>
        <time>2021-06-29T21:35:41.141Z</time>
      </trkpt>
      <trkpt lat="48.33211" lon="-3.9424">
        <ele>275.0534240291</ele>
        <time>2021-06-29T21:35:50.778Z</time>
      </trkpt>
      <trkpt lat="48.33228" lon="-3.94207">
        <ele>276.61260901461</ele>
        <time>2021-06-29T21:36:00.420Z</time>
      </trkpt>
      <trkpt lat="48.33249" lon="-3.94176">
        <ele>278.08043058083</ele>
        <time>2021-06-29T21:36:10.066Z</time>
      </trkpt>
      <trkpt lat="48.33447" lon="-3.93956">
        <ele>279.88884392216</ele>
        <time>2021-06-29T21:36:19.752Z</time>
      </trkpt>
      <trkpt lat="48.33472" lon="-3.93931">
        <ele>281.24722458515</ele>
        <time>2021-06-29T21:36:29.443Z</time>
      </trkpt>
      <trkpt lat="48.33503" lon="-3.93907">
        <ele>282.51484621997</ele>
        <time>2021-06-29T21:36:39.139Z</time>
      </trkpt>
      <trkpt lat="48.33533" lon="-3.93892">
        <ele>283.67234272815</ele>
        <time>2021-06-29T21:36:48.840Z</time>
      </trkpt>
      <trkpt lat="48.33566" lon="-3.93883">
        <ele>284.71789338576</ele>
        <time>2021-06-29T21:36:58.547Z</time>
      </trkpt>
      <trkpt lat="48.33628" lon="-3.93881">
        <ele>285.7269184136</ele>
        <time>2021-06-29T21:37:08.264Z</time>
      </trkpt>
      <trkpt lat="48.33685" lon="-3.93888">
        <ele>286.46168171941</ele>
        <time>2021-06-29T21:37:17.990Z</time>
      </trkpt>
      <trkpt lat="48.33696" lon="-3.93891">
        <ele>287.08876036083</ele>
        <time>2021-06-29T21:37:27.718Z</time>
      </trkpt>
      <trkpt lat="48.33725" lon="-3.93905">
        <ele>287.563240182</ele>
        <time>2021-06-29T21:37:37.451Z</time>
      </trkpt>
      <trkpt lat="48.33871" lon="-3.94">
        <ele>288.07395125508</ele>
        <time>2021-06-29T21:37:47.209Z</time>
      </trkpt>
      <trkpt lat="48.33901" lon="-3.94014">
        <ele>288.39978694969</ele>
        <time>2021-06-29T21:37:56.972Z</time>
      </trkpt>
      <trkpt lat="48.33928" lon="-3.94021">
        <ele>288.73688517748</ele>
        <time>2021-06-29T21:38:06.739Z</time>
      </trkpt>
      <trkpt lat="48.33954" lon="-3.94024">
        <ele>289.01894181942</ele>
        <time>2021-06-29T21:38:16.511Z</time>
      </trkpt>
      <trkpt lat="48.33979" lon="-3.94024">
        <ele>289.24588065416</ele>
        <time>2021-06-29T21:38:26.287Z</time>
      </trkpt>
      <trkpt lat="48.34008" lon="-3.94017">
        <ele>289.40643393045</ele>
        <time>2021-06-29T21:38:36.067Z</time>
      </trkpt>
      <trkpt lat="48.34033" lon="-3.94007">
        <ele>289.58879923666</ele>
        <time>2021-06-29T21:38:45.851Z</time>
      </trkpt>
      <trkpt lat="48.3408" lon="-3.93973">
        <ele>289.87550048961</ele>
        <time>2021-06-29T21:38:55.644Z</time>
      </trkpt>
      <trkpt lat="48.34092" lon="-3.93964">
        <ele>290.29612931527</ele>
        <time>2021-06-29T21:39:05.439Z</time>
      </trkpt>
      <trkpt lat="48.34121" lon="-3.93936">
        <ele>290.78605386659</ele>
        <time>2021-06-29T21:39:15.239Z</time>
      </trkpt>
      <trkpt lat="48.34144" lon="-3.93907">
        <ele>291.29072685268</ele>
        <time>2021-06-29T21:39:25.044Z</time>
      </trkpt>
      <trkpt lat="48.34228" lon="-3.93809">
        <ele>291.86371062542</ele>
        <time>2021-06-29T21:39:34.866Z</time>
      </trkpt>
      <trkpt lat="48.34329" lon="-3.93695">
        <ele>292.5128096207</ele>
        <time>2021-06-29T21:39:44.709Z</time>
      </trkpt>
      <trkpt lat="48.34375" lon="-3.93664">
        <ele>293.06645628515</ele>
        <time>2021-06-29T21:39:54.560Z</time>
      </trkpt>
      <trkpt lat="48.3441" lon="-3.93647">
        <ele>293.56164952382</ele>
        <time>2021-06-29T21:40:04.417Z</time>
      </trkpt>
      <trkpt lat="48.34439" lon="-3.93635">
        <ele>294.04670784983</ele>
        <time>2021-06-29T21:40:14.278Z</time>
      </trkpt>
      <trkpt lat="48.34494" lon="-3.93623">
        <ele>294.50075077533</ele>
        <time>2021-06-29T21:40:24.148Z</time>
      </trkpt>
      <trkpt lat="48.34522" lon="-3.93623">
        <ele>294.82956341361</ele>
        <time>2021-06-29T21:40:34.023Z</time>
      </trkpt>
      <trkpt lat="48.34551" lon="-3.93627">
        <ele>295.05567649841</ele>
        <time>2021-06-29T21:40:43.902Z</time>
      </trkpt>
      <trkpt lat="48.34576" lon="-3.93634">
        <ele>295.1507230534</ele>
        <time>2021-06-29T21:40:53.785Z</time>
      </trkpt>
      <trkpt lat="48.34607" lon="-3.93649">
        <ele>295.08453082397</ele>
        <time>2021-06-29T21:41:03.674Z</time>
      </trkpt>
      <trkpt lat="48.3465" lon="-3.93677">
        <ele>294.77206248939</ele>
        <time>2021-06-29T21:41:13.570Z</time>
      </trkpt>
      <trkpt lat="48.34667" lon="-3.93693">
        <ele>294.30871413896</ele>
        <time>2021-06-29T21:41:23.469Z</time>
      </trkpt>
      <trkpt lat="48.34703" lon="-3.93739">
        <ele>293.55105600192</ele>
        <time>2021-06-29T21:41:33.376Z</time>
      </trkpt>
      <trkpt lat="48.34748" lon="-3.93822">
        <ele>292.74661557531</ele>
        <time>2021-06-29T21:41:43.294Z</time>
      </trkpt>
      <trkpt lat="48.34763" lon="-3.9384">
        <ele>291.75857642114</ele>
        <time>2021-06-29T21:41:53.215Z</time>
      </trkpt>
      <trkpt lat="48.3478" lon="-3.93854">
        <ele>290.59561970379</ele>
        <time>2021-06-29T21:42:03.140Z</time>
      </trkpt>
      <trkpt lat="48.34954" lon="-3.93985">
        <ele>289.17941590069</ele>
        <time>2021-06-29T21:42:13.096Z</time>
      </trkpt>
      <trkpt lat="48.35022" lon="-3.94049">
        <ele>287.77218612931</ele>
        <time>2021-06-29T21:42:23.065Z</time>
      </trkpt>
      <trkpt lat="48.3513" lon="-3.94163">
        <ele>286.20201631214</ele>
        <time>2021-06-29T21:42:33.055Z</time>
      </trkpt>
      <trkpt lat="48.35173" lon="-3.94198">
        <ele>284.58754917636</ele>
        <time>2021-06-29T21:42:43.053Z</time>
      </trkpt>
      <trkpt lat="48.35225" lon="-3.94224">
        <ele>282.75699770623</ele>
        <time>2021-06-29T21:42:53.059Z</time>
      </trkpt>
      <trkpt lat="48.35258" lon="-3.94243">
        <ele>280.86164294696</ele>
        <time>2021-06-29T21:43:03.071Z</time>
      </trkpt>
      <trkpt lat="48.35295" lon="-3.94267">
        <ele>279.00806818365</ele>
        <time>2021-06-29T21:43:13.089Z</time>
      </trkpt>
      <trkpt lat="48.35317" lon="-3.9429">
        <ele>277.23778747038</ele>
        <time>2021-06-29T21:43:23.112Z</time>
      </trkpt>
      <trkpt lat="48.35354" lon="-3.94336">
        <ele>275.57901159675</ele>
        <time>2021-06-29T21:43:33.142Z</time>
      </trkpt>
      <trkpt lat="48.35392" lon="-3.94394">
        <ele>274.15607160086</ele>
        <time>2021-06-29T21:43:43.181Z</time>
      </trkpt>
      <trkpt lat="48.35411" lon="-3.94432">
        <ele>272.75898455359</ele>
        <time>2021-06-29T21:43:53.225Z</time>
      </trkpt>
      <trkpt lat="48.35599" lon="-3.94842">
        <ele>271.27870651627</ele>
        <time>2021-06-29T21:44:03.322Z</time>
      </trkpt>
      <trkpt lat="48.35672" lon="-3.95006">
        <ele>270.44843703024</ele>
        <time>2021-06-29T21:44:13.440Z</time>
      </trkpt>
      <trkpt lat="48.35703" lon="-3.9507">
        <ele>269.67919063789</ele>
        <time>2021-06-29T21:44:23.567Z</time>
      </trkpt>
      <trkpt lat="48.35721" lon="-3.95095">
        <ele>269.22256780486</ele>
        <time>2021-06-29T21:44:33.698Z</time>
      </trkpt>
      <trkpt lat="48.35735" lon="-3.9511">
        <ele>269.08119676056</ele>
        <time>2021-06-29T21:44:43.831Z</time>
      </trkpt>
      <trkpt lat="48.35762" lon="-3.95128">
        <ele>269.23757002447</ele>
        <time>2021-06-29T21:44:53.969Z</time>
      </trkpt>
      <trkpt lat="48.35804" lon="-3.95147">
        <ele>269.67400037267</ele>
        <time>2021-06-29T21:45:04.114Z</time>
      </trkpt>
      <trkpt lat="48.36061" lon="-3.95263">
        <ele>270.85264086693</ele>
        <time>2021-06-29T21:45:14.302Z</time>
      </trkpt>
      <trkpt lat="48.36098" lon="-3.95278">
        <ele>271.98235007972</ele>
        <time>2021-06-29T21:45:24.496Z</time>
      </trkpt>
      <trkpt lat="48.36124" lon="-3.95286">
        <ele>273.36809308561</ele>
        <time>2021-06-29T21:45:34.695Z</time>
      </trkpt>
      <trkpt lat="48.36161" lon="-3.95288">
        <ele>274.94843222915</ele>
        <time>2021-06-29T21:45:44.900Z</time>
      </trkpt>
      <trkpt lat="48.36196" lon="-3.95282">
        <ele>276.74473817004</ele>
        <time>2021-06-29T21:45:55.110Z</time>
      </trkpt>
      <trkpt lat="48.36295" lon="-3.95252">
        <ele>278.83790809188</ele>
        <time>2021-06-29T21:46:05.336Z</time>
      </trkpt>
      <trkpt lat="48.36306" lon="-3.95248">
        <ele>280.88603719816</ele>
        <time>2021-06-29T21:46:15.564Z</time>
      </trkpt>
      <trkpt lat="48.36308" lon="-3.95255">
        <ele>283.0400393109</ele>
        <time>2021-06-29T21:46:25.793Z</time>
      </trkpt>
      <trkpt lat="48.36307" lon="-3.95263">
        <ele>285.24574786731</ele>
        <time>2021-06-29T21:46:36.023Z</time>
      </trkpt>
      <trkpt lat="48.36126" lon="-3.95447">
        <ele>287.61391027412</ele>
        <time>2021-06-29T21:46:46.288Z</time>
      </trkpt>
      <trkpt lat="48.36085" lon="-3.95483">
        <ele>289.74067496165</ele>
        <time>2021-06-29T21:46:56.560Z</time>
      </trkpt>
      <trkpt lat="48.36037" lon="-3.95517">
        <ele>291.80368864984</ele>
        <time>2021-06-29T21:47:06.841Z</time>
      </trkpt>
      <trkpt lat="48.36019" lon="-3.95533">
        <ele>293.8030342423</ele>
        <time>2021-06-29T21:47:17.125Z</time>
      </trkpt>
      <trkpt lat="48.35926" lon="-3.95679">
        <ele>295.87078132814</ele>
        <time>2021-06-29T21:47:27.431Z</time>
      </trkpt>
      <trkpt lat="48.35864" lon="-3.9575">
        <ele>297.59067773049</ele>
        <time>2021-06-29T21:47:37.749Z</time>
      </trkpt>
      <trkpt lat="48.35845" lon="-3.95782">
        <ele>299.13072579121</ele>
        <time>2021-06-29T21:47:48.072Z</time>
      </trkpt>
      <trkpt lat="48.35802" lon="-3.95895">
        <ele>300.44139341432</ele>
        <time>2021-06-29T21:47:58.409Z</time>
      </trkpt>
      <trkpt lat="48.35785" lon="-3.95932">
        <ele>301.39478039936</ele>
        <time>2021-06-29T21:48:08.751Z</time>
      </trkpt>
      <trkpt lat="48.35754" lon="-3.95991">
        <ele>302.05057905516</ele>
        <time>2021-06-29T21:48:19.101Z</time>
      </trkpt>
      <trkpt lat="48.35663" lon="-3.96114">
        <ele>302.38966874862</ele>
        <time>2021-06-29T21:48:29.470Z</time>
      </trkpt>
      <trkpt lat="48.35654" lon="-3.96138">
        <ele>302.28513458551</ele>
        <time>2021-06-29T21:48:39.842Z</time>
      </trkpt>
      <trkpt lat="48.35638" lon="-3.96228">
        <ele>301.79229959315</ele>
        <time>2021-06-29T21:48:50.224Z</time>
      </trkpt>
      <trkpt lat="48.35604" lon="-3.96382">
        <ele>300.79498900429</ele>
        <time>2021-06-29T21:49:00.623Z</time>
      </trkpt>
      <trkpt lat="48.356" lon="-3.96412">
        <ele>299.39509023302</ele>
        <time>2021-06-29T21:49:11.026Z</time>
      </trkpt>
      <trkpt lat="48.35598" lon="-3.96446">
        <ele>297.614452661</ele>
        <time>2021-06-29T21:49:21.432Z</time>
      </trkpt>
      <trkpt lat="48.35598" lon="-3.96504">
        <ele>295.36662869373</ele>
        <time>2021-06-29T21:49:31.845Z</time>
      </trkpt>
      <trkpt lat="48.35596" lon="-3.96529">
        <ele>292.90151740052</ele>
        <time>2021-06-29T21:49:42.260Z</time>
      </trkpt>
      <trkpt lat="48.35587" lon="-3.96572">
        <ele>290.11892914993</ele>
        <time>2021-06-29T21:49:52.680Z</time>
      </trkpt>
      <trkpt lat="48.3558" lon="-3.96595">
        <ele>287.11373904823</ele>
        <time>2021-06-29T21:50:03.103Z</time>
      </trkpt>
      <trkpt lat="48.35552" lon="-3.96663">
        <ele>283.797692707</ele>
        <time>2021-06-29T21:50:13.534Z</time>
      </trkpt>
      <trkpt lat="48.35533" lon="-3.96724">
        <ele>280.37065339792</ele>
        <time>2021-06-29T21:50:23.972Z</time>
      </trkpt>
      <trkpt lat="48.35521" lon="-3.96773">
        <ele>276.80223131746</ele>
        <time>2021-06-29T21:50:34.416Z</time>
      </trkpt>
      <trkpt lat="48.35482" lon="-3.96968">
        <ele>272.94422382257</ele>
        <time>2021-06-29T21:50:44.882Z</time>
      </trkpt>
      <trkpt lat="48.35482" lon="-3.96969">
        <ele>269.33434425634</ele>
        <time>2021-06-29T21:50:55.348Z</time>
      </trkpt>
      <trkpt lat="48.35415" lon="-3.97296">
        <ele>265.39383220915</ele>
        <time>2021-06-29T21:51:05.850Z</time>
      </trkpt>
      <trkpt lat="48.35404" lon="-3.97355">
        <ele>261.83592995676</ele>
        <time>2021-06-29T21:51:16.359Z</time>
      </trkpt>
      <trkpt lat="48.35385" lon="-3.97442">
        <ele>258.33272810361</ele>
        <time>2021-06-29T21:51:26.878Z</time>
      </trkpt>
      <trkpt lat="48.35314" lon="-3.97644">
        <ele>254.67769913959</ele>
        <time>2021-06-29T21:51:37.421Z</time>
      </trkpt>
      <trkpt lat="48.35302" lon="-3.97688">
        <ele>251.7198254847</ele>
        <time>2021-06-29T21:51:47.969Z</time>
      </trkpt>
      <trkpt lat="48.35301" lon="-3.97725">
        <ele>249.06418402487</ele>
        <time>2021-06-29T21:51:58.521Z</time>
      </trkpt>
      <trkpt lat="48.35304" lon="-3.97795">
        <ele>246.78408257675</ele>
        <time>2021-06-29T21:52:09.081Z</time>
      </trkpt>
      <trkpt lat="48.35302" lon="-3.97812">
        <ele>244.77642115871</ele>
        <time>2021-06-29T21:52:19.642Z</time>
      </trkpt>
      <trkpt lat="48.35299" lon="-3.97824">
        <ele>243.07320830137</ele>
        <time>2021-06-29T21:52:30.205Z</time>
      </trkpt>
      <trkpt lat="48.35285" lon="-3.97854">
        <ele>241.61833657332</ele>
        <time>2021-06-29T21:52:40.772Z</time>
      </trkpt>
      <trkpt lat="48.35238" lon="-3.97909">
        <ele>240.60824168924</ele>
        <time>2021-06-29T21:52:51.348Z</time>
      </trkpt>
      <trkpt lat="48.35226" lon="-3.97932">
        <ele>239.74748875467</ele>
        <time>2021-06-29T21:53:01.927Z</time>
      </trkpt>
      <trkpt lat="48.35211" lon="-3.9797">
        <ele>239.05806725535</ele>
        <time>2021-06-29T21:53:12.511Z</time>
      </trkpt>
      <trkpt lat="48.35204" lon="-3.98006">
        <ele>238.56238876638</ele>
        <time>2021-06-29T21:53:23.099Z</time>
      </trkpt>
      <trkpt lat="48.35183" lon="-3.98175">
        <ele>238.36633994279</ele>
        <time>2021-06-29T21:53:33.705Z</time>
      </trkpt>
      <trkpt lat="48.35179" lon="-3.98226">
        <ele>238.01898411056</ele>
        <time>2021-06-29T21:53:44.317Z</time>
      </trkpt>
      <trkpt lat="48.35181" lon="-3.98239">
        <ele>237.66239717602</ele>
        <time>2021-06-29T21:53:54.930Z</time>
      </trkpt>
      <trkpt lat="48.35184" lon="-3.98251">
        <ele>237.26768616516</ele>
        <time>2021-06-29T21:54:05.545Z</time>
      </trkpt>
      <trkpt lat="48.35233" lon="-3.98351">
        <ele>236.64837602547</ele>
        <time>2021-06-29T21:54:16.173Z</time>
      </trkpt>
      <trkpt lat="48.35249" lon="-3.98379">
        <ele>236.07597302798</ele>
        <time>2021-06-29T21:54:26.805Z</time>
      </trkpt>
      <trkpt lat="48.35284" lon="-3.98447">
        <ele>235.41119916573</ele>
        <time>2021-06-29T21:54:37.446Z</time>
      </trkpt>
      <trkpt lat="48.35297" lon="-3.98479">
        <ele>234.46477675878</ele>
        <time>2021-06-29T21:54:48.091Z</time>
      </trkpt>
      <trkpt lat="48.35307" lon="-3.98514">
        <ele>233.33314224921</ele>
        <time>2021-06-29T21:54:58.740Z</time>
      </trkpt>
      <trkpt lat="48.35334" lon="-3.98613">
        <ele>231.80904453325</ele>
        <time>2021-06-29T21:55:09.400Z</time>
      </trkpt>
      <trkpt lat="48.35345" lon="-3.98658">
        <ele>230.1592611784</ele>
        <time>2021-06-29T21:55:20.066Z</time>
      </trkpt>
      <trkpt lat="48.35348" lon="-3.98674">
        <ele>228.32912982909</ele>
        <time>2021-06-29T21:55:30.733Z</time>
      </trkpt>
      <trkpt lat="48.3535" lon="-3.98697">
        <ele>226.27205456009</ele>
        <time>2021-06-29T21:55:41.403Z</time>
      </trkpt>
      <trkpt lat="48.3535" lon="-3.98725">
        <ele>223.98863173856</ele>
        <time>2021-06-29T21:55:52.076Z</time>
      </trkpt>
      <trkpt lat="48.35347" lon="-3.98761">
        <ele>221.4700456926</ele>
        <time>2021-06-29T21:56:02.753Z</time>
      </trkpt>
      <trkpt lat="48.35306" lon="-3.99086">
        <ele>218.24120535956</ele>
        <time>2021-06-29T21:56:13.465Z</time>
      </trkpt>
      <trkpt lat="48.353" lon="-3.99116">
        <ele>215.35111587413</ele>
        <time>2021-06-29T21:56:24.180Z</time>
      </trkpt>
      <trkpt lat="48.3529" lon="-3.99147">
        <ele>212.33413198628</ele>
        <time>2021-06-29T21:56:34.899Z</time>
      </trkpt>
      <trkpt lat="48.35267" lon="-3.99191">
        <ele>209.17209625103</ele>
        <time>2021-06-29T21:56:45.624Z</time>
      </trkpt>
      <trkpt lat="48.35199" lon="-3.99311">
        <ele>205.85192673688</ele>
        <time>2021-06-29T21:56:56.366Z</time>
      </trkpt>
      <trkpt lat="48.35184" lon="-3.99332">
        <ele>202.51916047023</ele>
        <time>2021-06-29T21:57:07.111Z</time>
      </trkpt>
      <trkpt lat="48.35141" lon="-3.99387">
        <ele>199.05474599898</ele>
        <time>2021-06-29T21:57:17.865Z</time>
      </trkpt>
      <trkpt lat="48.35072" lon="-3.99468">
        <ele>195.4133973071</ele>
        <time>2021-06-29T21:57:28.633Z</time>
      </trkpt>
      <trkpt lat="48.35021" lon="-3.99535">
        <ele>191.93156718884</ele>
        <time>2021-06-29T21:57:39.412Z</time>
      </trkpt>
      <trkpt lat="48.34988" lon="-3.99569">
        <ele>188.49136228329</ele>
        <time>2021-06-29T21:57:50.197Z</time>
      </trkpt>
      <trkpt lat="48.34967" lon="-3.99586">
        <ele>185.29879954917</ele>
        <time>2021-06-29T21:58:00.986Z</time>
      </trkpt>
      <trkpt lat="48.34953" lon="-3.99601">
        <ele>182.28157171723</ele>
        <time>2021-06-29T21:58:11.778Z</time>
      </trkpt>
      <trkpt lat="48.34948" lon="-3.99615">
        <ele>179.47303901038</ele>
        <time>2021-06-29T21:58:22.572Z</time>
      </trkpt>
      <trkpt lat="48.34947" lon="-3.99623">
        <ele>176.89242532612</ele>
        <time>2021-06-29T21:58:33.367Z</time>
      </trkpt>
      <trkpt lat="48.3497" lon="-3.99626">
        <ele>174.60918280842</ele>
        <time>2021-06-29T21:58:44.165Z</time>
      </trkpt>
      <trkpt lat="48.35003" lon="-3.9963">
        <ele>172.56032542004</ele>
        <time>2021-06-29T21:58:54.969Z</time>
      </trkpt>
      <trkpt lat="48.35021" lon="-3.99629">
        <ele>170.76502483125</ele>
        <time>2021-06-29T21:59:05.775Z</time>
      </trkpt>
      <trkpt lat="48.35061" lon="-3.99618">
        <ele>169.25465609466</ele>
        <time>2021-06-29T21:59:16.588Z</time>
      </trkpt>
      <trkpt lat="48.35134" lon="-3.99619">
        <ele>167.98231184572</ele>
        <time>2021-06-29T21:59:27.413Z</time>
      </trkpt>
      <trkpt lat="48.35195" lon="-3.99605">
        <ele>167.03976967449</ele>
        <time>2021-06-29T21:59:38.248Z</time>
      </trkpt>
      <trkpt lat="48.35243" lon="-3.99603">
        <ele>166.39831966892</ele>
        <time>2021-06-29T21:59:49.090Z</time>
      </trkpt>
      <trkpt lat="48.35286" lon="-3.99596">
        <ele>166.01563988327</ele>
        <time>2021-06-29T21:59:59.939Z</time>
      </trkpt>
      <trkpt lat="48.35391" lon="-3.99571">
        <ele>166.10251314933</ele>
        <time>2021-06-29T22:00:10.805Z</time>
      </trkpt>
      <trkpt lat="48.35445" lon="-3.9957">
        <ele>166.73072763314</ele>
        <time>2021-06-29T22:00:21.680Z</time>
      </trkpt>
      <trkpt lat="48.35476" lon="-3.99581">
        <ele>167.70101966424</ele>
        <time>2021-06-29T22:00:32.560Z</time>
      </trkpt>
      <trkpt lat="48.35504" lon="-3.99597">
        <ele>169.0854783975</ele>
        <time>2021-06-29T22:00:43.445Z</time>
      </trkpt>
      <trkpt lat="48.35518" lon="-3.99608">
        <ele>170.94753467828</ele>
        <time>2021-06-29T22:00:54.332Z</time>
      </trkpt>
      <trkpt lat="48.35545" lon="-3.99635">
        <ele>173.24113641482</ele>
        <time>2021-06-29T22:01:05.224Z</time>
      </trkpt>
      <trkpt lat="48.35892" lon="-4.00056">
        <ele>176.95186529425</ele>
        <time>2021-06-29T22:01:16.188Z</time>
      </trkpt>
      <trkpt lat="48.35905" lon="-4.00067">
        <ele>180.18277108475</ele>
        <time>2021-06-29T22:01:27.154Z</time>
      </trkpt>
      <trkpt lat="48.35921" lon="-4.00075">
        <ele>183.78816057835</ele>
        <time>2021-06-29T22:01:38.123Z</time>
      </trkpt>
      <trkpt lat="48.35933" lon="-4.00079">
        <ele>187.70700938223</ele>
        <time>2021-06-29T22:01:49.094Z</time>
      </trkpt>
      <trkpt lat="48.35952" lon="-4.00078">
        <ele>191.89858339397</ele>
        <time>2021-06-29T22:02:00.068Z</time>
      </trkpt>
      <trkpt lat="48.35968" lon="-4.00073">
        <ele>196.33573102619</ele>
        <time>2021-06-29T22:02:11.045Z</time>
      </trkpt>
      <trkpt lat="48.35987" lon="-4.00064">
        <ele>200.96559834747</ele>
        <time>2021-06-29T22:02:22.025Z</time>
      </trkpt>
      <trkpt lat="48.36404" lon="-3.99785">
        <ele>206.46839281477</ele>
        <time>2021-06-29T22:02:33.078Z</time>
      </trkpt>
      <trkpt lat="48.36467" lon="-3.99745">
        <ele>211.50549871448</ele>
        <time>2021-06-29T22:02:44.142Z</time>
      </trkpt>
      <trkpt lat="48.36533" lon="-3.99709">
        <ele>216.52325832834</ele>
        <time>2021-06-29T22:02:55.217Z</time>
      </trkpt>
      <trkpt lat="48.36624" lon="-3.9967">
        <ele>221.57610663792</ele>
        <time>2021-06-29T22:03:06.307Z</time>
      </trkpt>
      <trkpt lat="48.36665" lon="-3.99634">
        <ele>226.53670634959</ele>
        <time>2021-06-29T22:03:17.405Z</time>
      </trkpt>
      <trkpt lat="48.36729" lon="-3.99562">
        <ele>231.39132425865</ele>
        <time>2021-06-29T22:03:28.516Z</time>
      </trkpt>
      <trkpt lat="48.36787" lon="-3.99496">
        <ele>236.12892197375</ele>
        <time>2021-06-29T22:03:39.638Z</time>
      </trkpt>
      <trkpt lat="48.36871" lon="-3.99365">
        <ele>240.7420092629</ele>
        <time>2021-06-29T22:03:50.780Z</time>
      </trkpt>
      <trkpt lat="48.36903" lon="-3.99329">
        <ele>245.0259233942</ele>
        <time>2021-06-29T22:04:01.928Z</time>
      </trkpt>
      <trkpt lat="48.36923" lon="-3.99322">
        <ele>249.0067576443</ele>
        <time>2021-06-29T22:04:13.079Z</time>
      </trkpt>
      <trkpt lat="48.36945" lon="-3.9932">
        <ele>252.69159434452</ele>
        <time>2021-06-29T22:04:24.234Z</time>
      </trkpt>
      <trkpt lat="48.37079" lon="-3.99327">
        <ele>256.22285829864</ele>
        <time>2021-06-29T22:04:35.410Z</time>
      </trkpt>
      <trkpt lat="48.37122" lon="-3.99332">
        <ele>259.272695531</ele>
        <time>2021-06-29T22:04:46.593Z</time>
      </trkpt>
      <trkpt lat="48.3715" lon="-3.99346">
        <ele>261.91630501465</ele>
        <time>2021-06-29T22:04:57.781Z</time>
      </trkpt>
      <trkpt lat="48.3721" lon="-3.99391">
        <ele>264.19063012078</ele>
        <time>2021-06-29T22:05:08.980Z</time>
      </trkpt>
      <trkpt lat="48.37377" lon="-3.99531">
        <ele>266.10900363153</ele>
        <time>2021-06-29T22:05:20.209Z</time>
      </trkpt>
      <trkpt lat="48.37408" lon="-3.99565">
        <ele>267.44735880055</ele>
        <time>2021-06-29T22:05:31.445Z</time>
      </trkpt>
      <trkpt lat="48.37423" lon="-3.99586">
        <ele>268.33769198821</ele>
        <time>2021-06-29T22:05:42.684Z</time>
      </trkpt>
      <trkpt lat="48.37528" lon="-3.99775">
        <ele>268.52303220152</ele>
        <time>2021-06-29T22:05:53.949Z</time>
      </trkpt>
      <trkpt lat="48.37574" lon="-3.9986">
        <ele>268.44999472272</ele>
        <time>2021-06-29T22:06:05.226Z</time>
      </trkpt>
      <trkpt lat="48.37584" lon="-3.99881">
        <ele>268.07538354498</ele>
        <time>2021-06-29T22:06:16.506Z</time>
      </trkpt>
      <trkpt lat="48.37599" lon="-3.99925">
        <ele>267.39784859894</ele>
        <time>2021-06-29T22:06:27.791Z</time>
      </trkpt>
      <trkpt lat="48.37605" lon="-3.99946">
        <ele>266.35883613512</ele>
        <time>2021-06-29T22:06:39.078Z</time>
      </trkpt>
      <trkpt lat="48.37622" lon="-4.00097">
        <ele>264.9267424971</ele>
        <time>2021-06-29T22:06:50.382Z</time>
      </trkpt>
      <trkpt lat="48.37631" lon="-4.00187">
        <ele>263.13857889599</ele>
        <time>2021-06-29T22:07:01.695Z</time>
      </trkpt>
      <trkpt lat="48.3763" lon="-4.00221">
        <ele>261.24265569593</ele>
        <time>2021-06-29T22:07:13.012Z</time>
      </trkpt>
      <trkpt lat="48.37627" lon="-4.0025">
        <ele>259.14462619067</ele>
        <time>2021-06-29T22:07:24.332Z</time>
      </trkpt>
      <trkpt lat="48.37621" lon="-4.00285">
        <ele>256.85502051639</ele>
        <time>2021-06-29T22:07:35.656Z</time>
      </trkpt>
      <trkpt lat="48.37608" lon="-4.00329">
        <ele>254.39501835283</ele>
        <time>2021-06-29T22:07:46.985Z</time>
      </trkpt>
      <trkpt lat="48.37587" lon="-4.00377">
        <ele>251.90711919316</ele>
        <time>2021-06-29T22:07:58.320Z</time>
      </trkpt>
      <trkpt lat="48.37507" lon="-4.00514">
        <ele>249.45174509798</ele>
        <time>2021-06-29T22:08:09.675Z</time>
      </trkpt>
      <trkpt lat="48.37366" lon="-4.0074">
        <ele>246.78041576102</ele>
        <time>2021-06-29T22:08:21.063Z</time>
      </trkpt>
      <trkpt lat="48.37305" lon="-4.00844">
        <ele>244.22119700637</ele>
        <time>2021-06-29T22:08:32.465Z</time>
      </trkpt>
      <trkpt lat="48.37282" lon="-4.00905">
        <ele>241.45854361157</ele>
        <time>2021-06-29T22:08:43.875Z</time>
      </trkpt>
      <trkpt lat="48.37263" lon="-4.00979">
        <ele>238.71696377611</ele>
        <time>2021-06-29T22:08:55.293Z</time>
      </trkpt>
      <trkpt lat="48.37225" lon="-4.01248">
        <ele>235.59390566568</ele>
        <time>2021-06-29T22:09:06.741Z</time>
      </trkpt>
      <trkpt lat="48.37194" lon="-4.01494">
        <ele>232.76649672563</ele>
        <time>2021-06-29T22:09:18.215Z</time>
      </trkpt>
      <trkpt lat="48.37194" lon="-4.01515">
        <ele>230.12248373495</ele>
        <time>2021-06-29T22:09:29.692Z</time>
      </trkpt>
      <trkpt lat="48.372" lon="-4.01566">
        <ele>227.46754715626</ele>
        <time>2021-06-29T22:09:41.174Z</time>
      </trkpt>
      <trkpt lat="48.37207" lon="-4.016">
        <ele>224.93819514108</ele>
        <time>2021-06-29T22:09:52.660Z</time>
      </trkpt>
      <trkpt lat="48.37214" lon="-4.01621">
        <ele>222.49025072468</ele>
        <time>2021-06-29T22:10:04.148Z</time>
      </trkpt>
      <trkpt lat="48.37221" lon="-4.01637">
        <ele>220.11060006622</ele>
        <time>2021-06-29T22:10:15.639Z</time>
      </trkpt>
      <trkpt lat="48.37277" lon="-4.01716">
        <ele>217.62306398251</ele>
        <time>2021-06-29T22:10:27.142Z</time>
      </trkpt>
      <trkpt lat="48.37291" lon="-4.01741">
        <ele>215.36908741243</ele>
        <time>2021-06-29T22:10:38.648Z</time>
      </trkpt>
      <trkpt lat="48.37298" lon="-4.01772">
        <ele>213.22769914743</ele>
        <time>2021-06-29T22:10:50.158Z</time>
      </trkpt>
      <trkpt lat="48.37296" lon="-4.01806">
        <ele>211.20858078141</ele>
        <time>2021-06-29T22:11:01.671Z</time>
      </trkpt>
      <trkpt lat="48.3729" lon="-4.01833">
        <ele>209.26496289342</ele>
        <time>2021-06-29T22:11:13.187Z</time>
      </trkpt>
      <trkpt lat="48.3727" lon="-4.01887">
        <ele>207.39317625469</ele>
        <time>2021-06-29T22:11:24.710Z</time>
      </trkpt>
      <trkpt lat="48.37262" lon="-4.01918">
        <ele>205.58487053252</ele>
        <time>2021-06-29T22:11:36.237Z</time>
      </trkpt>
      <trkpt lat="48.37262" lon="-4.0193">
        <ele>203.85435046367</ele>
        <time>2021-06-29T22:11:47.765Z</time>
      </trkpt>
      <trkpt lat="48.37266" lon="-4.01949">
        <ele>202.18074273675</ele>
        <time>2021-06-29T22:11:59.295Z</time>
      </trkpt>
      <trkpt lat="48.3731" lon="-4.02036">
        <ele>200.42233527695</ele>
        <time>2021-06-29T22:12:10.837Z</time>
      </trkpt>
      <trkpt lat="48.37321" lon="-4.0205">
        <ele>198.80938244326</ele>
        <time>2021-06-29T22:12:22.381Z</time>
      </trkpt>
      <trkpt lat="48.37313" lon="-4.02074">
        <ele>197.32341937119</ele>
        <time>2021-06-29T22:12:33.928Z</time>
      </trkpt>
      <trkpt lat="48.3726" lon="-4.02269">
        <ele>195.81606271793</ele>
        <time>2021-06-29T22:12:45.497Z</time>
      </trkpt>
      <trkpt lat="48.37222" lon="-4.02441">
        <ele>194.35750794057</ele>
        <time>2021-06-29T22:12:57.086Z</time>
      </trkpt>
      <trkpt lat="48.37185" lon="-4.02573">
        <ele>193.02757106877</ele>
        <time>2021-06-29T22:13:08.690Z</time>
      </trkpt>
      <trkpt lat="48.3717" lon="-4.0263">
        <ele>191.79269471657</ele>
        <time>2021-06-29T22:13:20.300Z</time>
      </trkpt>
      <trkpt lat="48.37113" lon="-4.02878">
        <ele>190.60599949295</ele>
        <time>2021-06-29T22:13:31.938Z</time>
      </trkpt>
      <trkpt lat="48.37069" lon="-4.03026">
        <ele>189.56209317758</ele>
        <time>2021-06-29T22:13:43.594Z</time>
      </trkpt>
      <trkpt lat="48.3701" lon="-4.03268">
        <ele>188.70384983239</ele>
        <time>2021-06-29T22:13:55.277Z</time>
      </trkpt>
      <trkpt lat="48.37004" lon="-4.03302">
        <ele>187.81824872785</ele>
        <time>2021-06-29T22:14:06.964Z</time>
      </trkpt>
      <trkpt lat="48.37002" lon="-4.03326">
        <ele>187.04924793146</ele>
        <time>2021-06-29T22:14:18.654Z</time>
      </trkpt>
      <trkpt lat="48.37008" lon="-4.03477">
        <ele>186.27148625779</ele>
        <time>2021-06-29T22:14:30.360Z</time>
      </trkpt>
      <trkpt lat="48.37002" lon="-4.03536">
        <ele>185.78299376701</ele>
        <time>2021-06-29T22:14:42.072Z</time>
      </trkpt>
      <trkpt lat="48.36998" lon="-4.03569">
        <ele>185.46266732264</ele>
        <time>2021-06-29T22:14:53.788Z</time>
      </trkpt>
      <trkpt lat="48.36998" lon="-4.0357">
        <ele>185.28655576398</ele>
        <time>2021-06-29T22:15:05.504Z</time>
      </trkpt>
      <trkpt lat="48.3698" lon="-4.03699">
        <ele>185.13784767177</ele>
        <time>2021-06-29T22:15:17.234Z</time>
      </trkpt>
      <trkpt lat="48.36977" lon="-4.03741">
        <ele>185.38220637551</ele>
        <time>2021-06-29T22:15:28.968Z</time>
      </trkpt>
      <trkpt lat="48.3698" lon="-4.03811">
        <ele>185.82611401483</ele>
        <time>2021-06-29T22:15:40.710Z</time>
      </trkpt>
      <trkpt lat="48.36987" lon="-4.03857">
        <ele>186.38845015508</ele>
        <time>2021-06-29T22:15:52.457Z</time>
      </trkpt>
      <trkpt lat="48.36995" lon="-4.03903">
        <ele>187.0973808616</ele>
        <time>2021-06-29T22:16:04.209Z</time>
      </trkpt>
      <trkpt lat="48.37008" lon="-4.03996">
        <ele>188.01412269729</ele>
        <time>2021-06-29T22:16:15.971Z</time>
      </trkpt>
      <trkpt lat="48.37008" lon="-4.04019">
        <ele>189.1840306359</ele>
        <time>2021-06-29T22:16:27.736Z</time>
      </trkpt>
      <trkpt lat="48.37004" lon="-4.04048">
        <ele>190.58463034884</ele>
        <time>2021-06-29T22:16:39.504Z</time>
      </trkpt>
      <trkpt lat="48.36989" lon="-4.04138">
        <ele>192.23611392307</ele>
        <time>2021-06-29T22:16:51.282Z</time>
      </trkpt>
      <trkpt lat="48.3694" lon="-4.04141">
        <ele>194.10103571967</ele>
        <time>2021-06-29T22:17:03.067Z</time>
      </trkpt>
      <trkpt lat="48.36896" lon="-4.04162">
        <ele>196.05616881168</ele>
        <time>2021-06-29T22:17:14.860Z</time>
      </trkpt>
      <trkpt lat="48.36812" lon="-4.04297">
        <ele>198.2724597184</ele>
        <time>2021-06-29T22:17:26.673Z</time>
      </trkpt>
      <trkpt lat="48.36768" lon="-4.04381">
        <ele>200.51118640758</ele>
        <time>2021-06-29T22:17:38.497Z</time>
      </trkpt>
      <trkpt lat="48.36755" lon="-4.0442">
        <ele>202.82104688937</ele>
        <time>2021-06-29T22:17:50.326Z</time>
      </trkpt>
      <trkpt lat="48.36749" lon="-4.04456">
        <ele>205.08710348879</ele>
        <time>2021-06-29T22:18:02.159Z</time>
      </trkpt>
      <trkpt lat="48.36745" lon="-4.04559">
        <ele>207.39534644809</ele>
        <time>2021-06-29T22:18:14.003Z</time>
      </trkpt>
      <trkpt lat="48.36722" lon="-4.0467">
        <ele>209.80312270829</ele>
        <time>2021-06-29T22:18:25.859Z</time>
      </trkpt>
      <trkpt lat="48.36709" lon="-4.0479">
        <ele>212.52888577222</ele>
        <time>2021-06-29T22:18:37.728Z</time>
      </trkpt>
      <trkpt lat="48.36677" lon="-4.04873">
        <ele>214.90537148834</ele>
        <time>2021-06-29T22:18:49.607Z</time>
      </trkpt>
      <trkpt lat="48.36668" lon="-4.04889">
        <ele>217.08756763576</ele>
        <time>2021-06-29T22:19:01.488Z</time>
      </trkpt>
      <trkpt lat="48.36652" lon="-4.04943">
        <ele>219.23358638942</ele>
        <time>2021-06-29T22:19:13.376Z</time>
      </trkpt>
      <trkpt lat="48.36642" lon="-4.04987">
        <ele>221.32287962339</ele>
        <time>2021-06-29T22:19:25.269Z</time>
      </trkpt>
      <trkpt lat="48.36633" lon="-4.05013">
        <ele>223.36611005129</ele>
        <time>2021-06-29T22:19:37.165Z</time>
      </trkpt>
      <trkpt lat="48.36624" lon="-4.05031">
        <ele>225.417462461</ele>
        <time>2021-06-29T22:19:49.063Z</time>
      </trkpt>
      <trkpt lat="48.36601" lon="-4.05059">
        <ele>227.54304327162</ele>
        <time>2021-06-29T22:20:00.966Z</time>
      </trkpt>
      <trkpt lat="48.36574" lon="-4.05081">
        <ele>229.78307567171</ele>
        <time>2021-06-29T22:20:12.874Z</time>
      </trkpt>
      <trkpt lat="48.36558" lon="-4.05089">
        <ele>232.13495311959</ele>
        <time>2021-06-29T22:20:24.785Z</time>
      </trkpt>
      <trkpt lat="48.36464" lon="-4.05107">
        <ele>234.7202620845</ele>
        <time>2021-06-29T22:20:36.711Z</time>
      </trkpt>
      <trkpt lat="48.36312" lon="-4.05124">
        <ele>237.54913370376</ele>
        <time>2021-06-29T22:20:48.661Z</time>
      </trkpt>
      <trkpt lat="48.36199" lon="-4.05128">
        <ele>240.46410020495</ele>
        <time>2021-06-29T22:21:00.629Z</time>
      </trkpt>
      <trkpt lat="48.36099" lon="-4.05118">
        <ele>243.70427217869</ele>
        <time>2021-06-29T22:21:12.613Z</time>
      </trkpt>
      <trkpt lat="48.35911" lon="-4.05092">
        <ele>247.17418981771</ele>
        <time>2021-06-29T22:21:24.628Z</time>
      </trkpt>
      <trkpt lat="48.35808" lon="-4.0504">
        <ele>250.70103578243</ele>
        <time>2021-06-29T22:21:36.660Z</time>
      </trkpt>
      <trkpt lat="48.35771" lon="-4.05018">
        <ele>254.63607896268</ele>
        <time>2021-06-29T22:21:48.698Z</time>
      </trkpt>
      <trkpt lat="48.35566" lon="-4.04912">
        <ele>259.10206912986</ele>
        <time>2021-06-29T22:22:00.771Z</time>
      </trkpt>
      <trkpt lat="48.35484" lon="-4.04863">
        <ele>263.44437971863</ele>
        <time>2021-06-29T22:22:12.858Z</time>
      </trkpt>
      <trkpt lat="48.35402" lon="-4.04818">
        <ele>267.86426484116</ele>
        <time>2021-06-29T22:22:24.959Z</time>
      </trkpt>
      <trkpt lat="48.35264" lon="-4.04748">
        <ele>272.7736106921</ele>
        <time>2021-06-29T22:22:37.083Z</time>
      </trkpt>
      <trkpt lat="48.34962" lon="-4.04583">
        <ele>278.29798489262</ele>
        <time>2021-06-29T22:22:49.259Z</time>
      </trkpt>
      <trkpt lat="48.34933" lon="-4.04572">
        <ele>283.10826823116</ele>
        <time>2021-06-29T22:23:01.440Z</time>
      </trkpt>
      <trkpt lat="48.34899" lon="-4.04563">
        <ele>287.85919361611</ele>
        <time>2021-06-29T22:23:13.626Z</time>
      </trkpt>
      <trkpt lat="48.34859" lon="-4.04559">
        <ele>292.56257911183</ele>
        <time>2021-06-29T22:23:25.819Z</time>
      </trkpt>
      <trkpt lat="48.34833" lon="-4.04562">
        <ele>297.03510072534</ele>
        <time>2021-06-29T22:23:38.016Z</time>
      </trkpt>
      <trkpt lat="48.34787" lon="-4.04579">
        <ele>301.36209662783</ele>
        <time>2021-06-29T22:23:50.220Z</time>
      </trkpt>
      <trkpt lat="48.34705" lon="-4.04637">
        <ele>305.43755724568</ele>
        <time>2021-06-29T22:24:02.439Z</time>
      </trkpt>
      <trkpt lat="48.34566" lon="-4.04754">
        <ele>309.42353837046</ele>
        <time>2021-06-29T22:24:14.683Z</time>
      </trkpt>
      <trkpt lat="48.34518" lon="-4.04783">
        <ele>312.34526520862</ele>
        <time>2021-06-29T22:24:26.936Z</time>
      </trkpt>
      <trkpt lat="48.34495" lon="-4.04792">
        <ele>314.83216079725</ele>
        <time>2021-06-29T22:24:39.193Z</time>
      </trkpt>
      <trkpt lat="48.34405" lon="-4.04818">
        <ele>316.80813190374</ele>
        <time>2021-06-29T22:24:51.464Z</time>
      </trkpt>
      <trkpt lat="48.34315" lon="-4.0484">
        <ele>318.24619988725</ele>
        <time>2021-06-29T22:25:03.750Z</time>
      </trkpt>
      <trkpt lat="48.33684" lon="-4.0495">
        <ele>319.10112377721</ele>
        <time>2021-06-29T22:25:16.138Z</time>
      </trkpt>
      <trkpt lat="48.33631" lon="-4.04951">
        <ele>319.68340210857</ele>
        <time>2021-06-29T22:25:28.534Z</time>
      </trkpt>
      <trkpt lat="48.33537" lon="-4.04941">
        <ele>319.71369016355</ele>
        <time>2021-06-29T22:25:40.945Z</time>
      </trkpt>
      <trkpt lat="48.33415" lon="-4.04911">
        <ele>319.2587502097</ele>
        <time>2021-06-29T22:25:53.376Z</time>
      </trkpt>
      <trkpt lat="48.33301" lon="-4.04884">
        <ele>318.42529650942</ele>
        <time>2021-06-29T22:26:05.825Z</time>
      </trkpt>
      <trkpt lat="48.33133" lon="-4.04864">
        <ele>317.13709186888</ele>
        <time>2021-06-29T22:26:18.301Z</time>
      </trkpt>
      <trkpt lat="48.33115" lon="-4.04865">
        <ele>315.53633481567</ele>
        <time>2021-06-29T22:26:30.780Z</time>
      </trkpt>
      <trkpt lat="48.33099" lon="-4.04867">
        <ele>313.55441088156</ele>
        <time>2021-06-29T22:26:43.262Z</time>
      </trkpt>
      <trkpt lat="48.3302" lon="-4.04902">
        <ele>311.15760746783</ele>
        <time>2021-06-29T22:26:55.757Z</time>
      </trkpt>
      <trkpt lat="48.32889" lon="-4.04968">
        <ele>308.48520356133</ele>
        <time>2021-06-29T22:27:08.274Z</time>
      </trkpt>
      <trkpt lat="48.32751" lon="-4.05031">
        <ele>305.53619292003</ele>
        <time>2021-06-29T22:27:20.814Z</time>
      </trkpt>
      <trkpt lat="48.32718" lon="-4.05051">
        <ele>302.29854583663</ele>
        <time>2021-06-29T22:27:33.360Z</time>
      </trkpt>
      <trkpt lat="48.32832" lon="-4.056">
        <ele>298.63583491206</ele>
        <time>2021-06-29T22:27:45.967Z</time>
      </trkpt>
      <trkpt lat="48.32834" lon="-4.05617">
        <ele>294.96955317532</ele>
        <time>2021-06-29T22:27:58.576Z</time>
      </trkpt>
      <trkpt lat="48.32841" lon="-4.05699">
        <ele>291.10431504833</ele>
        <time>2021-06-29T22:28:11.194Z</time>
      </trkpt>
      <trkpt lat="48.32849" lon="-4.05758">
        <ele>287.04603443446</ele>
        <time>2021-06-29T22:28:23.818Z</time>
      </trkpt>
      <trkpt lat="48.3306" lon="-4.06685">
        <ele>282.29424607119</ele>
        <time>2021-06-29T22:28:36.547Z</time>
      </trkpt>
      <trkpt lat="48.33084" lon="-4.06799">
        <ele>278.03692057235</ele>
        <time>2021-06-29T22:28:49.289Z</time>
      </trkpt>
      <trkpt lat="48.33088" lon="-4.0684">
        <ele>274.01454573288</ele>
        <time>2021-06-29T22:29:02.035Z</time>
      </trkpt>
      <trkpt lat="48.33087" lon="-4.06859">
        <ele>270.09069603852</ele>
        <time>2021-06-29T22:29:14.783Z</time>
      </trkpt>
      <trkpt lat="48.33071" lon="-4.06964">
        <ele>266.25510468588</ele>
        <time>2021-06-29T22:29:27.543Z</time>
      </trkpt>
      <trkpt lat="48.33074" lon="-4.06992">
        <ele>262.50336405738</ele>
        <time>2021-06-29T22:29:40.306Z</time>
      </trkpt>
      <trkpt lat="48.3309" lon="-4.07088">
        <ele>258.7354031629</ele>
        <time>2021-06-29T22:29:53.079Z</time>
      </trkpt>
      <trkpt lat="48.33099" lon="-4.07134">
        <ele>255.17399012527</ele>
        <time>2021-06-29T22:30:05.857Z</time>
      </trkpt>
      <trkpt lat="48.33108" lon="-4.07161">
        <ele>251.73323452116</ele>
        <time>2021-06-29T22:30:18.639Z</time>
      </trkpt>
      <trkpt lat="48.33123" lon="-4.0719">
        <ele>248.4216470264</ele>
        <time>2021-06-29T22:30:31.425Z</time>
      </trkpt>
      <trkpt lat="48.3313" lon="-4.07212">
        <ele>245.15394087608</ele>
        <time>2021-06-29T22:30:44.213Z</time>
      </trkpt>
      <trkpt lat="48.33135" lon="-4.07237">
        <ele>241.96532332679</ele>
        <time>2021-06-29T22:30:57.004Z</time>
      </trkpt>
      <trkpt lat="48.33136" lon="-4.07252">
        <ele>238.87528128219</ele>
        <time>2021-06-29T22:31:09.797Z</time>
      </trkpt>
      <trkpt lat="48.33134" lon="-4.07272">
        <ele>235.85686007557</ele>
        <time>2021-06-29T22:31:22.592Z</time>
      </trkpt>
      <trkpt lat="48.331" lon="-4.07382">
        <ele>232.75164244945</ele>
        <time>2021-06-29T22:31:35.400Z</time>
      </trkpt>
      <trkpt lat="48.3308" lon="-4.0744">
        <ele>229.73171116157</ele>
        <time>2021-06-29T22:31:48.215Z</time>
      </trkpt>
      <trkpt lat="48.33039" lon="-4.07539">
        <ele>226.83545198761</ele>
        <time>2021-06-29T22:32:01.042Z</time>
      </trkpt>
      <trkpt lat="48.33019" lon="-4.07638">
        <ele>223.89972565507</ele>
        <time>2021-06-29T22:32:13.880Z</time>
      </trkpt>
      <trkpt lat="48.33007" lon="-4.07691">
        <ele>221.07592912435</ele>
        <time>2021-06-29T22:32:26.724Z</time>
      </trkpt>
      <trkpt lat="48.32975" lon="-4.07806">
        <ele>218.31055139023</ele>
        <time>2021-06-29T22:32:39.581Z</time>
      </trkpt>
      <trkpt lat="48.32945" lon="-4.07913">
        <ele>215.52963868546</ele>
        <time>2021-06-29T22:32:52.451Z</time>
      </trkpt>
      <trkpt lat="48.32941" lon="-4.07931">
        <ele>212.94877164314</ele>
        <time>2021-06-29T22:33:05.323Z</time>
      </trkpt>
      <trkpt lat="48.32906" lon="-4.08035">
        <ele>210.30974226622</ele>
        <time>2021-06-29T22:33:18.207Z</time>
      </trkpt>
      <trkpt lat="48.32892" lon="-4.08086">
        <ele>207.74208284155</ele>
        <time>2021-06-29T22:33:31.097Z</time>
      </trkpt>
      <trkpt lat="48.32837" lon="-4.08479">
        <ele>204.95135119735</ele>
        <time>2021-06-29T22:33:44.030Z</time>
      </trkpt>
      <trkpt lat="48.32837" lon="-4.08512">
        <ele>202.34315112689</ele>
        <time>2021-06-29T22:33:56.967Z</time>
      </trkpt>
      <trkpt lat="48.3284" lon="-4.08534">
        <ele>199.74412855511</ele>
        <time>2021-06-29T22:34:09.906Z</time>
      </trkpt>
      <trkpt lat="48.32877" lon="-4.08711">
        <ele>197.04146519048</ele>
        <time>2021-06-29T22:34:22.865Z</time>
      </trkpt>
      <trkpt lat="48.32885" lon="-4.08739">
        <ele>194.42810383786</ele>
        <time>2021-06-29T22:34:35.827Z</time>
      </trkpt>
      <trkpt lat="48.32912" lon="-4.08802">
        <ele>191.78611383573</ele>
        <time>2021-06-29T22:34:48.797Z</time>
      </trkpt>
      <trkpt lat="48.32934" lon="-4.08851">
        <ele>189.11820517754</ele>
        <time>2021-06-29T22:35:01.773Z</time>
      </trkpt>
      <trkpt lat="48.33021" lon="-4.09027">
        <ele>186.06042932029</ele>
        <time>2021-06-29T22:35:14.773Z</time>
      </trkpt>
      <trkpt lat="48.33027" lon="-4.09043">
        <ele>183.3194276066</ele>
        <time>2021-06-29T22:35:27.775Z</time>
      </trkpt>
      <trkpt lat="48.33033" lon="-4.09079">
        <ele>180.54225515982</ele>
        <time>2021-06-29T22:35:40.781Z</time>
      </trkpt>
      <trkpt lat="48.33035" lon="-4.09136">
        <ele>177.75256135238</ele>
        <time>2021-06-29T22:35:53.793Z</time>
      </trkpt>
      <trkpt lat="48.33033" lon="-4.09192">
        <ele>175.11792160007</ele>
        <time>2021-06-29T22:36:06.811Z</time>
      </trkpt>
      <trkpt lat="48.33014" lon="-4.09358">
        <ele>172.16521315626</ele>
        <time>2021-06-29T22:36:19.847Z</time>
      </trkpt>
      <trkpt lat="48.33005" lon="-4.09418">
        <ele>169.40643697996</ele>
        <time>2021-06-29T22:36:32.889Z</time>
      </trkpt>
      <trkpt lat="48.32997" lon="-4.09451">
        <ele>166.72382783869</ele>
        <time>2021-06-29T22:36:45.935Z</time>
      </trkpt>
      <trkpt lat="48.32993" lon="-4.09483">
        <ele>164.1011710722</ele>
        <time>2021-06-29T22:36:58.985Z</time>
      </trkpt>
      <trkpt lat="48.32988" lon="-4.09595">
        <ele>161.42824855525</ele>
        <time>2021-06-29T22:37:12.047Z</time>
      </trkpt>
      <trkpt lat="48.32984" lon="-4.09738">
        <ele>158.73231952327</ele>
        <time>2021-06-29T22:37:25.124Z</time>
      </trkpt>
      <trkpt lat="48.3298" lon="-4.09793">
        <ele>156.24689629318</ele>
        <time>2021-06-29T22:37:38.207Z</time>
      </trkpt>
      <trkpt lat="48.32954" lon="-4.09936">
        <ele>153.8841348899</ele>
        <time>2021-06-29T22:37:51.306Z</time>
      </trkpt>
      <trkpt lat="48.32946" lon="-4.10003">
        <ele>151.7692941907</ele>
        <time>2021-06-29T22:38:04.412Z</time>
      </trkpt>
      <trkpt lat="48.32937" lon="-4.10058">
        <ele>149.77046493854</ele>
        <time>2021-06-29T22:38:17.524Z</time>
      </trkpt>
      <trkpt lat="48.32907" lon="-4.10135">
        <ele>147.89610578736</ele>
        <time>2021-06-29T22:38:30.645Z</time>
      </trkpt>
      <trkpt lat="48.32889" lon="-4.10189">
        <ele>146.39913662986</ele>
        <time>2021-06-29T22:38:43.773Z</time>
      </trkpt>
      <trkpt lat="48.32856" lon="-4.10303">
        <ele>145.07994990718</ele>
        <time>2021-06-29T22:38:56.914Z</time>
      </trkpt>
      <trkpt lat="48.32852" lon="-4.10312">
        <ele>144.01580227137</ele>
        <time>2021-06-29T22:39:10.056Z</time>
      </trkpt>
      <trkpt lat="48.32826" lon="-4.10347">
        <ele>143.21979656476</ele>
        <time>2021-06-29T22:39:23.204Z</time>
      </trkpt>
      <trkpt lat="48.3281" lon="-4.10386">
        <ele>142.57839963467</ele>
        <time>2021-06-29T22:39:36.357Z</time>
      </trkpt>
      <trkpt lat="48.32793" lon="-4.10443">
        <ele>142.19113975279</ele>
        <time>2021-06-29T22:39:49.516Z</time>
      </trkpt>
      <trkpt lat="48.3278" lon="-4.10499">
        <ele>141.92563551296</ele>
        <time>2021-06-29T22:40:02.682Z</time>
      </trkpt>
      <trkpt lat="48.32776" lon="-4.1051">
        <ele>141.92511872334</ele>
        <time>2021-06-29T22:40:15.849Z</time>
      </trkpt>
      <trkpt lat="48.32768" lon="-4.10523">
        <ele>142.09836037155</ele>
        <time>2021-06-29T22:40:29.018Z</time>
      </trkpt>
      <trkpt lat="48.32749" lon="-4.10538">
        <ele>142.43476718559</ele>
        <time>2021-06-29T22:40:42.190Z</time>
      </trkpt>
      <trkpt lat="48.32738" lon="-4.10544">
        <ele>142.90329055721</ele>
        <time>2021-06-29T22:40:55.364Z</time>
      </trkpt>
      <trkpt lat="48.32727" lon="-4.10544">
        <ele>143.50847886878</ele>
        <time>2021-06-29T22:41:08.540Z</time>
      </trkpt>
      <trkpt lat="48.32725" lon="-4.10612">
        <ele>144.07813767281</ele>
        <time>2021-06-29T22:41:21.723Z</time>
      </trkpt>
      <trkpt lat="48.32726" lon="-4.10671">
        <ele>144.80363668187</ele>
        <time>2021-06-29T22:41:34.913Z</time>
      </trkpt>
      <trkpt lat="48.3273" lon="-4.10722">
        <ele>145.68447101353</ele>
        <time>2021-06-29T22:41:48.108Z</time>
      </trkpt>
      <trkpt lat="48.32746" lon="-4.1085">
        <ele>146.65727321413</ele>
        <time>2021-06-29T22:42:01.317Z</time>
      </trkpt>
      <trkpt lat="48.32756" lon="-4.11047">
        <ele>147.66830388477</ele>
        <time>2021-06-29T22:42:14.547Z</time>
      </trkpt>
      <trkpt lat="48.32755" lon="-4.11104">
        <ele>148.75654344727</ele>
        <time>2021-06-29T22:42:27.783Z</time>
      </trkpt>
      <trkpt lat="48.32745" lon="-4.11245">
        <ele>149.89969045511</ele>
        <time>2021-06-29T22:42:41.034Z</time>
      </trkpt>
      <trkpt lat="48.32745" lon="-4.11245">
        <ele>150.70161623807</ele>
        <time>2021-06-29T22:42:54.285Z</time>
      </trkpt>
      <trkpt lat="48.32745" lon="-4.11246">
        <ele>151.36987345796</ele>
        <time>2021-06-29T22:43:07.536Z</time>
      </trkpt>
      <trkpt lat="48.32745" lon="-4.11246">
        <ele>151.87190724999</ele>
        <time>2021-06-29T22:43:20.787Z</time>
      </trkpt>
      <trkpt lat="48.32743" lon="-4.11299">
        <ele>152.21970776191</ele>
        <time>2021-06-29T22:43:34.044Z</time>
      </trkpt>
      <trkpt lat="48.32743" lon="-4.11321">
        <ele>152.33254858332</ele>
        <time>2021-06-29T22:43:47.303Z</time>
      </trkpt>
      <trkpt lat="48.32747" lon="-4.11352">
        <ele>152.17879180782</ele>
        <time>2021-06-29T22:44:00.566Z</time>
      </trkpt>
      <trkpt lat="48.3278" lon="-4.11508">
        <ele>151.67429938877</ele>
        <time>2021-06-29T22:44:13.846Z</time>
      </trkpt>
      <trkpt lat="48.32787" lon="-4.1153">
        <ele>150.97389539078</ele>
        <time>2021-06-29T22:44:27.129Z</time>
      </trkpt>
      <trkpt lat="48.32819" lon="-4.11608">
        <ele>149.90858278644</ele>
        <time>2021-06-29T22:44:40.422Z</time>
      </trkpt>
      <trkpt lat="48.32893" lon="-4.11808">
        <ele>148.68651583614</ele>
        <time>2021-06-29T22:44:53.739Z</time>
      </trkpt>
      <trkpt lat="48.32909" lon="-4.11846">
        <ele>147.22794968096</ele>
        <time>2021-06-29T22:45:07.061Z</time>
      </trkpt>
      <trkpt lat="48.32949" lon="-4.11968">
        <ele>145.46167033424</ele>
        <time>2021-06-29T22:45:20.397Z</time>
      </trkpt>
      <trkpt lat="48.32954" lon="-4.11995">
        <ele>143.49223710554</ele>
        <time>2021-06-29T22:45:33.736Z</time>
      </trkpt>
      <trkpt lat="48.32963" lon="-4.12069">
        <ele>141.19314150371</ele>
        <time>2021-06-29T22:45:47.083Z</time>
      </trkpt>
      <trkpt lat="48.32974" lon="-4.12125">
        <ele>138.77521378129</ele>
        <time>2021-06-29T22:46:00.437Z</time>
      </trkpt>
      <trkpt lat="48.32993" lon="-4.12202">
        <ele>136.2507830502</ele>
        <time>2021-06-29T22:46:13.799Z</time>
      </trkpt>
      <trkpt lat="48.33064" lon="-4.12383">
        <ele>133.47017056144</ele>
        <time>2021-06-29T22:46:27.184Z</time>
      </trkpt>
      <trkpt lat="48.33093" lon="-4.12433">
        <ele>130.69270435801</ele>
        <time>2021-06-29T22:46:40.576Z</time>
      </trkpt>
      <trkpt lat="48.3321" lon="-4.12614">
        <ele>127.86416300346</ele>
        <time>2021-06-29T22:46:53.995Z</time>
      </trkpt>
      <trkpt lat="48.33317" lon="-4.12773">
        <ele>125.10492227679</ele>
        <time>2021-06-29T22:47:07.438Z</time>
      </trkpt>
      <trkpt lat="48.33331" lon="-4.12799">
        <ele>122.46685837629</ele>
        <time>2021-06-29T22:47:20.885Z</time>
      </trkpt>
      <trkpt lat="48.3335" lon="-4.12843">
        <ele>119.90013245252</ele>
        <time>2021-06-29T22:47:34.337Z</time>
      </trkpt>
      <trkpt lat="48.33364" lon="-4.12889">
        <ele>117.40246074625</ele>
        <time>2021-06-29T22:47:47.795Z</time>
      </trkpt>
      <trkpt lat="48.33371" lon="-4.12919">
        <ele>115.05826673582</ele>
        <time>2021-06-29T22:48:01.256Z</time>
      </trkpt>
      <trkpt lat="48.3339" lon="-4.13043">
        <ele>112.62039077076</ele>
        <time>2021-06-29T22:48:14.731Z</time>
      </trkpt>
      <trkpt lat="48.33393" lon="-4.1308">
        <ele>110.55544712263</ele>
        <time>2021-06-29T22:48:28.210Z</time>
      </trkpt>
      <trkpt lat="48.334" lon="-4.1321">
        <ele>108.62703768105</ele>
        <time>2021-06-29T22:48:41.702Z</time>
      </trkpt>
      <trkpt lat="48.33404" lon="-4.13387">
        <ele>107.0076100442</ele>
        <time>2021-06-29T22:48:55.213Z</time>
      </trkpt>
      <trkpt lat="48.33396" lon="-4.13527">
        <ele>105.52973232955</ele>
        <time>2021-06-29T22:49:08.739Z</time>
      </trkpt>
      <trkpt lat="48.33396" lon="-4.13572">
        <ele>104.16264728509</ele>
        <time>2021-06-29T22:49:22.270Z</time>
      </trkpt>
      <trkpt lat="48.3341" lon="-4.1369">
        <ele>102.89200783433</ele>
        <time>2021-06-29T22:49:35.814Z</time>
      </trkpt>
      <trkpt lat="48.33411" lon="-4.13755">
        <ele>101.78281063352</ele>
        <time>2021-06-29T22:49:49.365Z</time>
      </trkpt>
      <trkpt lat="48.33415" lon="-4.13807">
        <ele>100.60872163487</ele>
        <time>2021-06-29T22:50:02.922Z</time>
      </trkpt>
      <trkpt lat="48.33425" lon="-4.1385">
        <ele>99.45706469717</ele>
        <time>2021-06-29T22:50:16.483Z</time>
      </trkpt>
      <trkpt lat="48.33452" lon="-4.13932">
        <ele>98.43194081158</ele>
        <time>2021-06-29T22:50:30.054Z</time>
      </trkpt>
      <trkpt lat="48.33461" lon="-4.13966">
        <ele>97.39697146347</ele>
        <time>2021-06-29T22:50:43.629Z</time>
      </trkpt>
      <trkpt lat="48.33468" lon="-4.14009">
        <ele>96.33004997516</ele>
        <time>2021-06-29T22:50:57.209Z</time>
      </trkpt>
      <trkpt lat="48.33468" lon="-4.14181">
        <ele>95.23808234297</ele>
        <time>2021-06-29T22:51:10.807Z</time>
      </trkpt>
      <trkpt lat="48.33465" lon="-4.14287">
        <ele>94.00986755239</ele>
        <time>2021-06-29T22:51:24.416Z</time>
      </trkpt>
      <trkpt lat="48.33472" lon="-4.14305">
        <ele>92.83883241034</ele>
        <time>2021-06-29T22:51:38.028Z</time>
      </trkpt>
      <trkpt lat="48.33505" lon="-4.14261">
        <ele>91.63709500162</ele>
        <time>2021-06-29T22:51:51.647Z</time>
      </trkpt>
      <trkpt lat="48.33668" lon="-4.14025">
        <ele>90.44431472636</ele>
        <time>2021-06-29T22:52:05.302Z</time>
      </trkpt>
      <trkpt lat="48.33686" lon="-4.14005">
        <ele>89.20996182046</ele>
        <time>2021-06-29T22:52:18.961Z</time>
      </trkpt>
      <trkpt lat="48.33709" lon="-4.1399">
        <ele>87.92070693704</ele>
        <time>2021-06-29T22:52:32.624Z</time>
      </trkpt>
      <trkpt lat="48.3373" lon="-4.13982">
        <ele>86.65844390576</ele>
        <time>2021-06-29T22:52:46.290Z</time>
      </trkpt>
      <trkpt lat="48.3383" lon="-4.1395">
        <ele>85.2816187956</ele>
        <time>2021-06-29T22:52:59.972Z</time>
      </trkpt>
      <trkpt lat="48.33857" lon="-4.13944">
        <ele>84.25933679717</ele>
        <time>2021-06-29T22:53:13.659Z</time>
      </trkpt>
      <trkpt lat="48.33918" lon="-4.13923">
        <ele>83.35567188415</ele>
        <time>2021-06-29T22:53:27.356Z</time>
      </trkpt>
      <trkpt lat="48.33932" lon="-4.13914">
        <ele>82.72859354961</ele>
        <time>2021-06-29T22:53:41.055Z</time>
      </trkpt>
      <trkpt lat="48.33955" lon="-4.13891">
        <ele>82.28875796691</ele>
        <time>2021-06-29T22:53:54.759Z</time>
      </trkpt>
      <trkpt lat="48.33963" lon="-4.1388">
        <ele>82.04981364483</ele>
        <time>2021-06-29T22:54:08.464Z</time>
      </trkpt>
      <trkpt lat="48.33974" lon="-4.1386">
        <ele>82.03150625123</ele>
        <time>2021-06-29T22:54:22.172Z</time>
      </trkpt>
      <trkpt lat="48.34074" lon="-4.13606">
        <ele>82.51572823029</ele>
        <time>2021-06-29T22:54:35.912Z</time>
      </trkpt>
      <trkpt lat="48.34081" lon="-4.13582">
        <ele>82.9982415326</ele>
        <time>2021-06-29T22:54:49.655Z</time>
      </trkpt>
      <trkpt lat="48.3408" lon="-4.13559">
        <ele>83.70714877819</ele>
        <time>2021-06-29T22:55:03.400Z</time>
      </trkpt>
      <trkpt lat="48.34077" lon="-4.1354">
        <ele>84.65270828474</ele>
        <time>2021-06-29T22:55:17.147Z</time>
      </trkpt>
      <trkpt lat="48.34057" lon="-4.13499">
        <ele>85.81979911256</ele>
        <time>2021-06-29T22:55:30.899Z</time>
      </trkpt>
      <trkpt lat="48.34054" lon="-4.13489">
        <ele>87.23027480373</ele>
        <time>2021-06-29T22:55:44.653Z</time>
      </trkpt>
      <trkpt lat="48.34053" lon="-4.13478">
        <ele>88.88405151249</ele>
        <time>2021-06-29T22:55:58.408Z</time>
      </trkpt>
      <trkpt lat="48.34053" lon="-4.1346">
        <ele>90.7640907339</ele>
        <time>2021-06-29T22:56:12.165Z</time>
      </trkpt>
      <trkpt lat="48.3406" lon="-4.13437">
        <ele>92.8561754102</ele>
        <time>2021-06-29T22:56:25.924Z</time>
      </trkpt>
      <trkpt lat="48.34074" lon="-4.13414">
        <ele>95.10592304118</ele>
        <time>2021-06-29T22:56:39.687Z</time>
      </trkpt>
      <trkpt lat="48.34084" lon="-4.13403">
        <ele>97.50607189432</ele>
        <time>2021-06-29T22:56:53.452Z</time>
      </trkpt>
      <trkpt lat="48.3413" lon="-4.13362">
        <ele>100.16890725214</ele>
        <time>2021-06-29T22:57:07.225Z</time>
      </trkpt>
      <trkpt lat="48.34296" lon="-4.13232">
        <ele>103.05826944765</ele>
        <time>2021-06-29T22:57:21.028Z</time>
      </trkpt>
      <trkpt lat="48.34356" lon="-4.13192">
        <ele>105.78578728702</ele>
        <time>2021-06-29T22:57:34.842Z</time>
      </trkpt>
      <trkpt lat="48.34371" lon="-4.13179">
        <ele>108.4072434534</ele>
        <time>2021-06-29T22:57:48.659Z</time>
      </trkpt>
      <trkpt lat="48.34414" lon="-4.13142">
        <ele>111.02275225248</ele>
        <time>2021-06-29T22:58:02.484Z</time>
      </trkpt>
      <trkpt lat="48.34512" lon="-4.1302">
        <ele>113.61351381309</ele>
        <time>2021-06-29T22:58:16.329Z</time>
      </trkpt>
      <trkpt lat="48.34535" lon="-4.12996">
        <ele>115.93371699038</ele>
        <time>2021-06-29T22:58:30.178Z</time>
      </trkpt>
      <trkpt lat="48.34569" lon="-4.12967">
        <ele>118.00307919894</ele>
        <time>2021-06-29T22:58:44.034Z</time>
      </trkpt>
      <trkpt lat="48.34894" lon="-4.12714">
        <ele>120.2622995558</ele>
        <time>2021-06-29T22:58:57.948Z</time>
      </trkpt>
      <trkpt lat="48.34915" lon="-4.12694">
        <ele>122.03882334494</ele>
        <time>2021-06-29T22:59:11.866Z</time>
      </trkpt>
      <trkpt lat="48.3493" lon="-4.12676">
        <ele>123.51129878</ele>
        <time>2021-06-29T22:59:25.787Z</time>
      </trkpt>
      <trkpt lat="48.34976" lon="-4.12614">
        <ele>124.74612183136</ele>
        <time>2021-06-29T22:59:39.718Z</time>
      </trkpt>
      <trkpt lat="48.35065" lon="-4.12486">
        <ele>125.69709758425</ele>
        <time>2021-06-29T22:59:53.669Z</time>
      </trkpt>
      <trkpt lat="48.3511" lon="-4.1243">
        <ele>126.44215204025</ele>
        <time>2021-06-29T23:00:07.629Z</time>
      </trkpt>
      <trkpt lat="48.35244" lon="-4.1228">
        <ele>126.8351332719</ele>
        <time>2021-06-29T23:00:21.616Z</time>
      </trkpt>
      <trkpt lat="48.35263" lon="-4.12261">
        <ele>127.01120734203</ele>
        <time>2021-06-29T23:00:35.607Z</time>
      </trkpt>
      <trkpt lat="48.35295" lon="-4.12231">
        <ele>127.01111745262</ele>
        <time>2021-06-29T23:00:49.604Z</time>
      </trkpt>
      <trkpt lat="48.35389" lon="-4.12119">
        <ele>126.81825667874</ele>
        <time>2021-06-29T23:01:03.620Z</time>
      </trkpt>
      <trkpt lat="48.35427" lon="-4.12087">
        <ele>126.59372143818</ele>
        <time>2021-06-29T23:01:17.643Z</time>
      </trkpt>
      <trkpt lat="48.3545" lon="-4.12072">
        <ele>126.25271747843</ele>
        <time>2021-06-29T23:01:31.670Z</time>
      </trkpt>
      <trkpt lat="48.35521" lon="-4.12018">
        <ele>125.70817739582</ele>
        <time>2021-06-29T23:01:45.710Z</time>
      </trkpt>
      <trkpt lat="48.35569" lon="-4.11975">
        <ele>125.19741455396</ele>
        <time>2021-06-29T23:01:59.759Z</time>
      </trkpt>
      <trkpt lat="48.35709" lon="-4.11844">
        <ele>124.6433689818</ele>
        <time>2021-06-29T23:02:13.834Z</time>
      </trkpt>
      <trkpt lat="48.35741" lon="-4.11807">
        <ele>124.38232062256</ele>
        <time>2021-06-29T23:02:27.916Z</time>
      </trkpt>
      <trkpt lat="48.35753" lon="-4.1179">
        <ele>124.26940862985</ele>
        <time>2021-06-29T23:02:42.000Z</time>
      </trkpt>
      <trkpt lat="48.35771" lon="-4.11758">
        <ele>124.32335879139</ele>
        <time>2021-06-29T23:02:56.089Z</time>
      </trkpt>
      <trkpt lat="48.35789" lon="-4.11719">
        <ele>124.60602693271</ele>
        <time>2021-06-29T23:03:10.183Z</time>
      </trkpt>
      <trkpt lat="48.35797" lon="-4.11693">
        <ele>125.12204509939</ele>
        <time>2021-06-29T23:03:24.280Z</time>
      </trkpt>
      <trkpt lat="48.35807" lon="-4.11654">
        <ele>125.92326305829</ele>
        <time>2021-06-29T23:03:38.381Z</time>
      </trkpt>
      <trkpt lat="48.35814" lon="-4.11603">
        <ele>126.86479700688</ele>
        <time>2021-06-29T23:03:52.488Z</time>
      </trkpt>
      <trkpt lat="48.35816" lon="-4.11561">
        <ele>127.95570372057</ele>
        <time>2021-06-29T23:04:06.599Z</time>
      </trkpt>
      <trkpt lat="48.35814" lon="-4.11506">
        <ele>129.24060677035</ele>
        <time>2021-06-29T23:04:20.716Z</time>
      </trkpt>
      <trkpt lat="48.35803" lon="-4.1139">
        <ele>130.78072972084</ele>
        <time>2021-06-29T23:04:34.846Z</time>
      </trkpt>
      <trkpt lat="48.35801" lon="-4.11309">
        <ele>132.37835886039</ele>
        <time>2021-06-29T23:04:48.984Z</time>
      </trkpt>
      <trkpt lat="48.3583" lon="-4.11319">
        <ele>134.19684454618</ele>
        <time>2021-06-29T23:05:03.127Z</time>
      </trkpt>
      <trkpt lat="48.3584" lon="-4.11326">
        <ele>135.98283073318</ele>
        <time>2021-06-29T23:05:17.272Z</time>
      </trkpt>
      <trkpt lat="48.3586" lon="-4.11349">
        <ele>137.85029959685</ele>
        <time>2021-06-29T23:05:31.421Z</time>
      </trkpt>
      <trkpt lat="48.35869" lon="-4.11363">
        <ele>139.73643075463</ele>
        <time>2021-06-29T23:05:45.572Z</time>
      </trkpt>
      <trkpt lat="48.35882" lon="-4.11393">
        <ele>141.6100410621</ele>
        <time>2021-06-29T23:05:59.727Z</time>
      </trkpt>
      <trkpt lat="48.36005" lon="-4.11838">
        <ele>143.94989863955</ele>
        <time>2021-06-29T23:06:13.933Z</time>
      </trkpt>
      <trkpt lat="48.36015" lon="-4.11872">
        <ele>145.73536885263</ele>
        <time>2021-06-29T23:06:28.143Z</time>
      </trkpt>
      <trkpt lat="48.36043" lon="-4.11921">
        <ele>147.38176996601</ele>
        <time>2021-06-29T23:06:42.360Z</time>
      </trkpt>
      <trkpt lat="48.36048" lon="-4.11932">
        <ele>148.88275453807</ele>
        <time>2021-06-29T23:06:56.579Z</time>
      </trkpt>
      <trkpt lat="48.36054" lon="-4.11953">
        <ele>150.26851277431</ele>
        <time>2021-06-29T23:07:10.800Z</time>
      </trkpt>
      <trkpt lat="48.36058" lon="-4.11982">
        <ele>151.52150922572</ele>
        <time>2021-06-29T23:07:25.024Z</time>
      </trkpt>
      <trkpt lat="48.36064" lon="-4.12041">
        <ele>152.63267710448</ele>
        <time>2021-06-29T23:07:39.255Z</time>
      </trkpt>
      <trkpt lat="48.36062" lon="-4.12072">
        <ele>153.57185833747</ele>
        <time>2021-06-29T23:07:53.489Z</time>
      </trkpt>
      <trkpt lat="48.36048" lon="-4.12153">
        <ele>154.34865492874</ele>
        <time>2021-06-29T23:08:07.732Z</time>
      </trkpt>
      <trkpt lat="48.36046" lon="-4.12174">
        <ele>155.1215952938</ele>
        <time>2021-06-29T23:08:21.977Z</time>
      </trkpt>
      <trkpt lat="48.36046" lon="-4.12201">
        <ele>155.82122381299</ele>
        <time>2021-06-29T23:08:36.225Z</time>
      </trkpt>
      <trkpt lat="48.36051" lon="-4.12227">
        <ele>156.4755810126</ele>
        <time>2021-06-29T23:08:50.476Z</time>
      </trkpt>
      <trkpt lat="48.36054" lon="-4.12237">
        <ele>157.09486707416</ele>
        <time>2021-06-29T23:09:04.728Z</time>
      </trkpt>
      <trkpt lat="48.36063" lon="-4.1225">
        <ele>157.69176019422</ele>
        <time>2021-06-29T23:09:18.982Z</time>
      </trkpt>
      <trkpt lat="48.36078" lon="-4.12265">
        <ele>158.31483369134</ele>
        <time>2021-06-29T23:09:33.239Z</time>
      </trkpt>
      <trkpt lat="48.36091" lon="-4.12275">
        <ele>158.96760081907</ele>
        <time>2021-06-29T23:09:47.498Z</time>
      </trkpt>
      <trkpt lat="48.36129" lon="-4.12284">
        <ele>159.6426853321</ele>
        <time>2021-06-29T23:10:01.763Z</time>
      </trkpt>
      <trkpt lat="48.36146" lon="-4.12266">
        <ele>160.33010922144</ele>
        <time>2021-06-29T23:10:16.032Z</time>
      </trkpt>
      <trkpt lat="48.36158" lon="-4.12258">
        <ele>161.04315401536</ele>
        <time>2021-06-29T23:10:30.303Z</time>
      </trkpt>
      <trkpt lat="48.36163" lon="-4.12257">
        <ele>161.75908530495</ele>
        <time>2021-06-29T23:10:44.575Z</time>
      </trkpt>
      <trkpt lat="48.36168" lon="-4.12262">
        <ele>162.48790334881</ele>
        <time>2021-06-29T23:10:58.848Z</time>
      </trkpt>
      <trkpt lat="48.36177" lon="-4.12289">
        <ele>163.22106476676</ele>
        <time>2021-06-29T23:11:13.124Z</time>
      </trkpt>
      <trkpt lat="48.36217" lon="-4.1239">
        <ele>164.00240900791</ele>
        <time>2021-06-29T23:11:27.412Z</time>
      </trkpt>
      <trkpt lat="48.36226" lon="-4.1241">
        <ele>164.69730109527</ele>
        <time>2021-06-29T23:11:41.703Z</time>
      </trkpt>
      <trkpt lat="48.36261" lon="-4.12447">
        <ele>165.43323509823</ele>
        <time>2021-06-29T23:11:56.001Z</time>
      </trkpt>
      <trkpt lat="48.3627" lon="-4.12453">
        <ele>166.03213660233</ele>
        <time>2021-06-29T23:12:10.300Z</time>
      </trkpt>
      <trkpt lat="48.36296" lon="-4.12461">
        <ele>166.60749525702</ele>
        <time>2021-06-29T23:12:24.604Z</time>
      </trkpt>
      <trkpt lat="48.36339" lon="-4.12466">
        <ele>167.11908379291</ele>
        <time>2021-06-29T23:12:38.915Z</time>
      </trkpt>
      <trkpt lat="48.36371" lon="-4.12465">
        <ele>167.40987712575</ele>
        <time>2021-06-29T23:12:53.231Z</time>
      </trkpt>
      <trkpt lat="48.36539" lon="-4.12444">
        <ele>167.53333835048</ele>
        <time>2021-06-29T23:13:07.574Z</time>
      </trkpt>
      <trkpt lat="48.36635" lon="-4.1241">
        <ele>167.28797992588</ele>
        <time>2021-06-29T23:13:21.932Z</time>
      </trkpt>
      <trkpt lat="48.36816" lon="-4.12369">
        <ele>166.57080235165</ele>
        <time>2021-06-29T23:13:36.320Z</time>
      </trkpt>
      <trkpt lat="48.36851" lon="-4.12364">
        <ele>166.04338960116</ele>
        <time>2021-06-29T23:13:50.713Z</time>
      </trkpt>
      <trkpt lat="48.36922" lon="-4.12359">
        <ele>165.26178741281</ele>
        <time>2021-06-29T23:14:05.118Z</time>
      </trkpt>
      <trkpt lat="48.36953" lon="-4.1236">
        <ele>164.22418217504</ele>
        <time>2021-06-29T23:14:19.528Z</time>
      </trkpt>
      <trkpt lat="48.36982" lon="-4.12364">
        <ele>162.99717954642</ele>
        <time>2021-06-29T23:14:33.942Z</time>
      </trkpt>
      <trkpt lat="48.37009" lon="-4.12371">
        <ele>161.53860231717</ele>
        <time>2021-06-29T23:14:48.361Z</time>
      </trkpt>
      <trkpt lat="48.37049" lon="-4.12385">
        <ele>159.84697897307</ele>
        <time>2021-06-29T23:15:02.786Z</time>
      </trkpt>
      <trkpt lat="48.3725" lon="-4.12511">
        <ele>158.04639842892</ele>
        <time>2021-06-29T23:15:17.246Z</time>
      </trkpt>
      <trkpt lat="48.37273" lon="-4.12523">
        <ele>156.06757310965</ele>
        <time>2021-06-29T23:15:31.710Z</time>
      </trkpt>
      <trkpt lat="48.37391" lon="-4.12538">
        <ele>153.67163651657</ele>
        <time>2021-06-29T23:15:46.193Z</time>
      </trkpt>
      <trkpt lat="48.37415" lon="-4.12549">
        <ele>151.30766840381</ele>
        <time>2021-06-29T23:16:00.680Z</time>
      </trkpt>
      <trkpt lat="48.37495" lon="-4.12602">
        <ele>148.71555144598</ele>
        <time>2021-06-29T23:16:15.181Z</time>
      </trkpt>
      <trkpt lat="48.3751" lon="-4.12609">
        <ele>146.04988325815</ele>
        <time>2021-06-29T23:16:29.685Z</time>
      </trkpt>
      <trkpt lat="48.37525" lon="-4.12612">
        <ele>143.23133362246</ele>
        <time>2021-06-29T23:16:44.191Z</time>
      </trkpt>
      <trkpt lat="48.37543" lon="-4.12611">
        <ele>140.23742736128</ele>
        <time>2021-06-29T23:16:58.700Z</time>
      </trkpt>
      <trkpt lat="48.37583" lon="-4.12599">
        <ele>137.07901826661</ele>
        <time>2021-06-29T23:17:13.215Z</time>
      </trkpt>
      <trkpt lat="48.37583" lon="-4.126">
        <ele>133.85164314993</ele>
        <time>2021-06-29T23:17:27.731Z</time>
      </trkpt>
      <trkpt lat="48.37627" lon="-4.1259">
        <ele>130.38467080087</ele>
        <time>2021-06-29T23:17:42.254Z</time>
      </trkpt>
      <trkpt lat="48.37693" lon="-4.12604">
        <ele>126.74354160143</ele>
        <time>2021-06-29T23:17:56.787Z</time>
      </trkpt>
      <trkpt lat="48.37734" lon="-4.12618">
        <ele>123.03433563109</ele>
        <time>2021-06-29T23:18:11.327Z</time>
      </trkpt>
      <trkpt lat="48.37749" lon="-4.12627">
        <ele>119.38149196368</ele>
        <time>2021-06-29T23:18:25.870Z</time>
      </trkpt>
      <trkpt lat="48.37781" lon="-4.12653">
        <ele>115.6297437543</ele>
        <time>2021-06-29T23:18:40.418Z</time>
      </trkpt>
      <trkpt lat="48.37857" lon="-4.12726">
        <ele>111.79007910669</ele>
        <time>2021-06-29T23:18:54.981Z</time>
      </trkpt>
      <trkpt lat="48.37922" lon="-4.12777">
        <ele>107.90455205813</ele>
        <time>2021-06-29T23:19:09.556Z</time>
      </trkpt>
      <trkpt lat="48.38024" lon="-4.12843">
        <ele>103.99785995958</ele>
        <time>2021-06-29T23:19:24.148Z</time>
      </trkpt>
      <trkpt lat="48.3804" lon="-4.12852">
        <ele>100.33998932601</ele>
        <time>2021-06-29T23:19:38.743Z</time>
      </trkpt>
      <trkpt lat="48.38066" lon="-4.12862">
        <ele>96.78260681278</ele>
        <time>2021-06-29T23:19:53.343Z</time>
      </trkpt>
      <trkpt lat="48.38099" lon="-4.12868">
        <ele>93.37412506106</ele>
        <time>2021-06-29T23:20:07.948Z</time>
      </trkpt>
      <trkpt lat="48.38154" lon="-4.12866">
        <ele>90.10132935284</ele>
        <time>2021-06-29T23:20:22.562Z</time>
      </trkpt>
      <trkpt lat="48.38211" lon="-4.12866">
        <ele>87.08833241183</ele>
        <time>2021-06-29T23:20:37.185Z</time>
      </trkpt>
      <trkpt lat="48.38231" lon="-4.12869">
        <ele>84.37245730926</ele>
        <time>2021-06-29T23:20:51.811Z</time>
      </trkpt>
      <trkpt lat="48.38258" lon="-4.12877">
        <ele>81.89848017818</ele>
        <time>2021-06-29T23:21:06.441Z</time>
      </trkpt>
      <trkpt lat="48.38323" lon="-4.12906">
        <ele>79.68735492708</ele>
        <time>2021-06-29T23:21:21.082Z</time>
      </trkpt>
      <trkpt lat="48.38344" lon="-4.12912">
        <ele>77.84570328049</ele>
        <time>2021-06-29T23:21:35.727Z</time>
      </trkpt>
      <trkpt lat="48.38374" lon="-4.12914">
        <ele>76.33113048557</ele>
        <time>2021-06-29T23:21:50.376Z</time>
      </trkpt>
      <trkpt lat="48.38572" lon="-4.12905">
        <ele>74.79641954625</ele>
        <time>2021-06-29T23:22:05.057Z</time>
      </trkpt>
      <trkpt lat="48.3859" lon="-4.12905">
        <ele>73.92925230029</ele>
        <time>2021-06-29T23:22:19.741Z</time>
      </trkpt>
      <trkpt lat="48.38632" lon="-4.12914">
        <ele>73.43684502799</ele>
        <time>2021-06-29T23:22:34.432Z</time>
      </trkpt>
      <trkpt lat="48.3865" lon="-4.12912">
        <ele>73.35746951722</ele>
        <time>2021-06-29T23:22:49.126Z</time>
      </trkpt>
      <trkpt lat="48.38695" lon="-4.12896">
        <ele>73.65729914076</ele>
        <time>2021-06-29T23:23:03.827Z</time>
      </trkpt>
      <trkpt lat="48.38723" lon="-4.1289">
        <ele>74.30278089409</ele>
        <time>2021-06-29T23:23:18.533Z</time>
      </trkpt>
      <trkpt lat="48.38818" lon="-4.12902">
        <ele>75.347254785</ele>
        <time>2021-06-29T23:23:33.254Z</time>
      </trkpt>
      <trkpt lat="48.38871" lon="-4.1289">
        <ele>76.74008093475</ele>
        <time>2021-06-29T23:23:47.984Z</time>
      </trkpt>
      <trkpt lat="48.3891" lon="-4.12896">
        <ele>78.33516990199</ele>
        <time>2021-06-29T23:24:02.720Z</time>
      </trkpt>
      <trkpt lat="48.38946" lon="-4.12907">
        <ele>80.18697052677</ele>
        <time>2021-06-29T23:24:17.462Z</time>
      </trkpt>
      <trkpt lat="48.38984" lon="-4.12925">
        <ele>82.35517944796</ele>
        <time>2021-06-29T23:24:32.210Z</time>
      </trkpt>
      <trkpt lat="48.39127" lon="-4.13004">
        <ele>84.88804939155</ele>
        <time>2021-06-29T23:24:46.982Z</time>
      </trkpt>
      <trkpt lat="48.39325" lon="-4.1311">
        <ele>87.81363801596</ele>
        <time>2021-06-29T23:25:01.788Z</time>
      </trkpt>
      <trkpt lat="48.39342" lon="-4.1312">
        <ele>90.282869804</ele>
        <time>2021-06-29T23:25:16.597Z</time>
      </trkpt>
      <trkpt lat="48.39359" lon="-4.13138">
        <ele>92.70064566483</ele>
        <time>2021-06-29T23:25:31.409Z</time>
      </trkpt>
      <trkpt lat="48.39399" lon="-4.13164">
        <ele>95.12464988829</ele>
        <time>2021-06-29T23:25:46.228Z</time>
      </trkpt>
      <trkpt lat="48.39451" lon="-4.13194">
        <ele>97.25721330227</ele>
        <time>2021-06-29T23:26:01.056Z</time>
      </trkpt>
      <trkpt lat="48.39546" lon="-4.13225">
        <ele>99.27329875879</ele>
        <time>2021-06-29T23:26:15.900Z</time>
      </trkpt>
      <trkpt lat="48.39563" lon="-4.13241">
        <ele>101.10283461089</ele>
        <time>2021-06-29T23:26:30.747Z</time>
      </trkpt>
      <trkpt lat="48.39576" lon="-4.13255">
        <ele>102.67063510411</ele>
        <time>2021-06-29T23:26:45.597Z</time>
      </trkpt>
      <trkpt lat="48.39591" lon="-4.13275">
        <ele>103.95033887331</ele>
        <time>2021-06-29T23:27:00.450Z</time>
      </trkpt>
      <trkpt lat="48.39625" lon="-4.13316">
        <ele>104.87949793011</ele>
        <time>2021-06-29T23:27:15.310Z</time>
      </trkpt>
      <trkpt lat="48.39627" lon="-4.13336">
        <ele>105.52467134249</ele>
        <time>2021-06-29T23:27:30.172Z</time>
      </trkpt>
      <trkpt lat="48.39659" lon="-4.13412">
        <ele>105.72604653983</ele>
        <time>2021-06-29T23:27:45.044Z</time>
      </trkpt>
      <trkpt lat="48.39757" lon="-4.13648">
        <ele>105.97444838527</ele>
        <time>2021-06-29T23:27:59.945Z</time>
      </trkpt>
      <trkpt lat="48.39768" lon="-4.13679">
        <ele>105.53707675656</ele>
        <time>2021-06-29T23:28:14.850Z</time>
      </trkpt>
      <trkpt lat="48.39767" lon="-4.13695">
        <ele>104.59625316623</ele>
        <time>2021-06-29T23:28:29.757Z</time>
      </trkpt>
      <trkpt lat="48.39713" lon="-4.13808">
        <ele>103.06483463581</ele>
        <time>2021-06-29T23:28:44.679Z</time>
      </trkpt>
      <trkpt lat="48.39698" lon="-4.13863">
        <ele>101.16278061617</ele>
        <time>2021-06-29T23:28:59.607Z</time>
      </trkpt>
      <trkpt lat="48.39685" lon="-4.13932">
        <ele>98.89147204896</ele>
        <time>2021-06-29T23:29:14.543Z</time>
      </trkpt>
      <trkpt lat="48.39681" lon="-4.13982">
        <ele>96.27538704975</ele>
        <time>2021-06-29T23:29:29.484Z</time>
      </trkpt>
      <trkpt lat="48.3968" lon="-4.14049">
        <ele>93.2133541823</ele>
        <time>2021-06-29T23:29:44.432Z</time>
      </trkpt>
      <trkpt lat="48.39682" lon="-4.14093">
        <ele>89.86260683221</ele>
        <time>2021-06-29T23:29:59.385Z</time>
      </trkpt>
      <trkpt lat="48.39699" lon="-4.14201">
        <ele>86.03001762316</ele>
        <time>2021-06-29T23:30:14.350Z</time>
      </trkpt>
      <trkpt lat="48.39798" lon="-4.14746">
        <ele>81.47812057718</ele>
        <time>2021-06-29T23:30:29.375Z</time>
      </trkpt>
      <trkpt lat="48.39818" lon="-4.1484">
        <ele>77.90083504557</ele>
        <time>2021-06-29T23:30:44.410Z</time>
      </trkpt>
      <trkpt lat="48.39838" lon="-4.14911">
        <ele>74.20244274295</ele>
        <time>2021-06-29T23:30:59.454Z</time>
      </trkpt>
      <trkpt lat="48.39872" lon="-4.15002">
        <ele>70.47786122394</ele>
        <time>2021-06-29T23:31:14.509Z</time>
      </trkpt>
      <trkpt lat="48.39882" lon="-4.15026">
        <ele>66.76052400348</ele>
        <time>2021-06-29T23:31:29.567Z</time>
      </trkpt>
      <trkpt lat="48.39944" lon="-4.1514">
        <ele>63.08228757214</ele>
        <time>2021-06-29T23:31:44.640Z</time>
      </trkpt>
      <trkpt lat="48.40032" lon="-4.15302">
        <ele>59.66063622487</ele>
        <time>2021-06-29T23:31:59.736Z</time>
      </trkpt>
      <trkpt lat="48.40064" lon="-4.15358">
        <ele>56.27405209348</ele>
        <time>2021-06-29T23:32:14.840Z</time>
      </trkpt>
      <trkpt lat="48.40073" lon="-4.15377">
        <ele>53.10335037339</ele>
        <time>2021-06-29T23:32:29.946Z</time>
      </trkpt>
      <trkpt lat="48.40085" lon="-4.15413">
        <ele>50.15785197508</ele>
        <time>2021-06-29T23:32:45.056Z</time>
      </trkpt>
      <trkpt lat="48.4009" lon="-4.15453">
        <ele>47.38397360909</ele>
        <time>2021-06-29T23:33:00.171Z</time>
      </trkpt>
      <trkpt lat="48.40089" lon="-4.15508">
        <ele>44.81496450058</ele>
        <time>2021-06-29T23:33:15.292Z</time>
      </trkpt>
      <trkpt lat="48.40083" lon="-4.15546">
        <ele>42.59825095083</ele>
        <time>2021-06-29T23:33:30.417Z</time>
      </trkpt>
      <trkpt lat="48.40054" lon="-4.1565">
        <ele>40.67816228646</ele>
        <time>2021-06-29T23:33:45.554Z</time>
      </trkpt>
      <trkpt lat="48.40041" lon="-4.15713">
        <ele>39.08366233386</ele>
        <time>2021-06-29T23:34:00.698Z</time>
      </trkpt>
      <trkpt lat="48.4004" lon="-4.15738">
        <ele>37.97116254074</ele>
        <time>2021-06-29T23:34:15.844Z</time>
      </trkpt>
      <trkpt lat="48.40039" lon="-4.15809">
        <ele>37.32450652679</ele>
        <time>2021-06-29T23:34:30.998Z</time>
      </trkpt>
      <trkpt lat="48.40057" lon="-4.16046">
        <ele>37.02604752675</ele>
        <time>2021-06-29T23:34:46.177Z</time>
      </trkpt>
      <trkpt lat="48.40067" lon="-4.16114">
        <ele>37.30908977389</ele>
        <time>2021-06-29T23:35:01.364Z</time>
      </trkpt>
      <trkpt lat="48.40079" lon="-4.16162">
        <ele>38.18778265296</ele>
        <time>2021-06-29T23:35:16.556Z</time>
      </trkpt>
      <trkpt lat="48.40091" lon="-4.16195">
        <ele>39.6050928773</ele>
        <time>2021-06-29T23:35:31.752Z</time>
      </trkpt>
      <trkpt lat="48.40143" lon="-4.1632">
        <ele>41.70296064567</ele>
        <time>2021-06-29T23:35:46.964Z</time>
      </trkpt>
      <trkpt lat="48.40168" lon="-4.16383">
        <ele>44.25501455117</ele>
        <time>2021-06-29T23:36:02.184Z</time>
      </trkpt>
      <trkpt lat="48.40198" lon="-4.16447">
        <ele>47.32606278707</ele>
        <time>2021-06-29T23:36:17.412Z</time>
      </trkpt>
      <trkpt lat="48.40217" lon="-4.16475">
        <ele>50.99936019299</ele>
        <time>2021-06-29T23:36:32.644Z</time>
      </trkpt>
      <trkpt lat="48.40253" lon="-4.16515">
        <ele>55.20651309092</ele>
        <time>2021-06-29T23:36:47.884Z</time>
      </trkpt>
      <trkpt lat="48.4032" lon="-4.16585">
        <ele>60.042109152</ele>
        <time>2021-06-29T23:37:03.137Z</time>
      </trkpt>
      <trkpt lat="48.40362" lon="-4.16624">
        <ele>65.25458074847</ele>
        <time>2021-06-29T23:37:18.398Z</time>
      </trkpt>
      <trkpt lat="48.40393" lon="-4.16644">
        <ele>70.73449119552</ele>
        <time>2021-06-29T23:37:33.664Z</time>
      </trkpt>
      <trkpt lat="48.40422" lon="-4.16658">
        <ele>76.50642972921</ele>
        <time>2021-06-29T23:37:48.935Z</time>
      </trkpt>
      <trkpt lat="48.4067" lon="-4.16767">
        <ele>82.84600348655</ele>
        <time>2021-06-29T23:38:04.247Z</time>
      </trkpt>
      <trkpt lat="48.40708" lon="-4.16794">
        <ele>89.24851273032</ele>
        <time>2021-06-29T23:38:19.566Z</time>
      </trkpt>
      <trkpt lat="48.40914" lon="-4.17001">
        <ele>96.51463336409</ele>
        <time>2021-06-29T23:38:34.925Z</time>
      </trkpt>
      <trkpt lat="48.40938" lon="-4.17035">
        <ele>102.97729124371</ele>
        <time>2021-06-29T23:38:50.289Z</time>
      </trkpt>
      <trkpt lat="48.41153" lon="-4.1738">
        <ele>110.0757268475</ele>
        <time>2021-06-29T23:39:05.703Z</time>
      </trkpt>
      <trkpt lat="48.4117" lon="-4.17403">
        <ele>116.40440350574</ele>
        <time>2021-06-29T23:39:21.121Z</time>
      </trkpt>
      <trkpt lat="48.41193" lon="-4.17431">
        <ele>122.53761217824</ele>
        <time>2021-06-29T23:39:36.544Z</time>
      </trkpt>
      <trkpt lat="48.41271" lon="-4.17509">
        <ele>128.54467100385</ele>
        <time>2021-06-29T23:39:51.982Z</time>
      </trkpt>
      <trkpt lat="48.41327" lon="-4.17344">
        <ele>134.27403474704</ele>
        <time>2021-06-29T23:40:07.440Z</time>
      </trkpt>
      <trkpt lat="48.41352" lon="-4.17279">
        <ele>139.40560921607</ele>
        <time>2021-06-29T23:40:22.906Z</time>
      </trkpt>
      <trkpt lat="48.41373" lon="-4.1724">
        <ele>144.11500576178</ele>
        <time>2021-06-29T23:40:38.377Z</time>
      </trkpt>
      <trkpt lat="48.41395" lon="-4.17206">
        <ele>148.26857691865</ele>
        <time>2021-06-29T23:40:53.853Z</time>
      </trkpt>
      <trkpt lat="48.41395" lon="-4.17207">
        <ele>151.97488131465</ele>
        <time>2021-06-29T23:41:09.329Z</time>
      </trkpt>
      <trkpt lat="48.41421" lon="-4.17168">
        <ele>155.16517306673</ele>
        <time>2021-06-29T23:41:24.811Z</time>
      </trkpt>
      <trkpt lat="48.41437" lon="-4.17147">
        <ele>157.98284927059</ele>
        <time>2021-06-29T23:41:40.296Z</time>
      </trkpt>
      <trkpt lat="48.41452" lon="-4.17133">
        <ele>160.39516224574</ele>
        <time>2021-06-29T23:41:55.784Z</time>
      </trkpt>
      <trkpt lat="48.41469" lon="-4.17122">
        <ele>162.40133761888</ele>
        <time>2021-06-29T23:42:11.275Z</time>
      </trkpt>
      <trkpt lat="48.41481" lon="-4.17118">
        <ele>164.00423512956</ele>
        <time>2021-06-29T23:42:26.768Z</time>
      </trkpt>
      <trkpt lat="48.41518" lon="-4.17116">
        <ele>165.27750593503</ele>
        <time>2021-06-29T23:42:42.267Z</time>
      </trkpt>
      <trkpt lat="48.41574" lon="-4.17139">
        <ele>166.20952492563</ele>
        <time>2021-06-29T23:42:57.775Z</time>
      </trkpt>
      <trkpt lat="48.41606" lon="-4.17168">
        <ele>166.79037395402</ele>
        <time>2021-06-29T23:43:13.289Z</time>
      </trkpt>
      <trkpt lat="48.4163" lon="-4.172">
        <ele>167.06575779942</ele>
        <time>2021-06-29T23:43:28.808Z</time>
      </trkpt>
      <trkpt lat="48.41659" lon="-4.17273">
        <ele>167.14851375418</ele>
        <time>2021-06-29T23:43:44.336Z</time>
      </trkpt>
      <trkpt lat="48.41706" lon="-4.17376">
        <ele>166.91178989573</ele>
        <time>2021-06-29T23:43:59.878Z</time>
      </trkpt>
      <trkpt lat="48.41725" lon="-4.17425">
        <ele>166.38361119966</ele>
        <time>2021-06-29T23:44:15.426Z</time>
      </trkpt>
      <trkpt lat="48.41737" lon="-4.17462">
        <ele>165.71048016347</ele>
        <time>2021-06-29T23:44:30.978Z</time>
      </trkpt>
      <trkpt lat="48.4174" lon="-4.17478">
        <ele>164.89686563671</ele>
        <time>2021-06-29T23:44:46.532Z</time>
      </trkpt>
      <trkpt lat="48.41742" lon="-4.1751">
        <ele>163.94156846425</ele>
        <time>2021-06-29T23:45:02.089Z</time>
      </trkpt>
      <trkpt lat="48.41735" lon="-4.17583">
        <ele>162.80524176719</ele>
        <time>2021-06-29T23:45:17.654Z</time>
      </trkpt>
      <trkpt lat="48.41724" lon="-4.1766">
        <ele>161.70601846058</ele>
        <time>2021-06-29T23:45:33.228Z</time>
      </trkpt>
      <trkpt lat="48.41685" lon="-4.1782">
        <ele>160.54371269122</ele>
        <time>2021-06-29T23:45:48.820Z</time>
      </trkpt>
      <trkpt lat="48.41674" lon="-4.17863">
        <ele>159.40222108178</ele>
        <time>2021-06-29T23:46:04.417Z</time>
      </trkpt>
      <trkpt lat="48.41632" lon="-4.17962">
        <ele>158.28059826829</ele>
        <time>2021-06-29T23:46:20.026Z</time>
      </trkpt>
      <trkpt lat="48.41534" lon="-4.18208">
        <ele>157.09132989938</ele>
        <time>2021-06-29T23:46:35.666Z</time>
      </trkpt>
      <trkpt lat="48.41518" lon="-4.1827">
        <ele>156.10221097396</ele>
        <time>2021-06-29T23:46:51.313Z</time>
      </trkpt>
      <trkpt lat="48.41496" lon="-4.18382">
        <ele>155.24198568922</ele>
        <time>2021-06-29T23:47:06.972Z</time>
      </trkpt>
      <trkpt lat="48.4149" lon="-4.18402">
        <ele>154.46291460789</ele>
        <time>2021-06-29T23:47:22.634Z</time>
      </trkpt>
      <trkpt lat="48.41465" lon="-4.1846">
        <ele>153.77275676411</ele>
        <time>2021-06-29T23:47:38.303Z</time>
      </trkpt>
      <trkpt lat="48.4145" lon="-4.18489">
        <ele>153.22048585551</ele>
        <time>2021-06-29T23:47:53.976Z</time>
      </trkpt>
      <trkpt lat="48.41441" lon="-4.185">
        <ele>152.76238268985</ele>
        <time>2021-06-29T23:48:09.651Z</time>
      </trkpt>
      <trkpt lat="48.4143" lon="-4.18511">
        <ele>152.40155542648</ele>
        <time>2021-06-29T23:48:25.328Z</time>
      </trkpt>
      <trkpt lat="48.41376" lon="-4.1855">
        <ele>152.11778942868</ele>
        <time>2021-06-29T23:48:41.015Z</time>
      </trkpt>
      <trkpt lat="48.41348" lon="-4.18583">
        <ele>151.85605595313</ele>
        <time>2021-06-29T23:48:56.707Z</time>
      </trkpt>
      <trkpt lat="48.41308" lon="-4.18635">
        <ele>151.64902143655</ele>
        <time>2021-06-29T23:49:12.408Z</time>
      </trkpt>
      <trkpt lat="48.41281" lon="-4.1866">
        <ele>151.48245822869</ele>
        <time>2021-06-29T23:49:28.114Z</time>
      </trkpt>
      <trkpt lat="48.41256" lon="-4.18684">
        <ele>151.27524522119</ele>
        <time>2021-06-29T23:49:43.825Z</time>
      </trkpt>
      <trkpt lat="48.41133" lon="-4.18766">
        <ele>150.89940866897</ele>
        <time>2021-06-29T23:49:59.557Z</time>
      </trkpt>
      <trkpt lat="48.41074" lon="-4.18811">
        <ele>150.44463383883</ele>
        <time>2021-06-29T23:50:15.300Z</time>
      </trkpt>
      <trkpt lat="48.41014" lon="-4.1886">
        <ele>150.0218321968</ele>
        <time>2021-06-29T23:50:31.054Z</time>
      </trkpt>
      <trkpt lat="48.41" lon="-4.18868">
        <ele>149.41770602219</ele>
        <time>2021-06-29T23:50:46.810Z</time>
      </trkpt>
      <trkpt lat="48.40902" lon="-4.18897">
        <ele>148.83109478645</ele>
        <time>2021-06-29T23:51:02.582Z</time>
      </trkpt>
      <trkpt lat="48.40859" lon="-4.18937">
        <ele>147.83428652442</ele>
        <time>2021-06-29T23:51:18.362Z</time>
      </trkpt>
      <trkpt lat="48.40821" lon="-4.18979">
        <ele>146.47093976081</ele>
        <time>2021-06-29T23:51:34.150Z</time>
      </trkpt>
      <trkpt lat="48.40807" lon="-4.18991">
        <ele>144.85595876988</ele>
        <time>2021-06-29T23:51:49.940Z</time>
      </trkpt>
      <trkpt lat="48.4075" lon="-4.19026">
        <ele>142.87421475741</ele>
        <time>2021-06-29T23:52:05.740Z</time>
      </trkpt>
      <trkpt lat="48.40705" lon="-4.19042">
        <ele>140.61643023404</ele>
        <time>2021-06-29T23:52:21.548Z</time>
      </trkpt>
      <trkpt lat="48.40681" lon="-4.19048">
        <ele>138.09010986322</ele>
        <time>2021-06-29T23:52:37.359Z</time>
      </trkpt>
      <trkpt lat="48.40655" lon="-4.19051">
        <ele>135.24494754699</ele>
        <time>2021-06-29T23:52:53.175Z</time>
      </trkpt>
      <trkpt lat="48.40576" lon="-4.19023">
        <ele>131.94790399956</ele>
        <time>2021-06-29T23:53:09.004Z</time>
      </trkpt>
      <trkpt lat="48.40349" lon="-4.18927">
        <ele>128.00219915856</ele>
        <time>2021-06-29T23:53:24.870Z</time>
      </trkpt>
      <trkpt lat="48.4033" lon="-4.18922">
        <ele>124.53463245164</ele>
        <time>2021-06-29T23:53:40.739Z</time>
      </trkpt>
      <trkpt lat="48.40269" lon="-4.18913">
        <ele>120.86123383314</ele>
        <time>2021-06-29T23:53:56.618Z</time>
      </trkpt>
      <trkpt lat="48.40207" lon="-4.18909">
        <ele>117.06053720959</ele>
        <time>2021-06-29T23:54:12.507Z</time>
      </trkpt>
      <trkpt lat="48.40162" lon="-4.18912">
        <ele>113.33410591799</ele>
        <time>2021-06-29T23:54:28.403Z</time>
      </trkpt>
      <trkpt lat="48.40106" lon="-4.18926">
        <ele>109.32529871796</ele>
        <time>2021-06-29T23:54:44.308Z</time>
      </trkpt>
      <trkpt lat="48.40094" lon="-4.18931">
        <ele>105.28154978341</ele>
        <time>2021-06-29T23:55:00.215Z</time>
      </trkpt>
      <trkpt lat="48.40068" lon="-4.1895">
        <ele>101.11552112087</ele>
        <time>2021-06-29T23:55:16.127Z</time>
      </trkpt>
      <trkpt lat="48.40022" lon="-4.18991">
        <ele>96.80566444851</ele>
        <time>2021-06-29T23:55:32.048Z</time>
      </trkpt>
      <trkpt lat="48.40008" lon="-4.19011">
        <ele>92.57472538105</ele>
        <time>2021-06-29T23:55:47.972Z</time>
      </trkpt>
      <trkpt lat="48.39991" lon="-4.19046">
        <ele>88.32670734337</ele>
        <time>2021-06-29T23:56:03.900Z</time>
      </trkpt>
      <trkpt lat="48.39925" lon="-4.19223">
        <ele>83.67731899223</ele>
        <time>2021-06-29T23:56:19.850Z</time>
      </trkpt>
      <trkpt lat="48.399" lon="-4.1931">
        <ele>79.48644188571</ele>
        <time>2021-06-29T23:56:35.810Z</time>
      </trkpt>
      <trkpt lat="48.39877" lon="-4.19431">
        <ele>75.24825544118</ele>
        <time>2021-06-29T23:56:51.784Z</time>
      </trkpt>
      <trkpt lat="48.39862" lon="-4.19479">
        <ele>71.18358323119</ele>
        <time>2021-06-29T23:57:07.763Z</time>
      </trkpt>
      <trkpt lat="48.39853" lon="-4.19495">
        <ele>67.22610337896</ele>
        <time>2021-06-29T23:57:23.744Z</time>
      </trkpt>
      <trkpt lat="48.39843" lon="-4.19509">
        <ele>63.369259045</ele>
        <time>2021-06-29T23:57:39.728Z</time>
      </trkpt>
      <trkpt lat="48.39792" lon="-4.19552">
        <ele>59.47084090147</ele>
        <time>2021-06-29T23:57:55.721Z</time>
      </trkpt>
      <trkpt lat="48.39691" lon="-4.19654">
        <ele>55.75804444911</ele>
        <time>2021-06-29T23:58:11.733Z</time>
      </trkpt>
      <trkpt lat="48.39638" lon="-4.19704">
        <ele>52.34967769673</ele>
        <time>2021-06-29T23:58:27.755Z</time>
      </trkpt>
      <trkpt lat="48.39626" lon="-4.19722">
        <ele>49.21280184883</ele>
        <time>2021-06-29T23:58:43.780Z</time>
      </trkpt>
      <trkpt lat="48.39611" lon="-4.1975">
        <ele>46.27553623343</ele>
        <time>2021-06-29T23:58:59.809Z</time>
      </trkpt>
      <trkpt lat="48.396" lon="-4.19782">
        <ele>43.57034634274</ele>
        <time>2021-06-29T23:59:15.842Z</time>
      </trkpt>
      <trkpt lat="48.39565" lon="-4.19915">
        <ele>40.95729755583</ele>
        <time>2021-06-29T23:59:31.890Z</time>
      </trkpt>
      <trkpt lat="48.39504" lon="-4.20165">
        <ele>38.76081281727</ele>
        <time>2021-06-29T23:59:47.967Z</time>
      </trkpt>
      <trkpt lat="48.395" lon="-4.20188">
        <ele>36.87300133843</ele>
        <time>2021-06-30T00:00:04.046Z</time>
      </trkpt>
      <trkpt lat="48.39496" lon="-4.20294">
        <ele>35.28702194724</ele>
        <time>2021-06-30T00:00:20.136Z</time>
      </trkpt>
      <trkpt lat="48.39495" lon="-4.20342">
        <ele>33.92835776562</ele>
        <time>2021-06-30T00:00:36.231Z</time>
      </trkpt>
      <trkpt lat="48.395" lon="-4.20382">
        <ele>32.86899526563</ele>
        <time>2021-06-30T00:00:52.331Z</time>
      </trkpt>
      <trkpt lat="48.39524" lon="-4.20486">
        <ele>32.02831602118</ele>
        <time>2021-06-30T00:01:08.443Z</time>
      </trkpt>
      <trkpt lat="48.39528" lon="-4.20537">
        <ele>31.39235674987</ele>
        <time>2021-06-30T00:01:24.560Z</time>
      </trkpt>
      <trkpt lat="48.39533" lon="-4.20641">
        <ele>30.92904370983</ele>
        <time>2021-06-30T00:01:40.688Z</time>
      </trkpt>
      <trkpt lat="48.39529" lon="-4.20708">
        <ele>31.03588743112</ele>
        <time>2021-06-30T00:01:56.823Z</time>
      </trkpt>
      <trkpt lat="48.39522" lon="-4.20775">
        <ele>31.47168241941</ele>
        <time>2021-06-30T00:02:12.966Z</time>
      </trkpt>
      <trkpt lat="48.395" lon="-4.20917">
        <ele>32.22731733425</ele>
        <time>2021-06-30T00:02:29.124Z</time>
      </trkpt>
      <trkpt lat="48.39475" lon="-4.21149">
        <ele>33.535137292</ele>
        <time>2021-06-30T00:02:45.307Z</time>
      </trkpt>
      <trkpt lat="48.39473" lon="-4.21179">
        <ele>34.9583455612</ele>
        <time>2021-06-30T00:03:01.493Z</time>
      </trkpt>
      <trkpt lat="48.39475" lon="-4.21213">
        <ele>36.6738164327</ele>
        <time>2021-06-30T00:03:17.683Z</time>
      </trkpt>
      <trkpt lat="48.39478" lon="-4.21242">
        <ele>38.67414938892</ele>
        <time>2021-06-30T00:03:33.876Z</time>
      </trkpt>
      <trkpt lat="48.395" lon="-4.21358">
        <ele>41.12940074854</ele>
        <time>2021-06-30T00:03:50.082Z</time>
      </trkpt>
      <trkpt lat="48.39508" lon="-4.21407">
        <ele>43.63625259157</ele>
        <time>2021-06-30T00:04:06.293Z</time>
      </trkpt>
      <trkpt lat="48.39508" lon="-4.2142">
        <ele>46.37821056498</ele>
        <time>2021-06-30T00:04:22.506Z</time>
      </trkpt>
      <trkpt lat="48.39523" lon="-4.21486">
        <ele>49.40136627798</ele>
        <time>2021-06-30T00:04:38.726Z</time>
      </trkpt>
      <trkpt lat="48.39528" lon="-4.21526">
        <ele>52.4549763475</ele>
        <time>2021-06-30T00:04:54.951Z</time>
      </trkpt>
      <trkpt lat="48.3953" lon="-4.21545">
        <ele>55.63936040979</ele>
        <time>2021-06-30T00:05:11.178Z</time>
      </trkpt>
      <trkpt lat="48.39528" lon="-4.21645">
        <ele>58.95708023248</ele>
        <time>2021-06-30T00:05:27.415Z</time>
      </trkpt>
      <trkpt lat="48.39526" lon="-4.21781">
        <ele>62.33253520842</ele>
        <time>2021-06-30T00:05:43.667Z</time>
      </trkpt>
      <trkpt lat="48.39528" lon="-4.21818">
        <ele>65.94297829315</ele>
        <time>2021-06-30T00:05:59.923Z</time>
      </trkpt>
      <trkpt lat="48.39566" lon="-4.22217">
        <ele>70.20598907953</ele>
        <time>2021-06-30T00:06:16.222Z</time>
      </trkpt>
      <trkpt lat="48.39591" lon="-4.22516">
        <ele>74.22274212235</ele>
        <time>2021-06-30T00:06:32.553Z</time>
      </trkpt>
      <trkpt lat="48.39594" lon="-4.22533">
        <ele>77.73708282131</ele>
        <time>2021-06-30T00:06:48.886Z</time>
      </trkpt>
      <trkpt lat="48.39602" lon="-4.22558">
        <ele>81.125450042</ele>
        <time>2021-06-30T00:07:05.222Z</time>
      </trkpt>
      <trkpt lat="48.39623" lon="-4.22592">
        <ele>84.36255009446</ele>
        <time>2021-06-30T00:07:21.563Z</time>
      </trkpt>
      <trkpt lat="48.39873" lon="-4.22916">
        <ele>87.95524731196</ele>
        <time>2021-06-30T00:07:37.957Z</time>
      </trkpt>
      <trkpt lat="48.39882" lon="-4.22922">
        <ele>90.79432416495</ele>
        <time>2021-06-30T00:07:54.352Z</time>
      </trkpt>
      <trkpt lat="48.39892" lon="-4.22924">
        <ele>93.41002693922</ele>
        <time>2021-06-30T00:08:10.749Z</time>
      </trkpt>
      <trkpt lat="48.39904" lon="-4.2292">
        <ele>95.79766016459</ele>
        <time>2021-06-30T00:08:27.148Z</time>
      </trkpt>
      <trkpt lat="48.39943" lon="-4.22901">
        <ele>97.98570692672</ele>
        <time>2021-06-30T00:08:43.553Z</time>
      </trkpt>
      <trkpt lat="48.40059" lon="-4.22833">
        <ele>99.8255494253</ele>
        <time>2021-06-30T00:08:59.978Z</time>
      </trkpt>
      <trkpt lat="48.40095" lon="-4.2279">
        <ele>101.64293711107</ele>
        <time>2021-06-30T00:09:16.411Z</time>
      </trkpt>
      <trkpt lat="48.40112" lon="-4.22774">
        <ele>103.30788218892</ele>
        <time>2021-06-30T00:09:32.847Z</time>
      </trkpt>
      <trkpt lat="48.40119" lon="-4.22773">
        <ele>104.8441044292</ele>
        <time>2021-06-30T00:09:49.284Z</time>
      </trkpt>
      <trkpt lat="48.40127" lon="-4.22773">
        <ele>106.29818167527</ele>
        <time>2021-06-30T00:10:05.722Z</time>
      </trkpt>
      <trkpt lat="48.40199" lon="-4.2279">
        <ele>107.73889797118</ele>
        <time>2021-06-30T00:10:22.172Z</time>
      </trkpt>
      <trkpt lat="48.40335" lon="-4.22826">
        <ele>109.15442637437</ele>
        <time>2021-06-30T00:10:38.644Z</time>
      </trkpt>
      <trkpt lat="48.40367" lon="-4.2284">
        <ele>110.59864918311</ele>
        <time>2021-06-30T00:10:55.121Z</time>
      </trkpt>
      <trkpt lat="48.40421" lon="-4.22875">
        <ele>112.12561753053</ele>
        <time>2021-06-30T00:11:11.608Z</time>
      </trkpt>
      <trkpt lat="48.40466" lon="-4.22919">
        <ele>113.51590805133</ele>
        <time>2021-06-30T00:11:28.103Z</time>
      </trkpt>
      <trkpt lat="48.40484" lon="-4.22942">
        <ele>115.07927524629</ele>
        <time>2021-06-30T00:11:44.602Z</time>
      </trkpt>
      <trkpt lat="48.40519" lon="-4.23">
        <ele>116.87670540866</ele>
        <time>2021-06-30T00:12:01.109Z</time>
      </trkpt>
      <trkpt lat="48.40593" lon="-4.23143">
        <ele>118.70799020347</ele>
        <time>2021-06-30T00:12:17.636Z</time>
      </trkpt>
      <trkpt lat="48.40685" lon="-4.23326">
        <ele>120.72703418143</ele>
        <time>2021-06-30T00:12:34.187Z</time>
      </trkpt>
      <trkpt lat="48.40698" lon="-4.23361">
        <ele>122.76345357537</ele>
        <time>2021-06-30T00:12:50.742Z</time>
      </trkpt>
      <trkpt lat="48.40708" lon="-4.23394">
        <ele>124.93632600024</ele>
        <time>2021-06-30T00:13:07.301Z</time>
      </trkpt>
      <trkpt lat="48.40734" lon="-4.23517">
        <ele>127.28949313463</ele>
        <time>2021-06-30T00:13:23.874Z</time>
      </trkpt>
      <trkpt lat="48.40803" lon="-4.23886">
        <ele>129.75372327415</ele>
        <time>2021-06-30T00:13:40.488Z</time>
      </trkpt>
      <trkpt lat="48.40808" lon="-4.23932">
        <ele>132.11368028346</ele>
        <time>2021-06-30T00:13:57.107Z</time>
      </trkpt>
      <trkpt lat="48.40808" lon="-4.2408">
        <ele>134.7546140789</ele>
        <time>2021-06-30T00:14:13.742Z</time>
      </trkpt>
      <trkpt lat="48.40806" lon="-4.24209">
        <ele>137.16294944194</ele>
        <time>2021-06-30T00:14:30.390Z</time>
      </trkpt>
      <trkpt lat="48.40809" lon="-4.24302">
        <ele>139.58240723818</ele>
        <time>2021-06-30T00:14:47.048Z</time>
      </trkpt>
      <trkpt lat="48.40817" lon="-4.24344">
        <ele>141.81985281797</ele>
        <time>2021-06-30T00:15:03.711Z</time>
      </trkpt>
      <trkpt lat="48.40833" lon="-4.24403">
        <ele>144.01708642224</ele>
        <time>2021-06-30T00:15:20.381Z</time>
      </trkpt>
      <trkpt lat="48.4085" lon="-4.24457">
        <ele>146.15598135281</ele>
        <time>2021-06-30T00:15:37.057Z</time>
      </trkpt>
      <trkpt lat="48.40908" lon="-4.24632">
        <ele>148.25662499012</ele>
        <time>2021-06-30T00:15:53.754Z</time>
      </trkpt>
      <trkpt lat="48.40917" lon="-4.24664">
        <ele>149.86636468338</ele>
        <time>2021-06-30T00:16:10.455Z</time>
      </trkpt>
      <trkpt lat="48.40928" lon="-4.24726">
        <ele>151.18607303747</ele>
        <time>2021-06-30T00:16:27.163Z</time>
      </trkpt>
      <trkpt lat="48.40932" lon="-4.24765">
        <ele>152.37116208344</ele>
        <time>2021-06-30T00:16:43.875Z</time>
      </trkpt>
      <trkpt lat="48.40932" lon="-4.24801">
        <ele>153.30787058661</ele>
        <time>2021-06-30T00:17:00.591Z</time>
      </trkpt>
      <trkpt lat="48.40928" lon="-4.24846">
        <ele>153.98132145306</ele>
        <time>2021-06-30T00:17:17.311Z</time>
      </trkpt>
      <trkpt lat="48.40921" lon="-4.24885">
        <ele>154.40602680761</ele>
        <time>2021-06-30T00:17:34.036Z</time>
      </trkpt>
      <trkpt lat="48.40913" lon="-4.24918">
        <ele>154.61772402889</ele>
        <time>2021-06-30T00:17:50.765Z</time>
      </trkpt>
      <trkpt lat="48.40883" lon="-4.2501">
        <ele>154.60561081034</ele>
        <time>2021-06-30T00:18:07.504Z</time>
      </trkpt>
      <trkpt lat="48.4089" lon="-4.25018">
        <ele>154.42000627322</ele>
        <time>2021-06-30T00:18:24.245Z</time>
      </trkpt>
      <trkpt lat="48.40895" lon="-4.25028">
        <ele>154.04444662494</ele>
        <time>2021-06-30T00:18:40.987Z</time>
      </trkpt>
      <trkpt lat="48.40897" lon="-4.25039">
        <ele>153.47691593523</ele>
        <time>2021-06-30T00:18:57.730Z</time>
      </trkpt>
      <trkpt lat="48.40898" lon="-4.25055">
        <ele>152.70256854724</ele>
        <time>2021-06-30T00:19:14.475Z</time>
      </trkpt>
      <trkpt lat="48.40987" lon="-4.25047">
        <ele>151.73710912812</ele>
        <time>2021-06-30T00:19:31.234Z</time>
      </trkpt>
      <trkpt lat="48.41093" lon="-4.25042">
        <ele>150.59880644786</ele>
        <time>2021-06-30T00:19:48.010Z</time>
      </trkpt>
      <trkpt lat="48.4113" lon="-4.25038">
        <ele>149.37105373186</ele>
        <time>2021-06-30T00:20:04.792Z</time>
      </trkpt>
      <trkpt lat="48.41161" lon="-4.25032">
        <ele>147.97407255714</ele>
        <time>2021-06-30T00:20:21.579Z</time>
      </trkpt>
      <trkpt lat="48.41196" lon="-4.25019">
        <ele>146.44453460413</ele>
        <time>2021-06-30T00:20:38.372Z</time>
      </trkpt>
      <trkpt lat="48.41264" lon="-4.2498">
        <ele>144.84974347375</ele>
        <time>2021-06-30T00:20:55.177Z</time>
      </trkpt>
      <trkpt lat="48.41288" lon="-4.24965">
        <ele>143.24742752885</ele>
        <time>2021-06-30T00:21:11.986Z</time>
      </trkpt>
      <trkpt lat="48.41381" lon="-4.24903">
        <ele>141.48859337341</ele>
        <time>2021-06-30T00:21:28.811Z</time>
      </trkpt>
      <trkpt lat="48.41404" lon="-4.24891">
        <ele>139.7938387097</ele>
        <time>2021-06-30T00:21:45.640Z</time>
      </trkpt>
      <trkpt lat="48.41421" lon="-4.24884">
        <ele>138.08008237525</ele>
        <time>2021-06-30T00:22:02.472Z</time>
      </trkpt>
      <trkpt lat="48.41454" lon="-4.24878">
        <ele>136.30970360828</ele>
        <time>2021-06-30T00:22:19.309Z</time>
      </trkpt>
      <trkpt lat="48.41482" lon="-4.24882">
        <ele>134.51466402565</ele>
        <time>2021-06-30T00:22:36.151Z</time>
      </trkpt>
      <trkpt lat="48.41506" lon="-4.24891">
        <ele>132.71881407339</ele>
        <time>2021-06-30T00:22:52.997Z</time>
      </trkpt>
      <trkpt lat="48.41529" lon="-4.24905">
        <ele>130.95383262262</ele>
        <time>2021-06-30T00:23:09.847Z</time>
      </trkpt>
      <trkpt lat="48.41551" lon="-4.24927">
        <ele>129.17754942072</ele>
        <time>2021-06-30T00:23:26.701Z</time>
      </trkpt>
      <trkpt lat="48.41567" lon="-4.24947">
        <ele>127.42600096539</ele>
        <time>2021-06-30T00:23:43.558Z</time>
      </trkpt>
      <trkpt lat="48.4159" lon="-4.24979">
        <ele>125.69594943371</ele>
        <time>2021-06-30T00:24:00.420Z</time>
      </trkpt>
      <trkpt lat="48.41717" lon="-4.25181">
        <ele>123.80096312024</ele>
        <time>2021-06-30T00:24:17.312Z</time>
      </trkpt>
      <trkpt lat="48.41743" lon="-4.25236">
        <ele>122.01064745098</ele>
        <time>2021-06-30T00:24:34.211Z</time>
      </trkpt>
      <trkpt lat="48.41812" lon="-4.25425">
        <ele>120.11459328525</ele>
        <time>2021-06-30T00:24:51.133Z</time>
      </trkpt>
      <trkpt lat="48.41828" lon="-4.25465">
        <ele>118.28693696371</ele>
        <time>2021-06-30T00:25:08.060Z</time>
      </trkpt>
      <trkpt lat="48.41838" lon="-4.25485">
        <ele>116.52490237707</ele>
        <time>2021-06-30T00:25:24.990Z</time>
      </trkpt>
      <trkpt lat="48.4187" lon="-4.25538">
        <ele>114.74337270885</ele>
        <time>2021-06-30T00:25:41.927Z</time>
      </trkpt>
      <trkpt lat="48.41929" lon="-4.25622">
        <ele>112.82740499025</ele>
        <time>2021-06-30T00:25:58.877Z</time>
      </trkpt>
      <trkpt lat="48.41963" lon="-4.25665">
        <ele>111.13830644599</ele>
        <time>2021-06-30T00:26:15.834Z</time>
      </trkpt>
      <trkpt lat="48.42015" lon="-4.2572">
        <ele>109.36961674652</ele>
        <time>2021-06-30T00:26:32.802Z</time>
      </trkpt>
      <trkpt lat="48.42109" lon="-4.25802">
        <ele>107.61856912627</ele>
        <time>2021-06-30T00:26:49.787Z</time>
      </trkpt>
      <trkpt lat="48.4213" lon="-4.25826">
        <ele>105.94038913037</ele>
        <time>2021-06-30T00:27:06.776Z</time>
      </trkpt>
      <trkpt lat="48.42157" lon="-4.25866">
        <ele>104.40971506448</ele>
        <time>2021-06-30T00:27:23.771Z</time>
      </trkpt>
      <trkpt lat="48.42339" lon="-4.26152">
        <ele>102.71284184132</ele>
        <time>2021-06-30T00:27:40.809Z</time>
      </trkpt>
      <trkpt lat="48.42371" lon="-4.26197">
        <ele>101.09546322677</ele>
        <time>2021-06-30T00:27:57.854Z</time>
      </trkpt>
      <trkpt lat="48.42385" lon="-4.26215">
        <ele>99.54163338556</ele>
        <time>2021-06-30T00:28:14.901Z</time>
      </trkpt>
      <trkpt lat="48.42402" lon="-4.26231">
        <ele>98.00590439539</ele>
        <time>2021-06-30T00:28:31.952Z</time>
      </trkpt>
      <trkpt lat="48.4243" lon="-4.26247">
        <ele>96.47858916448</ele>
        <time>2021-06-30T00:28:49.007Z</time>
      </trkpt>
      <trkpt lat="48.42458" lon="-4.26254">
        <ele>94.95164958787</ele>
        <time>2021-06-30T00:29:06.067Z</time>
      </trkpt>
      <trkpt lat="48.42477" lon="-4.26254">
        <ele>93.41920566044</ele>
        <time>2021-06-30T00:29:23.130Z</time>
      </trkpt>
      <trkpt lat="48.4251" lon="-4.26244">
        <ele>91.88340424002</ele>
        <time>2021-06-30T00:29:40.198Z</time>
      </trkpt>
      <trkpt lat="48.42532" lon="-4.26231">
        <ele>90.31457475234</ele>
        <time>2021-06-30T00:29:57.270Z</time>
      </trkpt>
      <trkpt lat="48.42568" lon="-4.26206">
        <ele>88.65794513415</ele>
        <time>2021-06-30T00:30:14.349Z</time>
      </trkpt>
      <trkpt lat="48.42691" lon="-4.2611">
        <ele>86.81701399061</ele>
        <time>2021-06-30T00:30:31.450Z</time>
      </trkpt>
      <trkpt lat="48.42876" lon="-4.25972">
        <ele>84.75106109546</ele>
        <time>2021-06-30T00:30:48.584Z</time>
      </trkpt>
      <trkpt lat="48.42894" lon="-4.25961">
        <ele>82.84861592513</ele>
        <time>2021-06-30T00:31:05.721Z</time>
      </trkpt>
      <trkpt lat="48.42912" lon="-4.2595">
        <ele>80.89167243495</ele>
        <time>2021-06-30T00:31:22.861Z</time>
      </trkpt>
      <trkpt lat="48.42955" lon="-4.25932">
        <ele>78.85150982348</ele>
        <time>2021-06-30T00:31:40.008Z</time>
      </trkpt>
      <trkpt lat="48.42988" lon="-4.25929">
        <ele>76.75993264039</ele>
        <time>2021-06-30T00:31:57.161Z</time>
      </trkpt>
      <trkpt lat="48.43025" lon="-4.25936">
        <ele>74.61149240034</ele>
        <time>2021-06-30T00:32:14.320Z</time>
      </trkpt>
      <trkpt lat="48.43052" lon="-4.25947">
        <ele>72.46261133678</ele>
        <time>2021-06-30T00:32:31.483Z</time>
      </trkpt>
      <trkpt lat="48.43073" lon="-4.2596">
        <ele>70.21781110694</ele>
        <time>2021-06-30T00:32:48.650Z</time>
      </trkpt>
      <trkpt lat="48.43159" lon="-4.26029">
        <ele>67.90128275818</ele>
        <time>2021-06-30T00:33:05.832Z</time>
      </trkpt>
      <trkpt lat="48.43397" lon="-4.26214">
        <ele>65.06643834584</ele>
        <time>2021-06-30T00:33:23.057Z</time>
      </trkpt>
      <trkpt lat="48.43432" lon="-4.26232">
        <ele>62.66626227515</ele>
        <time>2021-06-30T00:33:40.288Z</time>
      </trkpt>
      <trkpt lat="48.43524" lon="-4.26266">
        <ele>60.41482772226</ele>
        <time>2021-06-30T00:33:57.534Z</time>
      </trkpt>
      <trkpt lat="48.43552" lon="-4.26282">
        <ele>58.03307016247</ele>
        <time>2021-06-30T00:34:14.785Z</time>
      </trkpt>
      <trkpt lat="48.43575" lon="-4.26298">
        <ele>55.62639971959</ele>
        <time>2021-06-30T00:34:32.040Z</time>
      </trkpt>
      <trkpt lat="48.43591" lon="-4.26315">
        <ele>53.26521456498</ele>
        <time>2021-06-30T00:34:49.298Z</time>
      </trkpt>
      <trkpt lat="48.43623" lon="-4.26354">
        <ele>50.89139358393</ele>
        <time>2021-06-30T00:35:06.563Z</time>
      </trkpt>
      <trkpt lat="48.43658" lon="-4.26417">
        <ele>48.38861887456</ele>
        <time>2021-06-30T00:35:23.837Z</time>
      </trkpt>
      <trkpt lat="48.43699" lon="-4.26499">
        <ele>45.85813400656</ele>
        <time>2021-06-30T00:35:41.121Z</time>
      </trkpt>
      <trkpt lat="48.43725" lon="-4.26536">
        <ele>43.35553067798</ele>
        <time>2021-06-30T00:35:58.411Z</time>
      </trkpt>
      <trkpt lat="48.43744" lon="-4.26555">
        <ele>40.84211014387</ele>
        <time>2021-06-30T00:36:15.705Z</time>
      </trkpt>
      <trkpt lat="48.43762" lon="-4.26568">
        <ele>38.33938974396</ele>
        <time>2021-06-30T00:36:33.002Z</time>
      </trkpt>
      <trkpt lat="48.43794" lon="-4.26581">
        <ele>35.7660734114</ele>
        <time>2021-06-30T00:36:50.304Z</time>
      </trkpt>
      <trkpt lat="48.43814" lon="-4.26584">
        <ele>33.17657447801</ele>
        <time>2021-06-30T00:37:07.610Z</time>
      </trkpt>
      <trkpt lat="48.43886" lon="-4.26582">
        <ele>30.57530324938</ele>
        <time>2021-06-30T00:37:24.927Z</time>
      </trkpt>
      <trkpt lat="48.43947" lon="-4.26585">
        <ele>27.6889870953</ele>
        <time>2021-06-30T00:37:42.254Z</time>
      </trkpt>
      <trkpt lat="48.43998" lon="-4.2659">
        <ele>24.78716652975</ele>
        <time>2021-06-30T00:37:59.589Z</time>
      </trkpt>
      <trkpt lat="48.44001" lon="-4.26589">
        <ele>21.93271461902</ele>
        <time>2021-06-30T00:38:16.925Z</time>
      </trkpt>
      <trkpt lat="48.44026" lon="-4.26567">
        <ele>19.03971599441</ele>
        <time>2021-06-30T00:38:34.265Z</time>
      </trkpt>
      <trkpt lat="48.44067" lon="-4.26543">
        <ele>16.02342387658</ele>
        <time>2021-06-30T00:38:51.612Z</time>
      </trkpt>
      <trkpt lat="48.44105" lon="-4.26507">
        <ele>13.02596893818</ele>
        <time>2021-06-30T00:39:08.966Z</time>
      </trkpt>
      <trkpt lat="48.44152" lon="-4.26449">
        <ele>10.00203988851</ele>
        <time>2021-06-30T00:39:26.330Z</time>
      </trkpt>
      <trkpt lat="48.44191" lon="-4.26388">
        <ele>6.99513827942</ele>
        <time>2021-06-30T00:39:43.703Z</time>
      </trkpt>
      <trkpt lat="48.44206" lon="-4.2636">
        <ele>4.18076301445</ele>
        <time>2021-06-30T00:40:01.080Z</time>
      </trkpt>
      <trkpt lat="48.44373" lon="-4.26007">
        <ele>1.31991543533</ele>
        <time>2021-06-30T00:40:18.503Z</time>
      </trkpt>
      <trkpt lat="48.44391" lon="-4.25971">
        <ele>-1.22881393595</ele>
        <time>2021-06-30T00:40:35.931Z</time>
      </trkpt>
      <trkpt lat="48.44404" lon="-4.2595">
        <ele>-3.43150177051</ele>
        <time>2021-06-30T00:40:53.362Z</time>
      </trkpt>
      <trkpt lat="48.44469" lon="-4.2586">
        <ele>-5.38849864191</ele>
        <time>2021-06-30T00:41:10.807Z</time>
      </trkpt>
      <trkpt lat="48.44679" lon="-4.25602">
        <ele>-7.09177339814</ele>
        <time>2021-06-30T00:41:28.296Z</time>
      </trkpt>
      <trkpt lat="48.44751" lon="-4.25513">
        <ele>-8.20216339227</ele>
        <time>2021-06-30T00:41:45.800Z</time>
      </trkpt>
      <trkpt lat="48.44763" lon="-4.25495">
        <ele>-8.7521001899</ele>
        <time>2021-06-30T00:42:03.306Z</time>
      </trkpt>
      <trkpt lat="48.44782" lon="-4.25475">
        <ele>-8.78117325109</ele>
        <time>2021-06-30T00:42:20.816Z</time>
      </trkpt>
      <trkpt lat="48.44786" lon="-4.25459">
        <ele>-8.14144677264</ele>
        <time>2021-06-30T00:42:38.328Z</time>
      </trkpt>
      <trkpt lat="48.44805" lon="-4.25418">
        <ele>-6.82122347161</ele>
        <time>2021-06-30T00:42:55.845Z</time>
      </trkpt>
      <trkpt lat="48.44819" lon="-4.25369">
        <ele>-4.72108540815</ele>
        <time>2021-06-30T00:43:13.368Z</time>
      </trkpt>
      <trkpt lat="48.44829" lon="-4.25321">
        <ele>-1.87154577971</ele>
        <time>2021-06-30T00:43:30.896Z</time>
      </trkpt>
      <trkpt lat="48.44761" lon="-4.2528">
        <ele>1.97218923727</ele>
        <time>2021-06-30T00:43:48.436Z</time>
      </trkpt>
      <trkpt lat="48.44728" lon="-4.25206">
        <ele>6.61476116769</ele>
        <time>2021-06-30T00:44:05.985Z</time>
      </trkpt>
      <trkpt lat="48.44697" lon="-4.25172">
        <ele>11.82598329941</ele>
        <time>2021-06-30T00:44:23.541Z</time>
      </trkpt>
      <trkpt lat="48.44657" lon="-4.25125">
        <ele>17.76436408199</ele>
        <time>2021-06-30T00:44:41.105Z</time>
      </trkpt>
      <trkpt lat="48.44614" lon="-4.25118">
        <ele>24.40629951262</ele>
        <time>2021-06-30T00:44:58.676Z</time>
      </trkpt>
      <trkpt lat="48.44554" lon="-4.25102">
        <ele>31.94689571377</ele>
        <time>2021-06-30T00:45:16.256Z</time>
      </trkpt>
      <trkpt lat="48.44469" lon="-4.25077">
        <ele>40.31877443462</ele>
        <time>2021-06-30T00:45:33.850Z</time>
      </trkpt>
      <trkpt lat="48.44428" lon="-4.25071">
        <ele>48.83052746749</ele>
        <time>2021-06-30T00:45:51.451Z</time>
      </trkpt>
      <trkpt lat="48.44364" lon="-4.25066">
        <ele>57.95354163198</ele>
        <time>2021-06-30T00:46:09.062Z</time>
      </trkpt>
      <trkpt lat="48.44153" lon="-4.25037">
        <ele>67.95925779865</ele>
        <time>2021-06-30T00:46:26.707Z</time>
      </trkpt>
      <trkpt lat="48.44041" lon="-4.25026">
        <ele>77.84720942971</ele>
        <time>2021-06-30T00:46:44.370Z</time>
      </trkpt>
      <trkpt lat="48.43934" lon="-4.25024">
        <ele>87.7140320304</ele>
        <time>2021-06-30T00:47:02.050Z</time>
      </trkpt>
      <trkpt lat="48.43913" lon="-4.2502">
        <ele>97.52273395975</ele>
        <time>2021-06-30T00:47:19.734Z</time>
      </trkpt>
      <trkpt lat="48.43861" lon="-4.25004">
        <ele>107.3096251883</ele>
        <time>2021-06-30T00:47:37.426Z</time>
      </trkpt>
      <trkpt lat="48.43818" lon="-4.24985">
        <ele>116.87917661885</ele>
        <time>2021-06-30T00:47:55.125Z</time>
      </trkpt>
      <trkpt lat="48.43663" lon="-4.24884">
        <ele>126.74052192208</ele>
        <time>2021-06-30T00:48:12.851Z</time>
      </trkpt>
      <trkpt lat="48.43395" lon="-4.2471">
        <ele>136.01527347021</ele>
        <time>2021-06-30T00:48:30.624Z</time>
      </trkpt>
      <trkpt lat="48.43375" lon="-4.24691">
        <ele>144.49957152106</ele>
        <time>2021-06-30T00:48:48.401Z</time>
      </trkpt>
      <trkpt lat="48.42707" lon="-4.2391">
        <ele>153.89868855934</ele>
        <time>2021-06-30T00:49:06.313Z</time>
      </trkpt>
      <trkpt lat="48.42612" lon="-4.23784">
        <ele>161.17996523077</ele>
        <time>2021-06-30T00:49:24.246Z</time>
      </trkpt>
      <trkpt lat="48.42453" lon="-4.23566">
        <ele>167.96269904172</ele>
        <time>2021-06-30T00:49:42.213Z</time>
      </trkpt>
      <trkpt lat="48.42453" lon="-4.23566">
        <ele>173.83819828094</ele>
        <time>2021-06-30T00:50:00.180Z</time>
      </trkpt>
      <trkpt lat="48.42452" lon="-4.23565">
        <ele>178.95146164469</ele>
        <time>2021-06-30T00:50:18.147Z</time>
      </trkpt>
      <trkpt lat="48.42452" lon="-4.23564">
        <ele>183.29088259606</ele>
        <time>2021-06-30T00:50:36.114Z</time>
      </trkpt>
      <trkpt lat="48.42372" lon="-4.23455">
        <ele>186.89878147779</ele>
        <time>2021-06-30T00:50:54.099Z</time>
      </trkpt>
      <trkpt lat="48.42352" lon="-4.23433">
        <ele>189.76551498054</ele>
        <time>2021-06-30T00:51:12.088Z</time>
      </trkpt>
      <trkpt lat="48.42329" lon="-4.23412">
        <ele>191.92880339334</ele>
        <time>2021-06-30T00:51:30.081Z</time>
      </trkpt>
      <trkpt lat="48.4221" lon="-4.23324">
        <ele>193.45038768609</ele>
        <time>2021-06-30T00:51:48.095Z</time>
      </trkpt>
      <trkpt lat="48.42167" lon="-4.23466">
        <ele>194.29023489704</ele>
        <time>2021-06-30T00:52:06.126Z</time>
      </trkpt>
      <trkpt lat="48.42041" lon="-4.23926">
        <ele>194.46346431409</ele>
        <time>2021-06-30T00:52:24.210Z</time>
      </trkpt>
      <trkpt lat="48.42035" lon="-4.2395">
        <ele>194.23133665915</ele>
        <time>2021-06-30T00:52:42.297Z</time>
      </trkpt>
      <trkpt lat="48.4203" lon="-4.23998">
        <ele>193.58188212442</ele>
        <time>2021-06-30T00:53:00.389Z</time>
      </trkpt>
      <trkpt lat="48.4202" lon="-4.24115">
        <ele>192.59352780174</ele>
        <time>2021-06-30T00:53:18.493Z</time>
      </trkpt>
      <trkpt lat="48.42021" lon="-4.24143">
        <ele>191.20857046173</ele>
        <time>2021-06-30T00:53:36.600Z</time>
      </trkpt>
      <trkpt lat="48.41999" lon="-4.2417">
        <ele>189.5567651588</ele>
        <time>2021-06-30T00:53:54.712Z</time>
      </trkpt>
      <trkpt lat="48.41985" lon="-4.24182">
        <ele>187.74965279067</ele>
        <time>2021-06-30T00:54:12.826Z</time>
      </trkpt>
      <trkpt lat="48.41985" lon="-4.24182">
        <ele>185.81785575076</ele>
        <time>2021-06-30T00:54:30.940Z</time>
      </trkpt>
      <trkpt lat="48.41969" lon="-4.24195">
        <ele>183.79867893778</ele>
        <time>2021-06-30T00:54:49.057Z</time>
      </trkpt>
      <trkpt lat="48.41957" lon="-4.242">
        <ele>181.73107169359</ele>
        <time>2021-06-30T00:55:07.176Z</time>
      </trkpt>
      <trkpt lat="48.41938" lon="-4.24201">
        <ele>179.66419648092</ele>
        <time>2021-06-30T00:55:25.298Z</time>
      </trkpt>
      <trkpt lat="48.41743" lon="-4.24175">
        <ele>177.42696445217</ele>
        <time>2021-06-30T00:55:43.452Z</time>
      </trkpt>
      <trkpt lat="48.41704" lon="-4.24174">
        <ele>175.43414077885</ele>
        <time>2021-06-30T00:56:01.612Z</time>
      </trkpt>
      <trkpt lat="48.41629" lon="-4.24183">
        <ele>173.48436571913</ele>
        <time>2021-06-30T00:56:19.784Z</time>
      </trkpt>
      <trkpt lat="48.41585" lon="-4.2419">
        <ele>171.75122938566</ele>
        <time>2021-06-30T00:56:37.963Z</time>
      </trkpt>
      <trkpt lat="48.41506" lon="-4.24216">
        <ele>170.25867190721</ele>
        <time>2021-06-30T00:56:56.155Z</time>
      </trkpt>
      <trkpt lat="48.41465" lon="-4.24236">
        <ele>168.96029949775</ele>
        <time>2021-06-30T00:57:14.354Z</time>
      </trkpt>
      <trkpt lat="48.41392" lon="-4.24277">
        <ele>167.97519387011</ele>
        <time>2021-06-30T00:57:32.565Z</time>
      </trkpt>
      <trkpt lat="48.41352" lon="-4.24294">
        <ele>167.06159254299</ele>
        <time>2021-06-30T00:57:50.783Z</time>
      </trkpt>
      <trkpt lat="48.41328" lon="-4.24302">
        <ele>166.30840211172</ele>
        <time>2021-06-30T00:58:09.005Z</time>
      </trkpt>
      <trkpt lat="48.41265" lon="-4.24308">
        <ele>165.62986077226</ele>
        <time>2021-06-30T00:58:27.237Z</time>
      </trkpt>
      <trkpt lat="48.41241" lon="-4.24314">
        <ele>165.03189897222</ele>
        <time>2021-06-30T00:58:45.473Z</time>
      </trkpt>
      <trkpt lat="48.41226" lon="-4.24319">
        <ele>164.52629444252</ele>
        <time>2021-06-30T00:59:03.711Z</time>
      </trkpt>
      <trkpt lat="48.41206" lon="-4.24329">
        <ele>164.04861250382</ele>
        <time>2021-06-30T00:59:21.953Z</time>
      </trkpt>
      <trkpt lat="48.41193" lon="-4.24338">
        <ele>163.60344120568</ele>
        <time>2021-06-30T00:59:40.197Z</time>
      </trkpt>
      <trkpt lat="48.41183" lon="-4.24346">
        <ele>163.20942196437</ele>
        <time>2021-06-30T00:59:58.443Z</time>
      </trkpt>
      <trkpt lat="48.41164" lon="-4.24367">
        <ele>162.81828455063</ele>
        <time>2021-06-30T01:00:16.693Z</time>
      </trkpt>
      <trkpt lat="48.41119" lon="-4.24431">
        <ele>162.36092057641</ele>
        <time>2021-06-30T01:00:34.953Z</time>
      </trkpt>
      <trkpt lat="48.41119" lon="-4.24431">
        <ele>161.94226911713</ele>
        <time>2021-06-30T01:00:53.213Z</time>
      </trkpt>
      <trkpt lat="48.41105" lon="-4.2445">
        <ele>161.44202352226</ele>
        <time>2021-06-30T01:01:11.476Z</time>
      </trkpt>
      <trkpt lat="48.41105" lon="-4.2445">
        <ele>160.95634370348</ele>
        <time>2021-06-30T01:01:29.739Z</time>
      </trkpt>
      <trkpt lat="48.41062" lon="-4.24511">
        <ele>160.35483975175</ele>
        <time>2021-06-30T01:01:48.011Z</time>
      </trkpt>
      <trkpt lat="48.41054" lon="-4.24523">
        <ele>159.77383437476</ele>
        <time>2021-06-30T01:02:06.285Z</time>
      </trkpt>
      <trkpt lat="48.41054" lon="-4.24523">
        <ele>159.16269197591</ele>
        <time>2021-06-30T01:02:24.559Z</time>
      </trkpt>
      <trkpt lat="48.41027" lon="-4.24562">
        <ele>158.47799659552</ele>
        <time>2021-06-30T01:02:42.839Z</time>
      </trkpt>
      <trkpt lat="48.41" lon="-4.24609">
        <ele>157.74836162496</ele>
        <time>2021-06-30T01:03:01.126Z</time>
      </trkpt>
      <trkpt lat="48.40979" lon="-4.24655">
        <ele>156.95076299312</ele>
        <time>2021-06-30T01:03:19.419Z</time>
      </trkpt>
      <trkpt lat="48.40961" lon="-4.24707">
        <ele>156.11818896608</ele>
        <time>2021-06-30T01:03:37.718Z</time>
      </trkpt>
      <trkpt lat="48.40953" lon="-4.24751">
        <ele>155.34651910199</ele>
        <time>2021-06-30T01:03:56.022Z</time>
      </trkpt>
      <trkpt lat="48.40945" lon="-4.24761">
        <ele>154.59011215125</ele>
        <time>2021-06-30T01:04:14.327Z</time>
      </trkpt>
      <trkpt lat="48.40932" lon="-4.24764">
        <ele>153.81877063734</ele>
        <time>2021-06-30T01:04:32.634Z</time>
      </trkpt>
      <trkpt lat="48.40932" lon="-4.24764">
        <ele>153.11174397725</ele>
        <time>2021-06-30T01:04:50.941Z</time>
      </trkpt>
      <trkpt lat="48.40932" lon="-4.24801">
        <ele>152.4272922113</ele>
        <time>2021-06-30T01:05:09.252Z</time>
      </trkpt>
      <trkpt lat="48.40929" lon="-4.24845">
        <ele>151.75004612432</ele>
        <time>2021-06-30T01:05:27.568Z</time>
      </trkpt>
      <trkpt lat="48.40922" lon="-4.24884">
        <ele>151.08543325241</ele>
        <time>2021-06-30T01:05:45.888Z</time>
      </trkpt>
      <trkpt lat="48.40913" lon="-4.24918">
        <ele>150.47617949889</ele>
        <time>2021-06-30T01:06:04.212Z</time>
      </trkpt>
      <trkpt lat="48.40884" lon="-4.25009">
        <ele>149.90718709788</ele>
        <time>2021-06-30T01:06:22.547Z</time>
      </trkpt>
      <trkpt lat="48.40891" lon="-4.25017">
        <ele>149.41890372306</ele>
        <time>2021-06-30T01:06:40.883Z</time>
      </trkpt>
      <trkpt lat="48.40895" lon="-4.25027">
        <ele>148.98010237495</ele>
        <time>2021-06-30T01:06:59.221Z</time>
      </trkpt>
      <trkpt lat="48.40898" lon="-4.25039">
        <ele>148.58006273884</ele>
        <time>2021-06-30T01:07:17.560Z</time>
      </trkpt>
      <trkpt lat="48.40899" lon="-4.25055">
        <ele>148.18602411545</ele>
        <time>2021-06-30T01:07:35.901Z</time>
      </trkpt>
      <trkpt lat="48.40896" lon="-4.2507">
        <ele>147.83957295155</ele>
        <time>2021-06-30T01:07:54.243Z</time>
      </trkpt>
      <trkpt lat="48.40887" lon="-4.25086">
        <ele>147.51237041463</ele>
        <time>2021-06-30T01:08:12.588Z</time>
      </trkpt>
      <trkpt lat="48.40876" lon="-4.25095">
        <ele>147.19677674837</ele>
        <time>2021-06-30T01:08:30.935Z</time>
      </trkpt>
      <trkpt lat="48.40863" lon="-4.25096">
        <ele>146.90493424501</ele>
        <time>2021-06-30T01:08:49.284Z</time>
      </trkpt>
      <trkpt lat="48.40825" lon="-4.25169">
        <ele>146.58635616765</ele>
        <time>2021-06-30T01:09:07.643Z</time>
      </trkpt>
      <trkpt lat="48.4078" lon="-4.25272">
        <ele>146.38569905588</ele>
        <time>2021-06-30T01:09:26.015Z</time>
      </trkpt>
      <trkpt lat="48.4078" lon="-4.25272">
        <ele>146.11696063419</ele>
        <time>2021-06-30T01:09:44.387Z</time>
      </trkpt>
      <trkpt lat="48.40715" lon="-4.25435">
        <ele>145.83471785407</ele>
        <time>2021-06-30T01:10:02.779Z</time>
      </trkpt>
      <trkpt lat="48.40686" lon="-4.25502">
        <ele>145.52857888176</ele>
        <time>2021-06-30T01:10:21.180Z</time>
      </trkpt>
      <trkpt lat="48.40662" lon="-4.25552">
        <ele>145.26958029282</ele>
        <time>2021-06-30T01:10:39.587Z</time>
      </trkpt>
      <trkpt lat="48.40645" lon="-4.25582">
        <ele>145.01390368712</ele>
        <time>2021-06-30T01:10:57.998Z</time>
      </trkpt>
      <trkpt lat="48.40573" lon="-4.25691">
        <ele>144.72880616626</ele>
        <time>2021-06-30T01:11:16.426Z</time>
      </trkpt>
      <trkpt lat="48.40573" lon="-4.25691">
        <ele>144.48007791122</ele>
        <time>2021-06-30T01:11:34.854Z</time>
      </trkpt>
      <trkpt lat="48.40276" lon="-4.26144">
        <ele>144.09707306982</ele>
        <time>2021-06-30T01:11:53.349Z</time>
      </trkpt>
      <trkpt lat="48.40273" lon="-4.26148">
        <ele>143.89005368751</ele>
        <time>2021-06-30T01:12:11.845Z</time>
      </trkpt>
      <trkpt lat="48.40249" lon="-4.26179">
        <ele>143.68835940683</ele>
        <time>2021-06-30T01:12:30.346Z</time>
      </trkpt>
      <trkpt lat="48.4023" lon="-4.26211">
        <ele>143.60702119857</ele>
        <time>2021-06-30T01:12:48.852Z</time>
      </trkpt>
      <trkpt lat="48.40201" lon="-4.26255">
        <ele>143.56023133211</ele>
        <time>2021-06-30T01:13:07.364Z</time>
      </trkpt>
      <trkpt lat="48.40187" lon="-4.26274">
        <ele>143.51030395727</ele>
        <time>2021-06-30T01:13:25.879Z</time>
      </trkpt>
      <trkpt lat="48.40175" lon="-4.26287">
        <ele>143.48124260787</ele>
        <time>2021-06-30T01:13:44.397Z</time>
      </trkpt>
      <trkpt lat="48.40153" lon="-4.26308">
        <ele>143.47961314772</ele>
        <time>2021-06-30T01:14:02.919Z</time>
      </trkpt>
      <trkpt lat="48.40132" lon="-4.26323">
        <ele>143.54482660571</ele>
        <time>2021-06-30T01:14:21.445Z</time>
      </trkpt>
      <trkpt lat="48.40102" lon="-4.26344">
        <ele>143.72845439416</ele>
        <time>2021-06-30T01:14:39.976Z</time>
      </trkpt>
      <trkpt lat="48.40017" lon="-4.26395">
        <ele>144.10038818528</ele>
        <time>2021-06-30T01:14:58.521Z</time>
      </trkpt>
      <trkpt lat="48.40017" lon="-4.26395">
        <ele>144.38364437957</ele>
        <time>2021-06-30T01:15:17.066Z</time>
      </trkpt>
      <trkpt lat="48.40001" lon="-4.26405">
        <ele>144.74797243265</ele>
        <time>2021-06-30T01:15:35.614Z</time>
      </trkpt>
      <trkpt lat="48.39976" lon="-4.26423">
        <ele>145.14347449619</ele>
        <time>2021-06-30T01:15:54.167Z</time>
      </trkpt>
      <trkpt lat="48.39958" lon="-4.26436">
        <ele>145.48977414604</ele>
        <time>2021-06-30T01:16:12.723Z</time>
      </trkpt>
      <trkpt lat="48.39951" lon="-4.26434">
        <ele>145.81362083499</ele>
        <time>2021-06-30T01:16:31.280Z</time>
      </trkpt>
      <trkpt lat="48.39946" lon="-4.26442">
        <ele>146.17433262075</ele>
        <time>2021-06-30T01:16:49.838Z</time>
      </trkpt>
      <trkpt lat="48.3994" lon="-4.26443">
        <ele>146.48131112513</ele>
        <time>2021-06-30T01:17:08.397Z</time>
      </trkpt>
      <trkpt lat="48.39936" lon="-4.26457">
        <ele>146.81176999448</ele>
        <time>2021-06-30T01:17:26.958Z</time>
      </trkpt>
      <trkpt lat="48.39895" lon="-4.26547">
        <ele>147.10022487208</ele>
        <time>2021-06-30T01:17:45.531Z</time>
      </trkpt>
      <trkpt lat="48.39881" lon="-4.26581">
        <ele>147.34943527531</ele>
        <time>2021-06-30T01:18:04.108Z</time>
      </trkpt>
      <trkpt lat="48.39861" lon="-4.26647">
        <ele>147.49267388943</ele>
        <time>2021-06-30T01:18:22.693Z</time>
      </trkpt>
      <trkpt lat="48.39861" lon="-4.26647">
        <ele>147.54591437028</ele>
        <time>2021-06-30T01:18:41.278Z</time>
      </trkpt>
      <trkpt lat="48.39848" lon="-4.267">
        <ele>147.46269401126</ele>
        <time>2021-06-30T01:18:59.869Z</time>
      </trkpt>
      <trkpt lat="48.39826" lon="-4.26763">
        <ele>147.25669200914</ele>
        <time>2021-06-30T01:19:18.467Z</time>
      </trkpt>
      <trkpt lat="48.39818" lon="-4.26804">
        <ele>147.03683874855</ele>
        <time>2021-06-30T01:19:37.070Z</time>
      </trkpt>
      <trkpt lat="48.39817" lon="-4.26822">
        <ele>146.73223729919</ele>
        <time>2021-06-30T01:19:55.675Z</time>
      </trkpt>
      <trkpt lat="48.39817" lon="-4.26864">
        <ele>146.31203505193</ele>
        <time>2021-06-30T01:20:14.284Z</time>
      </trkpt>
      <trkpt lat="48.3982" lon="-4.26923">
        <ele>145.77110713077</ele>
        <time>2021-06-30T01:20:32.899Z</time>
      </trkpt>
      <trkpt lat="48.39819" lon="-4.26955">
        <ele>145.08635292459</ele>
        <time>2021-06-30T01:20:51.518Z</time>
      </trkpt>
      <trkpt lat="48.39819" lon="-4.26975">
        <ele>144.31307199873</ele>
        <time>2021-06-30T01:21:10.139Z</time>
      </trkpt>
      <trkpt lat="48.39816" lon="-4.26996">
        <ele>143.41142901538</ele>
        <time>2021-06-30T01:21:28.762Z</time>
      </trkpt>
      <trkpt lat="48.39812" lon="-4.27021">
        <ele>142.41429191708</ele>
        <time>2021-06-30T01:21:47.388Z</time>
      </trkpt>
      <trkpt lat="48.39809" lon="-4.27032">
        <ele>141.34009710276</ele>
        <time>2021-06-30T01:22:06.015Z</time>
      </trkpt>
      <trkpt lat="48.39803" lon="-4.27053">
        <ele>140.16529759665</ele>
        <time>2021-06-30T01:22:24.645Z</time>
      </trkpt>
      <trkpt lat="48.3979" lon="-4.27076">
        <ele>138.93676440513</ele>
        <time>2021-06-30T01:22:43.278Z</time>
      </trkpt>
      <trkpt lat="48.39713" lon="-4.27193">
        <ele>137.50360986128</ele>
        <time>2021-06-30T01:23:01.928Z</time>
      </trkpt>
      <trkpt lat="48.39713" lon="-4.27193">
        <ele>136.15529962131</ele>
        <time>2021-06-30T01:23:20.578Z</time>
      </trkpt>
      <trkpt lat="48.39701" lon="-4.2721">
        <ele>134.69290452956</ele>
        <time>2021-06-30T01:23:39.231Z</time>
      </trkpt>
      <trkpt lat="48.39696" lon="-4.27214">
        <ele>133.22894292386</ele>
        <time>2021-06-30T01:23:57.885Z</time>
      </trkpt>
      <trkpt lat="48.39685" lon="-4.27222">
        <ele>131.7270523662</ele>
        <time>2021-06-30T01:24:16.541Z</time>
      </trkpt>
      <trkpt lat="48.39676" lon="-4.27246">
        <ele>130.18564760592</ele>
        <time>2021-06-30T01:24:35.200Z</time>
      </trkpt>
      <trkpt lat="48.39667" lon="-4.27275">
        <ele>128.61982763221</ele>
        <time>2021-06-30T01:24:53.862Z</time>
      </trkpt>
      <trkpt lat="48.39623" lon="-4.27423">
        <ele>126.95005759849</ele>
        <time>2021-06-30T01:25:12.542Z</time>
      </trkpt>
      <trkpt lat="48.3961" lon="-4.27479">
        <ele>125.2869466795</ele>
        <time>2021-06-30T01:25:31.228Z</time>
      </trkpt>
      <trkpt lat="48.39602" lon="-4.27514">
        <ele>123.66216818708</ele>
        <time>2021-06-30T01:25:49.918Z</time>
      </trkpt>
      <trkpt lat="48.39593" lon="-4.27568">
        <ele>122.10300441914</ele>
        <time>2021-06-30T01:26:08.614Z</time>
      </trkpt>
      <trkpt lat="48.39577" lon="-4.27671">
        <ele>120.48931978961</ele>
        <time>2021-06-30T01:26:27.321Z</time>
      </trkpt>
      <trkpt lat="48.39532" lon="-4.27963">
        <ele>118.88095423657</ele>
        <time>2021-06-30T01:26:46.060Z</time>
      </trkpt>
      <trkpt lat="48.39532" lon="-4.27963">
        <ele>117.42719770154</ele>
        <time>2021-06-30T01:27:04.799Z</time>
      </trkpt>
      <trkpt lat="48.39525" lon="-4.28007">
        <ele>116.00627382252</ele>
        <time>2021-06-30T01:27:23.543Z</time>
      </trkpt>
      <trkpt lat="48.39505" lon="-4.2812">
        <ele>114.53164799653</ele>
        <time>2021-06-30T01:27:42.299Z</time>
      </trkpt>
      <trkpt lat="48.39493" lon="-4.28172">
        <ele>113.20853372183</ele>
        <time>2021-06-30T01:28:01.061Z</time>
      </trkpt>
      <trkpt lat="48.3948" lon="-4.28217">
        <ele>112.02594258535</ele>
        <time>2021-06-30T01:28:19.828Z</time>
      </trkpt>
      <trkpt lat="48.39452" lon="-4.28285">
        <ele>110.85510656067</ele>
        <time>2021-06-30T01:28:38.604Z</time>
      </trkpt>
      <trkpt lat="48.39452" lon="-4.28285">
        <ele>109.79962887215</ele>
        <time>2021-06-30T01:28:57.380Z</time>
      </trkpt>
      <trkpt lat="48.39437" lon="-4.28317">
        <ele>108.7798068941</ele>
        <time>2021-06-30T01:29:16.160Z</time>
      </trkpt>
      <trkpt lat="48.39425" lon="-4.28337">
        <ele>107.86155831062</ele>
        <time>2021-06-30T01:29:34.943Z</time>
      </trkpt>
      <trkpt lat="48.39368" lon="-4.28411">
        <ele>107.00873662594</ele>
        <time>2021-06-30T01:29:53.738Z</time>
      </trkpt>
      <trkpt lat="48.39345" lon="-4.28438">
        <ele>106.22184670537</ele>
        <time>2021-06-30T01:30:12.538Z</time>
      </trkpt>
      <trkpt lat="48.39345" lon="-4.28438">
        <ele>105.53725464766</ele>
        <time>2021-06-30T01:30:31.338Z</time>
      </trkpt>
      <trkpt lat="48.39319" lon="-4.28467">
        <ele>104.88912960711</ele>
        <time>2021-06-30T01:30:50.143Z</time>
      </trkpt>
      <trkpt lat="48.39309" lon="-4.2847">
        <ele>104.32700884359</ele>
        <time>2021-06-30T01:31:08.949Z</time>
      </trkpt>
      <trkpt lat="48.39294" lon="-4.28467">
        <ele>103.83438496794</ele>
        <time>2021-06-30T01:31:27.758Z</time>
      </trkpt>
      <trkpt lat="48.39291" lon="-4.28467">
        <ele>103.41805261368</ele>
        <time>2021-06-30T01:31:46.567Z</time>
      </trkpt>
      <trkpt lat="48.39283" lon="-4.28461">
        <ele>103.06083696583</ele>
        <time>2021-06-30T01:32:05.378Z</time>
      </trkpt>
      <trkpt lat="48.39243" lon="-4.28409">
        <ele>102.6590240105</ele>
        <time>2021-06-30T01:32:24.197Z</time>
      </trkpt>
      <trkpt lat="48.39233" lon="-4.28397">
        <ele>102.43977102816</ele>
        <time>2021-06-30T01:32:43.018Z</time>
      </trkpt>
      <trkpt lat="48.39221" lon="-4.28388">
        <ele>102.28437359834</ele>
        <time>2021-06-30T01:33:01.841Z</time>
      </trkpt>
      <trkpt lat="48.39211" lon="-4.28386">
        <ele>102.1903396424</ele>
        <time>2021-06-30T01:33:20.666Z</time>
      </trkpt>
      <trkpt lat="48.39201" lon="-4.28388">
        <ele>102.15430845496</ele>
        <time>2021-06-30T01:33:39.493Z</time>
      </trkpt>
      <trkpt lat="48.3918" lon="-4.28405">
        <ele>102.17216643272</ele>
        <time>2021-06-30T01:33:58.323Z</time>
      </trkpt>
      <trkpt lat="48.39158" lon="-4.28431">
        <ele>102.2391482796</ele>
        <time>2021-06-30T01:34:17.158Z</time>
      </trkpt>
      <trkpt lat="48.39155" lon="-4.28437">
        <ele>102.34992375614</ele>
        <time>2021-06-30T01:34:35.994Z</time>
      </trkpt>
      <trkpt lat="48.39141" lon="-4.28456">
        <ele>102.4760872993</ele>
        <time>2021-06-30T01:34:54.833Z</time>
      </trkpt>
      <trkpt lat="48.39141" lon="-4.28456">
        <ele>102.6569002031</ele>
        <time>2021-06-30T01:35:13.672Z</time>
      </trkpt>
      <trkpt lat="48.39117" lon="-4.285">
        <ele>102.86920325897</ele>
        <time>2021-06-30T01:35:32.517Z</time>
      </trkpt>
      <trkpt lat="48.39092" lon="-4.28552">
        <ele>103.08710693962</ele>
        <time>2021-06-30T01:35:51.369Z</time>
      </trkpt>
      <trkpt lat="48.39084" lon="-4.28578">
        <ele>103.32642222855</ele>
        <time>2021-06-30T01:36:10.224Z</time>
      </trkpt>
      <trkpt lat="48.39049" lon="-4.28776">
        <ele>103.60794749669</ele>
        <time>2021-06-30T01:36:29.101Z</time>
      </trkpt>
      <trkpt lat="48.39049" lon="-4.28807">
        <ele>103.79900939431</ele>
        <time>2021-06-30T01:36:47.981Z</time>
      </trkpt>
      <trkpt lat="48.39054" lon="-4.28876">
        <ele>103.97542140096</ele>
        <time>2021-06-30T01:37:06.868Z</time>
      </trkpt>
      <trkpt lat="48.39054" lon="-4.28902">
        <ele>104.18265441785</ele>
        <time>2021-06-30T01:37:25.758Z</time>
      </trkpt>
      <trkpt lat="48.39053" lon="-4.2892">
        <ele>104.36305732074</ele>
        <time>2021-06-30T01:37:44.650Z</time>
      </trkpt>
      <trkpt lat="48.39051" lon="-4.28957">
        <ele>104.5612340594</ele>
        <time>2021-06-30T01:38:03.546Z</time>
      </trkpt>
      <trkpt lat="48.39046" lon="-4.29001">
        <ele>104.66654260917</ele>
        <time>2021-06-30T01:38:22.447Z</time>
      </trkpt>
      <trkpt lat="48.39037" lon="-4.29086">
        <ele>104.57028622724</ele>
        <time>2021-06-30T01:38:41.357Z</time>
      </trkpt>
      <trkpt lat="48.39026" lon="-4.29178">
        <ele>104.41938698758</ele>
        <time>2021-06-30T01:39:00.277Z</time>
      </trkpt>
      <trkpt lat="48.39018" lon="-4.2929">
        <ele>104.15123537063</ele>
        <time>2021-06-30T01:39:19.209Z</time>
      </trkpt>
      <trkpt lat="48.39014" lon="-4.2941">
        <ele>103.83162384619</ele>
        <time>2021-06-30T01:39:38.154Z</time>
      </trkpt>
      <trkpt lat="48.39009" lon="-4.29474">
        <ele>103.57245743696</ele>
        <time>2021-06-30T01:39:57.106Z</time>
      </trkpt>
      <trkpt lat="48.39009" lon="-4.29474">
        <ele>103.2130977627</ele>
        <time>2021-06-30T01:40:16.058Z</time>
      </trkpt>
      <trkpt lat="48.39" lon="-4.29526">
        <ele>102.78590207976</ele>
        <time>2021-06-30T01:40:35.015Z</time>
      </trkpt>
      <trkpt lat="48.38992" lon="-4.29565">
        <ele>102.26473327226</ele>
        <time>2021-06-30T01:40:53.977Z</time>
      </trkpt>
      <trkpt lat="48.38968" lon="-4.29627">
        <ele>101.68357541558</ele>
        <time>2021-06-30T01:41:12.946Z</time>
      </trkpt>
      <trkpt lat="48.38931" lon="-4.29708">
        <ele>100.92227106742</ele>
        <time>2021-06-30T01:41:31.926Z</time>
      </trkpt>
      <trkpt lat="48.38919" lon="-4.29738">
        <ele>100.16391852656</ele>
        <time>2021-06-30T01:41:50.910Z</time>
      </trkpt>
      <trkpt lat="48.3891" lon="-4.29765">
        <ele>99.3392114802</ele>
        <time>2021-06-30T01:42:09.897Z</time>
      </trkpt>
      <trkpt lat="48.389" lon="-4.29799">
        <ele>98.43580072652</ele>
        <time>2021-06-30T01:42:28.888Z</time>
      </trkpt>
      <trkpt lat="48.38879" lon="-4.29897">
        <ele>97.37617005441</ele>
        <time>2021-06-30T01:42:47.890Z</time>
      </trkpt>
      <trkpt lat="48.38868" lon="-4.2995">
        <ele>96.2292739159</ele>
        <time>2021-06-30T01:43:06.898Z</time>
      </trkpt>
      <trkpt lat="48.38836" lon="-4.30087">
        <ele>94.94060498937</ele>
        <time>2021-06-30T01:43:25.921Z</time>
      </trkpt>
      <trkpt lat="48.38826" lon="-4.30119">
        <ele>93.55390983644</ele>
        <time>2021-06-30T01:43:44.948Z</time>
      </trkpt>
      <trkpt lat="48.3882" lon="-4.30137">
        <ele>92.09177581107</ele>
        <time>2021-06-30T01:44:03.977Z</time>
      </trkpt>
      <trkpt lat="48.38808" lon="-4.30164">
        <ele>90.52995817382</ele>
        <time>2021-06-30T01:44:23.009Z</time>
      </trkpt>
      <trkpt lat="48.38793" lon="-4.30193">
        <ele>88.92169564804</ele>
        <time>2021-06-30T01:44:42.045Z</time>
      </trkpt>
      <trkpt lat="48.38778" lon="-4.30213">
        <ele>87.24763697282</ele>
        <time>2021-06-30T01:45:01.085Z</time>
      </trkpt>
      <trkpt lat="48.38744" lon="-4.30253">
        <ele>85.49117637653</ele>
        <time>2021-06-30T01:45:20.132Z</time>
      </trkpt>
      <trkpt lat="48.38715" lon="-4.30276">
        <ele>83.68657911232</ele>
        <time>2021-06-30T01:45:39.184Z</time>
      </trkpt>
      <trkpt lat="48.38685" lon="-4.30291">
        <ele>81.87249634772</ele>
        <time>2021-06-30T01:45:58.241Z</time>
      </trkpt>
      <trkpt lat="48.38657" lon="-4.30299">
        <ele>80.03636632396</ele>
        <time>2021-06-30T01:46:17.302Z</time>
      </trkpt>
      <trkpt lat="48.38551" lon="-4.3032">
        <ele>77.84451758067</ele>
        <time>2021-06-30T01:46:36.381Z</time>
      </trkpt>
      <trkpt lat="48.38511" lon="-4.30334">
        <ele>76.12535165753</ele>
        <time>2021-06-30T01:46:55.466Z</time>
      </trkpt>
      <trkpt lat="48.38494" lon="-4.30346">
        <ele>74.47613443225</ele>
        <time>2021-06-30T01:47:14.554Z</time>
      </trkpt>
      <trkpt lat="48.38473" lon="-4.30364">
        <ele>72.89204283528</ele>
        <time>2021-06-30T01:47:33.646Z</time>
      </trkpt>
      <trkpt lat="48.38451" lon="-4.30388">
        <ele>71.39598276258</ele>
        <time>2021-06-30T01:47:52.742Z</time>
      </trkpt>
      <trkpt lat="48.38397" lon="-4.30448">
        <ele>69.97671343247</ele>
        <time>2021-06-30T01:48:11.849Z</time>
      </trkpt>
      <trkpt lat="48.38355" lon="-4.30486">
        <ele>68.80574696274</ele>
        <time>2021-06-30T01:48:30.964Z</time>
      </trkpt>
      <trkpt lat="48.38319" lon="-4.30533">
        <ele>67.89379188304</ele>
        <time>2021-06-30T01:48:50.087Z</time>
      </trkpt>
      <trkpt lat="48.38319" lon="-4.30541">
        <ele>67.09918548526</ele>
        <time>2021-06-30T01:49:09.210Z</time>
      </trkpt>
      <trkpt lat="48.38317" lon="-4.30551">
        <ele>66.47602704154</ele>
        <time>2021-06-30T01:49:28.335Z</time>
      </trkpt>
      <trkpt lat="48.38312" lon="-4.30561">
        <ele>66.00594685535</ele>
        <time>2021-06-30T01:49:47.461Z</time>
      </trkpt>
      <trkpt lat="48.38307" lon="-4.30566">
        <ele>65.69616429166</ele>
        <time>2021-06-30T01:50:06.588Z</time>
      </trkpt>
      <trkpt lat="48.383" lon="-4.3057">
        <ele>65.54318383277</ele>
        <time>2021-06-30T01:50:25.716Z</time>
      </trkpt>
      <trkpt lat="48.38292" lon="-4.30569">
        <ele>65.5404740561</ele>
        <time>2021-06-30T01:50:44.845Z</time>
      </trkpt>
      <trkpt lat="48.38273" lon="-4.30572">
        <ele>65.68399496231</ele>
        <time>2021-06-30T01:51:03.977Z</time>
      </trkpt>
      <trkpt lat="48.38256" lon="-4.30587">
        <ele>65.9263076586</ele>
        <time>2021-06-30T01:51:23.113Z</time>
      </trkpt>
      <trkpt lat="48.38224" lon="-4.30623">
        <ele>66.30566570604</ele>
        <time>2021-06-30T01:51:42.255Z</time>
      </trkpt>
      <trkpt lat="48.38217" lon="-4.30637">
        <ele>66.76335201283</ele>
        <time>2021-06-30T01:52:01.399Z</time>
      </trkpt>
      <trkpt lat="48.38215" lon="-4.30649">
        <ele>67.29514169628</ele>
        <time>2021-06-30T01:52:20.544Z</time>
      </trkpt>
      <trkpt lat="48.38215" lon="-4.30658">
        <ele>67.88870457761</ele>
        <time>2021-06-30T01:52:39.690Z</time>
      </trkpt>
      <trkpt lat="48.38209" lon="-4.30673">
        <ele>68.55230023438</ele>
        <time>2021-06-30T01:52:58.838Z</time>
      </trkpt>
      <trkpt lat="48.382" lon="-4.30681">
        <ele>69.26383620626</ele>
        <time>2021-06-30T01:53:17.988Z</time>
      </trkpt>
      <trkpt lat="48.38194" lon="-4.30682">
        <ele>69.99214702637</ele>
        <time>2021-06-30T01:53:37.139Z</time>
      </trkpt>
      <trkpt lat="48.38191" lon="-4.30691">
        <ele>70.73271901944</ele>
        <time>2021-06-30T01:53:56.291Z</time>
      </trkpt>
      <trkpt lat="48.38184" lon="-4.30704">
        <ele>71.48178926926</ele>
        <time>2021-06-30T01:54:15.444Z</time>
      </trkpt>
      <trkpt lat="48.38173" lon="-4.3074">
        <ele>72.22213559828</ele>
        <time>2021-06-30T01:54:34.602Z</time>
      </trkpt>
      <trkpt lat="48.38162" lon="-4.30772">
        <ele>72.96133941788</ele>
        <time>2021-06-30T01:54:53.763Z</time>
      </trkpt>
      <trkpt lat="48.38163" lon="-4.30779">
        <ele>73.64276989608</ele>
        <time>2021-06-30T01:55:12.925Z</time>
      </trkpt>
      <trkpt lat="48.38162" lon="-4.30785">
        <ele>74.28465113082</ele>
        <time>2021-06-30T01:55:32.088Z</time>
      </trkpt>
      <trkpt lat="48.38159" lon="-4.30789">
        <ele>74.87494009946</ele>
        <time>2021-06-30T01:55:51.252Z</time>
      </trkpt>
      <trkpt lat="48.38154" lon="-4.30791">
        <ele>75.40955444167</ele>
        <time>2021-06-30T01:56:10.416Z</time>
      </trkpt>
      <trkpt lat="48.38144" lon="-4.308">
        <ele>75.89363677301</ele>
        <time>2021-06-30T01:56:29.582Z</time>
      </trkpt>
      <trkpt lat="48.38134" lon="-4.30815">
        <ele>76.31924597887</ele>
        <time>2021-06-30T01:56:48.750Z</time>
      </trkpt>
      <trkpt lat="48.38128" lon="-4.30831">
        <ele>76.67195860197</ele>
        <time>2021-06-30T01:57:07.920Z</time>
      </trkpt>
      <trkpt lat="48.38111" lon="-4.3086">
        <ele>76.93496171369</ele>
        <time>2021-06-30T01:57:27.095Z</time>
      </trkpt>
      <trkpt lat="48.38101" lon="-4.30878">
        <ele>77.12226869697</ele>
        <time>2021-06-30T01:57:46.272Z</time>
      </trkpt>
      <trkpt lat="48.38067" lon="-4.30918">
        <ele>77.22384071516</ele>
        <time>2021-06-30T01:58:05.456Z</time>
      </trkpt>
      <trkpt lat="48.38067" lon="-4.30918">
        <ele>77.25756185546</ele>
        <time>2021-06-30T01:58:24.640Z</time>
      </trkpt>
      <trkpt lat="48.38047" lon="-4.30944">
        <ele>77.18843808731</ele>
        <time>2021-06-30T01:58:43.828Z</time>
      </trkpt>
      <trkpt lat="48.38047" lon="-4.30944">
        <ele>77.07191530568</ele>
        <time>2021-06-30T01:59:03.016Z</time>
      </trkpt>
      <trkpt lat="48.37997" lon="-4.31008">
        <ele>76.88301900672</ele>
        <time>2021-06-30T01:59:22.215Z</time>
      </trkpt>
      <trkpt lat="48.37949" lon="-4.31065">
        <ele>76.62494342567</ele>
        <time>2021-06-30T01:59:41.424Z</time>
      </trkpt>
      <trkpt lat="48.37951" lon="-4.3107">
        <ele>76.29779321841</ele>
        <time>2021-06-30T02:00:00.633Z</time>
      </trkpt>
      <trkpt lat="48.37951" lon="-4.31076">
        <ele>75.90021242457</ele>
        <time>2021-06-30T02:00:19.843Z</time>
      </trkpt>
      <trkpt lat="48.37949" lon="-4.31081">
        <ele>75.44268171175</ele>
        <time>2021-06-30T02:00:39.054Z</time>
      </trkpt>
      <trkpt lat="48.37945" lon="-4.31085">
        <ele>74.93428233451</ele>
        <time>2021-06-30T02:00:58.265Z</time>
      </trkpt>
      <trkpt lat="48.37945" lon="-4.31085">
        <ele>74.38014617566</ele>
        <time>2021-06-30T02:01:17.476Z</time>
      </trkpt>
      <trkpt lat="48.37941" lon="-4.31085">
        <ele>73.7875083597</ele>
        <time>2021-06-30T02:01:36.688Z</time>
      </trkpt>
      <trkpt lat="48.37938" lon="-4.31081">
        <ele>73.16038866976</ele>
        <time>2021-06-30T02:01:55.900Z</time>
      </trkpt>
      <trkpt lat="48.37936" lon="-4.31072">
        <ele>72.49706234624</ele>
        <time>2021-06-30T02:02:15.114Z</time>
      </trkpt>
      <trkpt lat="48.37913" lon="-4.31084">
        <ele>71.77559037566</ele>
        <time>2021-06-30T02:02:34.331Z</time>
      </trkpt>
      <trkpt lat="48.37853" lon="-4.31099">
        <ele>70.97299838902</ele>
        <time>2021-06-30T02:02:53.558Z</time>
      </trkpt>
      <trkpt lat="48.37837" lon="-4.31104">
        <ele>70.21454163886</ele>
        <time>2021-06-30T02:03:12.788Z</time>
      </trkpt>
      <trkpt lat="48.37808" lon="-4.31121">
        <ele>69.45791315524</ele>
        <time>2021-06-30T02:03:32.023Z</time>
      </trkpt>
      <trkpt lat="48.37781" lon="-4.3114">
        <ele>68.79537924014</ele>
        <time>2021-06-30T02:03:51.263Z</time>
      </trkpt>
      <trkpt lat="48.37776" lon="-4.31101">
        <ele>68.20810883139</ele>
        <time>2021-06-30T02:04:10.507Z</time>
      </trkpt>
      <trkpt lat="48.37773" lon="-4.31086">
        <ele>67.66202049233</ele>
        <time>2021-06-30T02:04:29.753Z</time>
      </trkpt>
      <trkpt lat="48.37763" lon="-4.31045">
        <ele>67.17086319768</ele>
        <time>2021-06-30T02:04:49.003Z</time>
      </trkpt>
      <trkpt lat="48.37753" lon="-4.31013">
        <ele>66.74654555124</ele>
        <time>2021-06-30T02:05:08.257Z</time>
      </trkpt>
      <trkpt lat="48.37753" lon="-4.31013">
        <ele>66.37280256975</ele>
        <time>2021-06-30T02:05:27.511Z</time>
      </trkpt>
      <trkpt lat="48.37734" lon="-4.30963">
        <ele>66.07367329652</ele>
        <time>2021-06-30T02:05:46.771Z</time>
      </trkpt>
      <trkpt lat="48.37719" lon="-4.30937">
        <ele>65.79698122303</ele>
        <time>2021-06-30T02:06:06.035Z</time>
      </trkpt>
      <trkpt lat="48.37684" lon="-4.30872">
        <ele>65.61746573703</ele>
        <time>2021-06-30T02:06:25.308Z</time>
      </trkpt>
      <trkpt lat="48.37644" lon="-4.30806">
        <ele>65.48870298278</ele>
        <time>2021-06-30T02:06:44.590Z</time>
      </trkpt>
      <trkpt lat="48.37644" lon="-4.30806">
        <ele>65.38765357917</ele>
        <time>2021-06-30T02:07:03.872Z</time>
      </trkpt>
      <trkpt lat="48.3763" lon="-4.30778">
        <ele>65.31292294128</ele>
        <time>2021-06-30T02:07:23.158Z</time>
      </trkpt>
      <trkpt lat="48.37586" lon="-4.30707">
        <ele>65.28393141763</ele>
        <time>2021-06-30T02:07:42.454Z</time>
      </trkpt>
      <trkpt lat="48.3758" lon="-4.30693">
        <ele>65.28831239293</ele>
        <time>2021-06-30T02:08:01.752Z</time>
      </trkpt>
      <trkpt lat="48.37566" lon="-4.30659">
        <ele>65.32875995379</ele>
        <time>2021-06-30T02:08:21.054Z</time>
      </trkpt>
      <trkpt lat="48.37561" lon="-4.30649">
        <ele>65.40602072146</ele>
        <time>2021-06-30T02:08:40.358Z</time>
      </trkpt>
      <trkpt lat="48.37549" lon="-4.306">
        <ele>65.5007750462</ele>
        <time>2021-06-30T02:08:59.667Z</time>
      </trkpt>
      <trkpt lat="48.37549" lon="-4.306">
        <ele>65.63277935283</ele>
        <time>2021-06-30T02:09:18.976Z</time>
      </trkpt>
      <trkpt lat="48.37549" lon="-4.30598">
        <ele>65.78103152771</ele>
        <time>2021-06-30T02:09:38.285Z</time>
      </trkpt>
      <trkpt lat="48.37548" lon="-4.30598">
        <ele>65.93727224176</ele>
        <time>2021-06-30T02:09:57.594Z</time>
      </trkpt>
      <trkpt lat="48.37549" lon="-4.30598">
        <ele>65.78103152771</ele>
        <time>2021-06-30T02:10:16.903Z</time>
      </trkpt>
      <trkpt lat="48.37543" lon="-4.30574">
        <ele>66.25229346645</ele>
        <time>2021-06-30T02:10:36.215Z</time>
      </trkpt>
      <trkpt lat="48.37539" lon="-4.30558">
        <ele>66.38129257433</ele>
        <time>2021-06-30T02:10:55.529Z</time>
      </trkpt>
      <trkpt lat="48.37536" lon="-4.30531">
        <ele>66.51348913623</ele>
        <time>2021-06-30T02:11:14.846Z</time>
      </trkpt>
      <trkpt lat="48.37533" lon="-4.30501">
        <ele>66.59002410165</ele>
        <time>2021-06-30T02:11:34.166Z</time>
      </trkpt>
      <trkpt lat="48.37533" lon="-4.30501">
        <ele>66.63455141573</ele>
        <time>2021-06-30T02:11:53.486Z</time>
      </trkpt>
      <trkpt lat="48.37533" lon="-4.30477">
        <ele>66.6264238515</ele>
        <time>2021-06-30T02:12:12.809Z</time>
      </trkpt>
      <trkpt lat="48.37533" lon="-4.30477">
        <ele>66.56420675297</ele>
        <time>2021-06-30T02:12:32.132Z</time>
      </trkpt>
      <trkpt lat="48.37532" lon="-4.30474">
        <ele>66.43535914926</ele>
        <time>2021-06-30T02:12:51.455Z</time>
      </trkpt>
      <trkpt lat="48.37532" lon="-4.30474">
        <ele>66.23287276114</ele>
        <time>2021-06-30T02:13:10.778Z</time>
      </trkpt>
      <trkpt lat="48.37532" lon="-4.30453">
        <ele>65.94892081564</ele>
        <time>2021-06-30T02:13:30.103Z</time>
      </trkpt>
      <trkpt lat="48.37533" lon="-4.30437">
        <ele>65.58439406876</ele>
        <time>2021-06-30T02:13:49.430Z</time>
      </trkpt>
      <trkpt lat="48.37533" lon="-4.30432">
        <ele>65.12510826033</ele>
        <time>2021-06-30T02:14:08.757Z</time>
      </trkpt>
      <trkpt lat="48.37539" lon="-4.3033">
        <ele>64.49392659039</ele>
        <time>2021-06-30T02:14:28.095Z</time>
      </trkpt>
      <trkpt lat="48.37547" lon="-4.30277">
        <ele>63.77163530999</ele>
        <time>2021-06-30T02:14:47.439Z</time>
      </trkpt>
      <trkpt lat="48.3756" lon="-4.30238">
        <ele>63.0031456674</ele>
        <time>2021-06-30T02:15:06.788Z</time>
      </trkpt>
      <trkpt lat="48.3756" lon="-4.30238">
        <ele>62.1544341488</ele>
        <time>2021-06-30T02:15:26.137Z</time>
      </trkpt>
      <trkpt lat="48.3756" lon="-4.30238">
        <ele>61.21335492576</ele>
        <time>2021-06-30T02:15:45.486Z</time>
      </trkpt>
      <trkpt lat="48.37565" lon="-4.30222">
        <ele>60.19558470779</ele>
        <time>2021-06-30T02:16:04.837Z</time>
      </trkpt>
      <trkpt lat="48.37587" lon="-4.30162">
        <ele>59.06096534665</ele>
        <time>2021-06-30T02:16:24.195Z</time>
      </trkpt>
      <trkpt lat="48.37602" lon="-4.30134">
        <ele>57.84917711929</ele>
        <time>2021-06-30T02:16:43.557Z</time>
      </trkpt>
      <trkpt lat="48.3761" lon="-4.30115">
        <ele>56.55364600913</ele>
        <time>2021-06-30T02:17:02.921Z</time>
      </trkpt>
      <trkpt lat="48.3761" lon="-4.30115">
        <ele>55.24321281857</ele>
        <time>2021-06-30T02:17:22.285Z</time>
      </trkpt>
      <trkpt lat="48.3765" lon="-4.30012">
        <ele>53.6911112206</ele>
        <time>2021-06-30T02:17:41.662Z</time>
      </trkpt>
      <trkpt lat="48.37704" lon="-4.29889">
        <ele>52.32776802138</ele>
        <time>2021-06-30T02:18:01.055Z</time>
      </trkpt>
      <trkpt lat="48.37733" lon="-4.29816">
        <ele>50.80825613174</ele>
        <time>2021-06-30T02:18:20.457Z</time>
      </trkpt>
      <trkpt lat="48.37776" lon="-4.2972">
        <ele>49.41331391365</ele>
        <time>2021-06-30T02:18:39.871Z</time>
      </trkpt>
      <trkpt lat="48.37783" lon="-4.29706">
        <ele>48.10919261469</ele>
        <time>2021-06-30T02:18:59.287Z</time>
      </trkpt>
      <trkpt lat="48.37783" lon="-4.29706">
        <ele>46.87833890078</ele>
        <time>2021-06-30T02:19:18.703Z</time>
      </trkpt>
      <trkpt lat="48.37826" lon="-4.29631">
        <ele>45.6541661995</ele>
        <time>2021-06-30T02:19:38.130Z</time>
      </trkpt>
      <trkpt lat="48.3785" lon="-4.296">
        <ele>44.62738958859</ele>
        <time>2021-06-30T02:19:57.562Z</time>
      </trkpt>
      <trkpt lat="48.3789" lon="-4.29538">
        <ele>43.63199224247</ele>
        <time>2021-06-30T02:20:17.003Z</time>
      </trkpt>
      <trkpt lat="48.37915" lon="-4.29489">
        <ele>42.79402994511</ele>
        <time>2021-06-30T02:20:36.450Z</time>
      </trkpt>
      <trkpt lat="48.37934" lon="-4.29446">
        <ele>42.14658469617</ele>
        <time>2021-06-30T02:20:55.903Z</time>
      </trkpt>
      <trkpt lat="48.37941" lon="-4.29427">
        <ele>41.5888565197</ele>
        <time>2021-06-30T02:21:15.358Z</time>
      </trkpt>
      <trkpt lat="48.37942" lon="-4.29417">
        <ele>41.14290130688</ele>
        <time>2021-06-30T02:21:34.814Z</time>
      </trkpt>
      <trkpt lat="48.37945" lon="-4.29412">
        <ele>40.84803558481</ele>
        <time>2021-06-30T02:21:54.271Z</time>
      </trkpt>
      <trkpt lat="48.37952" lon="-4.29392">
        <ele>40.67973451607</ele>
        <time>2021-06-30T02:22:13.730Z</time>
      </trkpt>
      <trkpt lat="48.37956" lon="-4.29328">
        <ele>40.67365883066</ele>
        <time>2021-06-30T02:22:33.196Z</time>
      </trkpt>
      <trkpt lat="48.37956" lon="-4.29311">
        <ele>40.86253325746</ele>
        <time>2021-06-30T02:22:52.664Z</time>
      </trkpt>
      <trkpt lat="48.37954" lon="-4.29281">
        <ele>41.2568591432</ele>
        <time>2021-06-30T02:23:12.135Z</time>
      </trkpt>
      <trkpt lat="48.37933" lon="-4.29163">
        <ele>41.67182149341</ele>
        <time>2021-06-30T02:23:31.619Z</time>
      </trkpt>
      <trkpt lat="48.37922" lon="-4.29119">
        <ele>42.44916858272</ele>
        <time>2021-06-30T02:23:51.108Z</time>
      </trkpt>
      <trkpt lat="48.37915" lon="-4.29104">
        <ele>43.42518233217</ele>
        <time>2021-06-30T02:24:10.599Z</time>
      </trkpt>
      <trkpt lat="48.37906" lon="-4.29087">
        <ele>44.65623543363</ele>
        <time>2021-06-30T02:24:30.093Z</time>
      </trkpt>
      <trkpt lat="48.3789" lon="-4.29069">
        <ele>46.08877905815</ele>
        <time>2021-06-30T02:24:49.590Z</time>
      </trkpt>
      <trkpt lat="48.3788" lon="-4.29062">
        <ele>47.71850503222</ele>
        <time>2021-06-30T02:25:09.089Z</time>
      </trkpt>
      <trkpt lat="48.37869" lon="-4.29059">
        <ele>49.53682493863</ele>
        <time>2021-06-30T02:25:28.589Z</time>
      </trkpt>
      <trkpt lat="48.3785" lon="-4.2906">
        <ele>51.54615016471</ele>
        <time>2021-06-30T02:25:48.092Z</time>
      </trkpt>
      <trkpt lat="48.37747" lon="-4.29091">
        <ele>53.99822139732</ele>
        <time>2021-06-30T02:26:07.612Z</time>
      </trkpt>
      <trkpt lat="48.37714" lon="-4.29097">
        <ele>56.34859253845</ele>
        <time>2021-06-30T02:26:27.138Z</time>
      </trkpt>
      <trkpt lat="48.37695" lon="-4.29091">
        <ele>58.75743025862</ele>
        <time>2021-06-30T02:26:46.667Z</time>
      </trkpt>
      <trkpt lat="48.37686" lon="-4.29084">
        <ele>61.27370093321</ele>
        <time>2021-06-30T02:27:06.197Z</time>
      </trkpt>
      <trkpt lat="48.37674" lon="-4.29061">
        <ele>63.88477152887</ele>
        <time>2021-06-30T02:27:25.730Z</time>
      </trkpt>
      <trkpt lat="48.37664" lon="-4.29033">
        <ele>66.50813879319</ele>
        <time>2021-06-30T02:27:45.267Z</time>
      </trkpt>
      <trkpt lat="48.37651" lon="-4.28986">
        <ele>69.10053250002</ele>
        <time>2021-06-30T02:28:04.809Z</time>
      </trkpt>
      <trkpt lat="48.37629" lon="-4.28841">
        <ele>71.6397307304</ele>
        <time>2021-06-30T02:28:24.367Z</time>
      </trkpt>
      <trkpt lat="48.37615" lon="-4.28785">
        <ele>74.08470678772</ele>
        <time>2021-06-30T02:28:43.931Z</time>
      </trkpt>
      <trkpt lat="48.37586" lon="-4.28703">
        <ele>76.43235868578</ele>
        <time>2021-06-30T02:29:03.505Z</time>
      </trkpt>
      <trkpt lat="48.37576" lon="-4.28681">
        <ele>78.65869851607</ele>
        <time>2021-06-30T02:29:23.082Z</time>
      </trkpt>
      <trkpt lat="48.37567" lon="-4.28666">
        <ele>80.78879660468</ele>
        <time>2021-06-30T02:29:42.661Z</time>
      </trkpt>
      <trkpt lat="48.3755" lon="-4.28648">
        <ele>82.81294724773</ele>
        <time>2021-06-30T02:30:02.244Z</time>
      </trkpt>
      <trkpt lat="48.37538" lon="-4.2864">
        <ele>84.66518384597</ele>
        <time>2021-06-30T02:30:21.829Z</time>
      </trkpt>
      <trkpt lat="48.37516" lon="-4.2863">
        <ele>86.39488283046</ele>
        <time>2021-06-30T02:30:41.417Z</time>
      </trkpt>
      <trkpt lat="48.37498" lon="-4.28615">
        <ele>87.89179540526</ele>
        <time>2021-06-30T02:31:01.009Z</time>
      </trkpt>
      <trkpt lat="48.37483" lon="-4.28597">
        <ele>89.20306677252</ele>
        <time>2021-06-30T02:31:20.604Z</time>
      </trkpt>
      <trkpt lat="48.37451" lon="-4.28545">
        <ele>90.47763752751</ele>
        <time>2021-06-30T02:31:40.206Z</time>
      </trkpt>
      <trkpt lat="48.37422" lon="-4.28505">
        <ele>91.42993178137</ele>
        <time>2021-06-30T02:31:59.815Z</time>
      </trkpt>
      <trkpt lat="48.37404" lon="-4.28486">
        <ele>92.15751550278</ele>
        <time>2021-06-30T02:32:19.427Z</time>
      </trkpt>
      <trkpt lat="48.3738" lon="-4.28473">
        <ele>92.66033325844</ele>
        <time>2021-06-30T02:32:39.043Z</time>
      </trkpt>
      <trkpt lat="48.37282" lon="-4.28437">
        <ele>92.87571669296</ele>
        <time>2021-06-30T02:32:58.675Z</time>
      </trkpt>
      <trkpt lat="48.37218" lon="-4.2841">
        <ele>92.97499954905</ele>
        <time>2021-06-30T02:33:18.318Z</time>
      </trkpt>
      <trkpt lat="48.37201" lon="-4.28397">
        <ele>92.90882958526</ele>
        <time>2021-06-30T02:33:37.964Z</time>
      </trkpt>
      <trkpt lat="48.37105" lon="-4.28306">
        <ele>92.57284604455</ele>
        <time>2021-06-30T02:33:57.628Z</time>
      </trkpt>
      <trkpt lat="48.3709" lon="-4.28288">
        <ele>92.04223009523</ele>
        <time>2021-06-30T02:34:17.295Z</time>
      </trkpt>
      <trkpt lat="48.37081" lon="-4.28272">
        <ele>91.39371119466</ele>
        <time>2021-06-30T02:34:36.965Z</time>
      </trkpt>
      <trkpt lat="48.37072" lon="-4.28252">
        <ele>90.59652353219</ele>
        <time>2021-06-30T02:34:56.637Z</time>
      </trkpt>
      <trkpt lat="48.37025" lon="-4.28088">
        <ele>89.63739040316</ele>
        <time>2021-06-30T02:35:16.328Z</time>
      </trkpt>
      <trkpt lat="48.37007" lon="-4.28038">
        <ele>88.4820260445</ele>
        <time>2021-06-30T02:35:36.025Z</time>
      </trkpt>
      <trkpt lat="48.36938" lon="-4.27884">
        <ele>87.08397023556</ele>
        <time>2021-06-30T02:35:55.742Z</time>
      </trkpt>
      <trkpt lat="48.36931" lon="-4.27871">
        <ele>85.60879956765</ele>
        <time>2021-06-30T02:36:15.461Z</time>
      </trkpt>
      <trkpt lat="48.36899" lon="-4.27839">
        <ele>83.95399257423</ele>
        <time>2021-06-30T02:36:35.186Z</time>
      </trkpt>
      <trkpt lat="48.3687" lon="-4.27828">
        <ele>82.16490130287</ele>
        <time>2021-06-30T02:36:54.916Z</time>
      </trkpt>
      <trkpt lat="48.36764" lon="-4.27809">
        <ele>80.18489142997</ele>
        <time>2021-06-30T02:37:14.663Z</time>
      </trkpt>
      <trkpt lat="48.36722" lon="-4.27799">
        <ele>78.02855415503</ele>
        <time>2021-06-30T02:37:34.417Z</time>
      </trkpt>
      <trkpt lat="48.36709" lon="-4.27793">
        <ele>75.741110566</ele>
        <time>2021-06-30T02:37:54.173Z</time>
      </trkpt>
      <trkpt lat="48.36682" lon="-4.27773">
        <ele>73.29155786745</ele>
        <time>2021-06-30T02:38:13.934Z</time>
      </trkpt>
      <trkpt lat="48.36656" lon="-4.27749">
        <ele>70.71535116128</ele>
        <time>2021-06-30T02:38:33.699Z</time>
      </trkpt>
      <trkpt lat="48.36629" lon="-4.2772">
        <ele>68.03371354896</ele>
        <time>2021-06-30T02:38:53.470Z</time>
      </trkpt>
      <trkpt lat="48.36607" lon="-4.27704">
        <ele>65.25720604773</ele>
        <time>2021-06-30T02:39:13.245Z</time>
      </trkpt>
      <trkpt lat="48.36579" lon="-4.27699">
        <ele>62.41562178569</ele>
        <time>2021-06-30T02:39:33.024Z</time>
      </trkpt>
      <trkpt lat="48.36473" lon="-4.27701">
        <ele>59.34322472755</ele>
        <time>2021-06-30T02:39:52.820Z</time>
      </trkpt>
      <trkpt lat="48.36421" lon="-4.277">
        <ele>56.41316280985</ele>
        <time>2021-06-30T02:40:12.625Z</time>
      </trkpt>
      <trkpt lat="48.36404" lon="-4.27696">
        <ele>53.52602818635</ele>
        <time>2021-06-30T02:40:32.432Z</time>
      </trkpt>
      <trkpt lat="48.36369" lon="-4.27683">
        <ele>50.65152930363</ele>
        <time>2021-06-30T02:40:52.245Z</time>
      </trkpt>
      <trkpt lat="48.36258" lon="-4.2763">
        <ele>47.74301440448</ele>
        <time>2021-06-30T02:41:12.077Z</time>
      </trkpt>
      <trkpt lat="48.36193" lon="-4.27616">
        <ele>44.96618676779</ele>
        <time>2021-06-30T02:41:31.919Z</time>
      </trkpt>
      <trkpt lat="48.36175" lon="-4.27607">
        <ele>42.30781675969</ele>
        <time>2021-06-30T02:41:51.764Z</time>
      </trkpt>
      <trkpt lat="48.36175" lon="-4.27607">
        <ele>39.77107562867</ele>
        <time>2021-06-30T02:42:11.609Z</time>
      </trkpt>
      <trkpt lat="48.36164" lon="-4.276">
        <ele>37.31315621128</ele>
        <time>2021-06-30T02:42:31.456Z</time>
      </trkpt>
      <trkpt lat="48.36153" lon="-4.27581">
        <ele>34.95178965327</ele>
        <time>2021-06-30T02:42:51.306Z</time>
      </trkpt>
      <trkpt lat="48.36142" lon="-4.2756">
        <ele>32.69320557746</ele>
        <time>2021-06-30T02:43:11.159Z</time>
      </trkpt>
      <trkpt lat="48.36099" lon="-4.27431">
        <ele>30.29207107325</ele>
        <time>2021-06-30T02:43:31.027Z</time>
      </trkpt>
      <trkpt lat="48.36093" lon="-4.27412">
        <ele>28.35330840994</ele>
        <time>2021-06-30T02:43:50.897Z</time>
      </trkpt>
      <trkpt lat="48.3609" lon="-4.27396">
        <ele>26.59055094793</ele>
        <time>2021-06-30T02:44:10.769Z</time>
      </trkpt>
      <trkpt lat="48.36089" lon="-4.27382">
        <ele>25.00529642894</ele>
        <time>2021-06-30T02:44:30.643Z</time>
      </trkpt>
      <trkpt lat="48.36092" lon="-4.27359">
        <ele>23.60475043019</ele>
        <time>2021-06-30T02:44:50.519Z</time>
      </trkpt>
      <trkpt lat="48.36109" lon="-4.27289">
        <ele>22.2653741334</ele>
        <time>2021-06-30T02:45:10.403Z</time>
      </trkpt>
      <trkpt lat="48.36113" lon="-4.27268">
        <ele>21.19962260239</ele>
        <time>2021-06-30T02:45:30.289Z</time>
      </trkpt>
      <trkpt lat="48.36116" lon="-4.27228">
        <ele>20.30626302848</ele>
        <time>2021-06-30T02:45:50.180Z</time>
      </trkpt>
      <trkpt lat="48.36114" lon="-4.27147">
        <ele>19.56600029419</ele>
        <time>2021-06-30T02:46:10.079Z</time>
      </trkpt>
      <trkpt lat="48.36113" lon="-4.2713">
        <ele>19.05225533864</ele>
        <time>2021-06-30T02:46:29.980Z</time>
      </trkpt>
      <trkpt lat="48.36109" lon="-4.27081">
        <ele>18.69544482058</ele>
        <time>2021-06-30T02:46:49.886Z</time>
      </trkpt>
      <trkpt lat="48.36107" lon="-4.27045">
        <ele>18.47739119446</ele>
        <time>2021-06-30T02:47:09.796Z</time>
      </trkpt>
      <trkpt lat="48.36105" lon="-4.27021">
        <ele>18.3821586252</ele>
        <time>2021-06-30T02:47:29.709Z</time>
      </trkpt>
      <trkpt lat="48.36108" lon="-4.27002">
        <ele>18.39246470726</ele>
        <time>2021-06-30T02:47:49.624Z</time>
      </trkpt>
      <trkpt lat="48.36126" lon="-4.26923">
        <ele>18.55798351338</ele>
        <time>2021-06-30T02:48:09.548Z</time>
      </trkpt>
      <trkpt lat="48.36137" lon="-4.26848">
        <ele>18.73713174332</ele>
        <time>2021-06-30T02:48:29.480Z</time>
      </trkpt>
      <trkpt lat="48.36147" lon="-4.26757">
        <ele>18.9740231379</ele>
        <time>2021-06-30T02:48:49.422Z</time>
      </trkpt>
      <trkpt lat="48.36152" lon="-4.26712">
        <ele>19.12757133293</ele>
        <time>2021-06-30T02:49:09.369Z</time>
      </trkpt>
      <trkpt lat="48.36152" lon="-4.26695">
        <ele>19.27613622335</ele>
        <time>2021-06-30T02:49:29.317Z</time>
      </trkpt>
      <trkpt lat="48.36149" lon="-4.26676">
        <ele>19.40950403287</ele>
        <time>2021-06-30T02:49:49.268Z</time>
      </trkpt>
      <trkpt lat="48.36142" lon="-4.26655">
        <ele>19.48878409705</ele>
        <time>2021-06-30T02:50:09.221Z</time>
      </trkpt>
      <trkpt lat="48.36131" lon="-4.26639">
        <ele>19.50635382034</ele>
        <time>2021-06-30T02:50:29.177Z</time>
      </trkpt>
      <trkpt lat="48.3609" lon="-4.26598">
        <ele>19.38941911601</ele>
        <time>2021-06-30T02:50:49.140Z</time>
      </trkpt>
      <trkpt lat="48.36072" lon="-4.26582">
        <ele>19.27464093275</ele>
        <time>2021-06-30T02:51:09.107Z</time>
      </trkpt>
      <trkpt lat="48.36061" lon="-4.26569">
        <ele>19.0990726947</ele>
        <time>2021-06-30T02:51:29.076Z</time>
      </trkpt>
      <trkpt lat="48.36054" lon="-4.26556">
        <ele>18.83174412782</ele>
        <time>2021-06-30T02:51:49.047Z</time>
      </trkpt>
      <trkpt lat="48.36049" lon="-4.26538">
        <ele>18.50538749368</ele>
        <time>2021-06-30T02:52:09.020Z</time>
      </trkpt>
      <trkpt lat="48.36046" lon="-4.26518">
        <ele>18.10367740959</ele>
        <time>2021-06-30T02:52:28.995Z</time>
      </trkpt>
      <trkpt lat="48.36048" lon="-4.26502">
        <ele>17.60667223376</ele>
        <time>2021-06-30T02:52:48.972Z</time>
      </trkpt>
      <trkpt lat="48.36051" lon="-4.26488">
        <ele>17.00872093741</ele>
        <time>2021-06-30T02:53:08.950Z</time>
      </trkpt>
      <trkpt lat="48.36069" lon="-4.26436">
        <ele>16.20867629138</ele>
        <time>2021-06-30T02:53:28.935Z</time>
      </trkpt>
      <trkpt lat="48.36083" lon="-4.26379">
        <ele>15.26491825952</ele>
        <time>2021-06-30T02:53:48.926Z</time>
      </trkpt>
      <trkpt lat="48.36085" lon="-4.26371">
        <ele>14.40460260488</ele>
        <time>2021-06-30T02:54:08.918Z</time>
      </trkpt>
      <trkpt lat="48.36085" lon="-4.26371">
        <ele>13.51793203423</ele>
        <time>2021-06-30T02:54:28.910Z</time>
      </trkpt>
      <trkpt lat="48.36108" lon="-4.26324">
        <ele>12.50804869915</ele>
        <time>2021-06-30T02:54:48.908Z</time>
      </trkpt>
      <trkpt lat="48.36108" lon="-4.26324">
        <ele>11.55663735009</ele>
        <time>2021-06-30T02:55:08.906Z</time>
      </trkpt>
      <trkpt lat="48.36113" lon="-4.26309">
        <ele>10.5723662388</ele>
        <time>2021-06-30T02:55:28.906Z</time>
      </trkpt>
      <trkpt lat="48.36139" lon="-4.262">
        <ele>9.51758914353</ele>
        <time>2021-06-30T02:55:48.918Z</time>
      </trkpt>
      <trkpt lat="48.36139" lon="-4.262">
        <ele>8.55335531945</ele>
        <time>2021-06-30T02:56:08.930Z</time>
      </trkpt>
      <trkpt lat="48.36145" lon="-4.26172">
        <ele>7.5972823422</ele>
        <time>2021-06-30T02:56:28.946Z</time>
      </trkpt>
      <trkpt lat="48.36145" lon="-4.26172">
        <ele>6.67184000476</ele>
        <time>2021-06-30T02:56:48.962Z</time>
      </trkpt>
      <trkpt lat="48.36148" lon="-4.26158">
        <ele>5.76242273944</ele>
        <time>2021-06-30T02:57:08.979Z</time>
      </trkpt>
      <trkpt lat="48.36148" lon="-4.26158">
        <ele>4.90285619918</ele>
        <time>2021-06-30T02:57:28.996Z</time>
      </trkpt>
      <trkpt lat="48.36155" lon="-4.26135">
        <ele>4.07689878471</ele>
        <time>2021-06-30T02:57:49.016Z</time>
      </trkpt>
      <trkpt lat="48.36166" lon="-4.2609">
        <ele>3.28597038764</ele>
        <time>2021-06-30T02:58:09.041Z</time>
      </trkpt>
      <trkpt lat="48.36125" lon="-4.26083">
        <ele>2.57895318317</ele>
        <time>2021-06-30T02:58:29.072Z</time>
      </trkpt>
      <trkpt lat="48.36108" lon="-4.26082">
        <ele>1.8988607331</ele>
        <time>2021-06-30T02:58:49.106Z</time>
      </trkpt>
      <trkpt lat="48.3607" lon="-4.26088">
        <ele>1.25385037828</ele>
        <time>2021-06-30T02:59:09.146Z</time>
      </trkpt>
      <trkpt lat="48.36048" lon="-4.26094">
        <ele>0.74202065393</ele>
        <time>2021-06-30T02:59:29.190Z</time>
      </trkpt>
      <trkpt lat="48.36048" lon="-4.26094">
        <ele>0.30694635745</ele>
        <time>2021-06-30T02:59:49.234Z</time>
      </trkpt>
      <trkpt lat="48.36015" lon="-4.26098">
        <ele>-0.04889086296</ele>
        <time>2021-06-30T03:00:09.283Z</time>
      </trkpt>
      <trkpt lat="48.36015" lon="-4.26098">
        <ele>-0.30163990648</ele>
        <time>2021-06-30T03:00:29.332Z</time>
      </trkpt>
      <trkpt lat="48.36006" lon="-4.261">
        <ele>-0.44354098587</ele>
        <time>2021-06-30T03:00:49.383Z</time>
      </trkpt>
      <trkpt lat="48.36006" lon="-4.261">
        <ele>-0.48739448094</ele>
        <time>2021-06-30T03:01:09.434Z</time>
      </trkpt>
      <trkpt lat="48.35975" lon="-4.2611">
        <ele>-0.42387422549</ele>
        <time>2021-06-30T03:01:29.490Z</time>
      </trkpt>
      <trkpt lat="48.35942" lon="-4.26125">
        <ele>-0.27140712674</ele>
        <time>2021-06-30T03:01:49.551Z</time>
      </trkpt>
      <trkpt lat="48.35922" lon="-4.26136">
        <ele>0.06973577831</ele>
        <time>2021-06-30T03:02:09.616Z</time>
      </trkpt>
      <trkpt lat="48.35916" lon="-4.26135">
        <ele>0.53847660808</ele>
        <time>2021-06-30T03:02:29.682Z</time>
      </trkpt>
      <trkpt lat="48.35915" lon="-4.2613">
        <ele>1.13723616356</ele>
        <time>2021-06-30T03:02:49.748Z</time>
      </trkpt>
      <trkpt lat="48.3591" lon="-4.26128">
        <ele>1.87745770211</ele>
        <time>2021-06-30T03:03:09.815Z</time>
      </trkpt>
      <trkpt lat="48.35909" lon="-4.2612">
        <ele>2.75624460203</ele>
        <time>2021-06-30T03:03:29.883Z</time>
      </trkpt>
      <trkpt lat="48.35909" lon="-4.2612">
        <ele>3.76057550121</ele>
        <time>2021-06-30T03:03:49.951Z</time>
      </trkpt>
      <trkpt lat="48.35912" lon="-4.26057">
        <ele>4.98036003024</ele>
        <time>2021-06-30T03:04:10.026Z</time>
      </trkpt>
      <trkpt lat="48.35912" lon="-4.26057">
        <ele>6.25380901182</ele>
        <time>2021-06-30T03:04:30.101Z</time>
      </trkpt>
      <trkpt lat="48.35917" lon="-4.25988">
        <ele>7.72343156879</ele>
        <time>2021-06-30T03:04:50.183Z</time>
      </trkpt>
      <trkpt lat="48.35907" lon="-4.25986">
        <ele>9.23851386774</ele>
        <time>2021-06-30T03:05:10.267Z</time>
      </trkpt>
      <trkpt lat="48.35853" lon="-4.25976">
        <ele>10.90481210893</ele>
        <time>2021-06-30T03:05:30.359Z</time>
      </trkpt>
      <trkpt lat="48.35824" lon="-4.25961">
        <ele>12.6569645868</ele>
        <time>2021-06-30T03:05:50.456Z</time>
      </trkpt>
      <trkpt lat="48.35771" lon="-4.25924">
        <ele>14.60325488907</ele>
        <time>2021-06-30T03:06:10.563Z</time>
      </trkpt>
      <trkpt lat="48.35757" lon="-4.25908">
        <ele>16.49099049361</ele>
        <time>2021-06-30T03:06:30.672Z</time>
      </trkpt>
      <trkpt lat="48.35713" lon="-4.25866">
        <ele>18.46799876522</ele>
        <time>2021-06-30T03:06:50.790Z</time>
      </trkpt>
      <trkpt lat="48.35671" lon="-4.25829">
        <ele>20.4668997886</ele>
        <time>2021-06-30T03:07:10.915Z</time>
      </trkpt>
      <trkpt lat="48.35671" lon="-4.25829">
        <ele>22.36679158801</ele>
        <time>2021-06-30T03:07:31.040Z</time>
      </trkpt>
      <trkpt lat="48.35575" lon="-4.25742">
        <ele>24.35629566674</ele>
        <time>2021-06-30T03:07:51.183Z</time>
      </trkpt>
      <trkpt lat="48.35531" lon="-4.25702">
        <ele>26.26032734033</ele>
        <time>2021-06-30T03:08:11.335Z</time>
      </trkpt>
      <trkpt lat="48.35463" lon="-4.25638">
        <ele>28.24826739961</ele>
        <time>2021-06-30T03:08:31.500Z</time>
      </trkpt>
      <trkpt lat="48.35463" lon="-4.25638">
        <ele>29.94043284225</ele>
        <time>2021-06-30T03:08:51.665Z</time>
      </trkpt>
      <trkpt lat="48.35419" lon="-4.256">
        <ele>31.60233914886</ele>
        <time>2021-06-30T03:09:11.838Z</time>
      </trkpt>
      <trkpt lat="48.35393" lon="-4.25583">
        <ele>33.14799446628</ele>
        <time>2021-06-30T03:09:32.015Z</time>
      </trkpt>
      <trkpt lat="48.35375" lon="-4.25571">
        <ele>34.55597291605</ele>
        <time>2021-06-30T03:09:52.195Z</time>
      </trkpt>
      <trkpt lat="48.3535" lon="-4.25553">
        <ele>35.8486413562</ele>
        <time>2021-06-30T03:10:12.380Z</time>
      </trkpt>
      <trkpt lat="48.35323" lon="-4.25535">
        <ele>37.02988464545</ele>
        <time>2021-06-30T03:10:32.569Z</time>
      </trkpt>
      <trkpt lat="48.35318" lon="-4.25542">
        <ele>38.07144429706</ele>
        <time>2021-06-30T03:10:52.760Z</time>
      </trkpt>
      <trkpt lat="48.3531" lon="-4.25541">
        <ele>39.02543733054</ele>
        <time>2021-06-30T03:11:12.952Z</time>
      </trkpt>
      <trkpt lat="48.35306" lon="-4.25534">
        <ele>39.8858027603</ele>
        <time>2021-06-30T03:11:33.145Z</time>
      </trkpt>
      <trkpt lat="48.35306" lon="-4.25522">
        <ele>40.67329952616</ele>
        <time>2021-06-30T03:11:53.339Z</time>
      </trkpt>
      <trkpt lat="48.35287" lon="-4.25509">
        <ele>41.40583596599</ele>
        <time>2021-06-30T03:12:13.537Z</time>
      </trkpt>
      <trkpt lat="48.35224" lon="-4.25472">
        <ele>42.05002396003</ele>
        <time>2021-06-30T03:12:33.745Z</time>
      </trkpt>
      <trkpt lat="48.35188" lon="-4.25457">
        <ele>42.72227487824</ele>
        <time>2021-06-30T03:12:53.959Z</time>
      </trkpt>
      <trkpt lat="48.35165" lon="-4.25452">
        <ele>43.34296733883</ele>
        <time>2021-06-30T03:13:14.177Z</time>
      </trkpt>
      <trkpt lat="48.35131" lon="-4.25452">
        <ele>43.90833391319</ele>
        <time>2021-06-30T03:13:34.400Z</time>
      </trkpt>
      <trkpt lat="48.35107" lon="-4.25458">
        <ele>44.48703326839</ele>
        <time>2021-06-30T03:13:54.627Z</time>
      </trkpt>
      <trkpt lat="48.35082" lon="-4.25468">
        <ele>45.04450876425</ele>
        <time>2021-06-30T03:14:14.859Z</time>
      </trkpt>
      <trkpt lat="48.35054" lon="-4.25483">
        <ele>45.62457747879</ele>
        <time>2021-06-30T03:14:35.095Z</time>
      </trkpt>
      <trkpt lat="48.34963" lon="-4.25538">
        <ele>46.28025366322</ele>
        <time>2021-06-30T03:14:55.347Z</time>
      </trkpt>
      <trkpt lat="48.3491" lon="-4.25572">
        <ele>46.78877794677</ele>
        <time>2021-06-30T03:15:15.608Z</time>
      </trkpt>
      <trkpt lat="48.34897" lon="-4.25583">
        <ele>47.31184805814</ele>
        <time>2021-06-30T03:15:35.872Z</time>
      </trkpt>
      <trkpt lat="48.34861" lon="-4.25618">
        <ele>47.84951408027</ele>
        <time>2021-06-30T03:15:56.143Z</time>
      </trkpt>
      <trkpt lat="48.3483" lon="-4.25655">
        <ele>48.35134971796</ele>
        <time>2021-06-30T03:16:16.420Z</time>
      </trkpt>
      <trkpt lat="48.34782" lon="-4.25711">
        <ele>48.83352227267</ele>
        <time>2021-06-30T03:16:36.707Z</time>
      </trkpt>
      <trkpt lat="48.34751" lon="-4.25737">
        <ele>49.28096473485</ele>
        <time>2021-06-30T03:16:56.999Z</time>
      </trkpt>
      <trkpt lat="48.34702" lon="-4.25774">
        <ele>49.7829169434</ele>
        <time>2021-06-30T03:17:17.300Z</time>
      </trkpt>
      <trkpt lat="48.34684" lon="-4.25788">
        <ele>50.08854024678</ele>
        <time>2021-06-30T03:17:37.604Z</time>
      </trkpt>
      <trkpt lat="48.34606" lon="-4.2584">
        <ele>50.22101924833</ele>
        <time>2021-06-30T03:17:57.922Z</time>
      </trkpt>
      <trkpt lat="48.34568" lon="-4.25854">
        <ele>50.30597460438</ele>
        <time>2021-06-30T03:18:18.246Z</time>
      </trkpt>
      <trkpt lat="48.34568" lon="-4.25854">
        <ele>50.3425406879</ele>
        <time>2021-06-30T03:18:38.570Z</time>
      </trkpt>
      <trkpt lat="48.34564" lon="-4.25855">
        <ele>50.32311061408</ele>
        <time>2021-06-30T03:18:58.895Z</time>
      </trkpt>
      <trkpt lat="48.34233" lon="-4.25922">
        <ele>49.76899283462</ele>
        <time>2021-06-30T03:19:19.273Z</time>
      </trkpt>
      <trkpt lat="48.34161" lon="-4.25935">
        <ele>49.66642224729</ele>
        <time>2021-06-30T03:19:39.663Z</time>
      </trkpt>
      <trkpt lat="48.34084" lon="-4.2595">
        <ele>49.62120576681</ele>
        <time>2021-06-30T03:20:00.065Z</time>
      </trkpt>
      <trkpt lat="48.34056" lon="-4.25952">
        <ele>49.53871724208</ele>
        <time>2021-06-30T03:20:20.472Z</time>
      </trkpt>
      <trkpt lat="48.34036" lon="-4.25949">
        <ele>49.43862883217</ele>
        <time>2021-06-30T03:20:40.882Z</time>
      </trkpt>
      <trkpt lat="48.34008" lon="-4.25934">
        <ele>49.32173550855</ele>
        <time>2021-06-30T03:21:01.297Z</time>
      </trkpt>
      <trkpt lat="48.34008" lon="-4.25934">
        <ele>49.19584439734</ele>
        <time>2021-06-30T03:21:21.712Z</time>
      </trkpt>
      <trkpt lat="48.33956" lon="-4.25893">
        <ele>49.07873017259</ele>
        <time>2021-06-30T03:21:42.136Z</time>
      </trkpt>
      <trkpt lat="48.33947" lon="-4.25884">
        <ele>48.93224113743</ele>
        <time>2021-06-30T03:22:02.562Z</time>
      </trkpt>
      <trkpt lat="48.33892" lon="-4.25836">
        <ele>48.70148605397</ele>
        <time>2021-06-30T03:22:22.998Z</time>
      </trkpt>
      <trkpt lat="48.33869" lon="-4.25812">
        <ele>48.41823010385</ele>
        <time>2021-06-30T03:22:43.439Z</time>
      </trkpt>
      <trkpt lat="48.33786" lon="-4.25736">
        <ele>48.15092252483</ele>
        <time>2021-06-30T03:23:03.895Z</time>
      </trkpt>
      <trkpt lat="48.33757" lon="-4.25711">
        <ele>47.88141081352</ele>
        <time>2021-06-30T03:23:24.357Z</time>
      </trkpt>
      <trkpt lat="48.33688" lon="-4.25648">
        <ele>47.59591420738</ele>
        <time>2021-06-30T03:23:44.831Z</time>
      </trkpt>
      <trkpt lat="48.3355" lon="-4.25526">
        <ele>47.35669631979</ele>
        <time>2021-06-30T03:24:05.331Z</time>
      </trkpt>
      <trkpt lat="48.33525" lon="-4.25507">
        <ele>46.81888907958</ele>
        <time>2021-06-30T03:24:25.836Z</time>
      </trkpt>
      <trkpt lat="48.33505" lon="-4.25494">
        <ele>46.13322771329</ele>
        <time>2021-06-30T03:24:46.344Z</time>
      </trkpt>
      <trkpt lat="48.33474" lon="-4.25479">
        <ele>45.25101380667</ele>
        <time>2021-06-30T03:25:06.857Z</time>
      </trkpt>
      <trkpt lat="48.3341" lon="-4.25455">
        <ele>44.02155538876</ele>
        <time>2021-06-30T03:25:27.381Z</time>
      </trkpt>
      <trkpt lat="48.3341" lon="-4.25455">
        <ele>42.84978980469</ele>
        <time>2021-06-30T03:25:47.905Z</time>
      </trkpt>
      <trkpt lat="48.33382" lon="-4.25443">
        <ele>41.41190928456</ele>
        <time>2021-06-30T03:26:08.433Z</time>
      </trkpt>
      <trkpt lat="48.33355" lon="-4.25425">
        <ele>39.84519978241</ele>
        <time>2021-06-30T03:26:28.966Z</time>
      </trkpt>
      <trkpt lat="48.33334" lon="-4.25405">
        <ele>38.17585940293</ele>
        <time>2021-06-30T03:26:49.503Z</time>
      </trkpt>
      <trkpt lat="48.33322" lon="-4.25388">
        <ele>36.37514441444</ele>
        <time>2021-06-30T03:27:10.043Z</time>
      </trkpt>
      <trkpt lat="48.33319" lon="-4.25382">
        <ele>34.47795417515</ele>
        <time>2021-06-30T03:27:30.584Z</time>
      </trkpt>
      <trkpt lat="48.33308" lon="-4.25359">
        <ele>32.45347925368</ele>
        <time>2021-06-30T03:27:51.128Z</time>
      </trkpt>
      <trkpt lat="48.33301" lon="-4.25335">
        <ele>30.31694920208</ele>
        <time>2021-06-30T03:28:11.675Z</time>
      </trkpt>
      <trkpt lat="48.33256" lon="-4.25172">
        <ele>27.90757228857</ele>
        <time>2021-06-30T03:28:32.240Z</time>
      </trkpt>
      <trkpt lat="48.33244" lon="-4.25127">
        <ele>25.66147134533</ele>
        <time>2021-06-30T03:28:52.811Z</time>
      </trkpt>
      <trkpt lat="48.3319" lon="-4.24933">
        <ele>23.24736614211</ele>
        <time>2021-06-30T03:29:13.404Z</time>
      </trkpt>
      <trkpt lat="48.3319" lon="-4.24933">
        <ele>20.9775790455</ele>
        <time>2021-06-30T03:29:33.997Z</time>
      </trkpt>
      <trkpt lat="48.33115" lon="-4.24655">
        <ele>18.32413482957</ele>
        <time>2021-06-30T03:29:54.622Z</time>
      </trkpt>
      <trkpt lat="48.33115" lon="-4.24655">
        <ele>16.15783610655</ele>
        <time>2021-06-30T03:30:15.247Z</time>
      </trkpt>
      <trkpt lat="48.33069" lon="-4.2448">
        <ele>14.05786685139</ele>
        <time>2021-06-30T03:30:35.892Z</time>
      </trkpt>
      <trkpt lat="48.33064" lon="-4.24466">
        <ele>12.12439163401</ele>
        <time>2021-06-30T03:30:56.539Z</time>
      </trkpt>
      <trkpt lat="48.33043" lon="-4.24427">
        <ele>10.3412255436</ele>
        <time>2021-06-30T03:31:17.191Z</time>
      </trkpt>
      <trkpt lat="48.33025" lon="-4.24401">
        <ele>8.65577051812</ele>
        <time>2021-06-30T03:31:37.847Z</time>
      </trkpt>
      <trkpt lat="48.32981" lon="-4.24347">
        <ele>7.07602500415</ele>
        <time>2021-06-30T03:31:58.512Z</time>
      </trkpt>
      <trkpt lat="48.32965" lon="-4.24319">
        <ele>5.81973092069</ele>
        <time>2021-06-30T03:32:19.181Z</time>
      </trkpt>
      <trkpt lat="48.32947" lon="-4.24302">
        <ele>4.80426141787</ele>
        <time>2021-06-30T03:32:39.854Z</time>
      </trkpt>
      <trkpt lat="48.32894" lon="-4.24237">
        <ele>3.95927793551</ele>
        <time>2021-06-30T03:33:00.537Z</time>
      </trkpt>
      <trkpt lat="48.32894" lon="-4.24237">
        <ele>3.36158053035</ele>
        <time>2021-06-30T03:33:21.220Z</time>
      </trkpt>
      <trkpt lat="48.32887" lon="-4.24228">
        <ele>2.98190254372</ele>
        <time>2021-06-30T03:33:41.905Z</time>
      </trkpt>
      <trkpt lat="48.32887" lon="-4.24228">
        <ele>2.83193818113</ele>
        <time>2021-06-30T03:34:02.590Z</time>
      </trkpt>
      <trkpt lat="48.32847" lon="-4.2418">
        <ele>2.89049401374</ele>
        <time>2021-06-30T03:34:23.283Z</time>
      </trkpt>
      <trkpt lat="48.32837" lon="-4.24168">
        <ele>3.17713649792</ele>
        <time>2021-06-30T03:34:43.978Z</time>
      </trkpt>
      <trkpt lat="48.32775" lon="-4.24084">
        <ele>3.78147274947</ele>
        <time>2021-06-30T03:35:04.687Z</time>
      </trkpt>
      <trkpt lat="48.32775" lon="-4.24084">
        <ele>4.46937109325</ele>
        <time>2021-06-30T03:35:25.396Z</time>
      </trkpt>
      <trkpt lat="48.32767" lon="-4.24068">
        <ele>5.38105904007</ele>
        <time>2021-06-30T03:35:46.107Z</time>
      </trkpt>
      <trkpt lat="48.32752" lon="-4.24008">
        <ele>6.52174179984</ele>
        <time>2021-06-30T03:36:06.825Z</time>
      </trkpt>
      <trkpt lat="48.32752" lon="-4.24008">
        <ele>7.71837402509</ele>
        <time>2021-06-30T03:36:27.543Z</time>
      </trkpt>
      <trkpt lat="48.32743" lon="-4.23969">
        <ele>9.03780623985</ele>
        <time>2021-06-30T03:36:48.265Z</time>
      </trkpt>
      <trkpt lat="48.32732" lon="-4.23919">
        <ele>10.51174479895</ele>
        <time>2021-06-30T03:37:08.993Z</time>
      </trkpt>
      <trkpt lat="48.32731" lon="-4.23904">
        <ele>12.10793579327</ele>
        <time>2021-06-30T03:37:29.722Z</time>
      </trkpt>
      <trkpt lat="48.32718" lon="-4.23863">
        <ele>13.83893631977</ele>
        <time>2021-06-30T03:37:50.456Z</time>
      </trkpt>
      <trkpt lat="48.32714" lon="-4.23837">
        <ele>15.64951032367</ele>
        <time>2021-06-30T03:38:11.193Z</time>
      </trkpt>
      <trkpt lat="48.32711" lon="-4.23806">
        <ele>17.53675342651</ele>
        <time>2021-06-30T03:38:31.933Z</time>
      </trkpt>
      <trkpt lat="48.32711" lon="-4.2379">
        <ele>19.4597321925</ele>
        <time>2021-06-30T03:38:52.675Z</time>
      </trkpt>
      <trkpt lat="48.32722" lon="-4.23597">
        <ele>21.63163997707</ele>
        <time>2021-06-30T03:39:13.438Z</time>
      </trkpt>
      <trkpt lat="48.32722" lon="-4.23573">
        <ele>23.59244095905</ele>
        <time>2021-06-30T03:39:34.203Z</time>
      </trkpt>
      <trkpt lat="48.32719" lon="-4.23555">
        <ele>25.53604897889</ele>
        <time>2021-06-30T03:39:54.970Z</time>
      </trkpt>
      <trkpt lat="48.32715" lon="-4.23537">
        <ele>27.43846815886</ele>
        <time>2021-06-30T03:40:15.739Z</time>
      </trkpt>
      <trkpt lat="48.32708" lon="-4.23515">
        <ele>29.31292622861</ele>
        <time>2021-06-30T03:40:36.511Z</time>
      </trkpt>
      <trkpt lat="48.327" lon="-4.23497">
        <ele>31.13088671049</ele>
        <time>2021-06-30T03:40:57.285Z</time>
      </trkpt>
      <trkpt lat="48.32686" lon="-4.23477">
        <ele>32.86812684699</ele>
        <time>2021-06-30T03:41:18.062Z</time>
      </trkpt>
      <trkpt lat="48.32646" lon="-4.23445">
        <ele>34.46015709119</ele>
        <time>2021-06-30T03:41:38.847Z</time>
      </trkpt>
      <trkpt lat="48.32625" lon="-4.23429">
        <ele>35.91910462492</ele>
        <time>2021-06-30T03:41:59.635Z</time>
      </trkpt>
      <trkpt lat="48.32608" lon="-4.23408">
        <ele>37.26415691674</ele>
        <time>2021-06-30T03:42:20.427Z</time>
      </trkpt>
      <trkpt lat="48.32595" lon="-4.23386">
        <ele>38.47209445968</ele>
        <time>2021-06-30T03:42:41.222Z</time>
      </trkpt>
      <trkpt lat="48.32583" lon="-4.23352">
        <ele>39.55185144851</ele>
        <time>2021-06-30T03:43:02.021Z</time>
      </trkpt>
      <trkpt lat="48.32579" lon="-4.23331">
        <ele>40.44320509118</ele>
        <time>2021-06-30T03:43:22.822Z</time>
      </trkpt>
      <trkpt lat="48.32572" lon="-4.23246">
        <ele>41.16845080553</ele>
        <time>2021-06-30T03:43:43.633Z</time>
      </trkpt>
      <trkpt lat="48.32572" lon="-4.23246">
        <ele>41.70073415373</ele>
        <time>2021-06-30T03:44:04.444Z</time>
      </trkpt>
      <trkpt lat="48.32562" lon="-4.23097">
        <ele>42.07807243458</ele>
        <time>2021-06-30T03:44:25.271Z</time>
      </trkpt>
      <trkpt lat="48.32546" lon="-4.22951">
        <ele>42.32537433071</ele>
        <time>2021-06-30T03:44:46.113Z</time>
      </trkpt>
      <trkpt lat="48.32546" lon="-4.22947">
        <ele>42.32126941938</ele>
        <time>2021-06-30T03:45:06.956Z</time>
      </trkpt>
      <trkpt lat="48.32546" lon="-4.22947">
        <ele>42.1366174869</ele>
        <time>2021-06-30T03:45:27.799Z</time>
      </trkpt>
      <trkpt lat="48.32535" lon="-4.22875">
        <ele>41.76296389371</ele>
        <time>2021-06-30T03:45:48.650Z</time>
      </trkpt>
      <trkpt lat="48.32528" lon="-4.22833">
        <ele>41.24968362296</ele>
        <time>2021-06-30T03:46:09.505Z</time>
      </trkpt>
      <trkpt lat="48.32519" lon="-4.22792">
        <ele>40.54232296115</ele>
        <time>2021-06-30T03:46:30.365Z</time>
      </trkpt>
      <trkpt lat="48.32509" lon="-4.22764">
        <ele>39.6761488779</ele>
        <time>2021-06-30T03:46:51.228Z</time>
      </trkpt>
      <trkpt lat="48.32498" lon="-4.2274">
        <ele>38.64721486015</ele>
        <time>2021-06-30T03:47:12.094Z</time>
      </trkpt>
      <trkpt lat="48.32472" lon="-4.22701">
        <ele>37.45986397148</ele>
        <time>2021-06-30T03:47:32.966Z</time>
      </trkpt>
      <trkpt lat="48.32452" lon="-4.22681">
        <ele>36.20589844297</ele>
        <time>2021-06-30T03:47:53.842Z</time>
      </trkpt>
      <trkpt lat="48.32433" lon="-4.22665">
        <ele>34.89919026447</ele>
        <time>2021-06-30T03:48:14.722Z</time>
      </trkpt>
      <trkpt lat="48.32416" lon="-4.22656">
        <ele>33.51702471258</ele>
        <time>2021-06-30T03:48:35.605Z</time>
      </trkpt>
      <trkpt lat="48.32373" lon="-4.2264">
        <ele>32.07070366153</ele>
        <time>2021-06-30T03:48:56.495Z</time>
      </trkpt>
      <trkpt lat="48.32301" lon="-4.22628">
        <ele>30.63866836895</ele>
        <time>2021-06-30T03:49:17.396Z</time>
      </trkpt>
      <trkpt lat="48.32301" lon="-4.22628">
        <ele>29.26493905475</ele>
        <time>2021-06-30T03:49:38.297Z</time>
      </trkpt>
      <trkpt lat="48.3225" lon="-4.22627">
        <ele>27.85537386261</ele>
        <time>2021-06-30T03:49:59.206Z</time>
      </trkpt>
      <trkpt lat="48.3223" lon="-4.22629">
        <ele>26.56127144989</ele>
        <time>2021-06-30T03:50:20.119Z</time>
      </trkpt>
      <trkpt lat="48.32195" lon="-4.22638">
        <ele>25.30559673011</ele>
        <time>2021-06-30T03:50:41.037Z</time>
      </trkpt>
      <trkpt lat="48.32122" lon="-4.22662">
        <ele>24.04654289091</ele>
        <time>2021-06-30T03:51:01.967Z</time>
      </trkpt>
      <trkpt lat="48.32122" lon="-4.22662">
        <ele>23.01818843897</ele>
        <time>2021-06-30T03:51:22.897Z</time>
      </trkpt>
      <trkpt lat="48.32016" lon="-4.227">
        <ele>21.94945283245</ele>
        <time>2021-06-30T03:51:43.845Z</time>
      </trkpt>
      <trkpt lat="48.31921" lon="-4.22735">
        <ele>21.19683605445</ele>
        <time>2021-06-30T03:52:04.808Z</time>
      </trkpt>
      <trkpt lat="48.31888" lon="-4.2275">
        <ele>20.58012376489</ele>
        <time>2021-06-30T03:52:25.777Z</time>
      </trkpt>
      <trkpt lat="48.31843" lon="-4.22776">
        <ele>20.0642239013</ele>
        <time>2021-06-30T03:52:46.754Z</time>
      </trkpt>
      <trkpt lat="48.31826" lon="-4.22783">
        <ele>19.69319534058</ele>
        <time>2021-06-30T03:53:07.733Z</time>
      </trkpt>
      <trkpt lat="48.31812" lon="-4.22785">
        <ele>19.44987497854</ele>
        <time>2021-06-30T03:53:28.715Z</time>
      </trkpt>
      <trkpt lat="48.31788" lon="-4.22785">
        <ele>19.35128661239</ele>
        <time>2021-06-30T03:53:49.701Z</time>
      </trkpt>
      <trkpt lat="48.31756" lon="-4.22783">
        <ele>19.35924792707</ele>
        <time>2021-06-30T03:54:10.692Z</time>
      </trkpt>
      <trkpt lat="48.3172" lon="-4.22791">
        <ele>19.52292162197</ele>
        <time>2021-06-30T03:54:31.689Z</time>
      </trkpt>
      <trkpt lat="48.31703" lon="-4.22801">
        <ele>19.73734003044</ele>
        <time>2021-06-30T03:54:52.688Z</time>
      </trkpt>
      <trkpt lat="48.31622" lon="-4.22877">
        <ele>20.06426069772</ele>
        <time>2021-06-30T03:55:13.703Z</time>
      </trkpt>
      <trkpt lat="48.31606" lon="-4.22887">
        <ele>20.38587245431</ele>
        <time>2021-06-30T03:55:34.721Z</time>
      </trkpt>
      <trkpt lat="48.31582" lon="-4.22894">
        <ele>20.76743187123</ele>
        <time>2021-06-30T03:55:55.742Z</time>
      </trkpt>
      <trkpt lat="48.31564" lon="-4.22893">
        <ele>21.12153448506</ele>
        <time>2021-06-30T03:56:16.766Z</time>
      </trkpt>
      <trkpt lat="48.31536" lon="-4.22884">
        <ele>21.48376825802</ele>
        <time>2021-06-30T03:56:37.795Z</time>
      </trkpt>
      <trkpt lat="48.31521" lon="-4.22872">
        <ele>21.75031510052</ele>
        <time>2021-06-30T03:56:58.827Z</time>
      </trkpt>
      <trkpt lat="48.31511" lon="-4.22861">
        <ele>21.95448134069</ele>
        <time>2021-06-30T03:57:19.861Z</time>
      </trkpt>
      <trkpt lat="48.31495" lon="-4.22835">
        <ele>22.05852672088</ele>
        <time>2021-06-30T03:57:40.898Z</time>
      </trkpt>
      <trkpt lat="48.31493" lon="-4.22832">
        <ele>22.10212456681</ele>
        <time>2021-06-30T03:58:01.936Z</time>
      </trkpt>
      <trkpt lat="48.31482" lon="-4.22804">
        <ele>22.07196926718</ele>
        <time>2021-06-30T03:58:22.977Z</time>
      </trkpt>
      <trkpt lat="48.31477" lon="-4.22779">
        <ele>21.96288213458</ele>
        <time>2021-06-30T03:58:44.021Z</time>
      </trkpt>
      <trkpt lat="48.31462" lon="-4.22671">
        <ele>21.81544802848</ele>
        <time>2021-06-30T03:59:05.077Z</time>
      </trkpt>
      <trkpt lat="48.31458" lon="-4.22619">
        <ele>21.53548792868</ele>
        <time>2021-06-30T03:59:26.138Z</time>
      </trkpt>
      <trkpt lat="48.31456" lon="-4.22575">
        <ele>21.1719805942</ele>
        <time>2021-06-30T03:59:47.204Z</time>
      </trkpt>
      <trkpt lat="48.31464" lon="-4.22194">
        <ele>20.60511116657</ele>
        <time>2021-06-30T04:00:08.311Z</time>
      </trkpt>
      <trkpt lat="48.31463" lon="-4.22127">
        <ele>20.11636320581</ele>
        <time>2021-06-30T04:00:29.425Z</time>
      </trkpt>
      <trkpt lat="48.31463" lon="-4.2211">
        <ele>19.70920719013</ele>
        <time>2021-06-30T04:00:50.541Z</time>
      </trkpt>
      <trkpt lat="48.31459" lon="-4.22056">
        <ele>19.27685161774</ele>
        <time>2021-06-30T04:01:11.663Z</time>
      </trkpt>
      <trkpt lat="48.31449" lon="-4.21993">
        <ele>18.90938848244</ele>
        <time>2021-06-30T04:01:32.792Z</time>
      </trkpt>
      <trkpt lat="48.31444" lon="-4.21968">
        <ele>18.61385344008</ele>
        <time>2021-06-30T04:01:53.923Z</time>
      </trkpt>
      <trkpt lat="48.31364" lon="-4.21605">
        <ele>18.35420345651</ele>
        <time>2021-06-30T04:02:15.095Z</time>
      </trkpt>
      <trkpt lat="48.31347" lon="-4.21516">
        <ele>18.24388547809</ele>
        <time>2021-06-30T04:02:36.277Z</time>
      </trkpt>
      <trkpt lat="48.31312" lon="-4.21257">
        <ele>18.44660051272</ele>
        <time>2021-06-30T04:02:57.487Z</time>
      </trkpt>
      <trkpt lat="48.31294" lon="-4.21142">
        <ele>18.61171155111</ele>
        <time>2021-06-30T04:03:18.710Z</time>
      </trkpt>
      <trkpt lat="48.31273" lon="-4.21006">
        <ele>18.8647000716</ele>
        <time>2021-06-30T04:03:39.948Z</time>
      </trkpt>
      <trkpt lat="48.31262" lon="-4.2095">
        <ele>19.32267914448</ele>
        <time>2021-06-30T04:04:01.192Z</time>
      </trkpt>
      <trkpt lat="48.31247" lon="-4.20882">
        <ele>19.85330513785</ele>
        <time>2021-06-30T04:04:22.444Z</time>
      </trkpt>
      <trkpt lat="48.3124" lon="-4.20832">
        <ele>20.49551053372</ele>
        <time>2021-06-30T04:04:43.701Z</time>
      </trkpt>
      <trkpt lat="48.3124" lon="-4.20832">
        <ele>21.2474601779</ele>
        <time>2021-06-30T04:05:04.958Z</time>
      </trkpt>
      <trkpt lat="48.31237" lon="-4.20811">
        <ele>22.14447747684</ele>
        <time>2021-06-30T04:05:26.217Z</time>
      </trkpt>
      <trkpt lat="48.31236" lon="-4.20791">
        <ele>23.1886552978</ele>
        <time>2021-06-30T04:05:47.479Z</time>
      </trkpt>
      <trkpt lat="48.31237" lon="-4.20773">
        <ele>24.35863972092</ele>
        <time>2021-06-30T04:06:08.742Z</time>
      </trkpt>
      <trkpt lat="48.31254" lon="-4.20698">
        <ele>25.5870986423</ele>
        <time>2021-06-30T04:06:30.014Z</time>
      </trkpt>
      <trkpt lat="48.31258" lon="-4.2067">
        <ele>27.09239253516</ele>
        <time>2021-06-30T04:06:51.289Z</time>
      </trkpt>
      <trkpt lat="48.3126" lon="-4.20642">
        <ele>28.77101444928</ele>
        <time>2021-06-30T04:07:12.567Z</time>
      </trkpt>
      <trkpt lat="48.3126" lon="-4.20618">
        <ele>30.57531665245</ele>
        <time>2021-06-30T04:07:33.848Z</time>
      </trkpt>
      <trkpt lat="48.31258" lon="-4.20592">
        <ele>32.49140878335</ele>
        <time>2021-06-30T04:07:55.131Z</time>
      </trkpt>
      <trkpt lat="48.31246" lon="-4.20545">
        <ele>34.58940420183</ele>
        <time>2021-06-30T04:08:16.420Z</time>
      </trkpt>
      <trkpt lat="48.31235" lon="-4.20514">
        <ele>36.72801892008</ele>
        <time>2021-06-30T04:08:37.713Z</time>
      </trkpt>
      <trkpt lat="48.31212" lon="-4.20464">
        <ele>38.94261664249</ele>
        <time>2021-06-30T04:08:59.012Z</time>
      </trkpt>
      <trkpt lat="48.31157" lon="-4.20332">
        <ele>41.3599963621</ele>
        <time>2021-06-30T04:09:20.328Z</time>
      </trkpt>
      <trkpt lat="48.31146" lon="-4.20298">
        <ele>43.58377754994</ele>
        <time>2021-06-30T04:09:41.648Z</time>
      </trkpt>
      <trkpt lat="48.31136" lon="-4.20261">
        <ele>45.80150349959</ele>
        <time>2021-06-30T04:10:02.972Z</time>
      </trkpt>
      <trkpt lat="48.31128" lon="-4.20237">
        <ele>47.9996132737</ele>
        <time>2021-06-30T04:10:24.299Z</time>
      </trkpt>
      <trkpt lat="48.311" lon="-4.20109">
        <ele>50.21105834723</ele>
        <time>2021-06-30T04:10:45.640Z</time>
      </trkpt>
      <trkpt lat="48.31076" lon="-4.20011">
        <ele>52.39895241253</ele>
        <time>2021-06-30T04:11:06.992Z</time>
      </trkpt>
      <trkpt lat="48.31066" lon="-4.19978">
        <ele>54.2745316184</ele>
        <time>2021-06-30T04:11:28.348Z</time>
      </trkpt>
      <trkpt lat="48.3102" lon="-4.19852">
        <ele>55.9416195091</ele>
        <time>2021-06-30T04:11:49.720Z</time>
      </trkpt>
      <trkpt lat="48.30987" lon="-4.19776">
        <ele>57.27153574263</ele>
        <time>2021-06-30T04:12:11.101Z</time>
      </trkpt>
      <trkpt lat="48.30966" lon="-4.19736">
        <ele>58.42631888238</ele>
        <time>2021-06-30T04:12:32.488Z</time>
      </trkpt>
      <trkpt lat="48.3093" lon="-4.19671">
        <ele>59.3773934407</ele>
        <time>2021-06-30T04:12:53.884Z</time>
      </trkpt>
      <trkpt lat="48.30888" lon="-4.19608">
        <ele>59.96964812012</ele>
        <time>2021-06-30T04:13:15.289Z</time>
      </trkpt>
      <trkpt lat="48.30841" lon="-4.19546">
        <ele>60.2219716094</ele>
        <time>2021-06-30T04:13:36.704Z</time>
      </trkpt>
      <trkpt lat="48.30743" lon="-4.19437">
        <ele>60.23278317682</ele>
        <time>2021-06-30T04:13:58.139Z</time>
      </trkpt>
      <trkpt lat="48.30743" lon="-4.19437">
        <ele>60.0214519576</ele>
        <time>2021-06-30T04:14:19.574Z</time>
      </trkpt>
      <trkpt lat="48.30735" lon="-4.19429">
        <ele>59.54666658335</ele>
        <time>2021-06-30T04:14:41.010Z</time>
      </trkpt>
      <trkpt lat="48.30632" lon="-4.19325">
        <ele>58.71300347432</ele>
        <time>2021-06-30T04:15:02.466Z</time>
      </trkpt>
      <trkpt lat="48.30617" lon="-4.19308">
        <ele>57.76699938611</ele>
        <time>2021-06-30T04:15:23.925Z</time>
      </trkpt>
      <trkpt lat="48.30593" lon="-4.19285">
        <ele>56.60427473815</ele>
        <time>2021-06-30T04:15:45.389Z</time>
      </trkpt>
      <trkpt lat="48.30566" lon="-4.19256">
        <ele>55.27086825505</ele>
        <time>2021-06-30T04:16:06.858Z</time>
      </trkpt>
      <trkpt lat="48.30541" lon="-4.1922">
        <ele>53.82841594542</ele>
        <time>2021-06-30T04:16:28.333Z</time>
      </trkpt>
      <trkpt lat="48.30528" lon="-4.19195">
        <ele>52.29992775764</ele>
        <time>2021-06-30T04:16:49.811Z</time>
      </trkpt>
      <trkpt lat="48.30493" lon="-4.1914">
        <ele>50.63302992301</ele>
        <time>2021-06-30T04:17:11.297Z</time>
      </trkpt>
      <trkpt lat="48.30465" lon="-4.19114">
        <ele>48.87040527333</ele>
        <time>2021-06-30T04:17:32.788Z</time>
      </trkpt>
      <trkpt lat="48.30421" lon="-4.19084">
        <ele>47.01430074043</ele>
        <time>2021-06-30T04:17:54.287Z</time>
      </trkpt>
      <trkpt lat="48.30356" lon="-4.19077">
        <ele>45.23897796882</ele>
        <time>2021-06-30T04:18:15.797Z</time>
      </trkpt>
      <trkpt lat="48.30278" lon="-4.19067">
        <ele>43.45560408927</ele>
        <time>2021-06-30T04:18:37.319Z</time>
      </trkpt>
      <trkpt lat="48.3009" lon="-4.19046">
        <ele>41.48074948564</ele>
        <time>2021-06-30T04:18:58.871Z</time>
      </trkpt>
      <trkpt lat="48.3009" lon="-4.19046">
        <ele>39.77731477726</ele>
        <time>2021-06-30T04:19:20.423Z</time>
      </trkpt>
      <trkpt lat="48.30077" lon="-4.19044">
        <ele>38.10697410965</ele>
        <time>2021-06-30T04:19:41.977Z</time>
      </trkpt>
      <trkpt lat="48.30062" lon="-4.19035">
        <ele>36.48256280187</ele>
        <time>2021-06-30T04:20:03.534Z</time>
      </trkpt>
      <trkpt lat="48.3004" lon="-4.1902">
        <ele>34.92234727993</ele>
        <time>2021-06-30T04:20:25.095Z</time>
      </trkpt>
      <trkpt lat="48.30019" lon="-4.19">
        <ele>33.39433765613</ele>
        <time>2021-06-30T04:20:46.660Z</time>
      </trkpt>
      <trkpt lat="48.29995" lon="-4.18974">
        <ele>31.95841713438</ele>
        <time>2021-06-30T04:21:08.230Z</time>
      </trkpt>
      <trkpt lat="48.2998" lon="-4.18954">
        <ele>30.59568005389</ele>
        <time>2021-06-30T04:21:29.803Z</time>
      </trkpt>
      <trkpt lat="48.29967" lon="-4.18934">
        <ele>29.28775263111</ele>
        <time>2021-06-30T04:21:51.379Z</time>
      </trkpt>
      <trkpt lat="48.29954" lon="-4.18906">
        <ele>28.00175446623</ele>
        <time>2021-06-30T04:22:12.958Z</time>
      </trkpt>
      <trkpt lat="48.29948" lon="-4.18886">
        <ele>26.77031574586</ele>
        <time>2021-06-30T04:22:34.540Z</time>
      </trkpt>
      <trkpt lat="48.29946" lon="-4.18873">
        <ele>25.54307210896</ele>
        <time>2021-06-30T04:22:56.123Z</time>
      </trkpt>
      <trkpt lat="48.29939" lon="-4.18782">
        <ele>24.37112354137</ele>
        <time>2021-06-30T04:23:17.716Z</time>
      </trkpt>
      <trkpt lat="48.29937" lon="-4.18768">
        <ele>23.17350060657</ele>
        <time>2021-06-30T04:23:39.310Z</time>
      </trkpt>
      <trkpt lat="48.29927" lon="-4.18618">
        <ele>21.80058254475</ele>
        <time>2021-06-30T04:24:00.921Z</time>
      </trkpt>
      <trkpt lat="48.29919" lon="-4.18566">
        <ele>20.54181603921</ele>
        <time>2021-06-30T04:24:22.537Z</time>
      </trkpt>
      <trkpt lat="48.29911" lon="-4.1852">
        <ele>19.32564871532</ele>
        <time>2021-06-30T04:24:44.158Z</time>
      </trkpt>
      <trkpt lat="48.2988" lon="-4.18411">
        <ele>17.94491146719</ele>
        <time>2021-06-30T04:25:05.792Z</time>
      </trkpt>
      <trkpt lat="48.29858" lon="-4.18343">
        <ele>16.72073701995</ele>
        <time>2021-06-30T04:25:27.434Z</time>
      </trkpt>
      <trkpt lat="48.29858" lon="-4.18343">
        <ele>15.52028653416</ele>
        <time>2021-06-30T04:25:49.076Z</time>
      </trkpt>
      <trkpt lat="48.29834" lon="-4.18272">
        <ele>14.3274146875</ele>
        <time>2021-06-30T04:26:10.727Z</time>
      </trkpt>
      <trkpt lat="48.29822" lon="-4.18238">
        <ele>13.12250247255</ele>
        <time>2021-06-30T04:26:32.382Z</time>
      </trkpt>
      <trkpt lat="48.298" lon="-4.18198">
        <ele>11.90201026718</ele>
        <time>2021-06-30T04:26:54.042Z</time>
      </trkpt>
      <trkpt lat="48.29779" lon="-4.18166">
        <ele>10.77245598418</ele>
        <time>2021-06-30T04:27:15.707Z</time>
      </trkpt>
      <trkpt lat="48.29751" lon="-4.18132">
        <ele>9.6788083553</ele>
        <time>2021-06-30T04:27:37.378Z</time>
      </trkpt>
      <trkpt lat="48.29751" lon="-4.18132">
        <ele>8.74985101653</ele>
        <time>2021-06-30T04:27:59.049Z</time>
      </trkpt>
      <trkpt lat="48.29737" lon="-4.18116">
        <ele>7.86059662828</ele>
        <time>2021-06-30T04:28:20.723Z</time>
      </trkpt>
      <trkpt lat="48.29737" lon="-4.18116">
        <ele>7.1179540695</ele>
        <time>2021-06-30T04:28:42.397Z</time>
      </trkpt>
      <trkpt lat="48.29724" lon="-4.18103">
        <ele>6.45866339784</ele>
        <time>2021-06-30T04:29:04.073Z</time>
      </trkpt>
      <trkpt lat="48.29716" lon="-4.18098">
        <ele>5.92854469677</ele>
        <time>2021-06-30T04:29:25.750Z</time>
      </trkpt>
      <trkpt lat="48.29665" lon="-4.18095">
        <ele>5.40148365068</ele>
        <time>2021-06-30T04:29:47.436Z</time>
      </trkpt>
      <trkpt lat="48.29649" lon="-4.18095">
        <ele>5.10997202552</ele>
        <time>2021-06-30T04:30:09.124Z</time>
      </trkpt>
      <trkpt lat="48.29643" lon="-4.18095">
        <ele>4.9633226913</ele>
        <time>2021-06-30T04:30:30.813Z</time>
      </trkpt>
      <trkpt lat="48.29593" lon="-4.18096">
        <ele>4.97856573256</ele>
        <time>2021-06-30T04:30:52.510Z</time>
      </trkpt>
      <trkpt lat="48.29593" lon="-4.18096">
        <ele>5.09432935967</ele>
        <time>2021-06-30T04:31:14.207Z</time>
      </trkpt>
      <trkpt lat="48.29588" lon="-4.18094">
        <ele>5.34710621293</ele>
        <time>2021-06-30T04:31:35.905Z</time>
      </trkpt>
      <trkpt lat="48.29574" lon="-4.1808">
        <ele>5.76454023703</ele>
        <time>2021-06-30T04:31:57.606Z</time>
      </trkpt>
      <trkpt lat="48.29563" lon="-4.18068">
        <ele>6.24374973581</ele>
        <time>2021-06-30T04:32:19.309Z</time>
      </trkpt>
      <trkpt lat="48.295" lon="-4.17995">
        <ele>6.81073731114</ele>
        <time>2021-06-30T04:32:41.025Z</time>
      </trkpt>
      <trkpt lat="48.29481" lon="-4.17978">
        <ele>7.44151597875</ele>
        <time>2021-06-30T04:33:02.744Z</time>
      </trkpt>
      <trkpt lat="48.29463" lon="-4.17969">
        <ele>8.09675746369</ele>
        <time>2021-06-30T04:33:24.466Z</time>
      </trkpt>
      <trkpt lat="48.29463" lon="-4.17969">
        <ele>8.74906142241</ele>
        <time>2021-06-30T04:33:46.188Z</time>
      </trkpt>
      <trkpt lat="48.29453" lon="-4.17962">
        <ele>9.44354515979</ele>
        <time>2021-06-30T04:34:07.912Z</time>
      </trkpt>
      <trkpt lat="48.29433" lon="-4.17969">
        <ele>10.16470592052</ele>
        <time>2021-06-30T04:34:29.639Z</time>
      </trkpt>
      <trkpt lat="48.29429" lon="-4.17969">
        <ele>10.84631931486</ele>
        <time>2021-06-30T04:34:51.367Z</time>
      </trkpt>
      <trkpt lat="48.29415" lon="-4.17961">
        <ele>11.52996226313</ele>
        <time>2021-06-30T04:35:13.097Z</time>
      </trkpt>
      <trkpt lat="48.2941" lon="-4.17956">
        <ele>12.18304110839</ele>
        <time>2021-06-30T04:35:34.828Z</time>
      </trkpt>
      <trkpt lat="48.29402" lon="-4.17949">
        <ele>12.8033516493</ele>
        <time>2021-06-30T04:35:56.561Z</time>
      </trkpt>
      <trkpt lat="48.29374" lon="-4.17933">
        <ele>13.41188845185</ele>
        <time>2021-06-30T04:36:18.299Z</time>
      </trkpt>
      <trkpt lat="48.29366" lon="-4.1793">
        <ele>13.98809856537</ele>
        <time>2021-06-30T04:36:40.038Z</time>
      </trkpt>
      <trkpt lat="48.29336" lon="-4.17953">
        <ele>14.54533462183</ele>
        <time>2021-06-30T04:37:01.782Z</time>
      </trkpt>
      <trkpt lat="48.29329" lon="-4.17953">
        <ele>15.10156076545</ele>
        <time>2021-06-30T04:37:23.527Z</time>
      </trkpt>
      <trkpt lat="48.29322" lon="-4.17949">
        <ele>15.65374286576</ele>
        <time>2021-06-30T04:37:45.274Z</time>
      </trkpt>
      <trkpt lat="48.29314" lon="-4.17976">
        <ele>16.15335968257</ele>
        <time>2021-06-30T04:38:07.024Z</time>
      </trkpt>
      <trkpt lat="48.29304" lon="-4.18014">
        <ele>16.65930098101</ele>
        <time>2021-06-30T04:38:28.778Z</time>
      </trkpt>
      <trkpt lat="48.29293" lon="-4.18006">
        <ele>17.16727585007</ele>
        <time>2021-06-30T04:38:50.534Z</time>
      </trkpt>
      <trkpt lat="48.29285" lon="-4.17999">
        <ele>17.65928796538</ele>
        <time>2021-06-30T04:39:12.292Z</time>
      </trkpt>
      <trkpt lat="48.29253" lon="-4.18052">
        <ele>18.2173838337</ele>
        <time>2021-06-30T04:39:34.057Z</time>
      </trkpt>
      <trkpt lat="48.29253" lon="-4.18052">
        <ele>18.65849342817</ele>
        <time>2021-06-30T04:39:55.822Z</time>
      </trkpt>
      <trkpt lat="48.29239" lon="-4.18067">
        <ele>19.12198602932</ele>
        <time>2021-06-30T04:40:17.590Z</time>
      </trkpt>
      <trkpt lat="48.2922" lon="-4.18082">
        <ele>19.53234645495</ele>
        <time>2021-06-30T04:40:39.361Z</time>
      </trkpt>
      <trkpt lat="48.29194" lon="-4.18092">
        <ele>19.88350530615</ele>
        <time>2021-06-30T04:41:01.137Z</time>
      </trkpt>
      <trkpt lat="48.29133" lon="-4.18098">
        <ele>20.34403533335</ele>
        <time>2021-06-30T04:41:22.923Z</time>
      </trkpt>
      <trkpt lat="48.29111" lon="-4.18104">
        <ele>20.7375336571</ele>
        <time>2021-06-30T04:41:44.712Z</time>
      </trkpt>
      <trkpt lat="48.29111" lon="-4.18104">
        <ele>21.05501975097</ele>
        <time>2021-06-30T04:42:06.501Z</time>
      </trkpt>
      <trkpt lat="48.29089" lon="-4.18113">
        <ele>21.39777485841</ele>
        <time>2021-06-30T04:42:28.294Z</time>
      </trkpt>
      <trkpt lat="48.29036" lon="-4.1815">
        <ele>21.70100819304</ele>
        <time>2021-06-30T04:42:50.096Z</time>
      </trkpt>
      <trkpt lat="48.29036" lon="-4.1815">
        <ele>21.9787483354</ele>
        <time>2021-06-30T04:43:11.898Z</time>
      </trkpt>
      <trkpt lat="48.29004" lon="-4.1817">
        <ele>22.25414919891</ele>
        <time>2021-06-30T04:43:33.706Z</time>
      </trkpt>
      <trkpt lat="48.28979" lon="-4.18183">
        <ele>22.55911601933</ele>
        <time>2021-06-30T04:43:55.518Z</time>
      </trkpt>
      <trkpt lat="48.28926" lon="-4.18206">
        <ele>22.85933210315</ele>
        <time>2021-06-30T04:44:17.339Z</time>
      </trkpt>
      <trkpt lat="48.28899" lon="-4.1822">
        <ele>23.20456216717</ele>
        <time>2021-06-30T04:44:39.164Z</time>
      </trkpt>
      <trkpt lat="48.28889" lon="-4.18226">
        <ele>23.6052776002</ele>
        <time>2021-06-30T04:45:00.991Z</time>
      </trkpt>
      <trkpt lat="48.28852" lon="-4.1825">
        <ele>24.04158951101</ele>
        <time>2021-06-30T04:45:22.824Z</time>
      </trkpt>
      <trkpt lat="48.28804" lon="-4.18277">
        <ele>24.54098847771</ele>
        <time>2021-06-30T04:45:44.666Z</time>
      </trkpt>
      <trkpt lat="48.28759" lon="-4.18295">
        <ele>25.19064927261</ele>
        <time>2021-06-30T04:46:06.515Z</time>
      </trkpt>
      <trkpt lat="48.28739" lon="-4.18301">
        <ele>25.93361215115</ele>
        <time>2021-06-30T04:46:28.367Z</time>
      </trkpt>
      <trkpt lat="48.28589" lon="-4.18288">
        <ele>26.96273994994</ele>
        <time>2021-06-30T04:46:50.243Z</time>
      </trkpt>
      <trkpt lat="48.28573" lon="-4.18285">
        <ele>27.87583602658</ele>
        <time>2021-06-30T04:47:12.122Z</time>
      </trkpt>
      <trkpt lat="48.28552" lon="-4.18272">
        <ele>28.92374737416</ele>
        <time>2021-06-30T04:47:34.005Z</time>
      </trkpt>
      <trkpt lat="48.28534" lon="-4.1825">
        <ele>30.09543273321</ele>
        <time>2021-06-30T04:47:55.891Z</time>
      </trkpt>
      <trkpt lat="48.28506" lon="-4.18206">
        <ele>31.41827947772</ele>
        <time>2021-06-30T04:48:17.784Z</time>
      </trkpt>
      <trkpt lat="48.28491" lon="-4.18185">
        <ele>32.78663184944</ele>
        <time>2021-06-30T04:48:39.680Z</time>
      </trkpt>
      <trkpt lat="48.28419" lon="-4.18104">
        <ele>34.49736689934</ele>
        <time>2021-06-30T04:49:01.591Z</time>
      </trkpt>
      <trkpt lat="48.28405" lon="-4.18091">
        <ele>36.1211923986</ele>
        <time>2021-06-30T04:49:23.504Z</time>
      </trkpt>
      <trkpt lat="48.28396" lon="-4.18086">
        <ele>37.83530368739</ele>
        <time>2021-06-30T04:49:45.419Z</time>
      </trkpt>
      <trkpt lat="48.28382" lon="-4.18082">
        <ele>39.65280867942</ele>
        <time>2021-06-30T04:50:07.336Z</time>
      </trkpt>
      <trkpt lat="48.28307" lon="-4.18091">
        <ele>41.54926177101</ele>
        <time>2021-06-30T04:50:29.265Z</time>
      </trkpt>
      <trkpt lat="48.28296" lon="-4.18092">
        <ele>43.51623410685</ele>
        <time>2021-06-30T04:50:51.196Z</time>
      </trkpt>
      <trkpt lat="48.28287" lon="-4.18097">
        <ele>45.5747453411</ele>
        <time>2021-06-30T04:51:13.128Z</time>
      </trkpt>
      <trkpt lat="48.28281" lon="-4.18103">
        <ele>47.70259815317</ele>
        <time>2021-06-30T04:51:35.062Z</time>
      </trkpt>
      <trkpt lat="48.28273" lon="-4.18116">
        <ele>49.91793542898</ele>
        <time>2021-06-30T04:51:56.997Z</time>
      </trkpt>
      <trkpt lat="48.28246" lon="-4.18191">
        <ele>52.40516043414</ele>
        <time>2021-06-30T04:52:18.942Z</time>
      </trkpt>
      <trkpt lat="48.28231" lon="-4.18208">
        <ele>54.78708178228</ele>
        <time>2021-06-30T04:52:40.890Z</time>
      </trkpt>
      <trkpt lat="48.28217" lon="-4.18215">
        <ele>57.14223461384</ele>
        <time>2021-06-30T04:53:02.840Z</time>
      </trkpt>
      <trkpt lat="48.28196" lon="-4.18214">
        <ele>59.54034886178</ele>
        <time>2021-06-30T04:53:24.793Z</time>
      </trkpt>
      <trkpt lat="48.28185" lon="-4.18209">
        <ele>61.75707072077</ele>
        <time>2021-06-30T04:53:46.748Z</time>
      </trkpt>
      <trkpt lat="48.28102" lon="-4.1815">
        <ele>63.90717608419</ele>
        <time>2021-06-30T04:54:08.718Z</time>
      </trkpt>
      <trkpt lat="48.28082" lon="-4.18144">
        <ele>65.97864605846</ele>
        <time>2021-06-30T04:54:30.691Z</time>
      </trkpt>
      <trkpt lat="48.28016" lon="-4.18152">
        <ele>68.06072361535</ele>
        <time>2021-06-30T04:54:52.675Z</time>
      </trkpt>
      <trkpt lat="48.27979" lon="-4.18162">
        <ele>69.99150298053</ele>
        <time>2021-06-30T04:55:14.665Z</time>
      </trkpt>
      <trkpt lat="48.27959" lon="-4.18169">
        <ele>71.7914144782</ele>
        <time>2021-06-30T04:55:36.658Z</time>
      </trkpt>
      <trkpt lat="48.27897" lon="-4.18209">
        <ele>73.59138826629</ele>
        <time>2021-06-30T04:55:58.662Z</time>
      </trkpt>
      <trkpt lat="48.27867" lon="-4.18244">
        <ele>75.3652709704</ele>
        <time>2021-06-30T04:56:20.672Z</time>
      </trkpt>
      <trkpt lat="48.27858" lon="-4.18258">
        <ele>76.87725681445</ele>
        <time>2021-06-30T04:56:42.684Z</time>
      </trkpt>
      <trkpt lat="48.27837" lon="-4.18318">
        <ele>78.27861975186</ele>
        <time>2021-06-30T04:57:04.703Z</time>
      </trkpt>
      <trkpt lat="48.27815" lon="-4.18362">
        <ele>79.54325060671</ele>
        <time>2021-06-30T04:57:26.728Z</time>
      </trkpt>
      <trkpt lat="48.27757" lon="-4.18462">
        <ele>80.70129065665</ele>
        <time>2021-06-30T04:57:48.767Z</time>
      </trkpt>
      <trkpt lat="48.27659" lon="-4.18603">
        <ele>81.8119287316</ele>
        <time>2021-06-30T04:58:10.828Z</time>
      </trkpt>
      <trkpt lat="48.27561" lon="-4.18755">
        <ele>82.91200298848</ele>
        <time>2021-06-30T04:58:32.912Z</time>
      </trkpt>
      <trkpt lat="48.27541" lon="-4.18784">
        <ele>83.84107515705</ele>
        <time>2021-06-30T04:58:55.000Z</time>
      </trkpt>
      <trkpt lat="48.27525" lon="-4.18805">
        <ele>84.70867063698</ele>
        <time>2021-06-30T04:59:17.092Z</time>
      </trkpt>
      <trkpt lat="48.27505" lon="-4.18827">
        <ele>85.56431754404</ele>
        <time>2021-06-30T04:59:39.187Z</time>
      </trkpt>
      <trkpt lat="48.27483" lon="-4.1884">
        <ele>86.38546565597</ele>
        <time>2021-06-30T05:00:01.286Z</time>
      </trkpt>
      <trkpt lat="48.27464" lon="-4.18842">
        <ele>87.19745027165</ele>
        <time>2021-06-30T05:00:23.388Z</time>
      </trkpt>
      <trkpt lat="48.2744" lon="-4.18839">
        <ele>88.03395411637</ele>
        <time>2021-06-30T05:00:45.494Z</time>
      </trkpt>
      <trkpt lat="48.27417" lon="-4.18829">
        <ele>88.90043388984</ele>
        <time>2021-06-30T05:01:07.604Z</time>
      </trkpt>
      <trkpt lat="48.27398" lon="-4.18816">
        <ele>89.76941419148</ele>
        <time>2021-06-30T05:01:29.717Z</time>
      </trkpt>
      <trkpt lat="48.27348" lon="-4.18777">
        <ele>90.68082753328</ele>
        <time>2021-06-30T05:01:51.839Z</time>
      </trkpt>
      <trkpt lat="48.27316" lon="-4.18759">
        <ele>91.75535541347</ele>
        <time>2021-06-30T05:02:13.967Z</time>
      </trkpt>
      <trkpt lat="48.27286" lon="-4.18752">
        <ele>92.84841149538</ele>
        <time>2021-06-30T05:02:36.100Z</time>
      </trkpt>
      <trkpt lat="48.27265" lon="-4.18756">
        <ele>93.93668984477</ele>
        <time>2021-06-30T05:02:58.236Z</time>
      </trkpt>
      <trkpt lat="48.27254" lon="-4.18763">
        <ele>95.06740424039</ele>
        <time>2021-06-30T05:03:20.374Z</time>
      </trkpt>
      <trkpt lat="48.27243" lon="-4.18769">
        <ele>96.27893344575</ele>
        <time>2021-06-30T05:03:42.514Z</time>
      </trkpt>
      <trkpt lat="48.27231" lon="-4.18782">
        <ele>97.59286423474</ele>
        <time>2021-06-30T05:04:04.656Z</time>
      </trkpt>
      <trkpt lat="48.27206" lon="-4.18814">
        <ele>99.04328316991</ele>
        <time>2021-06-30T05:04:26.803Z</time>
      </trkpt>
      <trkpt lat="48.27105" lon="-4.18981">
        <ele>100.60679591531</ele>
        <time>2021-06-30T05:04:48.975Z</time>
      </trkpt>
      <trkpt lat="48.27072" lon="-4.19026">
        <ele>102.17835718593</ele>
        <time>2021-06-30T05:05:11.154Z</time>
      </trkpt>
      <trkpt lat="48.27072" lon="-4.19026">
        <ele>103.95738447016</ele>
        <time>2021-06-30T05:05:33.333Z</time>
      </trkpt>
      <trkpt lat="48.26996" lon="-4.19114">
        <ele>105.71345043896</ele>
        <time>2021-06-30T05:05:55.527Z</time>
      </trkpt>
      <trkpt lat="48.26975" lon="-4.19133">
        <ele>107.79118432319</ele>
        <time>2021-06-30T05:06:17.725Z</time>
      </trkpt>
      <trkpt lat="48.26958" lon="-4.19143">
        <ele>110.07599602066</ele>
        <time>2021-06-30T05:06:39.926Z</time>
      </trkpt>
      <trkpt lat="48.26923" lon="-4.19154">
        <ele>112.59105323237</ele>
        <time>2021-06-30T05:07:02.133Z</time>
      </trkpt>
      <trkpt lat="48.2678" lon="-4.19183">
        <ele>115.49810611338</ele>
        <time>2021-06-30T05:07:24.363Z</time>
      </trkpt>
      <trkpt lat="48.26749" lon="-4.19196">
        <ele>118.22964674268</ele>
        <time>2021-06-30T05:07:46.598Z</time>
      </trkpt>
      <trkpt lat="48.26732" lon="-4.19208">
        <ele>121.04083748945</ele>
        <time>2021-06-30T05:08:08.836Z</time>
      </trkpt>
      <trkpt lat="48.26704" lon="-4.19235">
        <ele>123.92479920671</ele>
        <time>2021-06-30T05:08:31.079Z</time>
      </trkpt>
      <trkpt lat="48.26643" lon="-4.19322">
        <ele>127.00941187008</ele>
        <time>2021-06-30T05:08:53.336Z</time>
      </trkpt>
      <trkpt lat="48.2662" lon="-4.19343">
        <ele>129.86080735742</ele>
        <time>2021-06-30T05:09:15.597Z</time>
      </trkpt>
      <trkpt lat="48.26476" lon="-4.19425">
        <ele>133.02623159049</ele>
        <time>2021-06-30T05:09:37.883Z</time>
      </trkpt>
      <trkpt lat="48.26476" lon="-4.19425">
        <ele>135.49970081217</ele>
        <time>2021-06-30T05:10:00.169Z</time>
      </trkpt>
      <trkpt lat="48.26471" lon="-4.19428">
        <ele>137.78871362349</ele>
        <time>2021-06-30T05:10:22.456Z</time>
      </trkpt>
      <trkpt lat="48.26433" lon="-4.19438">
        <ele>139.93134146076</ele>
        <time>2021-06-30T05:10:44.749Z</time>
      </trkpt>
      <trkpt lat="48.26383" lon="-4.19437">
        <ele>141.85350958776</ele>
        <time>2021-06-30T05:11:07.050Z</time>
      </trkpt>
      <trkpt lat="48.26381" lon="-4.19462">
        <ele>143.377110291</ele>
        <time>2021-06-30T05:11:29.353Z</time>
      </trkpt>
      <trkpt lat="48.26383" lon="-4.19481">
        <ele>144.61982660129</ele>
        <time>2021-06-30T05:11:51.659Z</time>
      </trkpt>
      <trkpt lat="48.26389" lon="-4.19528">
        <ele>145.55379725279</ele>
        <time>2021-06-30T05:12:13.970Z</time>
      </trkpt>
      <trkpt lat="48.26386" lon="-4.19564">
        <ele>146.23217273158</ele>
        <time>2021-06-30T05:12:36.285Z</time>
      </trkpt>
      <trkpt lat="48.2638" lon="-4.19619">
        <ele>146.6399659041</ele>
        <time>2021-06-30T05:12:58.605Z</time>
      </trkpt>
      <trkpt lat="48.2638" lon="-4.19626">
        <ele>146.87746196873</ele>
        <time>2021-06-30T05:13:20.926Z</time>
      </trkpt>
      <trkpt lat="48.26348" lon="-4.19796">
        <ele>146.82275810026</ele>
        <time>2021-06-30T05:13:43.266Z</time>
      </trkpt>
      <trkpt lat="48.26344" lon="-4.19835">
        <ele>146.7040414714</ele>
        <time>2021-06-30T05:14:05.610Z</time>
      </trkpt>
      <trkpt lat="48.26347" lon="-4.19885">
        <ele>146.47165580504</ele>
        <time>2021-06-30T05:14:27.960Z</time>
      </trkpt>
      <trkpt lat="48.26353" lon="-4.19938">
        <ele>146.17564766595</ele>
        <time>2021-06-30T05:14:50.315Z</time>
      </trkpt>
      <trkpt lat="48.26379" lon="-4.20139">
        <ele>145.68498449898</ele>
        <time>2021-06-30T05:15:12.692Z</time>
      </trkpt>
      <trkpt lat="48.26383" lon="-4.20361">
        <ele>145.30449304555</ele>
        <time>2021-06-30T05:15:35.093Z</time>
      </trkpt>
      <trkpt lat="48.26383" lon="-4.20374">
        <ele>144.92338484461</ele>
        <time>2021-06-30T05:15:57.495Z</time>
      </trkpt>
      <trkpt lat="48.26385" lon="-4.20515">
        <ele>144.52486566404</ele>
        <time>2021-06-30T05:16:19.912Z</time>
      </trkpt>
      <trkpt lat="48.26393" lon="-4.20568">
        <ele>144.29230009338</ele>
        <time>2021-06-30T05:16:42.335Z</time>
      </trkpt>
      <trkpt lat="48.26404" lon="-4.20622">
        <ele>144.16242645582</ele>
        <time>2021-06-30T05:17:04.764Z</time>
      </trkpt>
      <trkpt lat="48.2641" lon="-4.20641">
        <ele>144.12467636051</ele>
        <time>2021-06-30T05:17:27.196Z</time>
      </trkpt>
      <trkpt lat="48.2641" lon="-4.20641">
        <ele>144.11975518784</ele>
        <time>2021-06-30T05:17:49.628Z</time>
      </trkpt>
      <trkpt lat="48.26439" lon="-4.20728">
        <ele>144.36014209359</ele>
        <time>2021-06-30T05:18:12.070Z</time>
      </trkpt>
      <trkpt lat="48.26491" lon="-4.2087">
        <ele>144.51468280613</ele>
        <time>2021-06-30T05:18:34.529Z</time>
      </trkpt>
      <trkpt lat="48.265" lon="-4.20897">
        <ele>144.69942854047</ele>
        <time>2021-06-30T05:18:56.992Z</time>
      </trkpt>
      <trkpt lat="48.26546" lon="-4.21024">
        <ele>144.88337825243</ele>
        <time>2021-06-30T05:19:19.470Z</time>
      </trkpt>
      <trkpt lat="48.26555" lon="-4.21056">
        <ele>145.06764251714</ele>
        <time>2021-06-30T05:19:41.952Z</time>
      </trkpt>
      <trkpt lat="48.26561" lon="-4.21081">
        <ele>145.28755540442</ele>
        <time>2021-06-30T05:20:04.437Z</time>
      </trkpt>
      <trkpt lat="48.26569" lon="-4.21128">
        <ele>145.52949115534</ele>
        <time>2021-06-30T05:20:26.927Z</time>
      </trkpt>
      <trkpt lat="48.26571" lon="-4.21155">
        <ele>145.74105031682</ele>
        <time>2021-06-30T05:20:49.420Z</time>
      </trkpt>
      <trkpt lat="48.26572" lon="-4.21217">
        <ele>145.93022185567</ele>
        <time>2021-06-30T05:21:11.919Z</time>
      </trkpt>
      <trkpt lat="48.2657" lon="-4.21291">
        <ele>145.95736430921</ele>
        <time>2021-06-30T05:21:34.426Z</time>
      </trkpt>
      <trkpt lat="48.2657" lon="-4.21291">
        <ele>145.78399101006</ele>
        <time>2021-06-30T05:21:56.933Z</time>
      </trkpt>
      <trkpt lat="48.2657" lon="-4.21299">
        <ele>145.64912007347</ele>
        <time>2021-06-30T05:22:19.441Z</time>
      </trkpt>
      <trkpt lat="48.26569" lon="-4.21319">
        <ele>145.47331618161</ele>
        <time>2021-06-30T05:22:41.951Z</time>
      </trkpt>
      <trkpt lat="48.26565" lon="-4.21481">
        <ele>145.29481018546</ele>
        <time>2021-06-30T05:23:04.479Z</time>
      </trkpt>
      <trkpt lat="48.26569" lon="-4.21523">
        <ele>145.01265161394</ele>
        <time>2021-06-30T05:23:27.011Z</time>
      </trkpt>
      <trkpt lat="48.26569" lon="-4.21528">
        <ele>144.68607509178</ele>
        <time>2021-06-30T05:23:49.544Z</time>
      </trkpt>
      <trkpt lat="48.26573" lon="-4.21562">
        <ele>144.33425267722</ele>
        <time>2021-06-30T05:24:12.080Z</time>
      </trkpt>
      <trkpt lat="48.26573" lon="-4.21562">
        <ele>143.90756353289</ele>
        <time>2021-06-30T05:24:34.616Z</time>
      </trkpt>
      <trkpt lat="48.26625" lon="-4.21908">
        <ele>143.3153187777</ele>
        <time>2021-06-30T05:24:57.190Z</time>
      </trkpt>
      <trkpt lat="48.26633" lon="-4.21979">
        <ele>142.72515352082</ele>
        <time>2021-06-30T05:25:19.772Z</time>
      </trkpt>
      <trkpt lat="48.26633" lon="-4.22021">
        <ele>142.11357957311</ele>
        <time>2021-06-30T05:25:42.358Z</time>
      </trkpt>
      <trkpt lat="48.2663" lon="-4.22066">
        <ele>141.46641806439</ele>
        <time>2021-06-30T05:26:04.949Z</time>
      </trkpt>
      <trkpt lat="48.26627" lon="-4.22091">
        <ele>140.76427552499</ele>
        <time>2021-06-30T05:26:27.543Z</time>
      </trkpt>
      <trkpt lat="48.26615" lon="-4.22151">
        <ele>140.01943518341</ele>
        <time>2021-06-30T05:26:50.144Z</time>
      </trkpt>
      <trkpt lat="48.26589" lon="-4.22274">
        <ele>139.17720625679</ele>
        <time>2021-06-30T05:27:12.758Z</time>
      </trkpt>
      <trkpt lat="48.26589" lon="-4.22274">
        <ele>138.37767939384</ele>
        <time>2021-06-30T05:27:35.372Z</time>
      </trkpt>
      <trkpt lat="48.2656" lon="-4.2241">
        <ele>137.40072340488</ele>
        <time>2021-06-30T05:27:58.002Z</time>
      </trkpt>
      <trkpt lat="48.26535" lon="-4.22536">
        <ele>136.36844926227</ele>
        <time>2021-06-30T05:28:20.646Z</time>
      </trkpt>
      <trkpt lat="48.2653" lon="-4.22614">
        <ele>135.36673943252</ele>
        <time>2021-06-30T05:28:43.298Z</time>
      </trkpt>
      <trkpt lat="48.26529" lon="-4.22656">
        <ele>134.37572660211</ele>
        <time>2021-06-30T05:29:05.955Z</time>
      </trkpt>
      <trkpt lat="48.26531" lon="-4.22685">
        <ele>133.40625183513</ele>
        <time>2021-06-30T05:29:28.615Z</time>
      </trkpt>
      <trkpt lat="48.26533" lon="-4.2271">
        <ele>132.42180893191</ele>
        <time>2021-06-30T05:29:51.277Z</time>
      </trkpt>
      <trkpt lat="48.26545" lon="-4.2279">
        <ele>131.39960489179</ele>
        <time>2021-06-30T05:30:13.948Z</time>
      </trkpt>
      <trkpt lat="48.26547" lon="-4.22803">
        <ele>130.36245179007</ele>
        <time>2021-06-30T05:30:36.621Z</time>
      </trkpt>
      <trkpt lat="48.26559" lon="-4.22849">
        <ele>129.24167135015</ele>
        <time>2021-06-30T05:30:59.299Z</time>
      </trkpt>
      <trkpt lat="48.26587" lon="-4.22947">
        <ele>128.16492915153</ele>
        <time>2021-06-30T05:31:21.988Z</time>
      </trkpt>
      <trkpt lat="48.26654" lon="-4.23156">
        <ele>126.95058491035</ele>
        <time>2021-06-30T05:31:44.702Z</time>
      </trkpt>
      <trkpt lat="48.26695" lon="-4.23289">
        <ele>125.71901040293</ele>
        <time>2021-06-30T05:32:07.432Z</time>
      </trkpt>
      <trkpt lat="48.26698" lon="-4.23297">
        <ele>124.61083968243</ele>
        <time>2021-06-30T05:32:30.163Z</time>
      </trkpt>
      <trkpt lat="48.26698" lon="-4.23297">
        <ele>123.51384023505</ele>
        <time>2021-06-30T05:32:52.894Z</time>
      </trkpt>
      <trkpt lat="48.26751" lon="-4.23458">
        <ele>122.21248623534</ele>
        <time>2021-06-30T05:33:15.644Z</time>
      </trkpt>
      <trkpt lat="48.2676" lon="-4.23486">
        <ele>121.10973516572</ele>
        <time>2021-06-30T05:33:38.397Z</time>
      </trkpt>
      <trkpt lat="48.26833" lon="-4.23842">
        <ele>119.96056127052</ele>
        <time>2021-06-30T05:34:01.190Z</time>
      </trkpt>
      <trkpt lat="48.2685" lon="-4.23903">
        <ele>118.8341985166</ele>
        <time>2021-06-30T05:34:23.990Z</time>
      </trkpt>
      <trkpt lat="48.2685" lon="-4.23903">
        <ele>117.71605430365</ele>
        <time>2021-06-30T05:34:46.790Z</time>
      </trkpt>
      <trkpt lat="48.26874" lon="-4.23966">
        <ele>116.51727376292</ele>
        <time>2021-06-30T05:35:09.598Z</time>
      </trkpt>
      <trkpt lat="48.26958" lon="-4.2413">
        <ele>115.3152210921</ele>
        <time>2021-06-30T05:35:32.428Z</time>
      </trkpt>
      <trkpt lat="48.27004" lon="-4.24224">
        <ele>114.13389535579</ele>
        <time>2021-06-30T05:35:55.270Z</time>
      </trkpt>
      <trkpt lat="48.27019" lon="-4.24257">
        <ele>113.0470784187</ele>
        <time>2021-06-30T05:36:18.117Z</time>
      </trkpt>
      <trkpt lat="48.27087" lon="-4.24441">
        <ele>111.84511813051</ele>
        <time>2021-06-30T05:36:40.986Z</time>
      </trkpt>
      <trkpt lat="48.27136" lon="-4.24582">
        <ele>110.74505709138</ele>
        <time>2021-06-30T05:37:03.872Z</time>
      </trkpt>
      <trkpt lat="48.27145" lon="-4.24611">
        <ele>109.57191641525</ele>
        <time>2021-06-30T05:37:26.762Z</time>
      </trkpt>
      <trkpt lat="48.27151" lon="-4.24638">
        <ele>108.40598029104</ele>
        <time>2021-06-30T05:37:49.655Z</time>
      </trkpt>
      <trkpt lat="48.27159" lon="-4.24685">
        <ele>107.20903208725</ele>
        <time>2021-06-30T05:38:12.553Z</time>
      </trkpt>
      <trkpt lat="48.27162" lon="-4.24721">
        <ele>106.00741608759</ele>
        <time>2021-06-30T05:38:35.455Z</time>
      </trkpt>
      <trkpt lat="48.27163" lon="-4.24758">
        <ele>104.77893278673</ele>
        <time>2021-06-30T05:38:58.361Z</time>
      </trkpt>
      <trkpt lat="48.27162" lon="-4.24799">
        <ele>103.49467584165</ele>
        <time>2021-06-30T05:39:21.271Z</time>
      </trkpt>
      <trkpt lat="48.27162" lon="-4.24799">
        <ele>102.15762882483</ele>
        <time>2021-06-30T05:39:44.181Z</time>
      </trkpt>
      <trkpt lat="48.27153" lon="-4.24874">
        <ele>100.80193480086</ele>
        <time>2021-06-30T05:40:07.099Z</time>
      </trkpt>
      <trkpt lat="48.27136" lon="-4.25008">
        <ele>99.49592116817</ele>
        <time>2021-06-30T05:40:30.032Z</time>
      </trkpt>
      <trkpt lat="48.27077" lon="-4.25447">
        <ele>97.8959091028</ele>
        <time>2021-06-30T05:40:53.013Z</time>
      </trkpt>
      <trkpt lat="48.27073" lon="-4.25503">
        <ele>96.3253797226</ele>
        <time>2021-06-30T05:41:16.000Z</time>
      </trkpt>
      <trkpt lat="48.27075" lon="-4.25542">
        <ele>94.70980873227</ele>
        <time>2021-06-30T05:41:38.991Z</time>
      </trkpt>
      <trkpt lat="48.2708" lon="-4.25586">
        <ele>93.16284359247</ele>
        <time>2021-06-30T05:42:01.987Z</time>
      </trkpt>
      <trkpt lat="48.27134" lon="-4.2587">
        <ele>91.10049676929</ele>
        <time>2021-06-30T05:42:25.014Z</time>
      </trkpt>
      <trkpt lat="48.27148" lon="-4.25936">
        <ele>89.37711286361</ele>
        <time>2021-06-30T05:42:48.049Z</time>
      </trkpt>
      <trkpt lat="48.27163" lon="-4.25981">
        <ele>87.68049609797</ele>
        <time>2021-06-30T05:43:11.089Z</time>
      </trkpt>
      <trkpt lat="48.27177" lon="-4.26014">
        <ele>85.97352948009</ele>
        <time>2021-06-30T05:43:34.133Z</time>
      </trkpt>
      <trkpt lat="48.27177" lon="-4.26014">
        <ele>84.26535322185</ele>
        <time>2021-06-30T05:43:57.177Z</time>
      </trkpt>
      <trkpt lat="48.27242" lon="-4.26146">
        <ele>82.29883002193</ele>
        <time>2021-06-30T05:44:20.239Z</time>
      </trkpt>
      <trkpt lat="48.27242" lon="-4.26146">
        <ele>80.54604422424</ele>
        <time>2021-06-30T05:44:43.301Z</time>
      </trkpt>
      <trkpt lat="48.27305" lon="-4.26275">
        <ele>78.61504484361</ele>
        <time>2021-06-30T05:45:06.380Z</time>
      </trkpt>
      <trkpt lat="48.27321" lon="-4.26312">
        <ele>76.77499463672</ele>
        <time>2021-06-30T05:45:29.463Z</time>
      </trkpt>
      <trkpt lat="48.27354" lon="-4.26405">
        <ele>74.8913043178</ele>
        <time>2021-06-30T05:45:52.558Z</time>
      </trkpt>
      <trkpt lat="48.27412" lon="-4.26583">
        <ele>73.07182024918</ele>
        <time>2021-06-30T05:46:15.674Z</time>
      </trkpt>
      <trkpt lat="48.27412" lon="-4.26583">
        <ele>71.25046059627</ele>
        <time>2021-06-30T05:46:38.790Z</time>
      </trkpt>
      <trkpt lat="48.27418" lon="-4.26605">
        <ele>69.35248059941</ele>
        <time>2021-06-30T05:47:01.908Z</time>
      </trkpt>
      <trkpt lat="48.27417" lon="-4.26621">
        <ele>67.42359987008</ele>
        <time>2021-06-30T05:47:25.028Z</time>
      </trkpt>
      <trkpt lat="48.27417" lon="-4.26621">
        <ele>65.5864841604</ele>
        <time>2021-06-30T05:47:48.148Z</time>
      </trkpt>
      <trkpt lat="48.27414" lon="-4.26633">
        <ele>63.64699027118</ele>
        <time>2021-06-30T05:48:11.270Z</time>
      </trkpt>
      <trkpt lat="48.27405" lon="-4.26645">
        <ele>61.67022086908</ele>
        <time>2021-06-30T05:48:34.393Z</time>
      </trkpt>
      <trkpt lat="48.27378" lon="-4.26582">
        <ele>59.93679011549</ele>
        <time>2021-06-30T05:48:57.525Z</time>
      </trkpt>
      <trkpt lat="48.27361" lon="-4.26543">
        <ele>58.12577632152</ele>
        <time>2021-06-30T05:49:20.661Z</time>
      </trkpt>
      <trkpt lat="48.27304" lon="-4.26437">
        <ele>56.0456881312</ele>
        <time>2021-06-30T05:49:43.812Z</time>
      </trkpt>
      <trkpt lat="48.27271" lon="-4.26388">
        <ele>54.20155481779</ele>
        <time>2021-06-30T05:50:06.970Z</time>
      </trkpt>
      <trkpt lat="48.27223" lon="-4.26326">
        <ele>52.33289308179</ele>
        <time>2021-06-30T05:50:30.139Z</time>
      </trkpt>
      <trkpt lat="48.27223" lon="-4.26326">
        <ele>50.54504540732</ele>
        <time>2021-06-30T05:50:53.308Z</time>
      </trkpt>
      <trkpt lat="48.27195" lon="-4.26302">
        <ele>48.65478195974</ele>
        <time>2021-06-30T05:51:16.482Z</time>
      </trkpt>
      <trkpt lat="48.27155" lon="-4.26274">
        <ele>46.71171574237</ele>
        <time>2021-06-30T05:51:39.663Z</time>
      </trkpt>
      <trkpt lat="48.27132" lon="-4.26264">
        <ele>44.78307402641</ele>
        <time>2021-06-30T05:52:02.848Z</time>
      </trkpt>
      <trkpt lat="48.27155" lon="-4.26274">
        <ele>46.71171574237</ele>
        <time>2021-06-30T05:52:26.037Z</time>
      </trkpt>
      <trkpt lat="48.27158" lon="-4.26264">
        <ele>41.65568358618</ele>
        <time>2021-06-30T05:52:49.227Z</time>
      </trkpt>
      <trkpt lat="48.27157" lon="-4.26258">
        <ele>40.00748219782</ele>
        <time>2021-06-30T05:53:12.417Z</time>
      </trkpt>
      <trkpt lat="48.27147" lon="-4.26245">
        <ele>38.3473977694</ele>
        <time>2021-06-30T05:53:35.609Z</time>
      </trkpt>
      <trkpt lat="48.2715" lon="-4.26239">
        <ele>36.78640623964</ele>
        <time>2021-06-30T05:53:58.802Z</time>
      </trkpt>
      <trkpt lat="48.27161" lon="-4.26252">
        <ele>35.22089646238</ele>
        <time>2021-06-30T05:54:21.997Z</time>
      </trkpt>
      <trkpt lat="48.27161" lon="-4.26246">
        <ele>33.68463053926</ele>
        <time>2021-06-30T05:54:45.193Z</time>
      </trkpt>
      <trkpt lat="48.27156" lon="-4.26234">
        <ele>32.16051146059</ele>
        <time>2021-06-30T05:55:08.391Z</time>
      </trkpt>
      <trkpt lat="48.27156" lon="-4.26234">
        <ele>30.64916536184</ele>
        <time>2021-06-30T05:55:31.589Z</time>
      </trkpt>
      <trkpt lat="48.27161" lon="-4.26246">
        <ele>33.68463053926</ele>
        <time>2021-06-30T05:55:54.788Z</time>
      </trkpt>
      <trkpt lat="48.27161" lon="-4.26252">
        <ele>35.22089646238</ele>
        <time>2021-06-30T05:56:17.988Z</time>
      </trkpt>
      <trkpt lat="48.2715" lon="-4.26239">
        <ele>36.78640623964</ele>
        <time>2021-06-30T05:56:41.190Z</time>
      </trkpt>
      <trkpt lat="48.27147" lon="-4.26245">
        <ele>24.82120888515</ele>
        <time>2021-06-30T05:57:04.393Z</time>
      </trkpt>
      <trkpt lat="48.27157" lon="-4.26258">
        <ele>40.00748219782</ele>
        <time>2021-06-30T05:57:27.598Z</time>
      </trkpt>
      <trkpt lat="48.27158" lon="-4.26264">
        <ele>41.65568358618</ele>
        <time>2021-06-30T05:57:50.804Z</time>
      </trkpt>
      <trkpt lat="48.27155" lon="-4.26274">
        <ele>46.71171574237</ele>
        <time>2021-06-30T05:58:14.011Z</time>
      </trkpt>
      <trkpt lat="48.27195" lon="-4.26302">
        <ele>48.65478195974</ele>
        <time>2021-06-30T05:58:37.225Z</time>
      </trkpt>
      <trkpt lat="48.27193" lon="-4.26309">
        <ele>18.87201007103</ele>
        <time>2021-06-30T05:59:00.440Z</time>
      </trkpt>
      <trkpt lat="48.27157" lon="-4.26283">
        <ele>17.68318578859</ele>
        <time>2021-06-30T05:59:23.661Z</time>
      </trkpt>
      <trkpt lat="48.27132" lon="-4.26272">
        <ele>16.60020655092</ele>
        <time>2021-06-30T05:59:46.886Z</time>
      </trkpt>
      <trkpt lat="48.27116" lon="-4.26266">
        <ele>15.68424249474</ele>
        <time>2021-06-30T06:00:10.114Z</time>
      </trkpt>
      <trkpt lat="48.27103" lon="-4.26264">
        <ele>14.87022930377</ele>
        <time>2021-06-30T06:00:33.344Z</time>
      </trkpt>
      <trkpt lat="48.27075" lon="-4.26265">
        <ele>14.05647316848</ele>
        <time>2021-06-30T06:00:56.578Z</time>
      </trkpt>
      <trkpt lat="48.27057" lon="-4.26267">
        <ele>13.33368827068</ele>
        <time>2021-06-30T06:01:19.815Z</time>
      </trkpt>
      <trkpt lat="48.27045" lon="-4.26274">
        <ele>12.78848022648</ele>
        <time>2021-06-30T06:01:43.054Z</time>
      </trkpt>
      <trkpt lat="48.27033" lon="-4.26285">
        <ele>12.34588192553</ele>
        <time>2021-06-30T06:02:06.296Z</time>
      </trkpt>
      <trkpt lat="48.27017" lon="-4.26287">
        <ele>12.04823536022</ele>
        <time>2021-06-30T06:02:29.540Z</time>
      </trkpt>
      <trkpt lat="48.26983" lon="-4.26302">
        <ele>12.12788433534</ele>
        <time>2021-06-30T06:02:52.790Z</time>
      </trkpt>
      <trkpt lat="48.26942" lon="-4.26326">
        <ele>12.36286920598</ele>
        <time>2021-06-30T06:03:16.047Z</time>
      </trkpt>
      <trkpt lat="48.26902" lon="-4.26354">
        <ele>12.75637833865</ele>
        <time>2021-06-30T06:03:39.311Z</time>
      </trkpt>
      <trkpt lat="48.26858" lon="-4.26391">
        <ele>13.31040837377</ele>
        <time>2021-06-30T06:04:02.583Z</time>
      </trkpt>
      <trkpt lat="48.26818" lon="-4.26429">
        <ele>14.02574159561</ele>
        <time>2021-06-30T06:04:25.863Z</time>
      </trkpt>
      <trkpt lat="48.26809" lon="-4.26441">
        <ele>14.90192425969</ele>
        <time>2021-06-30T06:04:49.145Z</time>
      </trkpt>
      <trkpt lat="48.26807" lon="-4.26448">
        <ele>15.93724596143</ele>
        <time>2021-06-30T06:05:12.427Z</time>
      </trkpt>
      <trkpt lat="48.26801" lon="-4.26454">
        <ele>17.12872016416</ele>
        <time>2021-06-30T06:05:35.710Z</time>
      </trkpt>
      <trkpt lat="48.26787" lon="-4.26461">
        <ele>18.75568758345</ele>
        <time>2021-06-30T06:05:58.996Z</time>
      </trkpt>
      <trkpt lat="48.26767" lon="-4.26491">
        <ele>20.74980178831</ele>
        <time>2021-06-30T06:06:22.286Z</time>
      </trkpt>
      <trkpt lat="48.26755" lon="-4.26514">
        <ele>22.55528822209</ele>
        <time>2021-06-30T06:06:45.580Z</time>
      </trkpt>
      <trkpt lat="48.26745" lon="-4.26537">
        <ele>24.468895295</ele>
        <time>2021-06-30T06:07:08.876Z</time>
      </trkpt>
      <trkpt lat="48.26737" lon="-4.26559">
        <ele>26.48421536919</ele>
        <time>2021-06-30T06:07:32.175Z</time>
      </trkpt>
      <trkpt lat="48.26731" lon="-4.26582">
        <ele>28.60880193632</ele>
        <time>2021-06-30T06:07:55.477Z</time>
      </trkpt>
      <trkpt lat="48.26727" lon="-4.26603">
        <ele>30.76215282431</ele>
        <time>2021-06-30T06:08:18.781Z</time>
      </trkpt>
      <trkpt lat="48.26723" lon="-4.26634">
        <ele>33.01677189926</ele>
        <time>2021-06-30T06:08:42.089Z</time>
      </trkpt>
      <trkpt lat="48.26721" lon="-4.26672">
        <ele>35.38406783836</ele>
        <time>2021-06-30T06:09:05.401Z</time>
      </trkpt>
      <trkpt lat="48.26716" lon="-4.26672">
        <ele>37.80508278649</ele>
        <time>2021-06-30T06:09:28.713Z</time>
      </trkpt>
      <trkpt lat="48.26718" lon="-4.26716">
        <ele>40.31571049785</ele>
        <time>2021-06-30T06:09:52.030Z</time>
      </trkpt>
      <trkpt lat="48.26718" lon="-4.26716">
        <ele>42.75908862972</ele>
        <time>2021-06-30T06:10:15.347Z</time>
      </trkpt>
      <trkpt lat="48.26721" lon="-4.26765">
        <ele>45.24774463461</ele>
        <time>2021-06-30T06:10:38.669Z</time>
      </trkpt>
      <trkpt lat="48.26722" lon="-4.26833">
        <ele>47.93890036583</ele>
        <time>2021-06-30T06:11:01.999Z</time>
      </trkpt>
      <trkpt lat="48.26719" lon="-4.2693">
        <ele>50.55667006104</ele>
        <time>2021-06-30T06:11:25.339Z</time>
      </trkpt>
      <trkpt lat="48.26719" lon="-4.26973">
        <ele>53.18841577141</ele>
        <time>2021-06-30T06:11:48.684Z</time>
      </trkpt>
      <trkpt lat="48.26719" lon="-4.26974">
        <ele>58.37473917109</ele>
        <time>2021-06-30T06:12:12.029Z</time>
      </trkpt>
      <trkpt lat="48.26721" lon="-4.27002">
        <ele>61.02999361979</ele>
        <time>2021-06-30T06:12:35.377Z</time>
      </trkpt>
      <trkpt lat="48.26726" lon="-4.27039">
        <ele>63.6818352426</ele>
        <time>2021-06-30T06:12:58.729Z</time>
      </trkpt>
      <trkpt lat="48.26749" lon="-4.27147">
        <ele>66.35195902738</ele>
        <time>2021-06-30T06:13:22.093Z</time>
      </trkpt>
      <trkpt lat="48.26763" lon="-4.2721">
        <ele>69.04575544071</ele>
        <time>2021-06-30T06:13:45.464Z</time>
      </trkpt>
      <trkpt lat="48.26768" lon="-4.2723">
        <ele>71.59872843169</ele>
        <time>2021-06-30T06:14:08.837Z</time>
      </trkpt>
      <trkpt lat="48.26838" lon="-4.27466">
        <ele>74.41348834967</ele>
        <time>2021-06-30T06:14:32.238Z</time>
      </trkpt>
      <trkpt lat="48.26853" lon="-4.27519">
        <ele>76.86800105972</ele>
        <time>2021-06-30T06:14:55.645Z</time>
      </trkpt>
      <trkpt lat="48.26858" lon="-4.27556">
        <ele>79.23402141687</ele>
        <time>2021-06-30T06:15:19.056Z</time>
      </trkpt>
      <trkpt lat="48.26859" lon="-4.27599">
        <ele>81.56885088383</ele>
        <time>2021-06-30T06:15:42.472Z</time>
      </trkpt>
      <trkpt lat="48.26857" lon="-4.27639">
        <ele>83.81690240916</ele>
        <time>2021-06-30T06:16:05.892Z</time>
      </trkpt>
      <trkpt lat="48.26852" lon="-4.27678">
        <ele>86.00324460907</ele>
        <time>2021-06-30T06:16:29.316Z</time>
      </trkpt>
      <trkpt lat="48.26839" lon="-4.27721">
        <ele>88.1204433497</ele>
        <time>2021-06-30T06:16:52.745Z</time>
      </trkpt>
      <trkpt lat="48.26835" lon="-4.2773">
        <ele>90.15434101423</ele>
        <time>2021-06-30T06:17:16.175Z</time>
      </trkpt>
      <trkpt lat="48.26835" lon="-4.2773">
        <ele>92.10541916763</ele>
        <time>2021-06-30T06:17:39.605Z</time>
      </trkpt>
      <trkpt lat="48.26826" lon="-4.27752">
        <ele>93.98839970872</ele>
        <time>2021-06-30T06:18:03.038Z</time>
      </trkpt>
      <trkpt lat="48.26826" lon="-4.27752">
        <ele>95.77483806323</ele>
        <time>2021-06-30T06:18:26.471Z</time>
      </trkpt>
      <trkpt lat="48.26791" lon="-4.2783">
        <ele>97.55519346239</ele>
        <time>2021-06-30T06:18:49.914Z</time>
      </trkpt>
      <trkpt lat="48.26764" lon="-4.27909">
        <ele>99.12246771771</ele>
        <time>2021-06-30T06:19:13.367Z</time>
      </trkpt>
      <trkpt lat="48.26764" lon="-4.27909">
        <ele>100.64351604995</ele>
        <time>2021-06-30T06:19:36.820Z</time>
      </trkpt>
      <trkpt lat="48.26756" lon="-4.27931">
        <ele>102.04314996898</ele>
        <time>2021-06-30T06:20:00.275Z</time>
      </trkpt>
      <trkpt lat="48.26745" lon="-4.28003">
        <ele>103.29731633155</ele>
        <time>2021-06-30T06:20:23.738Z</time>
      </trkpt>
      <trkpt lat="48.26737" lon="-4.28123">
        <ele>104.61544276948</ele>
        <time>2021-06-30T06:20:47.214Z</time>
      </trkpt>
      <trkpt lat="48.26728" lon="-4.28248">
        <ele>105.83504397901</ele>
        <time>2021-06-30T06:21:10.704Z</time>
      </trkpt>
      <trkpt lat="48.26713" lon="-4.28498">
        <ele>107.21675682297</ele>
        <time>2021-06-30T06:21:34.221Z</time>
      </trkpt>
      <trkpt lat="48.26712" lon="-4.28536">
        <ele>108.1928745527</ele>
        <time>2021-06-30T06:21:57.742Z</time>
      </trkpt>
      <trkpt lat="48.26712" lon="-4.28536">
        <ele>109.02125814571</ele>
        <time>2021-06-30T06:22:21.263Z</time>
      </trkpt>
      <trkpt lat="48.26709" lon="-4.28589">
        <ele>109.74614635302</ele>
        <time>2021-06-30T06:22:44.789Z</time>
      </trkpt>
      <trkpt lat="48.26708" lon="-4.28647">
        <ele>110.31677210111</ele>
        <time>2021-06-30T06:23:08.321Z</time>
      </trkpt>
      <trkpt lat="48.26712" lon="-4.28939">
        <ele>110.87199462684</ele>
        <time>2021-06-30T06:23:31.885Z</time>
      </trkpt>
      <trkpt lat="48.26715" lon="-4.29172">
        <ele>111.319019803</ele>
        <time>2021-06-30T06:23:55.474Z</time>
      </trkpt>
      <trkpt lat="48.26715" lon="-4.29353">
        <ele>111.65756830503</ele>
        <time>2021-06-30T06:24:19.082Z</time>
      </trkpt>
      <trkpt lat="48.26689" lon="-4.29562">
        <ele>111.79954527089</ele>
        <time>2021-06-30T06:24:42.713Z</time>
      </trkpt>
      <trkpt lat="48.26649" lon="-4.29797">
        <ele>111.84514998723</ele>
        <time>2021-06-30T06:25:06.370Z</time>
      </trkpt>
      <trkpt lat="48.26649" lon="-4.29797">
        <ele>111.78311086388</ele>
        <time>2021-06-30T06:25:30.027Z</time>
      </trkpt>
      <trkpt lat="48.26604" lon="-4.30066">
        <ele>111.59601311301</ele>
        <time>2021-06-30T06:25:53.713Z</time>
      </trkpt>
      <trkpt lat="48.26577" lon="-4.30169">
        <ele>111.26392566585</ele>
        <time>2021-06-30T06:26:17.411Z</time>
      </trkpt>
      <trkpt lat="48.2654" lon="-4.3029">
        <ele>110.83418593825</ele>
        <time>2021-06-30T06:26:41.123Z</time>
      </trkpt>
      <trkpt lat="48.26515" lon="-4.30354">
        <ele>110.31633311315</ele>
        <time>2021-06-30T06:27:04.843Z</time>
      </trkpt>
      <trkpt lat="48.26467" lon="-4.30424">
        <ele>109.76732149179</ele>
        <time>2021-06-30T06:27:28.574Z</time>
      </trkpt>
      <trkpt lat="48.26435" lon="-4.30461">
        <ele>109.09069883358</ele>
        <time>2021-06-30T06:27:52.311Z</time>
      </trkpt>
      <trkpt lat="48.26435" lon="-4.30461">
        <ele>108.27438435116</ele>
        <time>2021-06-30T06:28:16.048Z</time>
      </trkpt>
      <trkpt lat="48.2643" lon="-4.30467">
        <ele>107.35773371098</ele>
        <time>2021-06-30T06:28:39.786Z</time>
      </trkpt>
      <trkpt lat="48.2643" lon="-4.30467">
        <ele>106.34353165187</ele>
        <time>2021-06-30T06:29:03.524Z</time>
      </trkpt>
      <trkpt lat="48.26402" lon="-4.30495">
        <ele>105.19932981887</ele>
        <time>2021-06-30T06:29:27.268Z</time>
      </trkpt>
      <trkpt lat="48.26386" lon="-4.30477">
        <ele>104.02200562857</ele>
        <time>2021-06-30T06:29:51.015Z</time>
      </trkpt>
      <trkpt lat="48.26356" lon="-4.30456">
        <ele>102.81842596901</ele>
        <time>2021-06-30T06:30:14.767Z</time>
      </trkpt>
      <trkpt lat="48.26328" lon="-4.30443">
        <ele>101.51318675633</ele>
        <time>2021-06-30T06:30:38.524Z</time>
      </trkpt>
      <trkpt lat="48.26137" lon="-4.30375">
        <ele>100.18728749548</ele>
        <time>2021-06-30T06:31:02.312Z</time>
      </trkpt>
      <trkpt lat="48.26083" lon="-4.30366">
        <ele>98.68636688908</ele>
        <time>2021-06-30T06:31:26.109Z</time>
      </trkpt>
      <trkpt lat="48.25924" lon="-4.30339">
        <ele>97.13509620022</ele>
        <time>2021-06-30T06:31:49.932Z</time>
      </trkpt>
      <trkpt lat="48.25836" lon="-4.30348">
        <ele>95.42668076037</ele>
        <time>2021-06-30T06:32:13.769Z</time>
      </trkpt>
      <trkpt lat="48.25727" lon="-4.30398">
        <ele>93.52684900346</ele>
        <time>2021-06-30T06:32:37.624Z</time>
      </trkpt>
      <trkpt lat="48.25727" lon="-4.30398">
        <ele>91.77555702234</ele>
        <time>2021-06-30T06:33:01.479Z</time>
      </trkpt>
      <trkpt lat="48.25678" lon="-4.30443">
        <ele>89.86024284924</ele>
        <time>2021-06-30T06:33:25.343Z</time>
      </trkpt>
      <trkpt lat="48.25639" lon="-4.30457">
        <ele>87.92216355541</ele>
        <time>2021-06-30T06:33:49.214Z</time>
      </trkpt>
      <trkpt lat="48.25591" lon="-4.30468">
        <ele>85.92415772584</ele>
        <time>2021-06-30T06:34:13.092Z</time>
      </trkpt>
      <trkpt lat="48.25372" lon="-4.30441">
        <ele>83.56549930721</ele>
        <time>2021-06-30T06:34:37.006Z</time>
      </trkpt>
      <trkpt lat="48.25238" lon="-4.30432">
        <ele>81.45233324016</ele>
        <time>2021-06-30T06:35:00.941Z</time>
      </trkpt>
      <trkpt lat="48.25222" lon="-4.3044">
        <ele>79.62204913444</ele>
        <time>2021-06-30T06:35:24.879Z</time>
      </trkpt>
      <trkpt lat="48.25109" lon="-4.30492">
        <ele>76.09361510068</ele>
        <time>2021-06-30T06:35:48.836Z</time>
      </trkpt>
      <trkpt lat="48.24981" lon="-4.30579">
        <ele>74.20531071851</ele>
        <time>2021-06-30T06:36:12.815Z</time>
      </trkpt>
      <trkpt lat="48.24937" lon="-4.30616">
        <ele>72.64433702403</ele>
        <time>2021-06-30T06:36:36.802Z</time>
      </trkpt>
      <trkpt lat="48.24923" lon="-4.30633">
        <ele>71.12878227537</ele>
        <time>2021-06-30T06:37:00.792Z</time>
      </trkpt>
      <trkpt lat="48.24917" lon="-4.3064">
        <ele>69.66518809647</ele>
        <time>2021-06-30T06:37:24.783Z</time>
      </trkpt>
      <trkpt lat="48.24877" lon="-4.30691">
        <ele>68.24347456547</ele>
        <time>2021-06-30T06:37:48.783Z</time>
      </trkpt>
      <trkpt lat="48.2484" lon="-4.30749">
        <ele>66.82994564135</ele>
        <time>2021-06-30T06:38:12.791Z</time>
      </trkpt>
      <trkpt lat="48.24802" lon="-4.308">
        <ele>65.55031451419</ele>
        <time>2021-06-30T06:38:36.808Z</time>
      </trkpt>
      <trkpt lat="48.24793" lon="-4.30802">
        <ele>64.42645525693</ele>
        <time>2021-06-30T06:39:00.826Z</time>
      </trkpt>
      <trkpt lat="48.24793" lon="-4.30802">
        <ele>63.40858341503</ele>
        <time>2021-06-30T06:39:24.844Z</time>
      </trkpt>
      <trkpt lat="48.24781" lon="-4.30807">
        <ele>62.49624830955</ele>
        <time>2021-06-30T06:39:48.864Z</time>
      </trkpt>
      <trkpt lat="48.24764" lon="-4.30853">
        <ele>61.73291030169</ele>
        <time>2021-06-30T06:40:12.890Z</time>
      </trkpt>
      <trkpt lat="48.2475" lon="-4.30925">
        <ele>61.08777804672</ele>
        <time>2021-06-30T06:40:36.924Z</time>
      </trkpt>
      <trkpt lat="48.2475" lon="-4.30925">
        <ele>60.50622586229</ele>
        <time>2021-06-30T06:41:00.958Z</time>
      </trkpt>
      <trkpt lat="48.24748" lon="-4.30936">
        <ele>60.04144976795</ele>
        <time>2021-06-30T06:41:24.993Z</time>
      </trkpt>
      <trkpt lat="48.24745" lon="-4.31012">
        <ele>59.68270238713</ele>
        <time>2021-06-30T06:41:49.036Z</time>
      </trkpt>
      <trkpt lat="48.24736" lon="-4.31059">
        <ele>59.48876120145</ele>
        <time>2021-06-30T06:42:13.084Z</time>
      </trkpt>
      <trkpt lat="48.24736" lon="-4.31059">
        <ele>59.36130816682</ele>
        <time>2021-06-30T06:42:37.132Z</time>
      </trkpt>
      <trkpt lat="48.24731" lon="-4.31078">
        <ele>59.3846691914</ele>
        <time>2021-06-30T06:43:01.183Z</time>
      </trkpt>
      <trkpt lat="48.24725" lon="-4.31102">
        <ele>59.47246121899</ele>
        <time>2021-06-30T06:43:25.236Z</time>
      </trkpt>
      <trkpt lat="48.24721" lon="-4.31141">
        <ele>59.71221881377</ele>
        <time>2021-06-30T06:43:49.294Z</time>
      </trkpt>
      <trkpt lat="48.24722" lon="-4.31164">
        <ele>60.03230443519</ele>
        <time>2021-06-30T06:44:13.354Z</time>
      </trkpt>
      <trkpt lat="48.24721" lon="-4.31192">
        <ele>60.45637073496</ele>
        <time>2021-06-30T06:44:37.417Z</time>
      </trkpt>
      <trkpt lat="48.2469" lon="-4.31345">
        <ele>61.08602684436</ele>
        <time>2021-06-30T06:45:01.497Z</time>
      </trkpt>
      <trkpt lat="48.24671" lon="-4.31435">
        <ele>61.76752094603</ele>
        <time>2021-06-30T06:45:25.587Z</time>
      </trkpt>
      <trkpt lat="48.24646" lon="-4.31496">
        <ele>62.53402456284</ele>
        <time>2021-06-30T06:45:49.685Z</time>
      </trkpt>
      <trkpt lat="48.24646" lon="-4.31496">
        <ele>63.34267126763</ele>
        <time>2021-06-30T06:46:13.783Z</time>
      </trkpt>
      <trkpt lat="48.24625" lon="-4.31548">
        <ele>64.27235247181</ele>
        <time>2021-06-30T06:46:37.887Z</time>
      </trkpt>
      <trkpt lat="48.24614" lon="-4.31584">
        <ele>65.29242151236</ele>
        <time>2021-06-30T06:47:01.995Z</time>
      </trkpt>
      <trkpt lat="48.24601" lon="-4.31633">
        <ele>66.3542557531</ele>
        <time>2021-06-30T06:47:26.109Z</time>
      </trkpt>
      <trkpt lat="48.24597" lon="-4.31654">
        <ele>67.50195822395</ele>
        <time>2021-06-30T06:47:50.226Z</time>
      </trkpt>
      <trkpt lat="48.24591" lon="-4.3167">
        <ele>68.71919172368</ele>
        <time>2021-06-30T06:48:14.344Z</time>
      </trkpt>
      <trkpt lat="48.24459" lon="-4.31623">
        <ele>70.03153962066</ele>
        <time>2021-06-30T06:48:38.484Z</time>
      </trkpt>
      <trkpt lat="48.24458" lon="-4.31643">
        <ele>71.37640479042</ele>
        <time>2021-06-30T06:49:02.626Z</time>
      </trkpt>
      <trkpt lat="48.24458" lon="-4.31643">
        <ele>72.77637444433</ele>
        <time>2021-06-30T06:49:26.768Z</time>
      </trkpt>
      <trkpt lat="48.24459" lon="-4.31623">
        <ele>74.22667276536</ele>
        <time>2021-06-30T06:49:50.912Z</time>
      </trkpt>
      <trkpt lat="48.2443" lon="-4.31618">
        <ele>75.77428709808</ele>
        <time>2021-06-30T06:50:15.061Z</time>
      </trkpt>
      <trkpt lat="48.2443" lon="-4.31618">
        <ele>77.32053446111</ele>
        <time>2021-06-30T06:50:39.210Z</time>
      </trkpt>
      <trkpt lat="48.24397" lon="-4.31616">
        <ele>78.95204683061</ele>
        <time>2021-06-30T06:51:03.364Z</time>
      </trkpt>
      <trkpt lat="48.24365" lon="-4.3161">
        <ele>80.59048195604</ele>
        <time>2021-06-30T06:51:27.524Z</time>
      </trkpt>
      <trkpt lat="48.24342" lon="-4.31604">
        <ele>82.24513284166</ele>
        <time>2021-06-30T06:51:51.687Z</time>
      </trkpt>
      <trkpt lat="48.24313" lon="-4.31588">
        <ele>83.89937434577</ele>
        <time>2021-06-30T06:52:15.855Z</time>
      </trkpt>
      <trkpt lat="48.24282" lon="-4.31564">
        <ele>85.61065470829</ele>
        <time>2021-06-30T06:52:40.029Z</time>
      </trkpt>
      <trkpt lat="48.24224" lon="-4.31519">
        <ele>87.33997561357</ele>
        <time>2021-06-30T06:53:04.213Z</time>
      </trkpt>
      <trkpt lat="48.24158" lon="-4.31477">
        <ele>89.16610417941</ele>
        <time>2021-06-30T06:53:28.409Z</time>
      </trkpt>
      <trkpt lat="48.24128" lon="-4.31462">
        <ele>90.86269624091</ele>
        <time>2021-06-30T06:53:52.610Z</time>
      </trkpt>
      <trkpt lat="48.24083" lon="-4.31444">
        <ele>92.60851391596</ele>
        <time>2021-06-30T06:54:16.818Z</time>
      </trkpt>
      <trkpt lat="48.24039" lon="-4.31428">
        <ele>94.38428672044</ele>
        <time>2021-06-30T06:54:41.034Z</time>
      </trkpt>
      <trkpt lat="48.23994" lon="-4.31415">
        <ele>96.066713609</ele>
        <time>2021-06-30T06:55:05.257Z</time>
      </trkpt>
      <trkpt lat="48.23933" lon="-4.31403">
        <ele>97.730254225</ele>
        <time>2021-06-30T06:55:29.490Z</time>
      </trkpt>
      <trkpt lat="48.23895" lon="-4.314">
        <ele>99.31510200746</ele>
        <time>2021-06-30T06:55:53.729Z</time>
      </trkpt>
      <trkpt lat="48.23851" lon="-4.31399">
        <ele>100.87718495026</ele>
        <time>2021-06-30T06:56:17.975Z</time>
      </trkpt>
      <trkpt lat="48.23851" lon="-4.31399">
        <ele>102.30480716263</ele>
        <time>2021-06-30T06:56:42.221Z</time>
      </trkpt>
      <trkpt lat="48.23808" lon="-4.31398">
        <ele>103.738631992</ele>
        <time>2021-06-30T06:57:06.474Z</time>
      </trkpt>
      <trkpt lat="48.23779" lon="-4.31402">
        <ele>105.06762784715</ele>
        <time>2021-06-30T06:57:30.731Z</time>
      </trkpt>
      <trkpt lat="48.23779" lon="-4.31402">
        <ele>106.28205951849</ele>
        <time>2021-06-30T06:57:54.988Z</time>
      </trkpt>
      <trkpt lat="48.23764" lon="-4.31408">
        <ele>107.43257309065</ele>
        <time>2021-06-30T06:58:19.248Z</time>
      </trkpt>
      <trkpt lat="48.23735" lon="-4.31424">
        <ele>108.52194240611</ele>
        <time>2021-06-30T06:58:43.513Z</time>
      </trkpt>
      <trkpt lat="48.23707" lon="-4.31448">
        <ele>109.54183013542</ele>
        <time>2021-06-30T06:59:07.783Z</time>
      </trkpt>
      <trkpt lat="48.23686" lon="-4.31474">
        <ele>110.43674102456</ele>
        <time>2021-06-30T06:59:32.057Z</time>
      </trkpt>
      <trkpt lat="48.23634" lon="-4.31562">
        <ele>111.21557376331</ele>
        <time>2021-06-30T06:59:56.344Z</time>
      </trkpt>
      <trkpt lat="48.23572" lon="-4.31669">
        <ele>111.89449721833</ele>
        <time>2021-06-30T07:00:20.646Z</time>
      </trkpt>
      <trkpt lat="48.23544" lon="-4.31711">
        <ele>112.45187575397</ele>
        <time>2021-06-30T07:00:44.954Z</time>
      </trkpt>
      <trkpt lat="48.23509" lon="-4.31752">
        <ele>112.93041205388</ele>
        <time>2021-06-30T07:01:09.270Z</time>
      </trkpt>
      <trkpt lat="48.23148" lon="-4.32005">
        <ele>113.17278989078</ele>
        <time>2021-06-30T07:01:33.649Z</time>
      </trkpt>
      <trkpt lat="48.23148" lon="-4.32005">
        <ele>113.34141950742</ele>
        <time>2021-06-30T07:01:58.028Z</time>
      </trkpt>
      <trkpt lat="48.2287" lon="-4.32201">
        <ele>113.33076214757</ele>
        <time>2021-06-30T07:02:22.457Z</time>
      </trkpt>
      <trkpt lat="48.2287" lon="-4.32201">
        <ele>113.25412751109</ele>
        <time>2021-06-30T07:02:46.886Z</time>
      </trkpt>
      <trkpt lat="48.2286" lon="-4.32208">
        <ele>113.05793622084</ele>
        <time>2021-06-30T07:03:11.316Z</time>
      </trkpt>
      <trkpt lat="48.22729" lon="-4.32271">
        <ele>112.7297724136</ele>
        <time>2021-06-30T07:03:35.768Z</time>
      </trkpt>
      <trkpt lat="48.2275" lon="-4.32411">
        <ele>112.27385423805</ele>
        <time>2021-06-30T07:04:00.236Z</time>
      </trkpt>
      <trkpt lat="48.22732" lon="-4.32418">
        <ele>111.71278850289</ele>
        <time>2021-06-30T07:04:24.707Z</time>
      </trkpt>
      <trkpt lat="48.22678" lon="-4.32326">
        <ele>111.05768150905</ele>
        <time>2021-06-30T07:04:49.191Z</time>
      </trkpt>
      <trkpt lat="48.22678" lon="-4.32326">
        <ele>110.24760647466</ele>
        <time>2021-06-30T07:05:13.675Z</time>
      </trkpt>
      <trkpt lat="48.22665" lon="-4.32305">
        <ele>109.34317565948</ele>
        <time>2021-06-30T07:05:38.162Z</time>
      </trkpt>
      <trkpt lat="48.2266" lon="-4.32301">
        <ele>108.31332615511</ele>
        <time>2021-06-30T07:06:02.650Z</time>
      </trkpt>
      <trkpt lat="48.2265" lon="-4.32299">
        <ele>107.15319899476</ele>
        <time>2021-06-30T07:06:27.139Z</time>
      </trkpt>
      <trkpt lat="48.22562" lon="-4.32328">
        <ele>105.76504527824</ele>
        <time>2021-06-30T07:06:51.643Z</time>
      </trkpt>
      <trkpt lat="48.22484" lon="-4.32345">
        <ele>104.30383285574</ele>
        <time>2021-06-30T07:07:16.160Z</time>
      </trkpt>
      <trkpt lat="48.2247" lon="-4.32345">
        <ele>102.8343456119</ele>
        <time>2021-06-30T07:07:40.679Z</time>
      </trkpt>
      <trkpt lat="48.22435" lon="-4.32336">
        <ele>101.2641320094</ele>
        <time>2021-06-30T07:08:05.204Z</time>
      </trkpt>
      <trkpt lat="48.22335" lon="-4.32337">
        <ele>99.51089679276</ele>
        <time>2021-06-30T07:08:29.745Z</time>
      </trkpt>
      <trkpt lat="48.22182" lon="-4.3232">
        <ele>97.61629514913</ele>
        <time>2021-06-30T07:08:54.310Z</time>
      </trkpt>
      <trkpt lat="48.22173" lon="-4.32327">
        <ele>95.8224257672</ele>
        <time>2021-06-30T07:09:18.877Z</time>
      </trkpt>
      <trkpt lat="48.22118" lon="-4.32288">
        <ele>93.93289989424</ele>
        <time>2021-06-30T07:09:43.453Z</time>
      </trkpt>
      <trkpt lat="48.22111" lon="-4.32283">
        <ele>92.05436974513</ele>
        <time>2021-06-30T07:10:08.031Z</time>
      </trkpt>
      <trkpt lat="48.21956" lon="-4.32167">
        <ele>89.82779858621</ele>
        <time>2021-06-30T07:10:32.636Z</time>
      </trkpt>
      <trkpt lat="48.21924" lon="-4.32152">
        <ele>87.80166896328</ele>
        <time>2021-06-30T07:10:57.247Z</time>
      </trkpt>
      <trkpt lat="48.21861" lon="-4.32137">
        <ele>85.71120882433</ele>
        <time>2021-06-30T07:11:21.868Z</time>
      </trkpt>
      <trkpt lat="48.21845" lon="-4.32136">
        <ele>83.69305648817</ele>
        <time>2021-06-30T07:11:46.492Z</time>
      </trkpt>
      <trkpt lat="48.21685" lon="-4.32163">
        <ele>81.49367751516</ele>
        <time>2021-06-30T07:12:11.141Z</time>
      </trkpt>
      <trkpt lat="48.21659" lon="-4.32155">
        <ele>79.4277139039</ele>
        <time>2021-06-30T07:12:35.795Z</time>
      </trkpt>
      <trkpt lat="48.21649" lon="-4.3215">
        <ele>77.41067184663</ele>
        <time>2021-06-30T07:13:00.450Z</time>
      </trkpt>
      <trkpt lat="48.21649" lon="-4.3215">
        <ele>75.43921655155</ele>
        <time>2021-06-30T07:13:25.105Z</time>
      </trkpt>
      <trkpt lat="48.21551" lon="-4.32064">
        <ele>73.20958449805</ele>
        <time>2021-06-30T07:13:49.779Z</time>
      </trkpt>
      <trkpt lat="48.21512" lon="-4.32028">
        <ele>71.21840634233</ele>
        <time>2021-06-30T07:14:14.460Z</time>
      </trkpt>
      <trkpt lat="48.21504" lon="-4.32021">
        <ele>69.31297994349</ele>
        <time>2021-06-30T07:14:39.142Z</time>
      </trkpt>
      <trkpt lat="48.21489" lon="-4.32008">
        <ele>67.47990302392</ele>
        <time>2021-06-30T07:15:03.827Z</time>
      </trkpt>
      <trkpt lat="48.21489" lon="-4.32008">
        <ele>63.88619549523</ele>
        <time>2021-06-30T07:15:28.512Z</time>
      </trkpt>
      <trkpt lat="48.21467" lon="-4.31988">
        <ele>62.15513052014</ele>
        <time>2021-06-30T07:15:53.201Z</time>
      </trkpt>
      <trkpt lat="48.21315" lon="-4.31854">
        <ele>60.41210118551</ele>
        <time>2021-06-30T07:16:17.919Z</time>
      </trkpt>
      <trkpt lat="48.21254" lon="-4.31799">
        <ele>58.74375660149</ele>
        <time>2021-06-30T07:16:42.648Z</time>
      </trkpt>
      <trkpt lat="48.2113" lon="-4.31695">
        <ele>57.06108135537</ele>
        <time>2021-06-30T07:17:07.400Z</time>
      </trkpt>
      <trkpt lat="48.21118" lon="-4.31684">
        <ele>55.49260267322</ele>
        <time>2021-06-30T07:17:32.154Z</time>
      </trkpt>
      <trkpt lat="48.20989" lon="-4.31579">
        <ele>53.47043716734</ele>
        <time>2021-06-30T07:17:56.931Z</time>
      </trkpt>
      <trkpt lat="48.20889" lon="-4.31501">
        <ele>51.57598292052</ele>
        <time>2021-06-30T07:18:21.727Z</time>
      </trkpt>
      <trkpt lat="48.2076" lon="-4.31399">
        <ele>50.65924628838</ele>
        <time>2021-06-30T07:18:46.546Z</time>
      </trkpt>
      <trkpt lat="48.207" lon="-4.31353">
        <ele>49.57868156063</ele>
        <time>2021-06-30T07:19:11.376Z</time>
      </trkpt>
      <trkpt lat="48.207" lon="-4.31353">
        <ele>48.31529951599</ele>
        <time>2021-06-30T07:19:36.206Z</time>
      </trkpt>
      <trkpt lat="48.20666" lon="-4.31327">
        <ele>47.19993003073</ele>
        <time>2021-06-30T07:20:01.042Z</time>
      </trkpt>
      <trkpt lat="48.20625" lon="-4.31305">
        <ele>46.19349829864</ele>
        <time>2021-06-30T07:20:25.885Z</time>
      </trkpt>
      <trkpt lat="48.20529" lon="-4.3127">
        <ele>45.33791437613</ele>
        <time>2021-06-30T07:20:50.744Z</time>
      </trkpt>
      <trkpt lat="48.20463" lon="-4.3125">
        <ele>44.27960909181</ele>
        <time>2021-06-30T07:21:15.613Z</time>
      </trkpt>
      <trkpt lat="48.20426" lon="-4.31237">
        <ele>43.16917029586</ele>
        <time>2021-06-30T07:21:40.488Z</time>
      </trkpt>
      <trkpt lat="48.2041" lon="-4.31228">
        <ele>42.11357583246</ele>
        <time>2021-06-30T07:22:05.366Z</time>
      </trkpt>
      <trkpt lat="48.20397" lon="-4.31218">
        <ele>41.06424463541</ele>
        <time>2021-06-30T07:22:30.246Z</time>
      </trkpt>
      <trkpt lat="48.20388" lon="-4.31207">
        <ele>40.00553695736</ele>
        <time>2021-06-30T07:22:55.128Z</time>
      </trkpt>
      <trkpt lat="48.20366" lon="-4.31181">
        <ele>38.90434196605</ele>
        <time>2021-06-30T07:23:20.015Z</time>
      </trkpt>
      <trkpt lat="48.20203" lon="-4.30973">
        <ele>37.28462209697</ele>
        <time>2021-06-30T07:23:44.936Z</time>
      </trkpt>
      <trkpt lat="48.20203" lon="-4.30973">
        <ele>36.28492896378</ele>
        <time>2021-06-30T07:24:09.857Z</time>
      </trkpt>
      <trkpt lat="48.20096" lon="-4.30839">
        <ele>35.17946199477</ele>
        <time>2021-06-30T07:24:34.801Z</time>
      </trkpt>
      <trkpt lat="48.20096" lon="-4.30839">
        <ele>34.19900492783</ele>
        <time>2021-06-30T07:24:59.745Z</time>
      </trkpt>
      <trkpt lat="48.2002" lon="-4.30746">
        <ele>33.24705610308</ele>
        <time>2021-06-30T07:25:24.704Z</time>
      </trkpt>
      <trkpt lat="48.1996" lon="-4.30667">
        <ele>32.28594934104</ele>
        <time>2021-06-30T07:25:49.676Z</time>
      </trkpt>
      <trkpt lat="48.1996" lon="-4.30667">
        <ele>31.3211502489</ele>
        <time>2021-06-30T07:26:14.648Z</time>
      </trkpt>
      <trkpt lat="48.19864" lon="-4.30544">
        <ele>30.57421635424</ele>
        <time>2021-06-30T07:26:39.640Z</time>
      </trkpt>
      <trkpt lat="48.19812" lon="-4.30488">
        <ele>29.5487235923</ele>
        <time>2021-06-30T07:27:04.643Z</time>
      </trkpt>
      <trkpt lat="48.19794" lon="-4.30468">
        <ele>28.51822721874</ele>
        <time>2021-06-30T07:27:29.649Z</time>
      </trkpt>
      <trkpt lat="48.19764" lon="-4.30431">
        <ele>27.41167923592</ele>
        <time>2021-06-30T07:27:54.661Z</time>
      </trkpt>
      <trkpt lat="48.19764" lon="-4.30431">
        <ele>26.43891065036</ele>
        <time>2021-06-30T07:28:19.673Z</time>
      </trkpt>
      <trkpt lat="48.19752" lon="-4.30414">
        <ele>25.38856775403</ele>
        <time>2021-06-30T07:28:44.688Z</time>
      </trkpt>
      <trkpt lat="48.19746" lon="-4.304">
        <ele>24.36937216031</ele>
        <time>2021-06-30T07:29:09.705Z</time>
      </trkpt>
      <trkpt lat="48.19744" lon="-4.30386">
        <ele>23.34334476985</ele>
        <time>2021-06-30T07:29:34.723Z</time>
      </trkpt>
      <trkpt lat="48.19748" lon="-4.30354">
        <ele>22.30363239947</ele>
        <time>2021-06-30T07:29:59.745Z</time>
      </trkpt>
      <trkpt lat="48.19763" lon="-4.30286">
        <ele>21.28268252775</ele>
        <time>2021-06-30T07:30:24.774Z</time>
      </trkpt>
      <trkpt lat="48.19764" lon="-4.30277">
        <ele>20.27737609183</ele>
        <time>2021-06-30T07:30:49.804Z</time>
      </trkpt>
      <trkpt lat="48.19761" lon="-4.30268">
        <ele>19.22758556327</ele>
        <time>2021-06-30T07:31:14.836Z</time>
      </trkpt>
      <trkpt lat="48.19758" lon="-4.30265">
        <ele>18.20117437075</ele>
        <time>2021-06-30T07:31:39.868Z</time>
      </trkpt>
      <trkpt lat="48.19747" lon="-4.30267">
        <ele>17.14740544895</ele>
        <time>2021-06-30T07:32:04.902Z</time>
      </trkpt>
      <trkpt lat="48.1974" lon="-4.30271">
        <ele>16.14615290204</ele>
        <time>2021-06-30T07:32:29.937Z</time>
      </trkpt>
      <trkpt lat="48.19708" lon="-4.30301">
        <ele>15.15774342959</ele>
        <time>2021-06-30T07:32:54.978Z</time>
      </trkpt>
      <trkpt lat="48.19662" lon="-4.30349">
        <ele>13.93382012098</ele>
        <time>2021-06-30T07:33:20.028Z</time>
      </trkpt>
      <trkpt lat="48.19657" lon="-4.30353">
        <ele>12.94448149484</ele>
        <time>2021-06-30T07:33:45.079Z</time>
      </trkpt>
      <trkpt lat="48.19645" lon="-4.30355">
        <ele>11.95674396346</ele>
        <time>2021-06-30T07:34:10.132Z</time>
      </trkpt>
      <trkpt lat="48.19632" lon="-4.30351">
        <ele>10.98398705063</ele>
        <time>2021-06-30T07:34:35.187Z</time>
      </trkpt>
      <trkpt lat="48.19615" lon="-4.30338">
        <ele>10.00671127103</ele>
        <time>2021-06-30T07:35:00.245Z</time>
      </trkpt>
      <trkpt lat="48.19612" lon="-4.30333">
        <ele>9.10350310592</ele>
        <time>2021-06-30T07:35:25.304Z</time>
      </trkpt>
      <trkpt lat="48.19603" lon="-4.30299">
        <ele>8.23234263792</ele>
        <time>2021-06-30T07:35:50.367Z</time>
      </trkpt>
      <trkpt lat="48.19599" lon="-4.30293">
        <ele>7.36598429111</ele>
        <time>2021-06-30T07:36:15.431Z</time>
      </trkpt>
      <trkpt lat="48.19593" lon="-4.30293">
        <ele>6.51021706159</ele>
        <time>2021-06-30T07:36:40.496Z</time>
      </trkpt>
      <trkpt lat="48.19577" lon="-4.30305">
        <ele>5.63893178261</ele>
        <time>2021-06-30T07:37:05.564Z</time>
      </trkpt>
      <trkpt lat="48.19568" lon="-4.30308">
        <ele>4.83661037192</ele>
        <time>2021-06-30T07:37:30.633Z</time>
      </trkpt>
      <trkpt lat="48.19506" lon="-4.30281">
        <ele>4.16594565715</ele>
        <time>2021-06-30T07:37:55.712Z</time>
      </trkpt>
      <trkpt lat="48.19506" lon="-4.30281">
        <ele>3.42465403407</ele>
        <time>2021-06-30T07:38:20.791Z</time>
      </trkpt>
      <trkpt lat="48.19492" lon="-4.30275">
        <ele>2.72271124143</ele>
        <time>2021-06-30T07:38:45.873Z</time>
      </trkpt>
      <trkpt lat="48.19478" lon="-4.30269">
        <ele>2.01955322338</ele>
        <time>2021-06-30T07:39:10.957Z</time>
      </trkpt>
      <trkpt lat="48.19464" lon="-4.30264">
        <ele>1.33612818551</ele>
        <time>2021-06-30T07:39:36.043Z</time>
      </trkpt>
      <trkpt lat="48.19449" lon="-4.30257">
        <ele>0.64056894088</ele>
        <time>2021-06-30T07:40:01.132Z</time>
      </trkpt>
      <trkpt lat="48.1943" lon="-4.3025">
        <ele>-0.0217385414</ele>
        <time>2021-06-30T07:40:26.224Z</time>
      </trkpt>
      <trkpt lat="48.19416" lon="-4.30243">
        <ele>-0.63476032354</ele>
        <time>2021-06-30T07:40:51.318Z</time>
      </trkpt>
      <trkpt lat="48.19375" lon="-4.30227">
        <ele>-1.2384007268</ele>
        <time>2021-06-30T07:41:16.419Z</time>
      </trkpt>
      <trkpt lat="48.19327" lon="-4.30202">
        <ele>-1.81303042335</ele>
        <time>2021-06-30T07:41:41.528Z</time>
      </trkpt>
      <trkpt lat="48.19285" lon="-4.30176">
        <ele>-2.34870736059</ele>
        <time>2021-06-30T07:42:06.645Z</time>
      </trkpt>
      <trkpt lat="48.19247" lon="-4.30152">
        <ele>-2.8887066867</ele>
        <time>2021-06-30T07:42:31.768Z</time>
      </trkpt>
      <trkpt lat="48.19247" lon="-4.30152">
        <ele>-3.36153093346</ele>
        <time>2021-06-30T07:42:56.891Z</time>
      </trkpt>
      <trkpt lat="48.19145" lon="-4.30085">
        <ele>-3.76526287927</ele>
        <time>2021-06-30T07:43:22.032Z</time>
      </trkpt>
      <trkpt lat="48.19127" lon="-4.30079">
        <ele>-4.12733474968</ele>
        <time>2021-06-30T07:43:47.176Z</time>
      </trkpt>
      <trkpt lat="48.19115" lon="-4.30072">
        <ele>-4.5805077062</ele>
        <time>2021-06-30T07:44:12.322Z</time>
      </trkpt>
      <trkpt lat="48.19105" lon="-4.30063">
        <ele>-4.92025431723</ele>
        <time>2021-06-30T07:44:37.470Z</time>
      </trkpt>
      <trkpt lat="48.19093" lon="-4.30049">
        <ele>-5.16907500105</ele>
        <time>2021-06-30T07:45:02.620Z</time>
      </trkpt>
      <trkpt lat="48.19063" lon="-4.3003">
        <ele>-5.50324302683</ele>
        <time>2021-06-30T07:45:27.776Z</time>
      </trkpt>
      <trkpt lat="48.18926" lon="-4.2994">
        <ele>-5.84736727539</ele>
        <time>2021-06-30T07:45:52.955Z</time>
      </trkpt>
      <trkpt lat="48.18926" lon="-4.2994">
        <ele>-6.09731417259</ele>
        <time>2021-06-30T07:46:18.134Z</time>
      </trkpt>
      <trkpt lat="48.18852" lon="-4.29892">
        <ele>-6.26359345392</ele>
        <time>2021-06-30T07:46:43.326Z</time>
      </trkpt>
      <trkpt lat="48.18746" lon="-4.2982">
        <ele>-6.49181895939</ele>
        <time>2021-06-30T07:47:08.537Z</time>
      </trkpt>
      <trkpt lat="48.18636" lon="-4.2973">
        <ele>-6.71889747834</ele>
        <time>2021-06-30T07:47:33.768Z</time>
      </trkpt>
      <trkpt lat="48.18636" lon="-4.2973">
        <ele>-6.83562635906</ele>
        <time>2021-06-30T07:47:58.999Z</time>
      </trkpt>
      <trkpt lat="48.18537" lon="-4.29649">
        <ele>-6.92588632604</ele>
        <time>2021-06-30T07:48:24.248Z</time>
      </trkpt>
      <trkpt lat="48.18537" lon="-4.29649">
        <ele>-6.9663942471</ele>
        <time>2021-06-30T07:48:49.497Z</time>
      </trkpt>
      <trkpt lat="48.18509" lon="-4.29619">
        <ele>-6.92710767903</ele>
        <time>2021-06-30T07:49:14.752Z</time>
      </trkpt>
      <trkpt lat="48.18482" lon="-4.29586">
        <ele>-6.93946630733</ele>
        <time>2021-06-30T07:49:40.012Z</time>
      </trkpt>
      <trkpt lat="48.18475" lon="-4.29565">
        <ele>-6.80974343817</ele>
        <time>2021-06-30T07:50:05.275Z</time>
      </trkpt>
      <trkpt lat="48.18473" lon="-4.2953">
        <ele>-6.65681231651</ele>
        <time>2021-06-30T07:50:30.542Z</time>
      </trkpt>
      <trkpt lat="48.18472" lon="-4.2952">
        <ele>-6.44368134738</ele>
        <time>2021-06-30T07:50:55.810Z</time>
      </trkpt>
      <trkpt lat="48.18468" lon="-4.29514">
        <ele>-6.20343466916</ele>
        <time>2021-06-30T07:51:21.078Z</time>
      </trkpt>
      <trkpt lat="48.1846" lon="-4.29503">
        <ele>-5.91922621655</ele>
        <time>2021-06-30T07:51:46.348Z</time>
      </trkpt>
      <trkpt lat="48.1846" lon="-4.29503">
        <ele>-5.58818610712</ele>
        <time>2021-06-30T07:52:11.618Z</time>
      </trkpt>
      <trkpt lat="48.18411" lon="-4.29467">
        <ele>-5.2434832142</ele>
        <time>2021-06-30T07:52:36.897Z</time>
      </trkpt>
      <trkpt lat="48.18411" lon="-4.29467">
        <ele>-4.80139966127</ele>
        <time>2021-06-30T07:53:02.176Z</time>
      </trkpt>
      <trkpt lat="48.18391" lon="-4.29452">
        <ele>-4.30077034879</ele>
        <time>2021-06-30T07:53:27.459Z</time>
      </trkpt>
      <trkpt lat="48.18381" lon="-4.29452">
        <ele>-3.72751294458</ele>
        <time>2021-06-30T07:53:52.743Z</time>
      </trkpt>
      <trkpt lat="48.18372" lon="-4.29457">
        <ele>-3.10986419241</ele>
        <time>2021-06-30T07:54:18.029Z</time>
      </trkpt>
      <trkpt lat="48.18372" lon="-4.29457">
        <ele>-2.42341970745</ele>
        <time>2021-06-30T07:54:43.315Z</time>
      </trkpt>
      <trkpt lat="48.18357" lon="-4.29471">
        <ele>-1.69555213481</ele>
        <time>2021-06-30T07:55:08.604Z</time>
      </trkpt>
      <trkpt lat="48.1835" lon="-4.29474">
        <ele>-0.88577765214</ele>
        <time>2021-06-30T07:55:33.894Z</time>
      </trkpt>
      <trkpt lat="48.18301" lon="-4.29472">
        <ele>-0.04081210961</ele>
        <time>2021-06-30T07:55:59.192Z</time>
      </trkpt>
      <trkpt lat="48.18273" lon="-4.29468">
        <ele>0.90268731915</ele>
        <time>2021-06-30T07:56:24.494Z</time>
      </trkpt>
      <trkpt lat="48.18252" lon="-4.29459">
        <ele>1.94488603932</ele>
        <time>2021-06-30T07:56:49.800Z</time>
      </trkpt>
      <trkpt lat="48.18053" lon="-4.29368">
        <ele>3.08173719372</ele>
        <time>2021-06-30T07:57:15.139Z</time>
      </trkpt>
      <trkpt lat="48.18053" lon="-4.29368">
        <ele>4.24288511548</ele>
        <time>2021-06-30T07:57:40.478Z</time>
      </trkpt>
      <trkpt lat="48.1785" lon="-4.29264">
        <ele>5.62039926591</ele>
        <time>2021-06-30T07:58:05.851Z</time>
      </trkpt>
      <trkpt lat="48.17687" lon="-4.29145">
        <ele>6.91769827503</ele>
        <time>2021-06-30T07:58:31.253Z</time>
      </trkpt>
      <trkpt lat="48.17658" lon="-4.29116">
        <ele>8.27719311206</ele>
        <time>2021-06-30T07:58:56.661Z</time>
      </trkpt>
      <trkpt lat="48.17649" lon="-4.29106">
        <ele>9.68548651964</ele>
        <time>2021-06-30T07:59:22.071Z</time>
      </trkpt>
      <trkpt lat="48.17623" lon="-4.29073">
        <ele>11.13465493206</ele>
        <time>2021-06-30T07:59:47.486Z</time>
      </trkpt>
      <trkpt lat="48.17596" lon="-4.29032">
        <ele>12.65934574103</ele>
        <time>2021-06-30T08:00:12.907Z</time>
      </trkpt>
      <trkpt lat="48.17582" lon="-4.29008">
        <ele>14.28574490517</ele>
        <time>2021-06-30T08:00:38.332Z</time>
      </trkpt>
      <trkpt lat="48.17556" lon="-4.29001">
        <ele>15.97306346569</ele>
        <time>2021-06-30T08:01:03.761Z</time>
      </trkpt>
      <trkpt lat="48.17536" lon="-4.28994">
        <ele>17.7665091182</ele>
        <time>2021-06-30T08:01:29.193Z</time>
      </trkpt>
      <trkpt lat="48.17523" lon="-4.28984">
        <ele>19.5978108658</ele>
        <time>2021-06-30T08:01:54.628Z</time>
      </trkpt>
      <trkpt lat="48.17497" lon="-4.28951">
        <ele>21.52189720021</ele>
        <time>2021-06-30T08:02:20.068Z</time>
      </trkpt>
      <trkpt lat="48.17459" lon="-4.28929">
        <ele>23.48824994654</ele>
        <time>2021-06-30T08:02:45.515Z</time>
      </trkpt>
      <trkpt lat="48.17435" lon="-4.28903">
        <ele>25.40236832736</ele>
        <time>2021-06-30T08:03:10.966Z</time>
      </trkpt>
      <trkpt lat="48.17425" lon="-4.28883">
        <ele>27.25374675409</ele>
        <time>2021-06-30T08:03:36.420Z</time>
      </trkpt>
      <trkpt lat="48.17414" lon="-4.28859">
        <ele>29.13974705357</ele>
        <time>2021-06-30T08:04:01.877Z</time>
      </trkpt>
      <trkpt lat="48.17384" lon="-4.28771">
        <ele>31.07855231593</ele>
        <time>2021-06-30T08:04:27.345Z</time>
      </trkpt>
      <trkpt lat="48.17353" lon="-4.28682">
        <ele>33.00164651018</ele>
        <time>2021-06-30T08:04:52.823Z</time>
      </trkpt>
      <trkpt lat="48.17336" lon="-4.28638">
        <ele>34.86304410177</ele>
        <time>2021-06-30T08:05:18.307Z</time>
      </trkpt>
      <trkpt lat="48.17298" lon="-4.28524">
        <ele>36.82765775418</ele>
        <time>2021-06-30T08:05:43.805Z</time>
      </trkpt>
      <trkpt lat="48.17272" lon="-4.28465">
        <ele>38.65340302104</ele>
        <time>2021-06-30T08:06:09.310Z</time>
      </trkpt>
      <trkpt lat="48.1724" lon="-4.28413">
        <ele>40.54290988245</ele>
        <time>2021-06-30T08:06:34.823Z</time>
      </trkpt>
      <trkpt lat="48.172" lon="-4.28372">
        <ele>42.34507322628</ele>
        <time>2021-06-30T08:07:00.343Z</time>
      </trkpt>
      <trkpt lat="48.17185" lon="-4.28354">
        <ele>44.0678246606</ele>
        <time>2021-06-30T08:07:25.867Z</time>
      </trkpt>
      <trkpt lat="48.17185" lon="-4.28354">
        <ele>45.67566630368</ele>
        <time>2021-06-30T08:07:51.391Z</time>
      </trkpt>
      <trkpt lat="48.17181" lon="-4.28349">
        <ele>47.23404453511</ele>
        <time>2021-06-30T08:08:16.915Z</time>
      </trkpt>
      <trkpt lat="48.1708" lon="-4.28266">
        <ele>49.03319865026</ele>
        <time>2021-06-30T08:08:42.458Z</time>
      </trkpt>
      <trkpt lat="48.1708" lon="-4.28266">
        <ele>50.43535571976</ele>
        <time>2021-06-30T08:09:08.001Z</time>
      </trkpt>
      <trkpt lat="48.17037" lon="-4.28218">
        <ele>51.81141087064</ele>
        <time>2021-06-30T08:09:33.552Z</time>
      </trkpt>
      <trkpt lat="48.16995" lon="-4.28145">
        <ele>53.1045577183</ele>
        <time>2021-06-30T08:09:59.114Z</time>
      </trkpt>
      <trkpt lat="48.16975" lon="-4.28085">
        <ele>54.28949113244</ele>
        <time>2021-06-30T08:10:24.683Z</time>
      </trkpt>
      <trkpt lat="48.16975" lon="-4.28085">
        <ele>55.33920229766</ele>
        <time>2021-06-30T08:10:50.252Z</time>
      </trkpt>
      <trkpt lat="48.16971" lon="-4.28071">
        <ele>56.2593786651</ele>
        <time>2021-06-30T08:11:15.823Z</time>
      </trkpt>
      <trkpt lat="48.16959" lon="-4.28023">
        <ele>57.01692643196</ele>
        <time>2021-06-30T08:11:41.399Z</time>
      </trkpt>
      <trkpt lat="48.16959" lon="-4.28023">
        <ele>57.76588471614</ele>
        <time>2021-06-30T08:12:06.975Z</time>
      </trkpt>
      <trkpt lat="48.16929" lon="-4.27895">
        <ele>58.39568356076</ele>
        <time>2021-06-30T08:12:32.566Z</time>
      </trkpt>
      <trkpt lat="48.16903" lon="-4.27759">
        <ele>59.02031527198</ele>
        <time>2021-06-30T08:12:58.172Z</time>
      </trkpt>
      <trkpt lat="48.16889" lon="-4.27688">
        <ele>59.38651600646</ele>
        <time>2021-06-30T08:13:23.786Z</time>
      </trkpt>
      <trkpt lat="48.16854" lon="-4.27511">
        <ele>59.67806107184</ele>
        <time>2021-06-30T08:13:49.419Z</time>
      </trkpt>
      <trkpt lat="48.16844" lon="-4.27442">
        <ele>59.95260676852</ele>
        <time>2021-06-30T08:14:15.060Z</time>
      </trkpt>
      <trkpt lat="48.16829" lon="-4.27361">
        <ele>59.99144860169</ele>
        <time>2021-06-30T08:14:40.710Z</time>
      </trkpt>
      <trkpt lat="48.16826" lon="-4.27323">
        <ele>59.98755813072</ele>
        <time>2021-06-30T08:15:06.364Z</time>
      </trkpt>
      <trkpt lat="48.16818" lon="-4.27288">
        <ele>59.9088310623</ele>
        <time>2021-06-30T08:15:32.022Z</time>
      </trkpt>
      <trkpt lat="48.16802" lon="-4.27202">
        <ele>59.70329631174</ele>
        <time>2021-06-30T08:15:57.690Z</time>
      </trkpt>
      <trkpt lat="48.16802" lon="-4.27202">
        <ele>59.38694225071</ele>
        <time>2021-06-30T08:16:23.358Z</time>
      </trkpt>
      <trkpt lat="48.16775" lon="-4.27054">
        <ele>59.06404347419</ele>
        <time>2021-06-30T08:16:49.042Z</time>
      </trkpt>
      <trkpt lat="48.16735" lon="-4.26816">
        <ele>58.48791847129</ele>
        <time>2021-06-30T08:17:14.752Z</time>
      </trkpt>
      <trkpt lat="48.16733" lon="-4.268">
        <ele>57.86590653993</ele>
        <time>2021-06-30T08:17:40.464Z</time>
      </trkpt>
      <trkpt lat="48.16735" lon="-4.26775">
        <ele>57.14317103274</ele>
        <time>2021-06-30T08:18:06.179Z</time>
      </trkpt>
      <trkpt lat="48.16728" lon="-4.26774">
        <ele>56.3198314521</ele>
        <time>2021-06-30T08:18:31.895Z</time>
      </trkpt>
      <trkpt lat="48.16721" lon="-4.26768">
        <ele>55.40228114649</ele>
        <time>2021-06-30T08:18:57.612Z</time>
      </trkpt>
      <trkpt lat="48.16716" lon="-4.26761">
        <ele>54.40464923087</ele>
        <time>2021-06-30T08:19:23.330Z</time>
      </trkpt>
      <trkpt lat="48.16713" lon="-4.26752">
        <ele>53.32505421913</ele>
        <time>2021-06-30T08:19:49.049Z</time>
      </trkpt>
      <trkpt lat="48.16714" lon="-4.26735">
        <ele>52.17202584379</ele>
        <time>2021-06-30T08:20:14.770Z</time>
      </trkpt>
      <trkpt lat="48.16722" lon="-4.26722">
        <ele>50.95306948234</ele>
        <time>2021-06-30T08:20:40.493Z</time>
      </trkpt>
      <trkpt lat="48.1671" lon="-4.26689">
        <ele>49.64425176469</ele>
        <time>2021-06-30T08:21:06.220Z</time>
      </trkpt>
      <trkpt lat="48.16697" lon="-4.26609">
        <ele>48.1911675382</ele>
        <time>2021-06-30T08:21:31.956Z</time>
      </trkpt>
      <trkpt lat="48.16692" lon="-4.26586">
        <ele>46.76324356955</ele>
        <time>2021-06-30T08:21:57.694Z</time>
      </trkpt>
      <trkpt lat="48.16676" lon="-4.26527">
        <ele>45.26550751753</ele>
        <time>2021-06-30T08:22:23.439Z</time>
      </trkpt>
      <trkpt lat="48.16651" lon="-4.2646">
        <ele>43.64736432376</ele>
        <time>2021-06-30T08:22:49.192Z</time>
      </trkpt>
      <trkpt lat="48.16651" lon="-4.2646">
        <ele>42.09993486758</ele>
        <time>2021-06-30T08:23:14.945Z</time>
      </trkpt>
      <trkpt lat="48.16604" lon="-4.26329">
        <ele>40.26782592112</ele>
        <time>2021-06-30T08:23:40.714Z</time>
      </trkpt>
      <trkpt lat="48.16566" lon="-4.2625">
        <ele>38.55101077558</ele>
        <time>2021-06-30T08:24:06.494Z</time>
      </trkpt>
      <trkpt lat="48.16566" lon="-4.2625">
        <ele>36.94499645762</ele>
        <time>2021-06-30T08:24:32.274Z</time>
      </trkpt>
      <trkpt lat="48.16534" lon="-4.26204">
        <ele>35.29427608709</ele>
        <time>2021-06-30T08:24:58.061Z</time>
      </trkpt>
      <trkpt lat="48.16474" lon="-4.26146">
        <ele>33.64791028414</ele>
        <time>2021-06-30T08:25:23.859Z</time>
      </trkpt>
      <trkpt lat="48.16392" lon="-4.26074">
        <ele>32.06379316085</ele>
        <time>2021-06-30T08:25:49.672Z</time>
      </trkpt>
      <trkpt lat="48.16343" lon="-4.26014">
        <ele>30.46587700021</ele>
        <time>2021-06-30T08:26:15.496Z</time>
      </trkpt>
      <trkpt lat="48.16259" lon="-4.2587">
        <ele>28.92950031934</ele>
        <time>2021-06-30T08:26:41.340Z</time>
      </trkpt>
      <trkpt lat="48.1625" lon="-4.25852">
        <ele>27.44067013002</ele>
        <time>2021-06-30T08:27:07.187Z</time>
      </trkpt>
      <trkpt lat="48.16218" lon="-4.25797">
        <ele>25.92914033108</ele>
        <time>2021-06-30T08:27:33.041Z</time>
      </trkpt>
      <trkpt lat="48.16179" lon="-4.25742">
        <ele>24.44656309431</ele>
        <time>2021-06-30T08:27:58.904Z</time>
      </trkpt>
      <trkpt lat="48.16141" lon="-4.25707">
        <ele>23.0244846075</ele>
        <time>2021-06-30T08:28:24.774Z</time>
      </trkpt>
      <trkpt lat="48.16088" lon="-4.25657">
        <ele>21.54402516434</ele>
        <time>2021-06-30T08:28:50.654Z</time>
      </trkpt>
      <trkpt lat="48.16054" lon="-4.25619">
        <ele>20.16402534398</ele>
        <time>2021-06-30T08:29:16.541Z</time>
      </trkpt>
      <trkpt lat="48.16035" lon="-4.25583">
        <ele>18.93034113526</ele>
        <time>2021-06-30T08:29:42.433Z</time>
      </trkpt>
      <trkpt lat="48.16024" lon="-4.25544">
        <ele>17.85434187962</ele>
        <time>2021-06-30T08:30:08.329Z</time>
      </trkpt>
      <trkpt lat="48.16019" lon="-4.25499">
        <ele>16.84412629031</ele>
        <time>2021-06-30T08:30:34.230Z</time>
      </trkpt>
      <trkpt lat="48.16013" lon="-4.25411">
        <ele>15.88933397652</ele>
        <time>2021-06-30T08:31:00.141Z</time>
      </trkpt>
      <trkpt lat="48.16006" lon="-4.25293">
        <ele>14.95967980622</ele>
        <time>2021-06-30T08:31:26.064Z</time>
      </trkpt>
      <trkpt lat="48.16004" lon="-4.2526">
        <ele>14.32920400856</ele>
        <time>2021-06-30T08:31:51.991Z</time>
      </trkpt>
      <trkpt lat="48.16" lon="-4.25201">
        <ele>13.78458354712</ele>
        <time>2021-06-30T08:32:17.924Z</time>
      </trkpt>
      <trkpt lat="48.15997" lon="-4.25122">
        <ele>13.34807780989</ele>
        <time>2021-06-30T08:32:43.866Z</time>
      </trkpt>
      <trkpt lat="48.15999" lon="-4.25075">
        <ele>13.13344794141</ele>
        <time>2021-06-30T08:33:09.813Z</time>
      </trkpt>
      <trkpt lat="48.15999" lon="-4.25075">
        <ele>12.95280898986</ele>
        <time>2021-06-30T08:33:35.760Z</time>
      </trkpt>
      <trkpt lat="48.16005" lon="-4.25035">
        <ele>12.97910146892</ele>
        <time>2021-06-30T08:34:01.711Z</time>
      </trkpt>
      <trkpt lat="48.16008" lon="-4.24995">
        <ele>13.15236717568</ele>
        <time>2021-06-30T08:34:27.667Z</time>
      </trkpt>
      <trkpt lat="48.16006" lon="-4.2497">
        <ele>13.39214852172</ele>
        <time>2021-06-30T08:34:53.625Z</time>
      </trkpt>
      <trkpt lat="48.15997" lon="-4.24939">
        <ele>13.75194389126</ele>
        <time>2021-06-30T08:35:19.587Z</time>
      </trkpt>
      <trkpt lat="48.15984" lon="-4.24912">
        <ele>14.19774742808</ele>
        <time>2021-06-30T08:35:45.552Z</time>
      </trkpt>
      <trkpt lat="48.1597" lon="-4.24889">
        <ele>14.76027109638</ele>
        <time>2021-06-30T08:36:11.521Z</time>
      </trkpt>
      <trkpt lat="48.15947" lon="-4.24872">
        <ele>15.45075027327</ele>
        <time>2021-06-30T08:36:37.494Z</time>
      </trkpt>
      <trkpt lat="48.159" lon="-4.24837">
        <ele>16.3492284835</ele>
        <time>2021-06-30T08:37:03.475Z</time>
      </trkpt>
      <trkpt lat="48.15847" lon="-4.24775">
        <ele>17.37912882201</ele>
        <time>2021-06-30T08:37:29.467Z</time>
      </trkpt>
      <trkpt lat="48.15798" lon="-4.24722">
        <ele>18.34451459098</ele>
        <time>2021-06-30T08:37:55.469Z</time>
      </trkpt>
      <trkpt lat="48.15743" lon="-4.24669">
        <ele>19.41812116443</ele>
        <time>2021-06-30T08:38:21.481Z</time>
      </trkpt>
      <trkpt lat="48.15709" lon="-4.24628">
        <ele>20.55056690728</ele>
        <time>2021-06-30T08:38:47.500Z</time>
      </trkpt>
      <trkpt lat="48.15633" lon="-4.24516">
        <ele>21.66414175023</ele>
        <time>2021-06-30T08:39:13.536Z</time>
      </trkpt>
      <trkpt lat="48.15577" lon="-4.24431">
        <ele>22.87524107369</ele>
        <time>2021-06-30T08:39:39.585Z</time>
      </trkpt>
      <trkpt lat="48.15513" lon="-4.24315">
        <ele>24.08053288303</ele>
        <time>2021-06-30T08:40:05.650Z</time>
      </trkpt>
      <trkpt lat="48.15476" lon="-4.24256">
        <ele>25.4168396855</ele>
        <time>2021-06-30T08:40:31.724Z</time>
      </trkpt>
      <trkpt lat="48.15462" lon="-4.24232">
        <ele>26.8578523283</ele>
        <time>2021-06-30T08:40:57.801Z</time>
      </trkpt>
      <trkpt lat="48.15435" lon="-4.24198">
        <ele>28.35402596019</ele>
        <time>2021-06-30T08:41:23.884Z</time>
      </trkpt>
      <trkpt lat="48.15325" lon="-4.24066">
        <ele>30.03925430731</ele>
        <time>2021-06-30T08:41:49.990Z</time>
      </trkpt>
      <trkpt lat="48.15204" lon="-4.2393">
        <ele>31.8110683869</ele>
        <time>2021-06-30T08:42:16.120Z</time>
      </trkpt>
      <trkpt lat="48.14963" lon="-4.23644">
        <ele>33.89507065229</ele>
        <time>2021-06-30T08:42:42.299Z</time>
      </trkpt>
      <trkpt lat="48.1497" lon="-4.23624">
        <ele>35.70608663424</ele>
        <time>2021-06-30T08:43:08.480Z</time>
      </trkpt>
      <trkpt lat="48.14979" lon="-4.23583">
        <ele>37.53115838695</ele>
        <time>2021-06-30T08:43:34.666Z</time>
      </trkpt>
      <trkpt lat="48.14977" lon="-4.23564">
        <ele>39.43865656812</ele>
        <time>2021-06-30T08:44:00.854Z</time>
      </trkpt>
      <trkpt lat="48.14977" lon="-4.23564">
        <ele>41.40268496336</ele>
        <time>2021-06-30T08:44:27.042Z</time>
      </trkpt>
      <trkpt lat="48.1491" lon="-4.23548">
        <ele>43.40494585609</ele>
        <time>2021-06-30T08:44:53.241Z</time>
      </trkpt>
      <trkpt lat="48.14871" lon="-4.23532">
        <ele>45.42586368881</ele>
        <time>2021-06-30T08:45:19.447Z</time>
      </trkpt>
      <trkpt lat="48.14668" lon="-4.23424">
        <ele>47.70973182357</ele>
        <time>2021-06-30T08:45:45.687Z</time>
      </trkpt>
      <trkpt lat="48.14573" lon="-4.23373">
        <ele>50.01638657464</ele>
        <time>2021-06-30T08:46:11.943Z</time>
      </trkpt>
      <trkpt lat="48.14523" lon="-4.23343">
        <ele>52.11933778254</ele>
        <time>2021-06-30T08:46:38.208Z</time>
      </trkpt>
      <trkpt lat="48.14454" lon="-4.23288">
        <ele>54.3449455602</ele>
        <time>2021-06-30T08:47:04.485Z</time>
      </trkpt>
      <trkpt lat="48.14454" lon="-4.23288">
        <ele>56.44805577055</ele>
        <time>2021-06-30T08:47:30.762Z</time>
      </trkpt>
      <trkpt lat="48.14355" lon="-4.23208">
        <ele>58.72641966371</ele>
        <time>2021-06-30T08:47:57.057Z</time>
      </trkpt>
      <trkpt lat="48.14324" lon="-4.23185">
        <ele>60.85330575526</ele>
        <time>2021-06-30T08:48:23.358Z</time>
      </trkpt>
      <trkpt lat="48.14249" lon="-4.23138">
        <ele>62.98375613282</ele>
        <time>2021-06-30T08:48:49.672Z</time>
      </trkpt>
      <trkpt lat="48.14174" lon="-4.2308">
        <ele>65.09215360233</ele>
        <time>2021-06-30T08:49:15.999Z</time>
      </trkpt>
      <trkpt lat="48.1392" lon="-4.22867">
        <ele>67.35982994424</ele>
        <time>2021-06-30T08:49:42.373Z</time>
      </trkpt>
      <trkpt lat="48.13858" lon="-4.22819">
        <ele>69.45999759232</ele>
        <time>2021-06-30T08:50:08.758Z</time>
      </trkpt>
      <trkpt lat="48.13826" lon="-4.22799">
        <ele>71.38469408278</ele>
        <time>2021-06-30T08:50:35.149Z</time>
      </trkpt>
      <trkpt lat="48.13801" lon="-4.22786">
        <ele>73.29317838865</ele>
        <time>2021-06-30T08:51:01.544Z</time>
      </trkpt>
      <trkpt lat="48.13772" lon="-4.22775">
        <ele>75.13825055064</ele>
        <time>2021-06-30T08:51:27.944Z</time>
      </trkpt>
      <trkpt lat="48.13724" lon="-4.22763">
        <ele>76.91436712272</ele>
        <time>2021-06-30T08:51:54.352Z</time>
      </trkpt>
      <trkpt lat="48.13465" lon="-4.22712">
        <ele>78.80233559801</ele>
        <time>2021-06-30T08:52:20.801Z</time>
      </trkpt>
      <trkpt lat="48.13465" lon="-4.22712">
        <ele>80.39737393807</ele>
        <time>2021-06-30T08:52:47.250Z</time>
      </trkpt>
      <trkpt lat="48.13445" lon="-4.22709">
        <ele>81.89559294562</ele>
        <time>2021-06-30T08:53:13.703Z</time>
      </trkpt>
      <trkpt lat="48.13438" lon="-4.22706">
        <ele>83.32866972247</ele>
        <time>2021-06-30T08:53:40.157Z</time>
      </trkpt>
      <trkpt lat="48.13438" lon="-4.22706">
        <ele>84.69220772061</ele>
        <time>2021-06-30T08:54:06.611Z</time>
      </trkpt>
      <trkpt lat="48.13416" lon="-4.22699">
        <ele>85.96307240197</ele>
        <time>2021-06-30T08:54:33.068Z</time>
      </trkpt>
      <trkpt lat="48.13382" lon="-4.22686">
        <ele>87.13638014677</ele>
        <time>2021-06-30T08:54:59.531Z</time>
      </trkpt>
      <trkpt lat="48.13143" lon="-4.22583">
        <ele>88.10345021768</ele>
        <time>2021-06-30T08:55:26.034Z</time>
      </trkpt>
      <trkpt lat="48.12947" lon="-4.22502">
        <ele>89.35269026752</ele>
        <time>2021-06-30T08:55:52.569Z</time>
      </trkpt>
      <trkpt lat="48.12947" lon="-4.22502">
        <ele>90.30664777648</ele>
        <time>2021-06-30T08:56:19.104Z</time>
      </trkpt>
      <trkpt lat="48.12926" lon="-4.22493">
        <ele>91.17862670356</ele>
        <time>2021-06-30T08:56:45.643Z</time>
      </trkpt>
      <trkpt lat="48.12913" lon="-4.22483">
        <ele>91.9533739066</ele>
        <time>2021-06-30T08:57:12.184Z</time>
      </trkpt>
      <trkpt lat="48.12903" lon="-4.22473">
        <ele>92.67316160804</ele>
        <time>2021-06-30T08:57:38.727Z</time>
      </trkpt>
      <trkpt lat="48.12882" lon="-4.22443">
        <ele>93.30801138634</ele>
        <time>2021-06-30T08:58:05.275Z</time>
      </trkpt>
      <trkpt lat="48.1282" lon="-4.2237">
        <ele>93.9232834252</ele>
        <time>2021-06-30T08:58:31.836Z</time>
      </trkpt>
      <trkpt lat="48.12796" lon="-4.22358">
        <ele>94.38726812086</ele>
        <time>2021-06-30T08:58:58.401Z</time>
      </trkpt>
      <trkpt lat="48.12792" lon="-4.22359">
        <ele>94.76830797567</ele>
        <time>2021-06-30T08:59:24.966Z</time>
      </trkpt>
      <trkpt lat="48.12784" lon="-4.22356">
        <ele>95.07863262841</ele>
        <time>2021-06-30T08:59:51.532Z</time>
      </trkpt>
      <trkpt lat="48.12779" lon="-4.22348">
        <ele>95.31493508226</ele>
        <time>2021-06-30T09:00:18.100Z</time>
      </trkpt>
      <trkpt lat="48.12778" lon="-4.22341">
        <ele>95.47500539372</ele>
        <time>2021-06-30T09:00:44.668Z</time>
      </trkpt>
      <trkpt lat="48.12778" lon="-4.22331">
        <ele>95.56367434711</ele>
        <time>2021-06-30T09:01:11.238Z</time>
      </trkpt>
      <trkpt lat="48.12764" lon="-4.22305">
        <ele>95.60922434164</ele>
        <time>2021-06-30T09:01:37.811Z</time>
      </trkpt>
      <trkpt lat="48.12747" lon="-4.22283">
        <ele>95.57965897881</ele>
        <time>2021-06-30T09:02:04.388Z</time>
      </trkpt>
      <trkpt lat="48.12744" lon="-4.22281">
        <ele>95.46381182958</ele>
        <time>2021-06-30T09:02:30.965Z</time>
      </trkpt>
      <trkpt lat="48.12745" lon="-4.22281">
        <ele>95.28817596862</ele>
        <time>2021-06-30T09:02:57.542Z</time>
      </trkpt>
      <trkpt lat="48.12658" lon="-4.22182">
        <ele>95.119226249</ele>
        <time>2021-06-30T09:03:24.137Z</time>
      </trkpt>
      <trkpt lat="48.12625" lon="-4.22135">
        <ele>94.8194408323</ele>
        <time>2021-06-30T09:03:50.739Z</time>
      </trkpt>
      <trkpt lat="48.12601" lon="-4.22095">
        <ele>94.46468120883</ele>
        <time>2021-06-30T09:04:17.347Z</time>
      </trkpt>
      <trkpt lat="48.12576" lon="-4.22061">
        <ele>94.04352018746</ele>
        <time>2021-06-30T09:04:43.960Z</time>
      </trkpt>
      <trkpt lat="48.12554" lon="-4.2204">
        <ele>93.62531129545</ele>
        <time>2021-06-30T09:05:10.577Z</time>
      </trkpt>
      <trkpt lat="48.12554" lon="-4.2204">
        <ele>93.13082093061</ele>
        <time>2021-06-30T09:05:37.194Z</time>
      </trkpt>
      <trkpt lat="48.12527" lon="-4.22018">
        <ele>92.59522447164</ele>
        <time>2021-06-30T09:06:03.816Z</time>
      </trkpt>
      <trkpt lat="48.12506" lon="-4.21997">
        <ele>92.04175072786</ele>
        <time>2021-06-30T09:06:30.442Z</time>
      </trkpt>
      <trkpt lat="48.12474" lon="-4.21962">
        <ele>91.50383838262</ele>
        <time>2021-06-30T09:06:57.075Z</time>
      </trkpt>
      <trkpt lat="48.1246" lon="-4.21939">
        <ele>90.87195870069</ele>
        <time>2021-06-30T09:07:23.711Z</time>
      </trkpt>
      <trkpt lat="48.12451" lon="-4.21924">
        <ele>90.18953745775</ele>
        <time>2021-06-30T09:07:50.349Z</time>
      </trkpt>
      <trkpt lat="48.12438" lon="-4.21892">
        <ele>89.47514375593</ele>
        <time>2021-06-30T09:08:16.991Z</time>
      </trkpt>
      <trkpt lat="48.1243" lon="-4.21875">
        <ele>88.7556606175</ele>
        <time>2021-06-30T09:08:43.635Z</time>
      </trkpt>
      <trkpt lat="48.12417" lon="-4.21845">
        <ele>88.01319486064</ele>
        <time>2021-06-30T09:09:10.283Z</time>
      </trkpt>
      <trkpt lat="48.12417" lon="-4.21839">
        <ele>87.26610972072</ele>
        <time>2021-06-30T09:09:36.932Z</time>
      </trkpt>
      <trkpt lat="48.12422" lon="-4.21769">
        <ele>86.38688864695</ele>
        <time>2021-06-30T09:10:03.588Z</time>
      </trkpt>
      <trkpt lat="48.12426" lon="-4.21671">
        <ele>85.48675210203</ele>
        <time>2021-06-30T09:10:30.255Z</time>
      </trkpt>
      <trkpt lat="48.12427" lon="-4.21644">
        <ele>84.69612781549</ele>
        <time>2021-06-30T09:10:56.925Z</time>
      </trkpt>
      <trkpt lat="48.12428" lon="-4.2163">
        <ele>83.95491181544</ele>
        <time>2021-06-30T09:11:23.596Z</time>
      </trkpt>
      <trkpt lat="48.12424" lon="-4.21621">
        <ele>83.25393934698</ele>
        <time>2021-06-30T09:11:50.268Z</time>
      </trkpt>
      <trkpt lat="48.12413" lon="-4.21606">
        <ele>82.53731386405</ele>
        <time>2021-06-30T09:12:16.943Z</time>
      </trkpt>
      <trkpt lat="48.12325" lon="-4.21484">
        <ele>81.41763348219</ele>
        <time>2021-06-30T09:12:43.637Z</time>
      </trkpt>
      <trkpt lat="48.12299" lon="-4.21459">
        <ele>80.81807589876</ele>
        <time>2021-06-30T09:13:10.336Z</time>
      </trkpt>
      <trkpt lat="48.12265" lon="-4.21432">
        <ele>80.29491210267</ele>
        <time>2021-06-30T09:13:37.041Z</time>
      </trkpt>
      <trkpt lat="48.12239" lon="-4.21419">
        <ele>79.79219217728</ele>
        <time>2021-06-30T09:14:03.750Z</time>
      </trkpt>
      <trkpt lat="48.12134" lon="-4.21385">
        <ele>79.47783270174</ele>
        <time>2021-06-30T09:14:30.477Z</time>
      </trkpt>
      <trkpt lat="48.12127" lon="-4.2138">
        <ele>79.06858100072</ele>
        <time>2021-06-30T09:14:57.205Z</time>
      </trkpt>
      <trkpt lat="48.12122" lon="-4.21374">
        <ele>78.70259328746</ele>
        <time>2021-06-30T09:15:23.934Z</time>
      </trkpt>
      <trkpt lat="48.12111" lon="-4.21373">
        <ele>78.40043432605</ele>
        <time>2021-06-30T09:15:50.665Z</time>
      </trkpt>
      <trkpt lat="48.12081" lon="-4.21364">
        <ele>78.1593056701</ele>
        <time>2021-06-30T09:16:17.401Z</time>
      </trkpt>
      <trkpt lat="48.11995" lon="-4.21326">
        <ele>78.04582046241</ele>
        <time>2021-06-30T09:16:44.151Z</time>
      </trkpt>
      <trkpt lat="48.11995" lon="-4.21326">
        <ele>77.85452731299</ele>
        <time>2021-06-30T09:17:10.901Z</time>
      </trkpt>
      <trkpt lat="48.11955" lon="-4.21316">
        <ele>77.77922876258</ele>
        <time>2021-06-30T09:17:37.658Z</time>
      </trkpt>
      <trkpt lat="48.11827" lon="-4.21296">
        <ele>77.85335236806</ele>
        <time>2021-06-30T09:18:04.435Z</time>
      </trkpt>
      <trkpt lat="48.11708" lon="-4.21263">
        <ele>77.87414504808</ele>
        <time>2021-06-30T09:18:31.231Z</time>
      </trkpt>
      <trkpt lat="48.1169" lon="-4.21258">
        <ele>77.90107480172</ele>
        <time>2021-06-30T09:18:58.030Z</time>
      </trkpt>
      <trkpt lat="48.11601" lon="-4.21231">
        <ele>77.87037524766</ele>
        <time>2021-06-30T09:19:24.844Z</time>
      </trkpt>
      <trkpt lat="48.11573" lon="-4.21222">
        <ele>77.89328089329</ele>
        <time>2021-06-30T09:19:51.663Z</time>
      </trkpt>
      <trkpt lat="48.11553" lon="-4.21209">
        <ele>77.90835655857</ele>
        <time>2021-06-30T09:20:18.485Z</time>
      </trkpt>
      <trkpt lat="48.11542" lon="-4.21199">
        <ele>77.98709626479</ele>
        <time>2021-06-30T09:20:45.309Z</time>
      </trkpt>
      <trkpt lat="48.11522" lon="-4.21171">
        <ele>78.06084766523</ele>
        <time>2021-06-30T09:21:12.137Z</time>
      </trkpt>
      <trkpt lat="48.11492" lon="-4.21099">
        <ele>78.28904202542</ele>
        <time>2021-06-30T09:21:38.974Z</time>
      </trkpt>
      <trkpt lat="48.11428" lon="-4.20929">
        <ele>78.61038733221</ele>
        <time>2021-06-30T09:22:05.832Z</time>
      </trkpt>
      <trkpt lat="48.11391" lon="-4.20857">
        <ele>78.91067973571</ele>
        <time>2021-06-30T09:22:32.700Z</time>
      </trkpt>
      <trkpt lat="48.11379" lon="-4.20838">
        <ele>79.206565451</ele>
        <time>2021-06-30T09:22:59.571Z</time>
      </trkpt>
      <trkpt lat="48.11379" lon="-4.20838">
        <ele>79.50624742134</ele>
        <time>2021-06-30T09:23:26.442Z</time>
      </trkpt>
      <trkpt lat="48.11345" lon="-4.20787">
        <ele>79.76578865562</ele>
        <time>2021-06-30T09:23:53.321Z</time>
      </trkpt>
      <trkpt lat="48.11273" lon="-4.20712">
        <ele>80.04469144274</ele>
        <time>2021-06-30T09:24:20.214Z</time>
      </trkpt>
      <trkpt lat="48.11254" lon="-4.20696">
        <ele>80.35982328674</ele>
        <time>2021-06-30T09:24:47.110Z</time>
      </trkpt>
      <trkpt lat="48.11212" lon="-4.20663">
        <ele>80.59807689949</ele>
        <time>2021-06-30T09:25:14.014Z</time>
      </trkpt>
      <trkpt lat="48.11122" lon="-4.20606">
        <ele>80.99918683864</ele>
        <time>2021-06-30T09:25:40.933Z</time>
      </trkpt>
      <trkpt lat="48.10952" lon="-4.20492">
        <ele>81.96031127136</ele>
        <time>2021-06-30T09:26:07.882Z</time>
      </trkpt>
      <trkpt lat="48.10952" lon="-4.20492">
        <ele>82.43953702884</ele>
        <time>2021-06-30T09:26:34.831Z</time>
      </trkpt>
      <trkpt lat="48.1072" lon="-4.2034">
        <ele>83.63155778842</ele>
        <time>2021-06-30T09:27:01.821Z</time>
      </trkpt>
      <trkpt lat="48.10707" lon="-4.20336">
        <ele>84.14639610559</ele>
        <time>2021-06-30T09:27:28.813Z</time>
      </trkpt>
      <trkpt lat="48.10681" lon="-4.2034">
        <ele>84.66854064572</ele>
        <time>2021-06-30T09:27:55.809Z</time>
      </trkpt>
      <trkpt lat="48.10652" lon="-4.2035">
        <ele>85.19732912987</ele>
        <time>2021-06-30T09:28:22.810Z</time>
      </trkpt>
      <trkpt lat="48.10454" lon="-4.20442">
        <ele>85.43635481423</ele>
        <time>2021-06-30T09:28:49.844Z</time>
      </trkpt>
      <trkpt lat="48.10413" lon="-4.20464">
        <ele>86.04388630495</ele>
        <time>2021-06-30T09:29:16.885Z</time>
      </trkpt>
      <trkpt lat="48.10398" lon="-4.20475">
        <ele>86.63771643734</ele>
        <time>2021-06-30T09:29:43.929Z</time>
      </trkpt>
      <trkpt lat="48.10386" lon="-4.20486">
        <ele>87.24301212434</ele>
        <time>2021-06-30T09:30:10.975Z</time>
      </trkpt>
      <trkpt lat="48.10386" lon="-4.20486">
        <ele>87.90747734625</ele>
        <time>2021-06-30T09:30:38.021Z</time>
      </trkpt>
      <trkpt lat="48.1037" lon="-4.20501">
        <ele>88.57515286023</ele>
        <time>2021-06-30T09:31:05.070Z</time>
      </trkpt>
      <trkpt lat="48.1037" lon="-4.20501">
        <ele>89.30966456368</ele>
        <time>2021-06-30T09:31:32.119Z</time>
      </trkpt>
      <trkpt lat="48.10363" lon="-4.20511">
        <ele>90.07083091664</ele>
        <time>2021-06-30T09:31:59.170Z</time>
      </trkpt>
      <trkpt lat="48.10341" lon="-4.20548">
        <ele>90.90287795688</ele>
        <time>2021-06-30T09:32:26.226Z</time>
      </trkpt>
      <trkpt lat="48.10338" lon="-4.20577">
        <ele>91.77297791671</ele>
        <time>2021-06-30T09:32:53.285Z</time>
      </trkpt>
      <trkpt lat="48.10338" lon="-4.20577">
        <ele>92.69188765227</ele>
        <time>2021-06-30T09:33:20.344Z</time>
      </trkpt>
      <trkpt lat="48.10342" lon="-4.20591">
        <ele>93.64427037765</ele>
        <time>2021-06-30T09:33:47.405Z</time>
      </trkpt>
      <trkpt lat="48.10342" lon="-4.20605">
        <ele>94.67593349753</ele>
        <time>2021-06-30T09:34:14.467Z</time>
      </trkpt>
      <trkpt lat="48.1034" lon="-4.20612">
        <ele>95.77413842154</ele>
        <time>2021-06-30T09:34:41.530Z</time>
      </trkpt>
      <trkpt lat="48.10333" lon="-4.20623">
        <ele>96.96193423949</ele>
        <time>2021-06-30T09:35:08.595Z</time>
      </trkpt>
      <trkpt lat="48.10328" lon="-4.20626">
        <ele>98.21178840612</ele>
        <time>2021-06-30T09:35:35.661Z</time>
      </trkpt>
      <trkpt lat="48.10319" lon="-4.20627">
        <ele>99.56820966534</ele>
        <time>2021-06-30T09:36:02.728Z</time>
      </trkpt>
      <trkpt lat="48.10312" lon="-4.20642">
        <ele>100.9821779072</ele>
        <time>2021-06-30T09:36:29.797Z</time>
      </trkpt>
      <trkpt lat="48.10306" lon="-4.2066">
        <ele>102.47621657259</ele>
        <time>2021-06-30T09:36:56.868Z</time>
      </trkpt>
      <trkpt lat="48.10298" lon="-4.20692">
        <ele>104.06588624009</ele>
        <time>2021-06-30T09:37:23.943Z</time>
      </trkpt>
      <trkpt lat="48.10294" lon="-4.20731">
        <ele>105.72391411431</ele>
        <time>2021-06-30T09:37:51.022Z</time>
      </trkpt>
      <trkpt lat="48.1029" lon="-4.20807">
        <ele>107.42633973789</ele>
        <time>2021-06-30T09:38:18.109Z</time>
      </trkpt>
      <trkpt lat="48.1029" lon="-4.20807">
        <ele>111.03889461171</ele>
        <time>2021-06-30T09:38:45.196Z</time>
      </trkpt>
      <trkpt lat="48.10288" lon="-4.2085">
        <ele>112.94156540895</ele>
        <time>2021-06-30T09:39:12.288Z</time>
      </trkpt>
      <trkpt lat="48.1027" lon="-4.20855">
        <ele>115.00512860164</ele>
        <time>2021-06-30T09:39:39.383Z</time>
      </trkpt>
      <trkpt lat="48.10267" lon="-4.20859">
        <ele>117.08827775142</ele>
        <time>2021-06-30T09:40:06.478Z</time>
      </trkpt>
      <trkpt lat="48.10253" lon="-4.20901">
        <ele>119.15682000621</ele>
        <time>2021-06-30T09:40:33.578Z</time>
      </trkpt>
      <trkpt lat="48.10247" lon="-4.20914">
        <ele>121.37545662741</ele>
        <time>2021-06-30T09:41:00.680Z</time>
      </trkpt>
      <trkpt lat="48.10239" lon="-4.20916">
        <ele>123.68455980626</ele>
        <time>2021-06-30T09:41:27.783Z</time>
      </trkpt>
      <trkpt lat="48.1023" lon="-4.20914">
        <ele>126.07803247561</ele>
        <time>2021-06-30T09:41:54.888Z</time>
      </trkpt>
      <trkpt lat="48.10123" lon="-4.20861">
        <ele>128.99026508463</ele>
        <time>2021-06-30T09:42:22.011Z</time>
      </trkpt>
      <trkpt lat="48.10096" lon="-4.20847">
        <ele>131.56986942249</ele>
        <time>2021-06-30T09:42:49.139Z</time>
      </trkpt>
      <trkpt lat="48.10059" lon="-4.20829">
        <ele>134.23439856126</ele>
        <time>2021-06-30T09:43:16.273Z</time>
      </trkpt>
      <trkpt lat="48.09984" lon="-4.20791">
        <ele>137.12787760202</ele>
        <time>2021-06-30T09:43:43.419Z</time>
      </trkpt>
      <trkpt lat="48.0997" lon="-4.20784">
        <ele>139.77980050254</ele>
        <time>2021-06-30T09:44:10.568Z</time>
      </trkpt>
      <trkpt lat="48.09927" lon="-4.2076">
        <ele>142.64398771527</ele>
        <time>2021-06-30T09:44:37.724Z</time>
      </trkpt>
      <trkpt lat="48.09923" lon="-4.2076">
        <ele>145.24080550239</ele>
        <time>2021-06-30T09:45:04.881Z</time>
      </trkpt>
      <trkpt lat="48.09916" lon="-4.2076">
        <ele>147.84563163138</ele>
        <time>2021-06-30T09:45:32.039Z</time>
      </trkpt>
      <trkpt lat="48.09909" lon="-4.20757">
        <ele>150.4565561714</ele>
        <time>2021-06-30T09:45:59.198Z</time>
      </trkpt>
      <trkpt lat="48.09888" lon="-4.20792">
        <ele>153.03933115137</ele>
        <time>2021-06-30T09:46:26.362Z</time>
      </trkpt>
      <trkpt lat="48.09884" lon="-4.20799">
        <ele>155.56162718304</ele>
        <time>2021-06-30T09:46:53.527Z</time>
      </trkpt>
      <trkpt lat="48.0987" lon="-4.20823">
        <ele>158.05512374552</ele>
        <time>2021-06-30T09:47:20.695Z</time>
      </trkpt>
      <trkpt lat="48.09866" lon="-4.20829">
        <ele>160.49561264985</ele>
        <time>2021-06-30T09:47:47.864Z</time>
      </trkpt>
      <trkpt lat="48.09861" lon="-4.20832">
        <ele>162.8936488383</ele>
        <time>2021-06-30T09:48:15.034Z</time>
      </trkpt>
      <trkpt lat="48.09837" lon="-4.2083">
        <ele>165.29456410234</ele>
        <time>2021-06-30T09:48:42.208Z</time>
      </trkpt>
      <trkpt lat="48.09832" lon="-4.20833">
        <ele>167.5742795876</ele>
        <time>2021-06-30T09:49:09.383Z</time>
      </trkpt>
      <trkpt lat="48.09806" lon="-4.20824">
        <ele>169.8337033879</ele>
        <time>2021-06-30T09:49:36.562Z</time>
      </trkpt>
      <trkpt lat="48.09786" lon="-4.20821">
        <ele>171.98637641636</ele>
        <time>2021-06-30T09:50:03.744Z</time>
      </trkpt>
      <trkpt lat="48.09786" lon="-4.20821">
        <ele>174.00988479128</ele>
        <time>2021-06-30T09:50:30.926Z</time>
      </trkpt>
      <trkpt lat="48.09762" lon="-4.20818">
        <ele>175.97717571761</ele>
        <time>2021-06-30T09:50:58.112Z</time>
      </trkpt>
      <trkpt lat="48.09762" lon="-4.20818">
        <ele>177.80050168983</ele>
        <time>2021-06-30T09:51:25.298Z</time>
      </trkpt>
      <trkpt lat="48.09741" lon="-4.20816">
        <ele>179.54122555739</ele>
        <time>2021-06-30T09:51:52.488Z</time>
      </trkpt>
      <trkpt lat="48.097" lon="-4.20819">
        <ele>181.23297019075</ele>
        <time>2021-06-30T09:52:19.684Z</time>
      </trkpt>
      <trkpt lat="48.09673" lon="-4.20818">
        <ele>182.76597689181</ele>
        <time>2021-06-30T09:52:46.885Z</time>
      </trkpt>
      <trkpt lat="48.09614" lon="-4.20825">
        <ele>184.46710072361</ele>
        <time>2021-06-30T09:53:14.095Z</time>
      </trkpt>
      <trkpt lat="48.09542" lon="-4.20829">
        <ele>185.94227333255</ele>
        <time>2021-06-30T09:53:41.317Z</time>
      </trkpt>
      <trkpt lat="48.09519" lon="-4.20826">
        <ele>187.02305936301</ele>
        <time>2021-06-30T09:54:08.542Z</time>
      </trkpt>
      <trkpt lat="48.09484" lon="-4.20821">
        <ele>188.00205346841</ele>
        <time>2021-06-30T09:54:35.773Z</time>
      </trkpt>
      <trkpt lat="48.0946" lon="-4.20812">
        <ele>188.83977118622</ele>
        <time>2021-06-30T09:55:03.008Z</time>
      </trkpt>
      <trkpt lat="48.09448" lon="-4.20804">
        <ele>189.41582146935</ele>
        <time>2021-06-30T09:55:30.245Z</time>
      </trkpt>
      <trkpt lat="48.09422" lon="-4.20785">
        <ele>189.81600998618</ele>
        <time>2021-06-30T09:55:57.487Z</time>
      </trkpt>
      <trkpt lat="48.09378" lon="-4.20737">
        <ele>189.96382826964</ele>
        <time>2021-06-30T09:56:24.737Z</time>
      </trkpt>
      <trkpt lat="48.0934" lon="-4.20694">
        <ele>189.95430417038</ele>
        <time>2021-06-30T09:56:51.995Z</time>
      </trkpt>
      <trkpt lat="48.09326" lon="-4.20674">
        <ele>189.72756919651</ele>
        <time>2021-06-30T09:57:19.256Z</time>
      </trkpt>
      <trkpt lat="48.09225" lon="-4.20546">
        <ele>189.47006390835</ele>
        <time>2021-06-30T09:57:46.538Z</time>
      </trkpt>
      <trkpt lat="48.09225" lon="-4.20546">
        <ele>188.89122686616</ele>
        <time>2021-06-30T09:58:13.820Z</time>
      </trkpt>
      <trkpt lat="48.0907" lon="-4.20336">
        <ele>188.13402537076</ele>
        <time>2021-06-30T09:58:41.136Z</time>
      </trkpt>
      <trkpt lat="48.09042" lon="-4.20301">
        <ele>187.18616602749</ele>
        <time>2021-06-30T09:59:08.458Z</time>
      </trkpt>
      <trkpt lat="48.09008" lon="-4.20255">
        <ele>186.06991235186</ele>
        <time>2021-06-30T09:59:35.787Z</time>
      </trkpt>
      <trkpt lat="48.08944" lon="-4.20163">
        <ele>184.68697907368</ele>
        <time>2021-06-30T10:00:03.130Z</time>
      </trkpt>
      <trkpt lat="48.08905" lon="-4.20091">
        <ele>183.13393123869</ele>
        <time>2021-06-30T10:00:30.483Z</time>
      </trkpt>
      <trkpt lat="48.08849" lon="-4.19967">
        <ele>181.14260045365</ele>
        <time>2021-06-30T10:00:57.852Z</time>
      </trkpt>
      <trkpt lat="48.0883" lon="-4.19931">
        <ele>179.27473958627</ele>
        <time>2021-06-30T10:01:25.226Z</time>
      </trkpt>
      <trkpt lat="48.08761" lon="-4.19828">
        <ele>177.07571578585</ele>
        <time>2021-06-30T10:01:52.616Z</time>
      </trkpt>
      <trkpt lat="48.08739" lon="-4.19808">
        <ele>175.12379490137</ele>
        <time>2021-06-30T10:02:20.010Z</time>
      </trkpt>
      <trkpt lat="48.08688" lon="-4.19766">
        <ele>173.09247860575</ele>
        <time>2021-06-30T10:02:47.413Z</time>
      </trkpt>
      <trkpt lat="48.08688" lon="-4.19766">
        <ele>171.09409085429</ele>
        <time>2021-06-30T10:03:14.816Z</time>
      </trkpt>
      <trkpt lat="48.08683" lon="-4.19761">
        <ele>169.03067834626</ele>
        <time>2021-06-30T10:03:42.220Z</time>
      </trkpt>
      <trkpt lat="48.08645" lon="-4.19745">
        <ele>166.71654425409</ele>
        <time>2021-06-30T10:04:09.630Z</time>
      </trkpt>
      <trkpt lat="48.08628" lon="-4.19737">
        <ele>164.48784913607</ele>
        <time>2021-06-30T10:04:37.043Z</time>
      </trkpt>
      <trkpt lat="48.08612" lon="-4.19722">
        <ele>162.3115849888</ele>
        <time>2021-06-30T10:05:04.459Z</time>
      </trkpt>
      <trkpt lat="48.08601" lon="-4.19703">
        <ele>160.12818055672</ele>
        <time>2021-06-30T10:05:31.878Z</time>
      </trkpt>
      <trkpt lat="48.08594" lon="-4.19686">
        <ele>157.91748435189</ele>
        <time>2021-06-30T10:05:59.299Z</time>
      </trkpt>
      <trkpt lat="48.08587" lon="-4.19664">
        <ele>155.70776218852</ele>
        <time>2021-06-30T10:06:26.723Z</time>
      </trkpt>
      <trkpt lat="48.08569" lon="-4.19577">
        <ele>153.44116234886</ele>
        <time>2021-06-30T10:06:54.157Z</time>
      </trkpt>
      <trkpt lat="48.08569" lon="-4.19577">
        <ele>151.27463263168</ele>
        <time>2021-06-30T10:07:21.591Z</time>
      </trkpt>
      <trkpt lat="48.08557" lon="-4.19544">
        <ele>149.05786581649</ele>
        <time>2021-06-30T10:07:49.029Z</time>
      </trkpt>
      <trkpt lat="48.08538" lon="-4.19523">
        <ele>146.85164252048</ele>
        <time>2021-06-30T10:08:16.470Z</time>
      </trkpt>
      <trkpt lat="48.08496" lon="-4.19492">
        <ele>144.61773955991</ele>
        <time>2021-06-30T10:08:43.919Z</time>
      </trkpt>
      <trkpt lat="48.08484" lon="-4.19485">
        <ele>142.56664280052</ele>
        <time>2021-06-30T10:09:11.370Z</time>
      </trkpt>
      <trkpt lat="48.08465" lon="-4.1948">
        <ele>140.53877973637</ele>
        <time>2021-06-30T10:09:38.824Z</time>
      </trkpt>
      <trkpt lat="48.0846" lon="-4.19476">
        <ele>138.63333320215</ele>
        <time>2021-06-30T10:10:06.279Z</time>
      </trkpt>
      <trkpt lat="48.08457" lon="-4.19471">
        <ele>136.80621477304</ele>
        <time>2021-06-30T10:10:33.735Z</time>
      </trkpt>
      <trkpt lat="48.08452" lon="-4.19471">
        <ele>135.05509999701</ele>
        <time>2021-06-30T10:11:01.192Z</time>
      </trkpt>
      <trkpt lat="48.08435" lon="-4.19467">
        <ele>133.36010468138</ele>
        <time>2021-06-30T10:11:28.651Z</time>
      </trkpt>
      <trkpt lat="48.08426" lon="-4.19456">
        <ele>131.77172637135</ele>
        <time>2021-06-30T10:11:56.112Z</time>
      </trkpt>
      <trkpt lat="48.08424" lon="-4.19458">
        <ele>130.26526416273</ele>
        <time>2021-06-30T10:12:23.574Z</time>
      </trkpt>
      <trkpt lat="48.08422" lon="-4.19467">
        <ele>128.84139051753</ele>
        <time>2021-06-30T10:12:51.037Z</time>
      </trkpt>
      <trkpt lat="48.08418" lon="-4.19473">
        <ele>127.50430027909</ele>
        <time>2021-06-30T10:13:18.501Z</time>
      </trkpt>
      <trkpt lat="48.08401" lon="-4.19475">
        <ele>126.26256953803</ele>
        <time>2021-06-30T10:13:45.967Z</time>
      </trkpt>
      <trkpt lat="48.08393" lon="-4.19487">
        <ele>125.09009538354</ele>
        <time>2021-06-30T10:14:13.435Z</time>
      </trkpt>
      <trkpt lat="48.08389" lon="-4.19489">
        <ele>124.00346041937</ele>
        <time>2021-06-30T10:14:40.904Z</time>
      </trkpt>
      <trkpt lat="48.08377" lon="-4.19484">
        <ele>123.00195826508</ele>
        <time>2021-06-30T10:15:08.375Z</time>
      </trkpt>
      <trkpt lat="48.08334" lon="-4.19481">
        <ele>122.03168897773</ele>
        <time>2021-06-30T10:15:35.853Z</time>
      </trkpt>
      <trkpt lat="48.08318" lon="-4.19482">
        <ele>121.19975611275</ele>
        <time>2021-06-30T10:16:03.333Z</time>
      </trkpt>
      <trkpt lat="48.08318" lon="-4.19482">
        <ele>120.45583170246</ele>
        <time>2021-06-30T10:16:30.813Z</time>
      </trkpt>
      <trkpt lat="48.08195" lon="-4.19487">
        <ele>119.66311372775</ele>
        <time>2021-06-30T10:16:58.313Z</time>
      </trkpt>
      <trkpt lat="48.08192" lon="-4.19489">
        <ele>119.08224820475</ele>
        <time>2021-06-30T10:17:25.813Z</time>
      </trkpt>
      <trkpt lat="48.08191" lon="-4.19493">
        <ele>118.58544529656</ele>
        <time>2021-06-30T10:17:53.314Z</time>
      </trkpt>
      <trkpt lat="48.08187" lon="-4.19493">
        <ele>118.1679944681</ele>
        <time>2021-06-30T10:18:20.816Z</time>
      </trkpt>
      <trkpt lat="48.08187" lon="-4.19478">
        <ele>117.83936442328</ele>
        <time>2021-06-30T10:18:48.319Z</time>
      </trkpt>
      <trkpt lat="48.08187" lon="-4.19478">
        <ele>117.58104697409</ele>
        <time>2021-06-30T10:19:15.822Z</time>
      </trkpt>
      <trkpt lat="48.08109" lon="-4.19458">
        <ele>117.31023354974</ele>
        <time>2021-06-30T10:19:43.338Z</time>
      </trkpt>
      <trkpt lat="48.08109" lon="-4.19458">
        <ele>117.19828968006</ele>
        <time>2021-06-30T10:20:10.854Z</time>
      </trkpt>
      <trkpt lat="48.07997" lon="-4.19428">
        <ele>117.12340655579</ele>
        <time>2021-06-30T10:20:38.388Z</time>
      </trkpt>
      <trkpt lat="48.0798" lon="-4.19421">
        <ele>117.14481678551</ele>
        <time>2021-06-30T10:21:05.925Z</time>
      </trkpt>
      <trkpt lat="48.07966" lon="-4.19414">
        <ele>117.20692126783</ele>
        <time>2021-06-30T10:21:33.464Z</time>
      </trkpt>
      <trkpt lat="48.07951" lon="-4.19402">
        <ele>117.3352005178</ele>
        <time>2021-06-30T10:22:01.006Z</time>
      </trkpt>
      <trkpt lat="48.07927" lon="-4.19378">
        <ele>117.5748954064</ele>
        <time>2021-06-30T10:22:28.553Z</time>
      </trkpt>
      <trkpt lat="48.07902" lon="-4.19348">
        <ele>117.862606826</ele>
        <time>2021-06-30T10:22:56.105Z</time>
      </trkpt>
      <trkpt lat="48.07888" lon="-4.19328">
        <ele>118.20620214395</ele>
        <time>2021-06-30T10:23:23.660Z</time>
      </trkpt>
      <trkpt lat="48.07845" lon="-4.1925">
        <ele>118.66307974213</ele>
        <time>2021-06-30T10:23:51.226Z</time>
      </trkpt>
      <trkpt lat="48.07831" lon="-4.19133">
        <ele>119.00739558724</ele>
        <time>2021-06-30T10:24:18.804Z</time>
      </trkpt>
      <trkpt lat="48.07826" lon="-4.19119">
        <ele>119.39987180274</ele>
        <time>2021-06-30T10:24:46.384Z</time>
      </trkpt>
      <trkpt lat="48.07822" lon="-4.19113">
        <ele>119.81912922484</ele>
        <time>2021-06-30T10:25:13.965Z</time>
      </trkpt>
      <trkpt lat="48.07807" lon="-4.19146">
        <ele>120.26093980465</ele>
        <time>2021-06-30T10:25:41.550Z</time>
      </trkpt>
      <trkpt lat="48.07789" lon="-4.19178">
        <ele>120.74637444074</ele>
        <time>2021-06-30T10:26:09.140Z</time>
      </trkpt>
      <trkpt lat="48.07786" lon="-4.19187">
        <ele>121.23044894553</ele>
        <time>2021-06-30T10:26:36.731Z</time>
      </trkpt>
      <trkpt lat="48.07785" lon="-4.19199">
        <ele>121.71920621252</ele>
        <time>2021-06-30T10:27:04.323Z</time>
      </trkpt>
      <trkpt lat="48.07786" lon="-4.19224">
        <ele>122.23140342594</ele>
        <time>2021-06-30T10:27:31.918Z</time>
      </trkpt>
      <trkpt lat="48.07786" lon="-4.19237">
        <ele>122.73946724982</ele>
        <time>2021-06-30T10:27:59.514Z</time>
      </trkpt>
      <trkpt lat="48.07777" lon="-4.19307">
        <ele>123.1871605171</ele>
        <time>2021-06-30T10:28:27.118Z</time>
      </trkpt>
      <trkpt lat="48.07766" lon="-4.19355">
        <ele>123.63949432722</ele>
        <time>2021-06-30T10:28:54.727Z</time>
      </trkpt>
      <trkpt lat="48.0776" lon="-4.19383">
        <ele>124.15332656479</ele>
        <time>2021-06-30T10:29:22.339Z</time>
      </trkpt>
      <trkpt lat="48.0776" lon="-4.19383">
        <ele>124.62285492329</ele>
        <time>2021-06-30T10:29:49.951Z</time>
      </trkpt>
      <trkpt lat="48.07751" lon="-4.19418">
        <ele>125.09539548603</ele>
        <time>2021-06-30T10:30:17.567Z</time>
      </trkpt>
      <trkpt lat="48.07751" lon="-4.19418">
        <ele>125.53461154022</ele>
        <time>2021-06-30T10:30:45.183Z</time>
      </trkpt>
      <trkpt lat="48.07741" lon="-4.1946">
        <ele>125.94127753696</ele>
        <time>2021-06-30T10:31:12.804Z</time>
      </trkpt>
      <trkpt lat="48.07734" lon="-4.19484">
        <ele>126.33214902192</ele>
        <time>2021-06-30T10:31:40.428Z</time>
      </trkpt>
      <trkpt lat="48.07734" lon="-4.19486">
        <ele>126.70772380474</ele>
        <time>2021-06-30T10:32:08.052Z</time>
      </trkpt>
      <trkpt lat="48.0773" lon="-4.19491">
        <ele>127.0517116011</ele>
        <time>2021-06-30T10:32:35.677Z</time>
      </trkpt>
      <trkpt lat="48.07728" lon="-4.1949">
        <ele>127.37040930851</ele>
        <time>2021-06-30T10:33:03.303Z</time>
      </trkpt>
      <trkpt lat="48.07712" lon="-4.19489">
        <ele>127.63919129358</ele>
        <time>2021-06-30T10:33:30.931Z</time>
      </trkpt>
      <trkpt lat="48.07679" lon="-4.19491">
        <ele>127.86836814236</ele>
        <time>2021-06-30T10:33:58.564Z</time>
      </trkpt>
      <trkpt lat="48.0766" lon="-4.19489">
        <ele>128.12073970107</ele>
        <time>2021-06-30T10:34:26.200Z</time>
      </trkpt>
      <trkpt lat="48.0763" lon="-4.19477">
        <ele>128.31858582126</ele>
        <time>2021-06-30T10:34:53.841Z</time>
      </trkpt>
      <trkpt lat="48.07569" lon="-4.19451">
        <ele>128.41690975346</ele>
        <time>2021-06-30T10:35:21.493Z</time>
      </trkpt>
      <trkpt lat="48.07569" lon="-4.19451">
        <ele>128.53414641165</ele>
        <time>2021-06-30T10:35:49.145Z</time>
      </trkpt>
      <trkpt lat="48.07538" lon="-4.1943">
        <ele>128.63890728957</ele>
        <time>2021-06-30T10:36:16.802Z</time>
      </trkpt>
      <trkpt lat="48.07477" lon="-4.19396">
        <ele>128.69670037535</ele>
        <time>2021-06-30T10:36:44.469Z</time>
      </trkpt>
      <trkpt lat="48.07449" lon="-4.19381">
        <ele>128.74209741462</ele>
        <time>2021-06-30T10:37:12.141Z</time>
      </trkpt>
      <trkpt lat="48.07448" lon="-4.19379">
        <ele>128.68764720921</ele>
        <time>2021-06-30T10:37:39.813Z</time>
      </trkpt>
      <trkpt lat="48.07426" lon="-4.19366">
        <ele>128.58842914251</ele>
        <time>2021-06-30T10:38:07.489Z</time>
      </trkpt>
      <trkpt lat="48.07384" lon="-4.19325">
        <ele>128.36792878467</ele>
        <time>2021-06-30T10:38:35.173Z</time>
      </trkpt>
      <trkpt lat="48.0737" lon="-4.19309">
        <ele>128.1769728467</ele>
        <time>2021-06-30T10:39:02.860Z</time>
      </trkpt>
      <trkpt lat="48.07349" lon="-4.19289">
        <ele>127.95080127565</ele>
        <time>2021-06-30T10:39:30.551Z</time>
      </trkpt>
      <trkpt lat="48.07339" lon="-4.19285">
        <ele>127.63732274991</ele>
        <time>2021-06-30T10:39:58.244Z</time>
      </trkpt>
      <trkpt lat="48.07314" lon="-4.19281">
        <ele>127.25655778877</ele>
        <time>2021-06-30T10:40:25.941Z</time>
      </trkpt>
      <trkpt lat="48.07304" lon="-4.19276">
        <ele>126.8559471001</ele>
        <time>2021-06-30T10:40:53.639Z</time>
      </trkpt>
      <trkpt lat="48.07302" lon="-4.19279">
        <ele>126.41973082497</ele>
        <time>2021-06-30T10:41:21.338Z</time>
      </trkpt>
      <trkpt lat="48.073" lon="-4.19278">
        <ele>125.94083541902</ele>
        <time>2021-06-30T10:41:49.037Z</time>
      </trkpt>
      <trkpt lat="48.07282" lon="-4.19295">
        <ele>125.3822652287</ele>
        <time>2021-06-30T10:42:16.739Z</time>
      </trkpt>
      <trkpt lat="48.0724" lon="-4.19329">
        <ele>124.81163474234</ele>
        <time>2021-06-30T10:42:44.449Z</time>
      </trkpt>
      <trkpt lat="48.07234" lon="-4.19335">
        <ele>124.20235757088</ele>
        <time>2021-06-30T10:43:12.160Z</time>
      </trkpt>
      <trkpt lat="48.07234" lon="-4.19335">
        <ele>123.54649999491</ele>
        <time>2021-06-30T10:43:39.871Z</time>
      </trkpt>
      <trkpt lat="48.07173" lon="-4.19402">
        <ele>122.7835071963</ele>
        <time>2021-06-30T10:44:07.594Z</time>
      </trkpt>
      <trkpt lat="48.0711" lon="-4.19463">
        <ele>122.00086647367</ele>
        <time>2021-06-30T10:44:35.330Z</time>
      </trkpt>
      <trkpt lat="48.07091" lon="-4.19475">
        <ele>121.25712497808</ele>
        <time>2021-06-30T10:45:03.069Z</time>
      </trkpt>
      <trkpt lat="48.07015" lon="-4.19504">
        <ele>120.35012919404</ele>
        <time>2021-06-30T10:45:30.820Z</time>
      </trkpt>
      <trkpt lat="48.06997" lon="-4.19514">
        <ele>119.41479162822</ele>
        <time>2021-06-30T10:45:58.574Z</time>
      </trkpt>
      <trkpt lat="48.06949" lon="-4.19547">
        <ele>118.5177563463</ele>
        <time>2021-06-30T10:46:26.337Z</time>
      </trkpt>
      <trkpt lat="48.06949" lon="-4.19547">
        <ele>117.59999069078</ele>
        <time>2021-06-30T10:46:54.100Z</time>
      </trkpt>
      <trkpt lat="48.06892" lon="-4.19581">
        <ele>116.76299440087</ele>
        <time>2021-06-30T10:47:21.873Z</time>
      </trkpt>
      <trkpt lat="48.06874" lon="-4.19597">
        <ele>115.77208263424</ele>
        <time>2021-06-30T10:47:49.649Z</time>
      </trkpt>
      <trkpt lat="48.06864" lon="-4.1961">
        <ele>114.73433451824</ele>
        <time>2021-06-30T10:48:17.427Z</time>
      </trkpt>
      <trkpt lat="48.06852" lon="-4.19632">
        <ele>113.65562585897</ele>
        <time>2021-06-30T10:48:45.208Z</time>
      </trkpt>
      <trkpt lat="48.06825" lon="-4.19685">
        <ele>112.55360368803</ele>
        <time>2021-06-30T10:49:12.996Z</time>
      </trkpt>
      <trkpt lat="48.06813" lon="-4.19716">
        <ele>111.45435235624</ele>
        <time>2021-06-30T10:49:40.788Z</time>
      </trkpt>
      <trkpt lat="48.06792" lon="-4.19774">
        <ele>110.28826225077</ele>
        <time>2021-06-30T10:50:08.587Z</time>
      </trkpt>
      <trkpt lat="48.0677" lon="-4.19847">
        <ele>109.17678276685</ele>
        <time>2021-06-30T10:50:36.395Z</time>
      </trkpt>
      <trkpt lat="48.06755" lon="-4.19885">
        <ele>108.01557974014</ele>
        <time>2021-06-30T10:51:04.208Z</time>
      </trkpt>
      <trkpt lat="48.0672" lon="-4.19947">
        <ele>106.69786637209</ele>
        <time>2021-06-30T10:51:32.029Z</time>
      </trkpt>
      <trkpt lat="48.0666" lon="-4.20029">
        <ele>105.47941545731</ele>
        <time>2021-06-30T10:51:59.863Z</time>
      </trkpt>
      <trkpt lat="48.0664" lon="-4.20054">
        <ele>104.37529791651</ele>
        <time>2021-06-30T10:52:27.702Z</time>
      </trkpt>
      <trkpt lat="48.06617" lon="-4.20083">
        <ele>103.29188742059</ele>
        <time>2021-06-30T10:52:55.545Z</time>
      </trkpt>
      <trkpt lat="48.06607" lon="-4.20094">
        <ele>102.20789418793</ele>
        <time>2021-06-30T10:53:23.390Z</time>
      </trkpt>
      <trkpt lat="48.06599" lon="-4.20099">
        <ele>101.13156271497</ele>
        <time>2021-06-30T10:53:51.237Z</time>
      </trkpt>
      <trkpt lat="48.06584" lon="-4.20103">
        <ele>100.06131201054</ele>
        <time>2021-06-30T10:54:19.086Z</time>
      </trkpt>
      <trkpt lat="48.06487" lon="-4.20068">
        <ele>99.09253266279</ele>
        <time>2021-06-30T10:54:46.951Z</time>
      </trkpt>
      <trkpt lat="48.06454" lon="-4.20069">
        <ele>98.09970157059</ele>
        <time>2021-06-30T10:55:14.821Z</time>
      </trkpt>
      <trkpt lat="48.06433" lon="-4.20081">
        <ele>97.08011263061</ele>
        <time>2021-06-30T10:55:42.695Z</time>
      </trkpt>
      <trkpt lat="48.06335" lon="-4.2017">
        <ele>95.83567207242</ele>
        <time>2021-06-30T10:56:10.587Z</time>
      </trkpt>
      <trkpt lat="48.06335" lon="-4.2017">
        <ele>94.91603512777</ele>
        <time>2021-06-30T10:56:38.479Z</time>
      </trkpt>
      <trkpt lat="48.06328" lon="-4.20177">
        <ele>94.009187319</ele>
        <time>2021-06-30T10:57:06.373Z</time>
      </trkpt>
      <trkpt lat="48.06294" lon="-4.20203">
        <ele>93.05820554041</ele>
        <time>2021-06-30T10:57:34.273Z</time>
      </trkpt>
      <trkpt lat="48.06182" lon="-4.20284">
        <ele>92.18281962443</ele>
        <time>2021-06-30T10:58:02.193Z</time>
      </trkpt>
      <trkpt lat="48.06163" lon="-4.20294">
        <ele>91.5062520741</ele>
        <time>2021-06-30T10:58:30.116Z</time>
      </trkpt>
      <trkpt lat="48.06146" lon="-4.203">
        <ele>90.86786535688</ele>
        <time>2021-06-30T10:58:58.042Z</time>
      </trkpt>
      <trkpt lat="48.06139" lon="-4.20301">
        <ele>90.28463442072</ele>
        <time>2021-06-30T10:59:25.969Z</time>
      </trkpt>
      <trkpt lat="48.06139" lon="-4.20301">
        <ele>89.77935102811</ele>
        <time>2021-06-30T10:59:53.896Z</time>
      </trkpt>
      <trkpt lat="48.06048" lon="-4.20318">
        <ele>89.27852858084</ele>
        <time>2021-06-30T11:00:21.838Z</time>
      </trkpt>
      <trkpt lat="48.06036" lon="-4.20318">
        <ele>88.92166668951</ele>
        <time>2021-06-30T11:00:49.782Z</time>
      </trkpt>
      <trkpt lat="48.05955" lon="-4.20301">
        <ele>88.60590454162</ele>
        <time>2021-06-30T11:01:17.739Z</time>
      </trkpt>
      <trkpt lat="48.05933" lon="-4.20301">
        <ele>88.41933051074</ele>
        <time>2021-06-30T11:01:45.699Z</time>
      </trkpt>
      <trkpt lat="48.0591" lon="-4.20308">
        <ele>88.32051556728</ele>
        <time>2021-06-30T11:02:13.663Z</time>
      </trkpt>
      <trkpt lat="48.05891" lon="-4.20317">
        <ele>88.29921189373</ele>
        <time>2021-06-30T11:02:41.630Z</time>
      </trkpt>
      <trkpt lat="48.05865" lon="-4.20336">
        <ele>88.3331650768</ele>
        <time>2021-06-30T11:03:09.602Z</time>
      </trkpt>
      <trkpt lat="48.05842" lon="-4.20352">
        <ele>88.43563324042</ele>
        <time>2021-06-30T11:03:37.578Z</time>
      </trkpt>
      <trkpt lat="48.0582" lon="-4.2036">
        <ele>88.63896700039</ele>
        <time>2021-06-30T11:04:05.557Z</time>
      </trkpt>
      <trkpt lat="48.05793" lon="-4.20364">
        <ele>88.9766052174</ele>
        <time>2021-06-30T11:04:33.541Z</time>
      </trkpt>
      <trkpt lat="48.05785" lon="-4.20363">
        <ele>89.41973493499</ele>
        <time>2021-06-30T11:05:01.526Z</time>
      </trkpt>
      <trkpt lat="48.05778" lon="-4.20363">
        <ele>89.94967032621</ele>
        <time>2021-06-30T11:05:29.512Z</time>
      </trkpt>
      <trkpt lat="48.05555" lon="-4.20359">
        <ele>90.6353142646</ele>
        <time>2021-06-30T11:05:57.534Z</time>
      </trkpt>
      <trkpt lat="48.05526" lon="-4.20355">
        <ele>91.34724961307</ele>
        <time>2021-06-30T11:06:25.561Z</time>
      </trkpt>
      <trkpt lat="48.05406" lon="-4.20343">
        <ele>92.22473555478</ele>
        <time>2021-06-30T11:06:53.607Z</time>
      </trkpt>
      <trkpt lat="48.05338" lon="-4.20335">
        <ele>93.19856786536</ele>
        <time>2021-06-30T11:07:21.664Z</time>
      </trkpt>
      <trkpt lat="48.0528" lon="-4.2033">
        <ele>94.17295287564</ele>
        <time>2021-06-30T11:07:49.730Z</time>
      </trkpt>
      <trkpt lat="48.05265" lon="-4.20331">
        <ele>95.15543832575</ele>
        <time>2021-06-30T11:08:17.798Z</time>
      </trkpt>
      <trkpt lat="48.05239" lon="-4.2034">
        <ele>96.18167352069</ele>
        <time>2021-06-30T11:08:45.871Z</time>
      </trkpt>
      <trkpt lat="48.05228" lon="-4.20345">
        <ele>97.25142482734</ele>
        <time>2021-06-30T11:09:13.946Z</time>
      </trkpt>
      <trkpt lat="48.05203" lon="-4.20359">
        <ele>98.36852330667</ele>
        <time>2021-06-30T11:09:42.025Z</time>
      </trkpt>
      <trkpt lat="48.05065" lon="-4.20461">
        <ele>99.45197818039</ele>
        <time>2021-06-30T11:10:10.129Z</time>
      </trkpt>
      <trkpt lat="48.05017" lon="-4.20498">
        <ele>100.71019903097</ele>
        <time>2021-06-30T11:10:38.241Z</time>
      </trkpt>
      <trkpt lat="48.04892" lon="-4.20595">
        <ele>104.88906306873</ele>
        <time>2021-06-30T11:11:06.376Z</time>
      </trkpt>
      <trkpt lat="48.04892" lon="-4.20595">
        <ele>106.16478908295</ele>
        <time>2021-06-30T11:11:34.511Z</time>
      </trkpt>
      <trkpt lat="48.04832" lon="-4.20639">
        <ele>107.55966400492</ele>
        <time>2021-06-30T11:12:02.656Z</time>
      </trkpt>
      <trkpt lat="48.04786" lon="-4.20669">
        <ele>108.92989294951</ele>
        <time>2021-06-30T11:12:30.809Z</time>
      </trkpt>
      <trkpt lat="48.04743" lon="-4.20686">
        <ele>110.29082799408</ele>
        <time>2021-06-30T11:12:58.970Z</time>
      </trkpt>
      <trkpt lat="48.0472" lon="-4.20693">
        <ele>111.50229056893</ele>
        <time>2021-06-30T11:13:27.134Z</time>
      </trkpt>
      <trkpt lat="48.04667" lon="-4.20702">
        <ele>112.7166239314</ele>
        <time>2021-06-30T11:13:55.307Z</time>
      </trkpt>
      <trkpt lat="48.04639" lon="-4.20703">
        <ele>113.86573469846</ele>
        <time>2021-06-30T11:14:23.484Z</time>
      </trkpt>
      <trkpt lat="48.04608" lon="-4.20701">
        <ele>114.94112019259</ele>
        <time>2021-06-30T11:14:51.666Z</time>
      </trkpt>
      <trkpt lat="48.04549" lon="-4.20689">
        <ele>116.03739359346</ele>
        <time>2021-06-30T11:15:19.858Z</time>
      </trkpt>
      <trkpt lat="48.04453" lon="-4.20659">
        <ele>117.08403082356</ele>
        <time>2021-06-30T11:15:48.066Z</time>
      </trkpt>
      <trkpt lat="48.04414" lon="-4.20649">
        <ele>118.00811321661</ele>
        <time>2021-06-30T11:16:16.280Z</time>
      </trkpt>
      <trkpt lat="48.044" lon="-4.2065">
        <ele>118.81051293504</ele>
        <time>2021-06-30T11:16:44.496Z</time>
      </trkpt>
      <trkpt lat="48.04394" lon="-4.20657">
        <ele>119.54631168786</ele>
        <time>2021-06-30T11:17:12.713Z</time>
      </trkpt>
      <trkpt lat="48.0439" lon="-4.20656">
        <ele>120.21860289265</ele>
        <time>2021-06-30T11:17:40.931Z</time>
      </trkpt>
      <trkpt lat="48.04387" lon="-4.20653">
        <ele>120.81488068875</ele>
        <time>2021-06-30T11:18:09.150Z</time>
      </trkpt>
      <trkpt lat="48.04385" lon="-4.20649">
        <ele>121.33080811353</ele>
        <time>2021-06-30T11:18:37.369Z</time>
      </trkpt>
      <trkpt lat="48.04386" lon="-4.2064">
        <ele>121.76816997094</ele>
        <time>2021-06-30T11:19:05.589Z</time>
      </trkpt>
      <trkpt lat="48.0439" lon="-4.20634">
        <ele>122.11638837966</ele>
        <time>2021-06-30T11:19:33.810Z</time>
      </trkpt>
      <trkpt lat="48.04393" lon="-4.20634">
        <ele>122.36905362702</ele>
        <time>2021-06-30T11:20:02.032Z</time>
      </trkpt>
      <trkpt lat="48.044" lon="-4.20624">
        <ele>122.55570722695</ele>
        <time>2021-06-30T11:20:30.255Z</time>
      </trkpt>
      <trkpt lat="48.04407" lon="-4.20585">
        <ele>122.71238604517</ele>
        <time>2021-06-30T11:20:58.482Z</time>
      </trkpt>
      <trkpt lat="48.04407" lon="-4.20585">
        <ele>122.69222846191</ele>
        <time>2021-06-30T11:21:26.709Z</time>
      </trkpt>
      <trkpt lat="48.04426" lon="-4.20423">
        <ele>122.71434874195</ele>
        <time>2021-06-30T11:21:54.954Z</time>
      </trkpt>
      <trkpt lat="48.04429" lon="-4.20389">
        <ele>122.46723342624</ele>
        <time>2021-06-30T11:22:23.203Z</time>
      </trkpt>
      <trkpt lat="48.04429" lon="-4.2037">
        <ele>122.14560013088</ele>
        <time>2021-06-30T11:22:51.454Z</time>
      </trkpt>
      <trkpt lat="48.04425" lon="-4.20352">
        <ele>121.7485951315</ele>
        <time>2021-06-30T11:23:19.707Z</time>
      </trkpt>
      <trkpt lat="48.04421" lon="-4.20334">
        <ele>121.30225083015</ele>
        <time>2021-06-30T11:23:47.962Z</time>
      </trkpt>
      <trkpt lat="48.04414" lon="-4.20312">
        <ele>120.78858821395</ele>
        <time>2021-06-30T11:24:16.220Z</time>
      </trkpt>
      <trkpt lat="48.04385" lon="-4.20256">
        <ele>120.25975170306</ele>
        <time>2021-06-30T11:24:44.485Z</time>
      </trkpt>
      <trkpt lat="48.04388" lon="-4.20253">
        <ele>119.64448203677</ele>
        <time>2021-06-30T11:25:12.751Z</time>
      </trkpt>
      <trkpt lat="48.04388" lon="-4.20253">
        <ele>118.98958552885</ele>
        <time>2021-06-30T11:25:41.017Z</time>
      </trkpt>
      <trkpt lat="48.044" lon="-4.20237">
        <ele>118.25113351602</ele>
        <time>2021-06-30T11:26:09.285Z</time>
      </trkpt>
      <trkpt lat="48.04416" lon="-4.20221">
        <ele>117.46557888788</ele>
        <time>2021-06-30T11:26:37.556Z</time>
      </trkpt>
      <trkpt lat="48.04445" lon="-4.202">
        <ele>116.63804153692</ele>
        <time>2021-06-30T11:27:05.833Z</time>
      </trkpt>
      <trkpt lat="48.04477" lon="-4.20187">
        <ele>115.75335079724</ele>
        <time>2021-06-30T11:27:34.115Z</time>
      </trkpt>
      <trkpt lat="48.04505" lon="-4.20183">
        <ele>114.8975751291</ele>
        <time>2021-06-30T11:28:02.401Z</time>
      </trkpt>
      <trkpt lat="48.04522" lon="-4.20177">
        <ele>114.14031736706</ele>
        <time>2021-06-30T11:28:30.690Z</time>
      </trkpt>
      <trkpt lat="48.04533" lon="-4.20165">
        <ele>113.43403471507</ele>
        <time>2021-06-30T11:28:58.981Z</time>
      </trkpt>
      <trkpt lat="48.04548" lon="-4.2014">
        <ele>112.74864054731</ele>
        <time>2021-06-30T11:29:27.276Z</time>
      </trkpt>
      <trkpt lat="48.04559" lon="-4.20105">
        <ele>112.06563113266</ele>
        <time>2021-06-30T11:29:55.575Z</time>
      </trkpt>
      <trkpt lat="48.04568" lon="-4.20073">
        <ele>111.43742835662</ele>
        <time>2021-06-30T11:30:23.878Z</time>
      </trkpt>
      <trkpt lat="48.04568" lon="-4.20073">
        <ele>110.95324669067</ele>
        <time>2021-06-30T11:30:52.181Z</time>
      </trkpt>
      <trkpt lat="48.04591" lon="-4.19957">
        <ele>110.27462344431</ele>
        <time>2021-06-30T11:31:20.497Z</time>
      </trkpt>
      <trkpt lat="48.04597" lon="-4.19926">
        <ele>109.93559394362</ele>
        <time>2021-06-30T11:31:48.816Z</time>
      </trkpt>
      <trkpt lat="48.0462" lon="-4.19809">
        <ele>109.53023257543</ele>
        <time>2021-06-30T11:32:17.148Z</time>
      </trkpt>
      <trkpt lat="48.04637" lon="-4.19745">
        <ele>109.31475688195</ele>
        <time>2021-06-30T11:32:45.488Z</time>
      </trkpt>
      <trkpt lat="48.04655" lon="-4.19694">
        <ele>109.21888682879</ele>
        <time>2021-06-30T11:33:13.834Z</time>
      </trkpt>
      <trkpt lat="48.04637" lon="-4.19745">
        <ele>109.31475688195</ele>
        <time>2021-06-30T11:33:42.186Z</time>
      </trkpt>
      <trkpt lat="48.0462" lon="-4.19809">
        <ele>109.53023257543</ele>
        <time>2021-06-30T11:34:10.546Z</time>
      </trkpt>
      <trkpt lat="48.04597" lon="-4.19926">
        <ele>109.93559394362</ele>
        <time>2021-06-30T11:34:38.919Z</time>
      </trkpt>
      <trkpt lat="48.04591" lon="-4.19957">
        <ele>110.27462344431</ele>
        <time>2021-06-30T11:35:07.295Z</time>
      </trkpt>
      <trkpt lat="48.04568" lon="-4.20073">
        <ele>110.95324669067</ele>
        <time>2021-06-30T11:35:35.684Z</time>
      </trkpt>
      <trkpt lat="48.04568" lon="-4.20073">
        <ele>111.43742835662</ele>
        <time>2021-06-30T11:36:04.073Z</time>
      </trkpt>
      <trkpt lat="48.04559" lon="-4.20105">
        <ele>112.06563113266</ele>
        <time>2021-06-30T11:36:32.466Z</time>
      </trkpt>
      <trkpt lat="48.04548" lon="-4.2014">
        <ele>112.74864054731</ele>
        <time>2021-06-30T11:37:00.863Z</time>
      </trkpt>
      <trkpt lat="48.04533" lon="-4.20165">
        <ele>113.43403471507</ele>
        <time>2021-06-30T11:37:29.264Z</time>
      </trkpt>
      <trkpt lat="48.04522" lon="-4.20177">
        <ele>114.14031736706</ele>
        <time>2021-06-30T11:37:57.667Z</time>
      </trkpt>
      <trkpt lat="48.04505" lon="-4.20183">
        <ele>114.8975751291</ele>
        <time>2021-06-30T11:38:26.073Z</time>
      </trkpt>
      <trkpt lat="48.04477" lon="-4.20187">
        <ele>115.75335079724</ele>
        <time>2021-06-30T11:38:54.483Z</time>
      </trkpt>
      <trkpt lat="48.04445" lon="-4.202">
        <ele>116.63804153692</ele>
        <time>2021-06-30T11:39:22.899Z</time>
      </trkpt>
      <trkpt lat="48.04416" lon="-4.20221">
        <ele>117.46557888788</ele>
        <time>2021-06-30T11:39:51.320Z</time>
      </trkpt>
      <trkpt lat="48.044" lon="-4.20237">
        <ele>118.25113351602</ele>
        <time>2021-06-30T11:40:19.744Z</time>
      </trkpt>
      <trkpt lat="48.04388" lon="-4.20253">
        <ele>118.98958552885</ele>
        <time>2021-06-30T11:40:48.170Z</time>
      </trkpt>
      <trkpt lat="48.04388" lon="-4.20253">
        <ele>119.64448203677</ele>
        <time>2021-06-30T11:41:16.596Z</time>
      </trkpt>
      <trkpt lat="48.04385" lon="-4.20256">
        <ele>120.25975170306</ele>
        <time>2021-06-30T11:41:45.023Z</time>
      </trkpt>
      <trkpt lat="48.04414" lon="-4.20312">
        <ele>120.78858821395</ele>
        <time>2021-06-30T11:42:13.458Z</time>
      </trkpt>
      <trkpt lat="48.04421" lon="-4.20334">
        <ele>121.30225083015</ele>
        <time>2021-06-30T11:42:41.895Z</time>
      </trkpt>
      <trkpt lat="48.04425" lon="-4.20352">
        <ele>121.7485951315</ele>
        <time>2021-06-30T11:43:10.334Z</time>
      </trkpt>
      <trkpt lat="48.04429" lon="-4.2037">
        <ele>122.14560013088</ele>
        <time>2021-06-30T11:43:38.775Z</time>
      </trkpt>
      <trkpt lat="48.04429" lon="-4.20389">
        <ele>122.46723342624</ele>
        <time>2021-06-30T11:44:07.218Z</time>
      </trkpt>
      <trkpt lat="48.04426" lon="-4.20423">
        <ele>122.71434874195</ele>
        <time>2021-06-30T11:44:35.665Z</time>
      </trkpt>
      <trkpt lat="48.04407" lon="-4.20585">
        <ele>122.69222846191</ele>
        <time>2021-06-30T11:45:04.130Z</time>
      </trkpt>
      <trkpt lat="48.04407" lon="-4.20585">
        <ele>122.71238604517</ele>
        <time>2021-06-30T11:45:32.595Z</time>
      </trkpt>
      <trkpt lat="48.044" lon="-4.20624">
        <ele>122.55570722695</ele>
        <time>2021-06-30T11:46:01.064Z</time>
      </trkpt>
      <trkpt lat="48.04399" lon="-4.20637">
        <ele>121.78816616629</ele>
        <time>2021-06-30T11:46:29.534Z</time>
      </trkpt>
      <trkpt lat="48.044" lon="-4.2064">
        <ele>121.68594115534</ele>
        <time>2021-06-30T11:46:58.005Z</time>
      </trkpt>
      <trkpt lat="48.044" lon="-4.2065">
        <ele>118.81051293504</ele>
        <time>2021-06-30T11:47:26.477Z</time>
      </trkpt>
      <trkpt lat="48.04394" lon="-4.20657">
        <ele>119.54631168786</ele>
        <time>2021-06-30T11:47:54.950Z</time>
      </trkpt>
      <trkpt lat="48.0439" lon="-4.20656">
        <ele>120.21860289265</ele>
        <time>2021-06-30T11:48:23.424Z</time>
      </trkpt>
      <trkpt lat="48.04387" lon="-4.20653">
        <ele>120.81488068875</ele>
        <time>2021-06-30T11:48:51.898Z</time>
      </trkpt>
      <trkpt lat="48.04385" lon="-4.20649">
        <ele>121.33080811353</ele>
        <time>2021-06-30T11:49:20.373Z</time>
      </trkpt>
      <trkpt lat="48.04372" lon="-4.20643">
        <ele>119.6231524027</ele>
        <time>2021-06-30T11:49:48.850Z</time>
      </trkpt>
      <trkpt lat="48.04325" lon="-4.20639">
        <ele>118.95560840924</ele>
        <time>2021-06-30T11:50:17.335Z</time>
      </trkpt>
      <trkpt lat="48.04304" lon="-4.20634">
        <ele>118.23848459343</ele>
        <time>2021-06-30T11:50:45.823Z</time>
      </trkpt>
      <trkpt lat="48.04287" lon="-4.20629">
        <ele>117.50022546914</ele>
        <time>2021-06-30T11:51:14.314Z</time>
      </trkpt>
      <trkpt lat="48.04273" lon="-4.20618">
        <ele>116.78750279494</ele>
        <time>2021-06-30T11:51:42.807Z</time>
      </trkpt>
      <trkpt lat="48.04266" lon="-4.20611">
        <ele>116.01804629769</ele>
        <time>2021-06-30T11:52:11.302Z</time>
      </trkpt>
      <trkpt lat="48.04254" lon="-4.20599">
        <ele>115.21685415232</ele>
        <time>2021-06-30T11:52:39.799Z</time>
      </trkpt>
      <trkpt lat="48.04254" lon="-4.20599">
        <ele>114.38965620064</ele>
        <time>2021-06-30T11:53:08.296Z</time>
      </trkpt>
      <trkpt lat="48.04248" lon="-4.20594">
        <ele>113.5278722913</ele>
        <time>2021-06-30T11:53:36.794Z</time>
      </trkpt>
      <trkpt lat="48.04225" lon="-4.20568">
        <ele>112.63105264067</ele>
        <time>2021-06-30T11:54:05.297Z</time>
      </trkpt>
      <trkpt lat="48.0417" lon="-4.20504">
        <ele>111.56302025736</ele>
        <time>2021-06-30T11:54:33.811Z</time>
      </trkpt>
      <trkpt lat="48.04165" lon="-4.20494">
        <ele>110.66455681353</ele>
        <time>2021-06-30T11:55:02.326Z</time>
      </trkpt>
      <trkpt lat="48.0416" lon="-4.20486">
        <ele>109.76544685459</ele>
        <time>2021-06-30T11:55:30.842Z</time>
      </trkpt>
      <trkpt lat="48.04155" lon="-4.20483">
        <ele>108.86643531088</ele>
        <time>2021-06-30T11:55:59.359Z</time>
      </trkpt>
      <trkpt lat="48.04151" lon="-4.20479">
        <ele>107.98114014253</ele>
        <time>2021-06-30T11:56:27.877Z</time>
      </trkpt>
      <trkpt lat="48.04125" lon="-4.2045">
        <ele>107.06165217402</ele>
        <time>2021-06-30T11:56:56.400Z</time>
      </trkpt>
      <trkpt lat="48.04116" lon="-4.20441">
        <ele>106.2389235978</ele>
        <time>2021-06-30T11:57:24.925Z</time>
      </trkpt>
      <trkpt lat="48.04088" lon="-4.20405">
        <ele>105.37508609305</ele>
        <time>2021-06-30T11:57:53.456Z</time>
      </trkpt>
      <trkpt lat="48.04076" lon="-4.20388">
        <ele>104.61697270594</ele>
        <time>2021-06-30T11:58:21.990Z</time>
      </trkpt>
      <trkpt lat="48.04064" lon="-4.20368">
        <ele>103.93204751854</ele>
        <time>2021-06-30T11:58:50.526Z</time>
      </trkpt>
      <trkpt lat="48.04061" lon="-4.20359">
        <ele>103.33048676832</ele>
        <time>2021-06-30T11:59:19.063Z</time>
      </trkpt>
      <trkpt lat="48.04061" lon="-4.20359">
        <ele>102.7973809302</ele>
        <time>2021-06-30T11:59:47.600Z</time>
      </trkpt>
      <trkpt lat="48.04048" lon="-4.2033">
        <ele>102.31804429206</ele>
        <time>2021-06-30T12:00:16.141Z</time>
      </trkpt>
      <trkpt lat="48.04038" lon="-4.203">
        <ele>101.96445001203</ele>
        <time>2021-06-30T12:00:44.686Z</time>
      </trkpt>
      <trkpt lat="48.04025" lon="-4.20256">
        <ele>101.63996468032</ele>
        <time>2021-06-30T12:01:13.236Z</time>
      </trkpt>
      <trkpt lat="48.04" lon="-4.20164">
        <ele>101.35527818249</ele>
        <time>2021-06-30T12:01:41.797Z</time>
      </trkpt>
      <trkpt lat="48.03981" lon="-4.2011">
        <ele>101.29799786709</ele>
        <time>2021-06-30T12:02:10.364Z</time>
      </trkpt>
      <trkpt lat="48.03967" lon="-4.2008">
        <ele>101.26552840718</ele>
        <time>2021-06-30T12:02:38.935Z</time>
      </trkpt>
      <trkpt lat="48.03949" lon="-4.20048">
        <ele>101.29193765987</ele>
        <time>2021-06-30T12:03:07.511Z</time>
      </trkpt>
      <trkpt lat="48.03928" lon="-4.20017">
        <ele>101.47323749333</ele>
        <time>2021-06-30T12:03:36.091Z</time>
      </trkpt>
      <trkpt lat="48.03918" lon="-4.20004">
        <ele>101.88130915441</ele>
        <time>2021-06-30T12:04:04.673Z</time>
      </trkpt>
      <trkpt lat="48.03918" lon="-4.20004">
        <ele>102.45208926437</ele>
        <time>2021-06-30T12:04:33.255Z</time>
      </trkpt>
      <trkpt lat="48.03749" lon="-4.19758">
        <ele>103.28275462704</ele>
        <time>2021-06-30T12:05:01.875Z</time>
      </trkpt>
      <trkpt lat="48.03685" lon="-4.19663">
        <ele>104.31848402106</ele>
        <time>2021-06-30T12:05:30.510Z</time>
      </trkpt>
      <trkpt lat="48.03684" lon="-4.19674">
        <ele>105.07975426303</ele>
        <time>2021-06-30T12:05:59.146Z</time>
      </trkpt>
      <trkpt lat="48.03684" lon="-4.19674">
        <ele>106.95739813965</ele>
        <time>2021-06-30T12:06:27.782Z</time>
      </trkpt>
      <trkpt lat="48.03685" lon="-4.19663">
        <ele>108.06290364252</ele>
        <time>2021-06-30T12:06:56.419Z</time>
      </trkpt>
      <trkpt lat="48.0365" lon="-4.19617">
        <ele>109.39301286668</ele>
        <time>2021-06-30T12:07:25.064Z</time>
      </trkpt>
      <trkpt lat="48.03625" lon="-4.1959">
        <ele>110.74747359862</ele>
        <time>2021-06-30T12:07:53.714Z</time>
      </trkpt>
      <trkpt lat="48.03607" lon="-4.19574">
        <ele>112.02858324216</ele>
        <time>2021-06-30T12:08:22.367Z</time>
      </trkpt>
      <trkpt lat="48.0356" lon="-4.19544">
        <ele>113.36477077314</ele>
        <time>2021-06-30T12:08:51.028Z</time>
      </trkpt>
      <trkpt lat="48.03532" lon="-4.19534">
        <ele>114.76873313848</ele>
        <time>2021-06-30T12:09:19.694Z</time>
      </trkpt>
      <trkpt lat="48.03506" lon="-4.19531">
        <ele>116.24334338189</ele>
        <time>2021-06-30T12:09:48.364Z</time>
      </trkpt>
      <trkpt lat="48.03483" lon="-4.19532">
        <ele>117.74817444073</ele>
        <time>2021-06-30T12:10:17.037Z</time>
      </trkpt>
      <trkpt lat="48.03452" lon="-4.1954">
        <ele>119.26625203833</ele>
        <time>2021-06-30T12:10:45.716Z</time>
      </trkpt>
      <trkpt lat="48.03396" lon="-4.19562">
        <ele>120.83726529647</ele>
        <time>2021-06-30T12:11:14.404Z</time>
      </trkpt>
      <trkpt lat="48.03336" lon="-4.19579">
        <ele>122.38392302734</ele>
        <time>2021-06-30T12:11:43.102Z</time>
      </trkpt>
      <trkpt lat="48.03232" lon="-4.19587">
        <ele>123.73869106367</ele>
        <time>2021-06-30T12:12:11.816Z</time>
      </trkpt>
      <trkpt lat="48.03209" lon="-4.19588">
        <ele>125.0370569508</ele>
        <time>2021-06-30T12:12:40.534Z</time>
      </trkpt>
      <trkpt lat="48.03181" lon="-4.1959">
        <ele>126.34752873389</ele>
        <time>2021-06-30T12:13:09.256Z</time>
      </trkpt>
      <trkpt lat="48.03068" lon="-4.1962">
        <ele>127.59601335501</ele>
        <time>2021-06-30T12:13:37.997Z</time>
      </trkpt>
      <trkpt lat="48.03019" lon="-4.19629">
        <ele>128.75087115404</ele>
        <time>2021-06-30T12:14:06.746Z</time>
      </trkpt>
      <trkpt lat="48.03004" lon="-4.19635">
        <ele>129.93677280337</ele>
        <time>2021-06-30T12:14:35.497Z</time>
      </trkpt>
      <trkpt lat="48.02974" lon="-4.19649">
        <ele>131.07821130162</ele>
        <time>2021-06-30T12:15:04.253Z</time>
      </trkpt>
      <trkpt lat="48.02932" lon="-4.19662">
        <ele>132.1772321859</ele>
        <time>2021-06-30T12:15:33.016Z</time>
      </trkpt>
      <trkpt lat="48.02834" lon="-4.19668">
        <ele>133.35499088916</ele>
        <time>2021-06-30T12:16:01.795Z</time>
      </trkpt>
      <trkpt lat="48.02806" lon="-4.19676">
        <ele>134.41057924448</ele>
        <time>2021-06-30T12:16:30.578Z</time>
      </trkpt>
      <trkpt lat="48.02806" lon="-4.19676">
        <ele>135.36205663159</ele>
        <time>2021-06-30T12:16:59.361Z</time>
      </trkpt>
      <trkpt lat="48.02698" lon="-4.19724">
        <ele>136.42049207168</ele>
        <time>2021-06-30T12:17:28.162Z</time>
      </trkpt>
      <trkpt lat="48.02669" lon="-4.19732">
        <ele>137.1243182912</ele>
        <time>2021-06-30T12:17:56.968Z</time>
      </trkpt>
      <trkpt lat="48.02656" lon="-4.19735">
        <ele>137.81615782819</ele>
        <time>2021-06-30T12:18:25.776Z</time>
      </trkpt>
      <trkpt lat="48.02636" lon="-4.19735">
        <ele>138.46451647818</ele>
        <time>2021-06-30T12:18:54.587Z</time>
      </trkpt>
      <trkpt lat="48.02591" lon="-4.19723">
        <ele>139.10352279987</ele>
        <time>2021-06-30T12:19:23.406Z</time>
      </trkpt>
      <trkpt lat="48.02562" lon="-4.19714">
        <ele>139.66171994763</ele>
        <time>2021-06-30T12:19:52.230Z</time>
      </trkpt>
      <trkpt lat="48.02547" lon="-4.19712">
        <ele>140.0875445323</ele>
        <time>2021-06-30T12:20:21.056Z</time>
      </trkpt>
      <trkpt lat="48.02529" lon="-4.19713">
        <ele>140.41651112689</ele>
        <time>2021-06-30T12:20:49.885Z</time>
      </trkpt>
      <trkpt lat="48.0251" lon="-4.1972">
        <ele>140.63888492247</ele>
        <time>2021-06-30T12:21:18.717Z</time>
      </trkpt>
      <trkpt lat="48.02493" lon="-4.1973">
        <ele>140.75961305109</ele>
        <time>2021-06-30T12:21:47.552Z</time>
      </trkpt>
      <trkpt lat="48.02477" lon="-4.19735">
        <ele>140.83797690604</ele>
        <time>2021-06-30T12:22:16.389Z</time>
      </trkpt>
      <trkpt lat="48.02464" lon="-4.19734">
        <ele>140.87141728855</ele>
        <time>2021-06-30T12:22:45.229Z</time>
      </trkpt>
      <trkpt lat="48.02439" lon="-4.19728">
        <ele>140.85526135433</ele>
        <time>2021-06-30T12:23:14.073Z</time>
      </trkpt>
      <trkpt lat="48.02416" lon="-4.1973">
        <ele>140.76969756716</ele>
        <time>2021-06-30T12:23:42.920Z</time>
      </trkpt>
      <trkpt lat="48.024" lon="-4.19734">
        <ele>140.68496644226</ele>
        <time>2021-06-30T12:24:11.770Z</time>
      </trkpt>
      <trkpt lat="48.02366" lon="-4.19747">
        <ele>140.48159404521</ele>
        <time>2021-06-30T12:24:40.625Z</time>
      </trkpt>
      <trkpt lat="48.02346" lon="-4.1975">
        <ele>140.43977007768</ele>
        <time>2021-06-30T12:25:09.484Z</time>
      </trkpt>
      <trkpt lat="48.02334" lon="-4.19749">
        <ele>140.47846810982</ele>
        <time>2021-06-30T12:25:38.345Z</time>
      </trkpt>
      <trkpt lat="48.02296" lon="-4.19734">
        <ele>140.54683641195</ele>
        <time>2021-06-30T12:26:07.212Z</time>
      </trkpt>
      <trkpt lat="48.02232" lon="-4.19713">
        <ele>140.56754268283</ele>
        <time>2021-06-30T12:26:36.089Z</time>
      </trkpt>
      <trkpt lat="48.02203" lon="-4.19707">
        <ele>140.79213366229</ele>
        <time>2021-06-30T12:27:04.971Z</time>
      </trkpt>
      <trkpt lat="48.02193" lon="-4.19707">
        <ele>141.13454034845</ele>
        <time>2021-06-30T12:27:33.855Z</time>
      </trkpt>
      <trkpt lat="48.02092" lon="-4.19714">
        <ele>141.51787785864</ele>
        <time>2021-06-30T12:28:02.755Z</time>
      </trkpt>
      <trkpt lat="48.02077" lon="-4.19717">
        <ele>142.03220630887</ele>
        <time>2021-06-30T12:28:31.657Z</time>
      </trkpt>
      <trkpt lat="48.02065" lon="-4.19721">
        <ele>142.62084575163</ele>
        <time>2021-06-30T12:29:00.561Z</time>
      </trkpt>
      <trkpt lat="48.02017" lon="-4.19757">
        <ele>143.33647947047</ele>
        <time>2021-06-30T12:29:29.474Z</time>
      </trkpt>
      <trkpt lat="48.02002" lon="-4.19765">
        <ele>144.03007477682</ele>
        <time>2021-06-30T12:29:58.390Z</time>
      </trkpt>
      <trkpt lat="48.01981" lon="-4.1977">
        <ele>144.77237403742</ele>
        <time>2021-06-30T12:30:27.309Z</time>
      </trkpt>
      <trkpt lat="48.01893" lon="-4.19775">
        <ele>145.64318569238</ele>
        <time>2021-06-30T12:30:56.242Z</time>
      </trkpt>
      <trkpt lat="48.01845" lon="-4.19781">
        <ele>146.32603561812</ele>
        <time>2021-06-30T12:31:25.183Z</time>
      </trkpt>
      <trkpt lat="48.01824" lon="-4.19784">
        <ele>146.77917953482</ele>
        <time>2021-06-30T12:31:54.127Z</time>
      </trkpt>
      <trkpt lat="48.0176" lon="-4.198">
        <ele>147.22642977167</ele>
        <time>2021-06-30T12:32:23.081Z</time>
      </trkpt>
      <trkpt lat="48.0176" lon="-4.198">
        <ele>147.62342985452</ele>
        <time>2021-06-30T12:32:52.035Z</time>
      </trkpt>
      <trkpt lat="48.01686" lon="-4.19827">
        <ele>148.10897955203</ele>
        <time>2021-06-30T12:33:21.002Z</time>
      </trkpt>
      <trkpt lat="48.01608" lon="-4.1986">
        <ele>148.47842176872</ele>
        <time>2021-06-30T12:33:49.982Z</time>
      </trkpt>
      <trkpt lat="48.01563" lon="-4.19871">
        <ele>148.64920968278</ele>
        <time>2021-06-30T12:34:18.969Z</time>
      </trkpt>
      <trkpt lat="48.01493" lon="-4.19875">
        <ele>148.79831605367</ele>
        <time>2021-06-30T12:34:47.967Z</time>
      </trkpt>
      <trkpt lat="48.01461" lon="-4.19869">
        <ele>149.21592465891</ele>
        <time>2021-06-30T12:35:16.970Z</time>
      </trkpt>
      <trkpt lat="48.01432" lon="-4.19859">
        <ele>149.48924555591</ele>
        <time>2021-06-30T12:35:45.978Z</time>
      </trkpt>
      <trkpt lat="48.01394" lon="-4.19842">
        <ele>149.5815655876</ele>
        <time>2021-06-30T12:36:14.992Z</time>
      </trkpt>
      <trkpt lat="48.0134" lon="-4.19802">
        <ele>149.57424336381</ele>
        <time>2021-06-30T12:36:44.016Z</time>
      </trkpt>
      <trkpt lat="48.01299" lon="-4.19759">
        <ele>149.44282455517</ele>
        <time>2021-06-30T12:37:13.048Z</time>
      </trkpt>
      <trkpt lat="48.01299" lon="-4.19759">
        <ele>149.34104769058</ele>
        <time>2021-06-30T12:37:42.080Z</time>
      </trkpt>
      <trkpt lat="48.01257" lon="-4.19713">
        <ele>149.12949089327</ele>
        <time>2021-06-30T12:38:11.120Z</time>
      </trkpt>
      <trkpt lat="48.01244" lon="-4.19708">
        <ele>148.98096707438</ele>
        <time>2021-06-30T12:38:40.163Z</time>
      </trkpt>
      <trkpt lat="48.0123" lon="-4.19705">
        <ele>148.83658279529</ele>
        <time>2021-06-30T12:39:09.208Z</time>
      </trkpt>
      <trkpt lat="48.01219" lon="-4.19713">
        <ele>148.70236990603</ele>
        <time>2021-06-30T12:39:38.255Z</time>
      </trkpt>
      <trkpt lat="48.01215" lon="-4.1972">
        <ele>148.56799800307</ele>
        <time>2021-06-30T12:40:07.303Z</time>
      </trkpt>
      <trkpt lat="48.01214" lon="-4.19729">
        <ele>148.42039159973</ele>
        <time>2021-06-30T12:40:36.352Z</time>
      </trkpt>
      <trkpt lat="48.01207" lon="-4.19744">
        <ele>148.2495706213</ele>
        <time>2021-06-30T12:41:05.403Z</time>
      </trkpt>
      <trkpt lat="48.01201" lon="-4.19751">
        <ele>148.08215570942</ele>
        <time>2021-06-30T12:41:34.455Z</time>
      </trkpt>
      <trkpt lat="48.01195" lon="-4.19756">
        <ele>147.929845863</ele>
        <time>2021-06-30T12:42:03.508Z</time>
      </trkpt>
      <trkpt lat="48.01178" lon="-4.19757">
        <ele>147.78119350606</ele>
        <time>2021-06-30T12:42:32.564Z</time>
      </trkpt>
      <trkpt lat="48.01173" lon="-4.19754">
        <ele>147.68260242803</ele>
        <time>2021-06-30T12:43:01.621Z</time>
      </trkpt>
    </trkseg>
  </trk>
</gpx>